<?xml version="1.0" encoding="UTF-8"?>
<gpx version="1.1" creator="https://www.youtrack.es" xsi:schemaLocation="http://www.topografix.com/GPX/1/1 http://www.topografix.com/GPX/1/1/gpx.xsd http://www.garmin.com/xmlschemas/GpxExtensions/v3 http://www.garmin.com/xmlschemas/GpxExtensionsv3.xsd http://www.garmin.com/xmlschemas/TrackPointExtension/v1 http://www.garmin.com/xmlschemas/TrackPointExtensionv1.xsd" xmlns:gpxtpx="http://www.garmin.com/xmlschemas/TrackPointExtension/v1" xmlns:gpxx="http://www.garmin.com/xmlschemas/GpxExtensions/v3" xmlns:xsi="http://www.w3.org/2001/XMLSchema-instance">
  <metadata>
    <link href="https://www.youtrack.es">
      <text>YouTrack.es</text>
    </link>
    <time>2026-05-09T02:41:19Z</time>
  </metadata>
  <trk>
    <src>https://www.youtrack.es</src>
    <link href="https://www.youtrack.es/ruta/11696-btt-04-03-20">
      <text>YouTrack.es</text>
    </link>
    <trkseg>
      <trkpt lat="38.64905686117709" lon="0.0364613626152277">
        <ele>72.5999984741211</ele>
        <time>2020-03-04T15:42:37.000Z</time>
      </trkpt>
      <trkpt lat="38.649046467617154" lon="0.03639824688434601">
        <ele>72.5999984741211</ele>
        <time>2020-03-04T15:42:39.000Z</time>
      </trkpt>
      <trkpt lat="38.6490304581821" lon="0.03630906343460083">
        <ele>73.0</ele>
        <time>2020-03-04T15:42:42.000Z</time>
      </trkpt>
      <trkpt lat="38.64902232773602" lon="0.03623790107667446">
        <ele>73.5999984741211</ele>
        <time>2020-03-04T15:42:45.000Z</time>
      </trkpt>
      <trkpt lat="38.64902098663151" lon="0.03617428243160248">
        <ele>74.19999694824219</ele>
        <time>2020-03-04T15:42:48.000Z</time>
      </trkpt>
      <trkpt lat="38.649025512859225" lon="0.03613262437283993">
        <ele>74.5999984741211</ele>
        <time>2020-03-04T15:42:50.000Z</time>
      </trkpt>
      <trkpt lat="38.64902978762984" lon="0.03611133433878422">
        <ele>74.80000305175781</ele>
        <time>2020-03-04T15:42:51.000Z</time>
      </trkpt>
      <trkpt lat="38.649042109027505" lon="0.036067161709070206">
        <ele>75.0</ele>
        <time>2020-03-04T15:42:53.000Z</time>
      </trkpt>
      <trkpt lat="38.649065075442195" lon="0.03600488416850567">
        <ele>74.4000015258789</ele>
        <time>2020-03-04T15:42:56.000Z</time>
      </trkpt>
      <trkpt lat="38.64907898940146" lon="0.035966914147138596">
        <ele>74.4000015258789</ele>
        <time>2020-03-04T15:42:58.000Z</time>
      </trkpt>
      <trkpt lat="38.64909709431231" lon="0.03589692525565624">
        <ele>75.0</ele>
        <time>2020-03-04T15:43:02.000Z</time>
      </trkpt>
      <trkpt lat="38.649125173687935" lon="0.03584311343729496">
        <ele>75.5999984741211</ele>
        <time>2020-03-04T15:43:05.000Z</time>
      </trkpt>
      <trkpt lat="38.64913414232433" lon="0.03582634963095188">
        <ele>75.80000305175781</ele>
        <time>2020-03-04T15:43:06.000Z</time>
      </trkpt>
      <trkpt lat="38.64918644540012" lon="0.03568578511476517">
        <ele>76.80000305175781</ele>
        <time>2020-03-04T15:43:13.000Z</time>
      </trkpt>
      <trkpt lat="38.64920077845454" lon="0.035641444846987724">
        <ele>77.19999694824219</ele>
        <time>2020-03-04T15:43:15.000Z</time>
      </trkpt>
      <trkpt lat="38.64923179149628" lon="0.035575563088059425">
        <ele>77.5999984741211</ele>
        <time>2020-03-04T15:43:18.000Z</time>
      </trkpt>
      <trkpt lat="38.64924210123718" lon="0.0355574581772089">
        <ele>78.0</ele>
        <time>2020-03-04T15:43:19.000Z</time>
      </trkpt>
      <trkpt lat="38.64927194081247" lon="0.035474980250000954">
        <ele>78.5999984741211</ele>
        <time>2020-03-04T15:43:23.000Z</time>
      </trkpt>
      <trkpt lat="38.64927579648793" lon="0.03545612096786499">
        <ele>79.0</ele>
        <time>2020-03-04T15:43:24.000Z</time>
      </trkpt>
      <trkpt lat="38.64927931688726" lon="0.035437680780887604">
        <ele>79.19999694824219</ele>
        <time>2020-03-04T15:43:25.000Z</time>
      </trkpt>
      <trkpt lat="38.64928619004786" lon="0.03534581512212753">
        <ele>80.4000015258789</ele>
        <time>2020-03-04T15:43:29.000Z</time>
      </trkpt>
      <trkpt lat="38.649294236674905" lon="0.03532678820192814">
        <ele>80.5999984741211</ele>
        <time>2020-03-04T15:43:30.000Z</time>
      </trkpt>
      <trkpt lat="38.64932189695537" lon="0.035299379378557205">
        <ele>81.5999984741211</ele>
        <time>2020-03-04T15:43:32.000Z</time>
      </trkpt>
      <trkpt lat="38.64937210455537" lon="0.035257553681731224">
        <ele>82.4000015258789</ele>
        <time>2020-03-04T15:43:35.000Z</time>
      </trkpt>
      <trkpt lat="38.649389958009124" lon="0.03524255007505417">
        <ele>82.80000305175781</ele>
        <time>2020-03-04T15:43:36.000Z</time>
      </trkpt>
      <trkpt lat="38.649424239993095" lon="0.035184379667043686">
        <ele>83.19999694824219</ele>
        <time>2020-03-04T15:43:39.000Z</time>
      </trkpt>
      <trkpt lat="38.649444188922644" lon="0.035064518451690674">
        <ele>83.80000305175781</ele>
        <time>2020-03-04T15:43:44.000Z</time>
      </trkpt>
      <trkpt lat="38.649447122588754" lon="0.035023028030991554">
        <ele>84.0</ele>
        <time>2020-03-04T15:43:46.000Z</time>
      </trkpt>
      <trkpt lat="38.64946648478508" lon="0.03490702249109745">
        <ele>85.0</ele>
        <time>2020-03-04T15:43:51.000Z</time>
      </trkpt>
      <trkpt lat="38.64947612397373" lon="0.034821610897779465">
        <ele>85.80000305175781</ele>
        <time>2020-03-04T15:43:55.000Z</time>
      </trkpt>
      <trkpt lat="38.649480901658535" lon="0.03474944271147251">
        <ele>86.0</ele>
        <time>2020-03-04T15:43:58.000Z</time>
      </trkpt>
      <trkpt lat="38.649513591080904" lon="0.03453369252383709">
        <ele>87.19999694824219</ele>
        <time>2020-03-04T15:44:07.000Z</time>
      </trkpt>
      <trkpt lat="38.6495188716799" lon="0.034488262608647346">
        <ele>87.4000015258789</ele>
        <time>2020-03-04T15:44:09.000Z</time>
      </trkpt>
      <trkpt lat="38.64952985197306" lon="0.034334203228354454">
        <ele>88.4000015258789</ele>
        <time>2020-03-04T15:44:16.000Z</time>
      </trkpt>
      <trkpt lat="38.64954217337072" lon="0.03427896648645401">
        <ele>89.19999694824219</ele>
        <time>2020-03-04T15:44:19.000Z</time>
      </trkpt>
      <trkpt lat="38.64955348894" lon="0.03423898480832577">
        <ele>89.5999984741211</ele>
        <time>2020-03-04T15:44:21.000Z</time>
      </trkpt>
      <trkpt lat="38.64957268349826" lon="0.03406791016459465">
        <ele>90.19999694824219</ele>
        <time>2020-03-04T15:44:28.000Z</time>
      </trkpt>
      <trkpt lat="38.64955625496805" lon="0.033932123333215714">
        <ele>90.5999984741211</ele>
        <time>2020-03-04T15:44:34.000Z</time>
      </trkpt>
      <trkpt lat="38.64953781478107" lon="0.03385559655725956">
        <ele>90.80000305175781</ele>
        <time>2020-03-04T15:44:37.000Z</time>
      </trkpt>
      <trkpt lat="38.64954217337072" lon="0.033649904653429985">
        <ele>91.80000305175781</ele>
        <time>2020-03-04T15:44:45.000Z</time>
      </trkpt>
      <trkpt lat="38.64954426884651" lon="0.03362744115293026">
        <ele>91.80000305175781</ele>
        <time>2020-03-04T15:44:46.000Z</time>
      </trkpt>
      <trkpt lat="38.649558098986745" lon="0.033540185540914536">
        <ele>92.80000305175781</ele>
        <time>2020-03-04T15:44:50.000Z</time>
      </trkpt>
      <trkpt lat="38.6495844181627" lon="0.03348100930452347">
        <ele>93.19999694824219</ele>
        <time>2020-03-04T15:44:53.000Z</time>
      </trkpt>
      <trkpt lat="38.64960327744484" lon="0.033443039283156395">
        <ele>93.5999984741211</ele>
        <time>2020-03-04T15:44:55.000Z</time>
      </trkpt>
      <trkpt lat="38.649610821157694" lon="0.03342443145811558">
        <ele>93.80000305175781</ele>
        <time>2020-03-04T15:44:56.000Z</time>
      </trkpt>
      <trkpt lat="38.649629009887576" lon="0.03337967209517956">
        <ele>94.4000015258789</ele>
        <time>2020-03-04T15:44:58.000Z</time>
      </trkpt>
      <trkpt lat="38.649661196395755" lon="0.03333390690386295">
        <ele>94.80000305175781</ele>
        <time>2020-03-04T15:45:01.000Z</time>
      </trkpt>
      <trkpt lat="38.64966748282313" lon="0.03331923857331276">
        <ele>95.0</ele>
        <time>2020-03-04T15:45:02.000Z</time>
      </trkpt>
      <trkpt lat="38.64966991357505" lon="0.03330197185277939">
        <ele>95.19999694824219</ele>
        <time>2020-03-04T15:45:03.000Z</time>
      </trkpt>
      <trkpt lat="38.64967896603048" lon="0.03323248587548733">
        <ele>96.19999694824219</ele>
        <time>2020-03-04T15:45:06.000Z</time>
      </trkpt>
      <trkpt lat="38.64968935959041" lon="0.03321739844977856">
        <ele>96.5999984741211</ele>
        <time>2020-03-04T15:45:07.000Z</time>
      </trkpt>
      <trkpt lat="38.64970335736871" lon="0.03320641815662384">
        <ele>97.0</ele>
        <time>2020-03-04T15:45:08.000Z</time>
      </trkpt>
      <trkpt lat="38.649720372632146" lon="0.03320264630019665">
        <ele>97.19999694824219</ele>
        <time>2020-03-04T15:45:09.000Z</time>
      </trkpt>
      <trkpt lat="38.64984819665551" lon="0.03318043425679207">
        <ele>98.4000015258789</ele>
        <time>2020-03-04T15:45:14.000Z</time>
      </trkpt>
      <trkpt lat="38.65001616999507" lon="0.03312435932457447">
        <ele>99.19999694824219</ele>
        <time>2020-03-04T15:45:20.000Z</time>
      </trkpt>
      <trkpt lat="38.65013846196234" lon="0.03311522305011749">
        <ele>99.4000015258789</ele>
        <time>2020-03-04T15:45:23.000Z</time>
      </trkpt>
      <trkpt lat="38.6501753423363" lon="0.03311052918434143">
        <ele>99.4000015258789</ele>
        <time>2020-03-04T15:45:24.000Z</time>
      </trkpt>
      <trkpt lat="38.65038991905749" lon="0.03307037986814976">
        <ele>99.4000015258789</ele>
        <time>2020-03-04T15:45:29.000Z</time>
      </trkpt>
      <trkpt lat="38.65043241530657" lon="0.03305529244244099">
        <ele>99.4000015258789</ele>
        <time>2020-03-04T15:45:30.000Z</time>
      </trkpt>
      <trkpt lat="38.650474743917584" lon="0.03303701989352703">
        <ele>99.4000015258789</ele>
        <time>2020-03-04T15:45:31.000Z</time>
      </trkpt>
      <trkpt lat="38.6506965290755" lon="0.032950183376669884">
        <ele>99.4000015258789</ele>
        <time>2020-03-04T15:45:36.000Z</time>
      </trkpt>
      <trkpt lat="38.65078420378268" lon="0.03290827386081219">
        <ele>99.19999694824219</ele>
        <time>2020-03-04T15:45:38.000Z</time>
      </trkpt>
      <trkpt lat="38.65085368975997" lon="0.032846247777342796">
        <ele>99.19999694824219</ele>
        <time>2020-03-04T15:45:40.000Z</time>
      </trkpt>
      <trkpt lat="38.65091043524444" lon="0.032666707411408424">
        <ele>99.19999694824219</ele>
        <time>2020-03-04T15:45:44.000Z</time>
      </trkpt>
      <trkpt lat="38.65091387182474" lon="0.032617757096886635">
        <ele>99.19999694824219</ele>
        <time>2020-03-04T15:45:45.000Z</time>
      </trkpt>
      <trkpt lat="38.65095829591155" lon="0.032426146790385246">
        <ele>99.80000305175781</ele>
        <time>2020-03-04T15:45:50.000Z</time>
      </trkpt>
      <trkpt lat="38.651016214862466" lon="0.032251300290226936">
        <ele>100.80000305175781</ele>
        <time>2020-03-04T15:45:55.000Z</time>
      </trkpt>
      <trkpt lat="38.65102585405111" lon="0.032144347205758095">
        <ele>101.5999984741211</ele>
        <time>2020-03-04T15:45:58.000Z</time>
      </trkpt>
      <trkpt lat="38.651023507118225" lon="0.03210755065083504">
        <ele>102.0</ele>
        <time>2020-03-04T15:45:59.000Z</time>
      </trkpt>
      <trkpt lat="38.651013700291514" lon="0.03198165446519852">
        <ele>103.0</ele>
        <time>2020-03-04T15:46:03.000Z</time>
      </trkpt>
      <trkpt lat="38.65101093426347" lon="0.03192532807588577">
        <ele>103.5999984741211</ele>
        <time>2020-03-04T15:46:05.000Z</time>
      </trkpt>
      <trkpt lat="38.651015209034085" lon="0.031872522085905075">
        <ele>104.19999694824219</ele>
        <time>2020-03-04T15:46:07.000Z</time>
      </trkpt>
      <trkpt lat="38.651048401370645" lon="0.0317501462996006">
        <ele>105.5999984741211</ele>
        <time>2020-03-04T15:46:11.000Z</time>
      </trkpt>
      <trkpt lat="38.65106130950153" lon="0.03172030672430992">
        <ele>105.80000305175781</ele>
        <time>2020-03-04T15:46:12.000Z</time>
      </trkpt>
      <trkpt lat="38.65112249739468" lon="0.03162953071296215">
        <ele>106.4000015258789</ele>
        <time>2020-03-04T15:46:16.000Z</time>
      </trkpt>
      <trkpt lat="38.65115409716964" lon="0.031593069434165955">
        <ele>106.5999984741211</ele>
        <time>2020-03-04T15:46:18.000Z</time>
      </trkpt>
      <trkpt lat="38.65120095200837" lon="0.03153171390295029">
        <ele>107.4000015258789</ele>
        <time>2020-03-04T15:46:21.000Z</time>
      </trkpt>
      <trkpt lat="38.65125300362706" lon="0.0314838532358408">
        <ele>108.0</ele>
        <time>2020-03-04T15:46:24.000Z</time>
      </trkpt>
      <trkpt lat="38.65131159313023" lon="0.031468598172068596">
        <ele>108.4000015258789</ele>
        <time>2020-03-04T15:46:27.000Z</time>
      </trkpt>
      <trkpt lat="38.651385521516204" lon="0.03149382770061493">
        <ele>108.5999984741211</ele>
        <time>2020-03-04T15:46:30.000Z</time>
      </trkpt>
      <trkpt lat="38.65146992728114" lon="0.03154344856739044">
        <ele>108.5999984741211</ele>
        <time>2020-03-04T15:46:33.000Z</time>
      </trkpt>
      <trkpt lat="38.6516326200217" lon="0.031643109396100044">
        <ele>109.19999694824219</ele>
        <time>2020-03-04T15:46:38.000Z</time>
      </trkpt>
      <trkpt lat="38.65179480984807" lon="0.03173581324517727">
        <ele>109.5999984741211</ele>
        <time>2020-03-04T15:46:42.000Z</time>
      </trkpt>
      <trkpt lat="38.65200796164572" lon="0.03182315267622471">
        <ele>109.5999984741211</ele>
        <time>2020-03-04T15:46:47.000Z</time>
      </trkpt>
      <trkpt lat="38.65210083313286" lon="0.03183170221745968">
        <ele>109.4000015258789</ele>
        <time>2020-03-04T15:46:49.000Z</time>
      </trkpt>
      <trkpt lat="38.652204098179936" lon="0.031823571771383286">
        <ele>109.0</ele>
        <time>2020-03-04T15:46:51.000Z</time>
      </trkpt>
      <trkpt lat="38.652311554178596" lon="0.0317975040525198">
        <ele>108.80000305175781</ele>
        <time>2020-03-04T15:46:53.000Z</time>
      </trkpt>
      <trkpt lat="38.65241875872016" lon="0.03177219070494175">
        <ele>108.80000305175781</ele>
        <time>2020-03-04T15:46:55.000Z</time>
      </trkpt>
      <trkpt lat="38.65247122943401" lon="0.03176313824951649">
        <ele>108.80000305175781</ele>
        <time>2020-03-04T15:46:56.000Z</time>
      </trkpt>
      <trkpt lat="38.65252227522433" lon="0.031759198755025864">
        <ele>108.5999984741211</ele>
        <time>2020-03-04T15:46:57.000Z</time>
      </trkpt>
      <trkpt lat="38.65257365629077" lon="0.031760791316628456">
        <ele>108.4000015258789</ele>
        <time>2020-03-04T15:46:58.000Z</time>
      </trkpt>
      <trkpt lat="38.652723021805286" lon="0.031776465475559235">
        <ele>107.80000305175781</ele>
        <time>2020-03-04T15:47:01.000Z</time>
      </trkpt>
      <trkpt lat="38.65291488356888" lon="0.03180353902280331">
        <ele>107.4000015258789</ele>
        <time>2020-03-04T15:47:05.000Z</time>
      </trkpt>
      <trkpt lat="38.653006833046675" lon="0.03179272636771202">
        <ele>107.4000015258789</ele>
        <time>2020-03-04T15:47:07.000Z</time>
      </trkpt>
      <trkpt lat="38.653188552707434" lon="0.03153129480779171">
        <ele>107.5999984741211</ele>
        <time>2020-03-04T15:47:12.000Z</time>
      </trkpt>
      <trkpt lat="38.653282010927796" lon="0.031398357823491096">
        <ele>108.5999984741211</ele>
        <time>2020-03-04T15:47:17.000Z</time>
      </trkpt>
      <trkpt lat="38.65335660986602" lon="0.031314706429839134">
        <ele>109.19999694824219</ele>
        <time>2020-03-04T15:47:20.000Z</time>
      </trkpt>
      <trkpt lat="38.65347772836685" lon="0.031180931255221367">
        <ele>109.5999984741211</ele>
        <time>2020-03-04T15:47:25.000Z</time>
      </trkpt>
      <trkpt lat="38.65350681357086" lon="0.03115268424153328">
        <ele>109.80000305175781</ele>
        <time>2020-03-04T15:47:26.000Z</time>
      </trkpt>
      <trkpt lat="38.653622483834624" lon="0.031063416972756386">
        <ele>110.80000305175781</ele>
        <time>2020-03-04T15:47:30.000Z</time>
      </trkpt>
      <trkpt lat="38.65372139029205" lon="0.03094724379479885">
        <ele>111.4000015258789</ele>
        <time>2020-03-04T15:47:34.000Z</time>
      </trkpt>
      <trkpt lat="38.65380026400089" lon="0.03084791824221611">
        <ele>112.0</ele>
        <time>2020-03-04T15:47:37.000Z</time>
      </trkpt>
      <trkpt lat="38.65395348519087" lon="0.030705761164426804">
        <ele>112.5999984741211</ele>
        <time>2020-03-04T15:47:42.000Z</time>
      </trkpt>
      <trkpt lat="38.65399103611708" lon="0.030687907710671425">
        <ele>112.80000305175781</ele>
        <time>2020-03-04T15:47:43.000Z</time>
      </trkpt>
      <trkpt lat="38.65410704165697" lon="0.03071565181016922">
        <ele>113.0</ele>
        <time>2020-03-04T15:47:46.000Z</time>
      </trkpt>
      <trkpt lat="38.654175102710724" lon="0.03077625297009945">
        <ele>113.19999694824219</ele>
        <time>2020-03-04T15:47:48.000Z</time>
      </trkpt>
      <trkpt lat="38.65420720539987" lon="0.030811289325356483">
        <ele>113.19999694824219</ele>
        <time>2020-03-04T15:47:49.000Z</time>
      </trkpt>
      <trkpt lat="38.65426906384528" lon="0.030889492481946945">
        <ele>113.4000015258789</ele>
        <time>2020-03-04T15:47:51.000Z</time>
      </trkpt>
      <trkpt lat="38.65439613349736" lon="0.031036511063575745">
        <ele>113.80000305175781</ele>
        <time>2020-03-04T15:47:55.000Z</time>
      </trkpt>
      <trkpt lat="38.654513228684664" lon="0.031106416136026382">
        <ele>113.80000305175781</ele>
        <time>2020-03-04T15:47:58.000Z</time>
      </trkpt>
      <trkpt lat="38.654581205919385" lon="0.03111865371465683">
        <ele>114.0</ele>
        <time>2020-03-04T15:48:00.000Z</time>
      </trkpt>
      <trkpt lat="38.65463828667998" lon="0.03111211583018303">
        <ele>114.19999694824219</ele>
        <time>2020-03-04T15:48:02.000Z</time>
      </trkpt>
      <trkpt lat="38.654802991077304" lon="0.031090322881937027">
        <ele>115.0</ele>
        <time>2020-03-04T15:48:07.000Z</time>
      </trkpt>
      <trkpt lat="38.65483936853707" lon="0.031095603480935097">
        <ele>115.4000015258789</ele>
        <time>2020-03-04T15:48:08.000Z</time>
      </trkpt>
      <trkpt lat="38.65500180982053" lon="0.031180595979094505">
        <ele>116.0</ele>
        <time>2020-03-04T15:48:13.000Z</time>
      </trkpt>
      <trkpt lat="38.65503139793873" lon="0.03120490349829197">
        <ele>116.0</ele>
        <time>2020-03-04T15:48:14.000Z</time>
      </trkpt>
      <trkpt lat="38.65505972877145" lon="0.031230971217155457">
        <ele>116.4000015258789</ele>
        <time>2020-03-04T15:48:15.000Z</time>
      </trkpt>
      <trkpt lat="38.65521856583655" lon="0.03134974278509617">
        <ele>117.19999694824219</ele>
        <time>2020-03-04T15:48:21.000Z</time>
      </trkpt>
      <trkpt lat="38.65524781867862" lon="0.03134848549962044">
        <ele>117.4000015258789</ele>
        <time>2020-03-04T15:48:22.000Z</time>
      </trkpt>
      <trkpt lat="38.6553418636322" lon="0.03129769116640091">
        <ele>118.0</ele>
        <time>2020-03-04T15:48:25.000Z</time>
      </trkpt>
      <trkpt lat="38.65541595965624" lon="0.031231055036187172">
        <ele>118.0</ele>
        <time>2020-03-04T15:48:27.000Z</time>
      </trkpt>
      <trkpt lat="38.65545594133437" lon="0.031189145520329475">
        <ele>118.0</ele>
        <time>2020-03-04T15:48:28.000Z</time>
      </trkpt>
      <trkpt lat="38.65554177202284" lon="0.03109317272901535">
        <ele>118.19999694824219</ele>
        <time>2020-03-04T15:48:30.000Z</time>
      </trkpt>
      <trkpt lat="38.65559030324221" lon="0.031049922108650208">
        <ele>118.19999694824219</ele>
        <time>2020-03-04T15:48:31.000Z</time>
      </trkpt>
      <trkpt lat="38.65579909645021" lon="0.03090030513703823">
        <ele>118.0</ele>
        <time>2020-03-04T15:48:35.000Z</time>
      </trkpt>
      <trkpt lat="38.65595072507858" lon="0.03090248443186283">
        <ele>117.4000015258789</ele>
        <time>2020-03-04T15:48:38.000Z</time>
      </trkpt>
      <trkpt lat="38.655994813889265" lon="0.030916566029191017">
        <ele>117.19999694824219</ele>
        <time>2020-03-04T15:48:39.000Z</time>
      </trkpt>
      <trkpt lat="38.65607435815036" lon="0.030937856063246727">
        <ele>117.19999694824219</ele>
        <time>2020-03-04T15:48:41.000Z</time>
      </trkpt>
      <trkpt lat="38.65615339949727" lon="0.03094783052802086">
        <ele>117.19999694824219</ele>
        <time>2020-03-04T15:48:43.000Z</time>
      </trkpt>
      <trkpt lat="38.65624685771763" lon="0.030930815264582634">
        <ele>117.19999694824219</ele>
        <time>2020-03-04T15:48:46.000Z</time>
      </trkpt>
      <trkpt lat="38.65630527958274" lon="0.030893851071596146">
        <ele>117.5999984741211</ele>
        <time>2020-03-04T15:48:48.000Z</time>
      </trkpt>
      <trkpt lat="38.65638742223382" lon="0.030762506648898125">
        <ele>118.4000015258789</ele>
        <time>2020-03-04T15:48:52.000Z</time>
      </trkpt>
      <trkpt lat="38.65640343166888" lon="0.03072495572268963">
        <ele>118.5999984741211</ele>
        <time>2020-03-04T15:48:53.000Z</time>
      </trkpt>
      <trkpt lat="38.65646805614233" lon="0.030514486134052277">
        <ele>119.4000015258789</ele>
        <time>2020-03-04T15:48:58.000Z</time>
      </trkpt>
      <trkpt lat="38.65648792125285" lon="0.03047182224690914">
        <ele>119.4000015258789</ele>
        <time>2020-03-04T15:48:59.000Z</time>
      </trkpt>
      <trkpt lat="38.656583139672875" lon="0.03026973456144333">
        <ele>120.19999694824219</ele>
        <time>2020-03-04T15:49:04.000Z</time>
      </trkpt>
      <trkpt lat="38.65664734505117" lon="0.030152471736073494">
        <ele>120.4000015258789</ele>
        <time>2020-03-04T15:49:07.000Z</time>
      </trkpt>
      <trkpt lat="38.656737031415105" lon="0.030026575550436974">
        <ele>121.19999694824219</ele>
        <time>2020-03-04T15:49:11.000Z</time>
      </trkpt>
      <trkpt lat="38.65684825927019" lon="0.029952730983495712">
        <ele>121.5999984741211</ele>
        <time>2020-03-04T15:49:15.000Z</time>
      </trkpt>
      <trkpt lat="38.656907519325614" lon="0.02993060275912285">
        <ele>121.80000305175781</ele>
        <time>2020-03-04T15:49:17.000Z</time>
      </trkpt>
      <trkpt lat="38.65705629810691" lon="0.029861032962799072">
        <ele>122.5999984741211</ele>
        <time>2020-03-04T15:49:22.000Z</time>
      </trkpt>
      <trkpt lat="38.657085467129946" lon="0.029840916395187378">
        <ele>123.0</ele>
        <time>2020-03-04T15:49:23.000Z</time>
      </trkpt>
      <trkpt lat="38.65716475993395" lon="0.029776543378829956">
        <ele>123.80000305175781</ele>
        <time>2020-03-04T15:49:26.000Z</time>
      </trkpt>
      <trkpt lat="38.65725142881274" lon="0.029666991904377937">
        <ele>124.5999984741211</ele>
        <time>2020-03-04T15:49:30.000Z</time>
      </trkpt>
      <trkpt lat="38.65735620260239" lon="0.029524918645620346">
        <ele>125.5999984741211</ele>
        <time>2020-03-04T15:49:35.000Z</time>
      </trkpt>
      <trkpt lat="38.657386880367994" lon="0.02951008267700672">
        <ele>125.80000305175781</ele>
        <time>2020-03-04T15:49:36.000Z</time>
      </trkpt>
      <trkpt lat="38.65751403383911" lon="0.02952542155981064">
        <ele>126.5999984741211</ele>
        <time>2020-03-04T15:49:41.000Z</time>
      </trkpt>
      <trkpt lat="38.657570695504546" lon="0.029558027163147926">
        <ele>126.80000305175781</ele>
        <time>2020-03-04T15:49:43.000Z</time>
      </trkpt>
      <trkpt lat="38.657719641923904" lon="0.029649054631590843">
        <ele>127.5999984741211</ele>
        <time>2020-03-04T15:49:48.000Z</time>
      </trkpt>
      <trkpt lat="38.657748056575656" lon="0.029671769589185715">
        <ele>127.80000305175781</ele>
        <time>2020-03-04T15:49:49.000Z</time>
      </trkpt>
      <trkpt lat="38.657805724069476" lon="0.029765982180833817">
        <ele>128.60000610351562</ele>
        <time>2020-03-04T15:49:52.000Z</time>
      </trkpt>
      <trkpt lat="38.65781268104911" lon="0.02984561026096344">
        <ele>128.8000030517578</ele>
        <time>2020-03-04T15:49:54.000Z</time>
      </trkpt>
      <trkpt lat="38.65779264830053" lon="0.029929764568805695">
        <ele>129.0</ele>
        <time>2020-03-04T15:49:56.000Z</time>
      </trkpt>
      <trkpt lat="38.657679157331586" lon="0.030104191973805428">
        <ele>129.39999389648438</ele>
        <time>2020-03-04T15:50:02.000Z</time>
      </trkpt>
      <trkpt lat="38.65764277987182" lon="0.03015582449734211">
        <ele>129.8000030517578</ele>
        <time>2020-03-04T15:50:04.000Z</time>
      </trkpt>
      <trkpt lat="38.65758896805346" lon="0.030295299366116524">
        <ele>130.39999389648438</ele>
        <time>2020-03-04T15:50:08.000Z</time>
      </trkpt>
      <trkpt lat="38.65757446736097" lon="0.03038104623556137">
        <ele>130.8000030517578</ele>
        <time>2020-03-04T15:50:10.000Z</time>
      </trkpt>
      <trkpt lat="38.657587207853794" lon="0.030518174171447754">
        <ele>131.60000610351562</ele>
        <time>2020-03-04T15:50:13.000Z</time>
      </trkpt>
      <trkpt lat="38.657608330249786" lon="0.03060232847929001">
        <ele>132.0</ele>
        <time>2020-03-04T15:50:15.000Z</time>
      </trkpt>
      <trkpt lat="38.65767018869519" lon="0.030734846368432045">
        <ele>133.0</ele>
        <time>2020-03-04T15:50:19.000Z</time>
      </trkpt>
      <trkpt lat="38.65769248455763" lon="0.03075169399380684">
        <ele>133.1999969482422</ele>
        <time>2020-03-04T15:50:20.000Z</time>
      </trkpt>
      <trkpt lat="38.657783176749945" lon="0.030770134180784225">
        <ele>133.8000030517578</ele>
        <time>2020-03-04T15:50:24.000Z</time>
      </trkpt>
      <trkpt lat="38.657834976911545" lon="0.0307487603276968">
        <ele>134.1999969482422</ele>
        <time>2020-03-04T15:50:26.000Z</time>
      </trkpt>
      <trkpt lat="38.65794628858566" lon="0.03070584498345852">
        <ele>135.1999969482422</ele>
        <time>2020-03-04T15:50:30.000Z</time>
      </trkpt>
      <trkpt lat="38.6580446921289" lon="0.030698133632540703">
        <ele>136.39999389648438</ele>
        <time>2020-03-04T15:50:34.000Z</time>
      </trkpt>
      <trkpt lat="38.65812172181904" lon="0.030712131410837173">
        <ele>137.1999969482422</ele>
        <time>2020-03-04T15:50:37.000Z</time>
      </trkpt>
      <trkpt lat="38.65818014368415" lon="0.030718669295310974">
        <ele>137.39999389648438</ele>
        <time>2020-03-04T15:50:39.000Z</time>
      </trkpt>
      <trkpt lat="38.658284079283476" lon="0.030707605183124542">
        <ele>138.39999389648438</ele>
        <time>2020-03-04T15:50:43.000Z</time>
      </trkpt>
      <trkpt lat="38.65830821916461" lon="0.03069201484322548">
        <ele>138.60000610351562</ele>
        <time>2020-03-04T15:50:44.000Z</time>
      </trkpt>
      <trkpt lat="38.658418441191316" lon="0.03058522939682007">
        <ele>140.0</ele>
        <time>2020-03-04T15:50:49.000Z</time>
      </trkpt>
      <trkpt lat="38.65843922831118" lon="0.030562011525034904">
        <ele>140.1999969482422</ele>
        <time>2020-03-04T15:50:50.000Z</time>
      </trkpt>
      <trkpt lat="38.658547941595316" lon="0.030447598546743393">
        <ele>141.1999969482422</ele>
        <time>2020-03-04T15:50:55.000Z</time>
      </trkpt>
      <trkpt lat="38.65859454497695" lon="0.03040996380150318">
        <ele>141.60000610351562</ele>
        <time>2020-03-04T15:50:57.000Z</time>
      </trkpt>
      <trkpt lat="38.658757572993636" lon="0.030298987403512">
        <ele>142.39999389648438</ele>
        <time>2020-03-04T15:51:03.000Z</time>
      </trkpt>
      <trkpt lat="38.65892764180899" lon="0.030136965215206146">
        <ele>143.39999389648438</ele>
        <time>2020-03-04T15:51:09.000Z</time>
      </trkpt>
      <trkpt lat="38.65898639895022" lon="0.03006848506629467">
        <ele>143.60000610351562</ele>
        <time>2020-03-04T15:51:11.000Z</time>
      </trkpt>
      <trkpt lat="38.659019423648715" lon="0.030033616349101067">
        <ele>143.39999389648438</ele>
        <time>2020-03-04T15:51:12.000Z</time>
      </trkpt>
      <trkpt lat="38.65917683579028" lon="0.02995549701154232">
        <ele>143.60000610351562</ele>
        <time>2020-03-04T15:51:16.000Z</time>
      </trkpt>
      <trkpt lat="38.65932519547641" lon="0.029985839501023293">
        <ele>143.8000030517578</ele>
        <time>2020-03-04T15:51:21.000Z</time>
      </trkpt>
      <trkpt lat="38.65944363176823" lon="0.030013415962457657">
        <ele>144.39999389648438</ele>
        <time>2020-03-04T15:51:26.000Z</time>
      </trkpt>
      <trkpt lat="38.659466095268726" lon="0.030013080686330795">
        <ele>144.60000610351562</ele>
        <time>2020-03-04T15:51:27.000Z</time>
      </trkpt>
      <trkpt lat="38.65951127372682" lon="0.029999250546097755">
        <ele>145.39999389648438</ele>
        <time>2020-03-04T15:51:29.000Z</time>
      </trkpt>
      <trkpt lat="38.659593584015965" lon="0.029942253604531288">
        <ele>146.8000030517578</ele>
        <time>2020-03-04T15:51:33.000Z</time>
      </trkpt>
      <trkpt lat="38.65971151739359" lon="0.02983689308166504">
        <ele>148.0</ele>
        <time>2020-03-04T15:51:39.000Z</time>
      </trkpt>
      <trkpt lat="38.65974789485335" lon="0.029798336327075958">
        <ele>148.1999969482422</ele>
        <time>2020-03-04T15:51:41.000Z</time>
      </trkpt>
      <trkpt lat="38.65980103611946" lon="0.0297386571764946">
        <ele>149.0</ele>
        <time>2020-03-04T15:51:44.000Z</time>
      </trkpt>
      <trkpt lat="38.659866666421294" lon="0.029648635536432266">
        <ele>150.0</ele>
        <time>2020-03-04T15:51:48.000Z</time>
      </trkpt>
      <trkpt lat="38.659881753847" lon="0.02962307073175907">
        <ele>150.1999969482422</ele>
        <time>2020-03-04T15:51:49.000Z</time>
      </trkpt>
      <trkpt lat="38.65993137471378" lon="0.029521901160478592">
        <ele>151.39999389648438</ele>
        <time>2020-03-04T15:51:53.000Z</time>
      </trkpt>
      <trkpt lat="38.65994813852012" lon="0.029468340799212456">
        <ele>152.0</ele>
        <time>2020-03-04T15:51:55.000Z</time>
      </trkpt>
      <trkpt lat="38.65996272303164" lon="0.029412098228931427">
        <ele>152.60000610351562</ele>
        <time>2020-03-04T15:51:57.000Z</time>
      </trkpt>
      <trkpt lat="38.660007482394576" lon="0.029237084090709686">
        <ele>153.60000610351562</ele>
        <time>2020-03-04T15:52:03.000Z</time>
      </trkpt>
      <trkpt lat="38.66001603193581" lon="0.02920699305832386">
        <ele>153.8000030517578</ele>
        <time>2020-03-04T15:52:04.000Z</time>
      </trkpt>
      <trkpt lat="38.66010353900492" lon="0.02907455898821354">
        <ele>154.60000610351562</ele>
        <time>2020-03-04T15:52:10.000Z</time>
      </trkpt>
      <trkpt lat="38.660124158486724" lon="0.029060477390885353">
        <ele>154.8000030517578</ele>
        <time>2020-03-04T15:52:11.000Z</time>
      </trkpt>
      <trkpt lat="38.66025801748037" lon="0.028978167101740837">
        <ele>155.60000610351562</ele>
        <time>2020-03-04T15:52:17.000Z</time>
      </trkpt>
      <trkpt lat="38.66028073243797" lon="0.02896735444664955">
        <ele>155.8000030517578</ele>
        <time>2020-03-04T15:52:18.000Z</time>
      </trkpt>
      <trkpt lat="38.660443341359496" lon="0.028911614790558815">
        <ele>156.60000610351562</ele>
        <time>2020-03-04T15:52:25.000Z</time>
      </trkpt>
      <trkpt lat="38.66051081568003" lon="0.028907591477036476">
        <ele>156.8000030517578</ele>
        <time>2020-03-04T15:52:28.000Z</time>
      </trkpt>
      <trkpt lat="38.6605535633862" lon="0.02890130504965782">
        <ele>157.0</ele>
        <time>2020-03-04T15:52:30.000Z</time>
      </trkpt>
      <trkpt lat="38.660684153437614" lon="0.028841793537139893">
        <ele>157.8000030517578</ele>
        <time>2020-03-04T15:52:37.000Z</time>
      </trkpt>
      <trkpt lat="38.66079630330205" lon="0.02868974581360817">
        <ele>158.8000030517578</ele>
        <time>2020-03-04T15:52:44.000Z</time>
      </trkpt>
      <trkpt lat="38.660809798166156" lon="0.02866392955183983">
        <ele>159.0</ele>
        <time>2020-03-04T15:52:45.000Z</time>
      </trkpt>
      <trkpt lat="38.66084173321724" lon="0.02855982631444931">
        <ele>160.1999969482422</ele>
        <time>2020-03-04T15:52:49.000Z</time>
      </trkpt>
      <trkpt lat="38.660849360749125" lon="0.028533004224300385">
        <ele>160.39999389648438</ele>
        <time>2020-03-04T15:52:50.000Z</time>
      </trkpt>
      <trkpt lat="38.66086218506098" lon="0.02842772752046585">
        <ele>161.39999389648438</ele>
        <time>2020-03-04T15:52:54.000Z</time>
      </trkpt>
      <trkpt lat="38.66085732355714" lon="0.02837458625435829">
        <ele>162.0</ele>
        <time>2020-03-04T15:52:56.000Z</time>
      </trkpt>
      <trkpt lat="38.66085145622492" lon="0.028328485786914825">
        <ele>163.0</ele>
        <time>2020-03-04T15:52:58.000Z</time>
      </trkpt>
      <trkpt lat="38.660828322172165" lon="0.028218599036335945">
        <ele>164.0</ele>
        <time>2020-03-04T15:53:02.000Z</time>
      </trkpt>
      <trkpt lat="38.66082304157317" lon="0.028188005089759827">
        <ele>164.39999389648438</ele>
        <time>2020-03-04T15:53:03.000Z</time>
      </trkpt>
      <trkpt lat="38.660815581679344" lon="0.02807225100696087">
        <ele>165.60000610351562</ele>
        <time>2020-03-04T15:53:07.000Z</time>
      </trkpt>
      <trkpt lat="38.660809798166156" lon="0.028045345097780228">
        <ele>165.8000030517578</ele>
        <time>2020-03-04T15:53:08.000Z</time>
      </trkpt>
      <trkpt lat="38.660780880600214" lon="0.0279330275952816">
        <ele>166.60000610351562</ele>
        <time>2020-03-04T15:53:12.000Z</time>
      </trkpt>
      <trkpt lat="38.66076814010739" lon="0.027880137786269188">
        <ele>167.1999969482422</ele>
        <time>2020-03-04T15:53:14.000Z</time>
      </trkpt>
      <trkpt lat="38.66075120866299" lon="0.027825068682432175">
        <ele>167.8000030517578</ele>
        <time>2020-03-04T15:53:16.000Z</time>
      </trkpt>
      <trkpt lat="38.660734444856644" lon="0.027713673189282417">
        <ele>168.60000610351562</ele>
        <time>2020-03-04T15:53:20.000Z</time>
      </trkpt>
      <trkpt lat="38.66072505712509" lon="0.027656927704811096">
        <ele>169.0</ele>
        <time>2020-03-04T15:53:22.000Z</time>
      </trkpt>
      <trkpt lat="38.660690020769835" lon="0.027558356523513794">
        <ele>169.60000610351562</ele>
        <time>2020-03-04T15:53:26.000Z</time>
      </trkpt>
      <trkpt lat="38.66067937575281" lon="0.027529941871762276">
        <ele>170.0</ele>
        <time>2020-03-04T15:53:27.000Z</time>
      </trkpt>
      <trkpt lat="38.660661270841956" lon="0.027395999059081078">
        <ele>170.8000030517578</ele>
        <time>2020-03-04T15:53:32.000Z</time>
      </trkpt>
      <trkpt lat="38.66065649315715" lon="0.027370769530534744">
        <ele>171.1999969482422</ele>
        <time>2020-03-04T15:53:33.000Z</time>
      </trkpt>
      <trkpt lat="38.66062288172543" lon="0.027233557775616646">
        <ele>172.0</ele>
        <time>2020-03-04T15:53:38.000Z</time>
      </trkpt>
      <trkpt lat="38.66060821339488" lon="0.02720438875257969">
        <ele>172.1999969482422</ele>
        <time>2020-03-04T15:53:39.000Z</time>
      </trkpt>
      <trkpt lat="38.66056437604129" lon="0.027057873085141182">
        <ele>172.8000030517578</ele>
        <time>2020-03-04T15:53:44.000Z</time>
      </trkpt>
      <trkpt lat="38.66052363999188" lon="0.02694530412554741">
        <ele>173.1999969482422</ele>
        <time>2020-03-04T15:53:48.000Z</time>
      </trkpt>
      <trkpt lat="38.660500170663" lon="0.026887720450758934">
        <ele>173.60000610351562</ele>
        <time>2020-03-04T15:53:50.000Z</time>
      </trkpt>
      <trkpt lat="38.660452561452985" lon="0.026772134006023407">
        <ele>174.39999389648438</ele>
        <time>2020-03-04T15:53:54.000Z</time>
      </trkpt>
      <trkpt lat="38.66040729917586" lon="0.026654032990336418">
        <ele>175.1999969482422</ele>
        <time>2020-03-04T15:53:58.000Z</time>
      </trkpt>
      <trkpt lat="38.660400845110416" lon="0.026625199243426323">
        <ele>175.39999389648438</ele>
        <time>2020-03-04T15:53:59.000Z</time>
      </trkpt>
      <trkpt lat="38.660401767119765" lon="0.02644658088684082">
        <ele>176.1999969482422</ele>
        <time>2020-03-04T15:54:05.000Z</time>
      </trkpt>
      <trkpt lat="38.6604084726423" lon="0.026377346366643906">
        <ele>176.39999389648438</ele>
        <time>2020-03-04T15:54:07.000Z</time>
      </trkpt>
      <trkpt lat="38.66042305715382" lon="0.026189424097537994">
        <ele>177.39999389648438</ele>
        <time>2020-03-04T15:54:13.000Z</time>
      </trkpt>
      <trkpt lat="38.660420877858996" lon="0.02616151235997677">
        <ele>177.39999389648438</ele>
        <time>2020-03-04T15:54:14.000Z</time>
      </trkpt>
      <trkpt lat="38.66042071022093" lon="0.025964705273509026">
        <ele>177.60000610351562</ele>
        <time>2020-03-04T15:54:20.000Z</time>
      </trkpt>
      <trkpt lat="38.660466223955154" lon="0.025812238454818726">
        <ele>178.1999969482422</ele>
        <time>2020-03-04T15:54:25.000Z</time>
      </trkpt>
      <trkpt lat="38.66048550233245" lon="0.025790194049477577">
        <ele>178.39999389648438</ele>
        <time>2020-03-04T15:54:26.000Z</time>
      </trkpt>
      <trkpt lat="38.66059589199722" lon="0.025698663666844368">
        <ele>179.39999389648438</ele>
        <time>2020-03-04T15:54:31.000Z</time>
      </trkpt>
      <trkpt lat="38.660689098760486" lon="0.025643594563007355">
        <ele>180.39999389648438</ele>
        <time>2020-03-04T15:54:35.000Z</time>
      </trkpt>
      <trkpt lat="38.660730589181185" lon="0.02561677247285843">
        <ele>181.0</ele>
        <time>2020-03-04T15:54:37.000Z</time>
      </trkpt>
      <trkpt lat="38.66078658029437" lon="0.02559254877269268">
        <ele>181.8000030517578</ele>
        <time>2020-03-04T15:54:40.000Z</time>
      </trkpt>
      <trkpt lat="38.660856736823916" lon="0.025554830208420753">
        <ele>182.60000610351562</ele>
        <time>2020-03-04T15:54:44.000Z</time>
      </trkpt>
      <trkpt lat="38.660879200324416" lon="0.025547537952661514">
        <ele>182.8000030517578</ele>
        <time>2020-03-04T15:54:45.000Z</time>
      </trkpt>
      <trkpt lat="38.66098062135279" lon="0.025515183806419373">
        <ele>184.1999969482422</ele>
        <time>2020-03-04T15:54:50.000Z</time>
      </trkpt>
      <trkpt lat="38.661002833396196" lon="0.02550269477069378">
        <ele>184.39999389648438</ele>
        <time>2020-03-04T15:54:51.000Z</time>
      </trkpt>
      <trkpt lat="38.66104541346431" lon="0.025470340624451637">
        <ele>185.39999389648438</ele>
        <time>2020-03-04T15:54:53.000Z</time>
      </trkpt>
      <trkpt lat="38.66112655028701" lon="0.025392640382051468">
        <ele>186.39999389648438</ele>
        <time>2020-03-04T15:54:57.000Z</time>
      </trkpt>
      <trkpt lat="38.6611891631037" lon="0.025306055322289467">
        <ele>187.60000610351562</ele>
        <time>2020-03-04T15:55:01.000Z</time>
      </trkpt>
      <trkpt lat="38.661206010729074" lon="0.025289291515946388">
        <ele>187.60000610351562</ele>
        <time>2020-03-04T15:55:02.000Z</time>
      </trkpt>
      <trkpt lat="38.66126602515578" lon="0.025220727548003197">
        <ele>188.60000610351562</ele>
        <time>2020-03-04T15:55:06.000Z</time>
      </trkpt>
      <trkpt lat="38.66130952723324" lon="0.025180159136652946">
        <ele>189.1999969482422</ele>
        <time>2020-03-04T15:55:09.000Z</time>
      </trkpt>
      <trkpt lat="38.661365769803524" lon="0.02513607032597065">
        <ele>189.60000610351562</ele>
        <time>2020-03-04T15:55:12.000Z</time>
      </trkpt>
      <trkpt lat="38.66142511367798" lon="0.02510329708456993">
        <ele>190.1999969482422</ele>
        <time>2020-03-04T15:55:15.000Z</time>
      </trkpt>
      <trkpt lat="38.66146526299417" lon="0.025086784735322">
        <ele>190.8000030517578</ele>
        <time>2020-03-04T15:55:17.000Z</time>
      </trkpt>
      <trkpt lat="38.66153600625694" lon="0.025056861340999603">
        <ele>191.60000610351562</ele>
        <time>2020-03-04T15:55:21.000Z</time>
      </trkpt>
      <trkpt lat="38.66155654191971" lon="0.025052083656191826">
        <ele>192.0</ele>
        <time>2020-03-04T15:55:22.000Z</time>
      </trkpt>
      <trkpt lat="38.66166642867029" lon="0.0250339787453413">
        <ele>193.1999969482422</ele>
        <time>2020-03-04T15:55:28.000Z</time>
      </trkpt>
      <trkpt lat="38.66175008006394" lon="0.02505602315068245">
        <ele>194.39999389648438</ele>
        <time>2020-03-04T15:55:34.000Z</time>
      </trkpt>
      <trkpt lat="38.661813950166106" lon="0.025101620703935623">
        <ele>195.39999389648438</ele>
        <time>2020-03-04T15:55:38.000Z</time>
      </trkpt>
      <trkpt lat="38.66184345446527" lon="0.02511167898774147">
        <ele>195.8000030517578</ele>
        <time>2020-03-04T15:55:40.000Z</time>
      </trkpt>
      <trkpt lat="38.66188243031502" lon="0.025106901302933693">
        <ele>196.60000610351562</ele>
        <time>2020-03-04T15:55:43.000Z</time>
      </trkpt>
      <trkpt lat="38.66192392073572" lon="0.025078821927309036">
        <ele>197.0</ele>
        <time>2020-03-04T15:55:46.000Z</time>
      </trkpt>
      <trkpt lat="38.66198988631368" lon="0.025047054514288902">
        <ele>197.8000030517578</ele>
        <time>2020-03-04T15:55:49.000Z</time>
      </trkpt>
      <trkpt lat="38.662059120833874" lon="0.025018639862537384">
        <ele>198.0</ele>
        <time>2020-03-04T15:55:52.000Z</time>
      </trkpt>
      <trkpt lat="38.662212174385786" lon="0.024958793073892593">
        <ele>198.1999969482422</ele>
        <time>2020-03-04T15:55:58.000Z</time>
      </trkpt>
      <trkpt lat="38.6623773816973" lon="0.024938760325312614">
        <ele>198.1999969482422</ele>
        <time>2020-03-04T15:56:04.000Z</time>
      </trkpt>
      <trkpt lat="38.66243337281048" lon="0.024934401735663414">
        <ele>198.0</ele>
        <time>2020-03-04T15:56:06.000Z</time>
      </trkpt>
      <trkpt lat="38.662527836859226" lon="0.024927863851189613">
        <ele>198.39999389648438</ele>
        <time>2020-03-04T15:56:09.000Z</time>
      </trkpt>
      <trkpt lat="38.662561029195786" lon="0.024920571595430374">
        <ele>198.60000610351562</ele>
        <time>2020-03-04T15:56:10.000Z</time>
      </trkpt>
      <trkpt lat="38.662699330598116" lon="0.024868100881576538">
        <ele>199.1999969482422</ele>
        <time>2020-03-04T15:56:14.000Z</time>
      </trkpt>
      <trkpt lat="38.662776444107294" lon="0.024793585762381554">
        <ele>200.0</ele>
        <time>2020-03-04T15:56:17.000Z</time>
      </trkpt>
      <trkpt lat="38.66283277049661" lon="0.024709012359380722">
        <ele>200.39999389648438</ele>
        <time>2020-03-04T15:56:20.000Z</time>
      </trkpt>
      <trkpt lat="38.66283679381013" lon="0.024679508060216904">
        <ele>200.60000610351562</ele>
        <time>2020-03-04T15:56:21.000Z</time>
      </trkpt>
      <trkpt lat="38.662814665585756" lon="0.02462242729961872">
        <ele>201.0</ele>
        <time>2020-03-04T15:56:23.000Z</time>
      </trkpt>
      <trkpt lat="38.66279630921781" lon="0.024600885808467865">
        <ele>201.1999969482422</ele>
        <time>2020-03-04T15:56:24.000Z</time>
      </trkpt>
      <trkpt lat="38.66273570805788" lon="0.024585798382759094">
        <ele>202.1999969482422</ele>
        <time>2020-03-04T15:56:27.000Z</time>
      </trkpt>
      <trkpt lat="38.66271131671965" lon="0.024591581895947456">
        <ele>202.60000610351562</ele>
        <time>2020-03-04T15:56:28.000Z</time>
      </trkpt>
      <trkpt lat="38.66268943995237" lon="0.024598371237516403">
        <ele>202.8000030517578</ele>
        <time>2020-03-04T15:56:29.000Z</time>
      </trkpt>
      <trkpt lat="38.662648452445865" lon="0.024615051224827766">
        <ele>203.39999389648438</ele>
        <time>2020-03-04T15:56:31.000Z</time>
      </trkpt>
      <trkpt lat="38.66259053349495" lon="0.024642376229166985">
        <ele>204.39999389648438</ele>
        <time>2020-03-04T15:56:34.000Z</time>
      </trkpt>
      <trkpt lat="38.66257008165121" lon="0.024640029296278954">
        <ele>205.0</ele>
        <time>2020-03-04T15:56:35.000Z</time>
      </trkpt>
      <trkpt lat="38.662523394450545" lon="0.024621086195111275">
        <ele>205.8000030517578</ele>
        <time>2020-03-04T15:56:37.000Z</time>
      </trkpt>
      <trkpt lat="38.662452567368746" lon="0.024587223306298256">
        <ele>206.8000030517578</ele>
        <time>2020-03-04T15:56:40.000Z</time>
      </trkpt>
      <trkpt lat="38.662430020049214" lon="0.02457565627992153">
        <ele>207.1999969482422</ele>
        <time>2020-03-04T15:56:41.000Z</time>
      </trkpt>
      <trkpt lat="38.66240772418678" lon="0.024561407044529915">
        <ele>207.39999389648438</ele>
        <time>2020-03-04T15:56:42.000Z</time>
      </trkpt>
      <trkpt lat="38.66233002394438" lon="0.024504326283931732">
        <ele>208.1999969482422</ele>
        <time>2020-03-04T15:56:46.000Z</time>
      </trkpt>
      <trkpt lat="38.662305967882276" lon="0.024497872218489647">
        <ele>208.1999969482422</ele>
        <time>2020-03-04T15:56:47.000Z</time>
      </trkpt>
      <trkpt lat="38.6622804030776" lon="0.024496782571077347">
        <ele>208.39999389648438</ele>
        <time>2020-03-04T15:56:48.000Z</time>
      </trkpt>
      <trkpt lat="38.6621078196913" lon="0.024535004049539566">
        <ele>209.39999389648438</ele>
        <time>2020-03-04T15:56:53.000Z</time>
      </trkpt>
      <trkpt lat="38.661879915744066" lon="0.024576326832175255">
        <ele>209.60000610351562</ele>
        <time>2020-03-04T15:56:59.000Z</time>
      </trkpt>
      <trkpt lat="38.66168210282922" lon="0.02459317445755005">
        <ele>209.8000030517578</ele>
        <time>2020-03-04T15:57:04.000Z</time>
      </trkpt>
      <trkpt lat="38.66164061240852" lon="0.02459786832332611">
        <ele>209.8000030517578</ele>
        <time>2020-03-04T15:57:05.000Z</time>
      </trkpt>
      <trkpt lat="38.66130399517715" lon="0.024671461433172226">
        <ele>210.1999969482422</ele>
        <time>2020-03-04T15:57:13.000Z</time>
      </trkpt>
      <trkpt lat="38.66126066073775" lon="0.02468378283083439">
        <ele>210.39999389648438</ele>
        <time>2020-03-04T15:57:14.000Z</time>
      </trkpt>
      <trkpt lat="38.66100140847266" lon="0.024713370949029922">
        <ele>210.60000610351562</ele>
        <time>2020-03-04T15:57:20.000Z</time>
      </trkpt>
      <trkpt lat="38.66085656918585" lon="0.024689817801117897">
        <ele>210.60000610351562</ele>
        <time>2020-03-04T15:57:23.000Z</time>
      </trkpt>
      <trkpt lat="38.66074450314045" lon="0.024675317108631134">
        <ele>210.60000610351562</ele>
        <time>2020-03-04T15:57:25.000Z</time>
      </trkpt>
      <trkpt lat="38.66057896055281" lon="0.024715550243854523">
        <ele>210.60000610351562</ele>
        <time>2020-03-04T15:57:28.000Z</time>
      </trkpt>
      <trkpt lat="38.660526908934116" lon="0.02472887746989727">
        <ele>210.60000610351562</ele>
        <time>2020-03-04T15:57:29.000Z</time>
      </trkpt>
      <trkpt lat="38.66032373160124" lon="0.02475729212164879">
        <ele>210.60000610351562</ele>
        <time>2020-03-04T15:57:34.000Z</time>
      </trkpt>
      <trkpt lat="38.66019817069173" lon="0.024730470031499863">
        <ele>210.60000610351562</ele>
        <time>2020-03-04T15:57:39.000Z</time>
      </trkpt>
      <trkpt lat="38.660178389400244" lon="0.024725524708628654">
        <ele>210.8000030517578</ele>
        <time>2020-03-04T15:57:40.000Z</time>
      </trkpt>
      <trkpt lat="38.6601322889328" lon="0.024717645719647408">
        <ele>211.60000610351562</ele>
        <time>2020-03-04T15:57:42.000Z</time>
      </trkpt>
      <trkpt lat="38.6600630544126" lon="0.02471504732966423">
        <ele>213.0</ele>
        <time>2020-03-04T15:57:45.000Z</time>
      </trkpt>
      <trkpt lat="38.659991305321455" lon="0.02470850944519043">
        <ele>214.0</ele>
        <time>2020-03-04T15:57:48.000Z</time>
      </trkpt>
      <trkpt lat="38.65996825508773" lon="0.024704234674572945">
        <ele>214.1999969482422</ele>
        <time>2020-03-04T15:57:49.000Z</time>
      </trkpt>
      <trkpt lat="38.65981159731746" lon="0.024702977389097214">
        <ele>215.1999969482422</ele>
        <time>2020-03-04T15:57:56.000Z</time>
      </trkpt>
      <trkpt lat="38.6597022973001" lon="0.024738013744354248">
        <ele>216.0</ele>
        <time>2020-03-04T15:58:02.000Z</time>
      </trkpt>
      <trkpt lat="38.659680001437664" lon="0.02477439120411873">
        <ele>216.39999389648438</ele>
        <time>2020-03-04T15:58:04.000Z</time>
      </trkpt>
      <trkpt lat="38.659616550430655" lon="0.02489752136170864">
        <ele>217.1999969482422</ele>
        <time>2020-03-04T15:58:09.000Z</time>
      </trkpt>
      <trkpt lat="38.65955628454685" lon="0.025036325678229332">
        <ele>218.1999969482422</ele>
        <time>2020-03-04T15:58:14.000Z</time>
      </trkpt>
      <trkpt lat="38.65954429842532" lon="0.025064991787075996">
        <ele>218.1999969482422</ele>
        <time>2020-03-04T15:58:15.000Z</time>
      </trkpt>
      <trkpt lat="38.659531977027655" lon="0.025091059505939484">
        <ele>218.1999969482422</ele>
        <time>2020-03-04T15:58:16.000Z</time>
      </trkpt>
      <trkpt lat="38.6594847869128" lon="0.025230366736650467">
        <ele>219.0</ele>
        <time>2020-03-04T15:58:21.000Z</time>
      </trkpt>
      <trkpt lat="38.65947296842933" lon="0.025281663984060287">
        <ele>219.1999969482422</ele>
        <time>2020-03-04T15:58:23.000Z</time>
      </trkpt>
      <trkpt lat="38.659453606233" lon="0.025362633168697357">
        <ele>219.8000030517578</ele>
        <time>2020-03-04T15:58:26.000Z</time>
      </trkpt>
      <trkpt lat="38.659441620111465" lon="0.025474950671195984">
        <ele>220.39999389648438</ele>
        <time>2020-03-04T15:58:30.000Z</time>
      </trkpt>
      <trkpt lat="38.65942946635187" lon="0.02553597092628479">
        <ele>220.8000030517578</ele>
        <time>2020-03-04T15:58:32.000Z</time>
      </trkpt>
      <trkpt lat="38.65941588766873" lon="0.025621214881539345">
        <ele>221.60000610351562</ele>
        <time>2020-03-04T15:58:35.000Z</time>
      </trkpt>
      <trkpt lat="38.659407924860716" lon="0.025723977014422417">
        <ele>222.39999389648438</ele>
        <time>2020-03-04T15:58:39.000Z</time>
      </trkpt>
      <trkpt lat="38.65939878858626" lon="0.025772424414753914">
        <ele>222.60000610351562</ele>
        <time>2020-03-04T15:58:41.000Z</time>
      </trkpt>
      <trkpt lat="38.65937741473317" lon="0.0258730910718441">
        <ele>223.39999389648438</ele>
        <time>2020-03-04T15:58:45.000Z</time>
      </trkpt>
      <trkpt lat="38.659368781372905" lon="0.025919275358319283">
        <ele>223.8000030517578</ele>
        <time>2020-03-04T15:58:47.000Z</time>
      </trkpt>
      <trkpt lat="38.659341959282756" lon="0.02602614462375641">
        <ele>224.60000610351562</ele>
        <time>2020-03-04T15:58:51.000Z</time>
      </trkpt>
      <trkpt lat="38.659339947625995" lon="0.02605648711323738">
        <ele>225.0</ele>
        <time>2020-03-04T15:58:52.000Z</time>
      </trkpt>
      <trkpt lat="38.65933382883668" lon="0.02621171995997429">
        <ele>226.0</ele>
        <time>2020-03-04T15:58:57.000Z</time>
      </trkpt>
      <trkpt lat="38.65933190099895" lon="0.026241475716233253">
        <ele>226.1999969482422</ele>
        <time>2020-03-04T15:58:58.000Z</time>
      </trkpt>
      <trkpt lat="38.65928269922733" lon="0.02628849819302559">
        <ele>226.60000610351562</ele>
        <time>2020-03-04T15:59:01.000Z</time>
      </trkpt>
      <trkpt lat="38.65923626348376" lon="0.026285648345947266">
        <ele>227.0</ele>
        <time>2020-03-04T15:59:03.000Z</time>
      </trkpt>
      <trkpt lat="38.65914523601532" lon="0.026272572576999664">
        <ele>228.1999969482422</ele>
        <time>2020-03-04T15:59:07.000Z</time>
      </trkpt>
      <trkpt lat="38.65912671200931" lon="0.026267878711223602">
        <ele>228.60000610351562</ele>
        <time>2020-03-04T15:59:08.000Z</time>
      </trkpt>
      <trkpt lat="38.6591116245836" lon="0.0262558925896883">
        <ele>228.8000030517578</ele>
        <time>2020-03-04T15:59:09.000Z</time>
      </trkpt>
      <trkpt lat="38.65910039283335" lon="0.026238206773996353">
        <ele>228.8000030517578</ele>
        <time>2020-03-04T15:59:10.000Z</time>
      </trkpt>
      <trkpt lat="38.65910030901432" lon="0.026183975860476494">
        <ele>229.1999969482422</ele>
        <time>2020-03-04T15:59:12.000Z</time>
      </trkpt>
      <trkpt lat="38.65910424850881" lon="0.02612580545246601">
        <ele>229.60000610351562</ele>
        <time>2020-03-04T15:59:14.000Z</time>
      </trkpt>
      <trkpt lat="38.659111289307475" lon="0.02596445381641388">
        <ele>230.1999969482422</ele>
        <time>2020-03-04T15:59:19.000Z</time>
      </trkpt>
      <trkpt lat="38.65911154076457" lon="0.02593385986983776">
        <ele>230.1999969482422</ele>
        <time>2020-03-04T15:59:20.000Z</time>
      </trkpt>
      <trkpt lat="38.659122018143535" lon="0.02583746798336506">
        <ele>230.1999969482422</ele>
        <time>2020-03-04T15:59:23.000Z</time>
      </trkpt>
      <trkpt lat="38.65912771783769" lon="0.025744512677192688">
        <ele>230.39999389648438</ele>
        <time>2020-03-04T15:59:26.000Z</time>
      </trkpt>
      <trkpt lat="38.659128891304135" lon="0.02557528205215931">
        <ele>230.39999389648438</ele>
        <time>2020-03-04T15:59:32.000Z</time>
      </trkpt>
      <trkpt lat="38.65912243723869" lon="0.025554411113262177">
        <ele>230.39999389648438</ele>
        <time>2020-03-04T15:59:33.000Z</time>
      </trkpt>
      <trkpt lat="38.659078516066074" lon="0.025509651750326157">
        <ele>231.1999969482422</ele>
        <time>2020-03-04T15:59:36.000Z</time>
      </trkpt>
      <trkpt lat="38.659062841907144" lon="0.025500934571027756">
        <ele>231.39999389648438</ele>
        <time>2020-03-04T15:59:37.000Z</time>
      </trkpt>
      <trkpt lat="38.65904666483402" lon="0.02549557015299797">
        <ele>231.8000030517578</ele>
        <time>2020-03-04T15:59:38.000Z</time>
      </trkpt>
      <trkpt lat="38.65901045501232" lon="0.025491463020443916">
        <ele>232.60000610351562</ele>
        <time>2020-03-04T15:59:40.000Z</time>
      </trkpt>
      <trkpt lat="38.65896460600197" lon="0.025483164936304092">
        <ele>233.60000610351562</ele>
        <time>2020-03-04T15:59:43.000Z</time>
      </trkpt>
      <trkpt lat="38.65894834510982" lon="0.025479812175035477">
        <ele>234.0</ele>
        <time>2020-03-04T15:59:44.000Z</time>
      </trkpt>
      <trkpt lat="38.65889746695757" lon="0.02545843832194805">
        <ele>234.8000030517578</ele>
        <time>2020-03-04T15:59:48.000Z</time>
      </trkpt>
      <trkpt lat="38.65888623520732" lon="0.025455253198742867">
        <ele>235.1999969482422</ele>
        <time>2020-03-04T15:59:49.000Z</time>
      </trkpt>
      <trkpt lat="38.65884910337627" lon="0.025428850203752518">
        <ele>236.1999969482422</ele>
        <time>2020-03-04T15:59:52.000Z</time>
      </trkpt>
      <trkpt lat="38.65882026962936" lon="0.025409236550331116">
        <ele>237.0</ele>
        <time>2020-03-04T15:59:54.000Z</time>
      </trkpt>
      <trkpt lat="38.6588079482317" lon="0.025399262085556984">
        <ele>237.1999969482422</ele>
        <time>2020-03-04T15:59:55.000Z</time>
      </trkpt>
      <trkpt lat="38.65879084914923" lon="0.025397250428795815">
        <ele>237.60000610351562</ele>
        <time>2020-03-04T15:59:56.000Z</time>
      </trkpt>
      <trkpt lat="38.65875153802335" lon="0.02539129927754402">
        <ele>238.1999969482422</ele>
        <time>2020-03-04T15:59:59.000Z</time>
      </trkpt>
      <trkpt lat="38.65873862989247" lon="0.02538878470659256">
        <ele>238.60000610351562</ele>
        <time>2020-03-04T16:00:00.000Z</time>
      </trkpt>
      <trkpt lat="38.65872790105641" lon="0.02538166008889675">
        <ele>238.60000610351562</ele>
        <time>2020-03-04T16:00:01.000Z</time>
      </trkpt>
      <trkpt lat="38.65869085304439" lon="0.025362297892570496">
        <ele>239.8000030517578</ele>
        <time>2020-03-04T16:00:04.000Z</time>
      </trkpt>
      <trkpt lat="38.6586644500494" lon="0.02535039559006691">
        <ele>240.0</ele>
        <time>2020-03-04T16:00:06.000Z</time>
      </trkpt>
      <trkpt lat="38.658593790605664" lon="0.025333380326628685">
        <ele>241.0</ele>
        <time>2020-03-04T16:00:11.000Z</time>
      </trkpt>
      <trkpt lat="38.65856638178229" lon="0.025329608470201492">
        <ele>241.39999389648438</ele>
        <time>2020-03-04T16:00:13.000Z</time>
      </trkpt>
      <trkpt lat="38.65855204872787" lon="0.025328854098916054">
        <ele>241.60000610351562</ele>
        <time>2020-03-04T16:00:14.000Z</time>
      </trkpt>
      <trkpt lat="38.65850318223238" lon="0.02532985992729664">
        <ele>242.0</ele>
        <time>2020-03-04T16:00:17.000Z</time>
      </trkpt>
      <trkpt lat="38.658467726781964" lon="0.025334972888231277">
        <ele>242.39999389648438</ele>
        <time>2020-03-04T16:00:19.000Z</time>
      </trkpt>
      <trkpt lat="38.65841341204941" lon="0.025343522429466248">
        <ele>243.1999969482422</ele>
        <time>2020-03-04T16:00:22.000Z</time>
      </trkpt>
      <trkpt lat="38.65834082476795" lon="0.025365231558680534">
        <ele>244.0</ele>
        <time>2020-03-04T16:00:27.000Z</time>
      </trkpt>
      <trkpt lat="38.658326491713524" lon="0.025375457480549812">
        <ele>244.1999969482422</ele>
        <time>2020-03-04T16:00:28.000Z</time>
      </trkpt>
      <trkpt lat="38.65823294967413" lon="0.025402866303920746">
        <ele>245.60000610351562</ele>
        <time>2020-03-04T16:00:33.000Z</time>
      </trkpt>
      <trkpt lat="38.65809942595661" lon="0.02540462650358677">
        <ele>246.39999389648438</ele>
        <time>2020-03-04T16:00:40.000Z</time>
      </trkpt>
      <trkpt lat="38.65801502019167" lon="0.025415858253836632">
        <ele>246.60000610351562</ele>
        <time>2020-03-04T16:00:44.000Z</time>
      </trkpt>
      <trkpt lat="38.65795022808015" lon="0.025417953729629517">
        <ele>247.0</ele>
        <time>2020-03-04T16:00:47.000Z</time>
      </trkpt>
      <trkpt lat="38.657861379906535" lon="0.02540462650358677">
        <ele>247.39999389648438</ele>
        <time>2020-03-04T16:00:51.000Z</time>
      </trkpt>
      <trkpt lat="38.65782416425645" lon="0.025392137467861176">
        <ele>248.0</ele>
        <time>2020-03-04T16:00:53.000Z</time>
      </trkpt>
      <trkpt lat="38.65779306739569" lon="0.025372859090566635">
        <ele>248.39999389648438</ele>
        <time>2020-03-04T16:00:55.000Z</time>
      </trkpt>
      <trkpt lat="38.657743614166975" lon="0.02533002756536007">
        <ele>249.1999969482422</ele>
        <time>2020-03-04T16:00:59.000Z</time>
      </trkpt>
      <trkpt lat="38.65771905519068" lon="0.02531510777771473">
        <ele>250.0</ele>
        <time>2020-03-04T16:01:01.000Z</time>
      </trkpt>
      <trkpt lat="38.65766289643943" lon="0.025242352858185768">
        <ele>251.0</ele>
        <time>2020-03-04T16:01:06.000Z</time>
      </trkpt>
      <trkpt lat="38.65761780180037" lon="0.025196587666869164">
        <ele>251.8000030517578</ele>
        <time>2020-03-04T16:01:09.000Z</time>
      </trkpt>
      <trkpt lat="38.65758947096765" lon="0.025166915729641914">
        <ele>252.39999389648438</ele>
        <time>2020-03-04T16:01:11.000Z</time>
      </trkpt>
      <trkpt lat="38.657566253095865" lon="0.025125257670879364">
        <ele>253.0</ele>
        <time>2020-03-04T16:01:14.000Z</time>
      </trkpt>
      <trkpt lat="38.65755409933627" lon="0.025099357590079308">
        <ele>253.8000030517578</ele>
        <time>2020-03-04T16:01:16.000Z</time>
      </trkpt>
      <trkpt lat="38.65755225531757" lon="0.02506767399609089">
        <ele>254.39999389648438</ele>
        <time>2020-03-04T16:01:18.000Z</time>
      </trkpt>
      <trkpt lat="38.657558960840106" lon="0.025032805278897285">
        <ele>254.60000610351562</ele>
        <time>2020-03-04T16:01:20.000Z</time>
      </trkpt>
      <trkpt lat="38.65758259780705" lon="0.024976562708616257">
        <ele>255.39999389648438</ele>
        <time>2020-03-04T16:01:23.000Z</time>
      </trkpt>
      <trkpt lat="38.65758662112057" lon="0.024958625435829163">
        <ele>255.60000610351562</ele>
        <time>2020-03-04T16:01:24.000Z</time>
      </trkpt>
      <trkpt lat="38.65759240463376" lon="0.024944040924310684">
        <ele>255.8000030517578</ele>
        <time>2020-03-04T16:01:25.000Z</time>
      </trkpt>
      <trkpt lat="38.65760447457433" lon="0.024930546060204506">
        <ele>256.3999938964844</ele>
        <time>2020-03-04T16:01:27.000Z</time>
      </trkpt>
      <trkpt lat="38.657632218673825" lon="0.024923253804445267">
        <ele>257.0</ele>
        <time>2020-03-04T16:01:30.000Z</time>
      </trkpt>
      <trkpt lat="38.657649820670485" lon="0.024917805567383766">
        <ele>257.3999938964844</ele>
        <time>2020-03-04T16:01:32.000Z</time>
      </trkpt>
      <trkpt lat="38.65768996998668" lon="0.024900874122977257">
        <ele>258.20001220703125</ele>
        <time>2020-03-04T16:01:36.000Z</time>
      </trkpt>
      <trkpt lat="38.657725090160966" lon="0.024885283783078194">
        <ele>258.3999938964844</ele>
        <time>2020-03-04T16:01:38.000Z</time>
      </trkpt>
      <trkpt lat="38.65782382898033" lon="0.024850917980074883">
        <ele>258.6000061035156</ele>
        <time>2020-03-04T16:01:44.000Z</time>
      </trkpt>
      <trkpt lat="38.65784243680537" lon="0.02484479919075966">
        <ele>258.6000061035156</ele>
        <time>2020-03-04T16:01:45.000Z</time>
      </trkpt>
      <trkpt lat="38.657982079312205" lon="0.02483893185853958">
        <ele>258.79998779296875</ele>
        <time>2020-03-04T16:01:52.000Z</time>
      </trkpt>
      <trkpt lat="38.65807511843741" lon="0.024836668744683266">
        <ele>258.79998779296875</ele>
        <time>2020-03-04T16:01:56.000Z</time>
      </trkpt>
      <trkpt lat="38.65811912342906" lon="0.02484513446688652">
        <ele>259.0</ele>
        <time>2020-03-04T16:01:58.000Z</time>
      </trkpt>
      <trkpt lat="38.65814108401537" lon="0.024846727028489113">
        <ele>259.0</ele>
        <time>2020-03-04T16:01:59.000Z</time>
      </trkpt>
      <trkpt lat="38.65824770182371" lon="0.024788808077573776">
        <ele>259.20001220703125</ele>
        <time>2020-03-04T16:02:04.000Z</time>
      </trkpt>
      <trkpt lat="38.65825926885009" lon="0.024724015966057777">
        <ele>259.3999938964844</ele>
        <time>2020-03-04T16:02:07.000Z</time>
      </trkpt>
      <trkpt lat="38.65823781117797" lon="0.024676155298948288">
        <ele>259.79998779296875</ele>
        <time>2020-03-04T16:02:09.000Z</time>
      </trkpt>
      <trkpt lat="38.65822507068515" lon="0.024667605757713318">
        <ele>260.0</ele>
        <time>2020-03-04T16:02:10.000Z</time>
      </trkpt>
      <trkpt lat="38.65820554085076" lon="0.024655703455209732">
        <ele>260.6000061035156</ele>
        <time>2020-03-04T16:02:12.000Z</time>
      </trkpt>
      <trkpt lat="38.658184334635735" lon="0.024655703455209732">
        <ele>261.20001220703125</ele>
        <time>2020-03-04T16:02:14.000Z</time>
      </trkpt>
      <trkpt lat="38.65812096744776" lon="0.0246555358171463">
        <ele>262.20001220703125</ele>
        <time>2020-03-04T16:02:18.000Z</time>
      </trkpt>
      <trkpt lat="38.65807268768549" lon="0.024667270481586456">
        <ele>262.79998779296875</ele>
        <time>2020-03-04T16:02:20.000Z</time>
      </trkpt>
      <trkpt lat="38.657997166737914" lon="0.02465520054101944">
        <ele>263.20001220703125</ele>
        <time>2020-03-04T16:02:23.000Z</time>
      </trkpt>
      <trkpt lat="38.6579252500087" lon="0.024628126993775368">
        <ele>263.3999938964844</ele>
        <time>2020-03-04T16:02:26.000Z</time>
      </trkpt>
      <trkpt lat="38.65784453228116" lon="0.02460172399878502">
        <ele>263.6000061035156</ele>
        <time>2020-03-04T16:02:30.000Z</time>
      </trkpt>
      <trkpt lat="38.65781066939235" lon="0.024578506126999855">
        <ele>263.6000061035156</ele>
        <time>2020-03-04T16:02:32.000Z</time>
      </trkpt>
      <trkpt lat="38.65774378180504" lon="0.024579092860221863">
        <ele>264.20001220703125</ele>
        <time>2020-03-04T16:02:36.000Z</time>
      </trkpt>
      <trkpt lat="38.65769801661372" lon="0.02459258772432804">
        <ele>264.3999938964844</ele>
        <time>2020-03-04T16:02:39.000Z</time>
      </trkpt>
      <trkpt lat="38.65761721506715" lon="0.024591246619820595">
        <ele>265.20001220703125</ele>
        <time>2020-03-04T16:02:44.000Z</time>
      </trkpt>
      <trkpt lat="38.65754404105246" lon="0.024609100073575974">
        <ele>266.20001220703125</ele>
        <time>2020-03-04T16:02:49.000Z</time>
      </trkpt>
      <trkpt lat="38.65747136995196" lon="0.024642543867230415">
        <ele>267.20001220703125</ele>
        <time>2020-03-04T16:02:54.000Z</time>
      </trkpt>
      <trkpt lat="38.657445553690195" lon="0.024664420634508133">
        <ele>268.0</ele>
        <time>2020-03-04T16:02:56.000Z</time>
      </trkpt>
      <trkpt lat="38.65743264555931" lon="0.024671629071235657">
        <ele>268.3999938964844</ele>
        <time>2020-03-04T16:02:57.000Z</time>
      </trkpt>
      <trkpt lat="38.657409343868494" lon="0.024693338200449944">
        <ele>268.79998779296875</ele>
        <time>2020-03-04T16:02:59.000Z</time>
      </trkpt>
      <trkpt lat="38.6573882214725" lon="0.02470012754201889">
        <ele>269.3999938964844</ele>
        <time>2020-03-04T16:03:01.000Z</time>
      </trkpt>
      <trkpt lat="38.657377073541284" lon="0.024702642112970352">
        <ele>269.79998779296875</ele>
        <time>2020-03-04T16:03:02.000Z</time>
      </trkpt>
      <trkpt lat="38.657367434352636" lon="0.02470976673066616">
        <ele>270.0</ele>
        <time>2020-03-04T16:03:03.000Z</time>
      </trkpt>
      <trkpt lat="38.6573417019099" lon="0.024723932147026062">
        <ele>270.6000061035156</ele>
        <time>2020-03-04T16:03:05.000Z</time>
      </trkpt>
      <trkpt lat="38.65729585289955" lon="0.024735834449529648">
        <ele>271.6000061035156</ele>
        <time>2020-03-04T16:03:08.000Z</time>
      </trkpt>
      <trkpt lat="38.65728210657835" lon="0.024744216352701187">
        <ele>271.79998779296875</ele>
        <time>2020-03-04T16:03:09.000Z</time>
      </trkpt>
      <trkpt lat="38.657248076051474" lon="0.02475561574101448">
        <ele>272.20001220703125</ele>
        <time>2020-03-04T16:03:11.000Z</time>
      </trkpt>
      <trkpt lat="38.657200802117586" lon="0.024776319041848183">
        <ele>273.0</ele>
        <time>2020-03-04T16:03:14.000Z</time>
      </trkpt>
      <trkpt lat="38.65718688815832" lon="0.024783527478575706">
        <ele>273.20001220703125</ele>
        <time>2020-03-04T16:03:15.000Z</time>
      </trkpt>
      <trkpt lat="38.65709443576634" lon="0.024823173880577087">
        <ele>273.6000061035156</ele>
        <time>2020-03-04T16:03:20.000Z</time>
      </trkpt>
      <trkpt lat="38.657068284228444" lon="0.02484220080077648">
        <ele>273.79998779296875</ele>
        <time>2020-03-04T16:03:22.000Z</time>
      </trkpt>
      <trkpt lat="38.65704766474664" lon="0.024858461692929268">
        <ele>274.20001220703125</ele>
        <time>2020-03-04T16:03:24.000Z</time>
      </trkpt>
      <trkpt lat="38.65703718736768" lon="0.024864664301276207">
        <ele>274.3999938964844</ele>
        <time>2020-03-04T16:03:25.000Z</time>
      </trkpt>
      <trkpt lat="38.65701908245683" lon="0.024879081174731255">
        <ele>275.0</ele>
        <time>2020-03-04T16:03:27.000Z</time>
      </trkpt>
      <trkpt lat="38.65699133835733" lon="0.024907328188419342">
        <ele>275.6000061035156</ele>
        <time>2020-03-04T16:03:30.000Z</time>
      </trkpt>
      <trkpt lat="38.65698387846351" lon="0.024928199127316475">
        <ele>275.79998779296875</ele>
        <time>2020-03-04T16:03:31.000Z</time>
      </trkpt>
      <trkpt lat="38.65696728229523" lon="0.02497396431863308">
        <ele>276.0</ele>
        <time>2020-03-04T16:03:33.000Z</time>
      </trkpt>
      <trkpt lat="38.65692688152194" lon="0.025066165253520012">
        <ele>277.20001220703125</ele>
        <time>2020-03-04T16:03:38.000Z</time>
      </trkpt>
      <trkpt lat="38.65691967308521" lon="0.02508418634533882">
        <ele>277.3999938964844</ele>
        <time>2020-03-04T16:03:39.000Z</time>
      </trkpt>
      <trkpt lat="38.65688103251159" lon="0.025134142488241196">
        <ele>278.20001220703125</ele>
        <time>2020-03-04T16:03:42.000Z</time>
      </trkpt>
      <trkpt lat="38.65682244300842" lon="0.025177225470542908">
        <ele>278.79998779296875</ele>
        <time>2020-03-04T16:03:45.000Z</time>
      </trkpt>
      <trkpt lat="38.65679201669991" lon="0.025194156914949417">
        <ele>279.3999938964844</ele>
        <time>2020-03-04T16:03:47.000Z</time>
      </trkpt>
      <trkpt lat="38.65673535503447" lon="0.025199521332979202">
        <ele>280.79998779296875</ele>
        <time>2020-03-04T16:03:51.000Z</time>
      </trkpt>
      <trkpt lat="38.65665220655501" lon="0.025190971791744232">
        <ele>282.0</ele>
        <time>2020-03-04T16:03:57.000Z</time>
      </trkpt>
      <trkpt lat="38.656633011996746" lon="0.025177476927638054">
        <ele>282.6000061035156</ele>
        <time>2020-03-04T16:03:59.000Z</time>
      </trkpt>
      <trkpt lat="38.65660987794399" lon="0.025160713121294975">
        <ele>283.20001220703125</ele>
        <time>2020-03-04T16:04:01.000Z</time>
      </trkpt>
      <trkpt lat="38.656557239592075" lon="0.025137662887573242">
        <ele>284.20001220703125</ele>
        <time>2020-03-04T16:04:05.000Z</time>
      </trkpt>
      <trkpt lat="38.65650460124016" lon="0.025110002607107162">
        <ele>285.3999938964844</ele>
        <time>2020-03-04T16:04:09.000Z</time>
      </trkpt>
      <trkpt lat="38.65647836588323" lon="0.025104135274887085">
        <ele>286.0</ele>
        <time>2020-03-04T16:04:11.000Z</time>
      </trkpt>
      <trkpt lat="38.65645338781178" lon="0.025096340104937553">
        <ele>286.6000061035156</ele>
        <time>2020-03-04T16:04:13.000Z</time>
      </trkpt>
      <trkpt lat="38.656397480517626" lon="0.025105057284235954">
        <ele>287.6000061035156</ele>
        <time>2020-03-04T16:04:17.000Z</time>
      </trkpt>
      <trkpt lat="38.656364204362035" lon="0.025108577683568">
        <ele>288.3999938964844</ele>
        <time>2020-03-04T16:04:19.000Z</time>
      </trkpt>
      <trkpt lat="38.65633620880544" lon="0.025113606825470924">
        <ele>288.79998779296875</ele>
        <time>2020-03-04T16:04:21.000Z</time>
      </trkpt>
      <trkpt lat="38.65626219660044" lon="0.025119725614786148">
        <ele>289.79998779296875</ele>
        <time>2020-03-04T16:04:26.000Z</time>
      </trkpt>
      <trkpt lat="38.65619488991797" lon="0.025128358975052834">
        <ele>291.0</ele>
        <time>2020-03-04T16:04:30.000Z</time>
      </trkpt>
      <trkpt lat="38.65616396069527" lon="0.025133388116955757">
        <ele>291.79998779296875</ele>
        <time>2020-03-04T16:04:32.000Z</time>
      </trkpt>
      <trkpt lat="38.65612733177841" lon="0.025139590725302696">
        <ele>292.0</ele>
        <time>2020-03-04T16:04:34.000Z</time>
      </trkpt>
      <trkpt lat="38.65606061182916" lon="0.02514386549592018">
        <ele>293.0</ele>
        <time>2020-03-04T16:04:38.000Z</time>
      </trkpt>
      <trkpt lat="38.656031945720315" lon="0.025143194943666458">
        <ele>293.3999938964844</ele>
        <time>2020-03-04T16:04:40.000Z</time>
      </trkpt>
      <trkpt lat="38.65598467178643" lon="0.02516096457839012">
        <ele>294.20001220703125</ele>
        <time>2020-03-04T16:04:44.000Z</time>
      </trkpt>
      <trkpt lat="38.65598324686289" lon="0.025162473320961">
        <ele>294.20001220703125</ele>
        <time>2020-03-04T16:04:45.000Z</time>
      </trkpt>
      <trkpt lat="38.655944019556046" lon="0.02519357018172741">
        <ele>295.20001220703125</ele>
        <time>2020-03-04T16:06:29.000Z</time>
      </trkpt>
      <trkpt lat="38.65594334900379" lon="0.02519373781979084">
        <ele>295.20001220703125</ele>
        <time>2020-03-04T16:06:30.000Z</time>
      </trkpt>
      <trkpt lat="38.65592239424586" lon="0.025189043954014778">
        <ele>295.20001220703125</ele>
        <time>2020-03-04T16:06:35.000Z</time>
      </trkpt>
      <trkpt lat="38.65591283887625" lon="0.02518703229725361">
        <ele>295.20001220703125</ele>
        <time>2020-03-04T16:06:36.000Z</time>
      </trkpt>
      <trkpt lat="38.655901020392776" lon="0.025184182450175285">
        <ele>295.20001220703125</ele>
        <time>2020-03-04T16:06:37.000Z</time>
      </trkpt>
      <trkpt lat="38.65579557605088" lon="0.025214608758687973">
        <ele>295.20001220703125</ele>
        <time>2020-03-04T16:06:43.000Z</time>
      </trkpt>
      <trkpt lat="38.65561620332301" lon="0.02527068369090557">
        <ele>295.20001220703125</ele>
        <time>2020-03-04T16:06:50.000Z</time>
      </trkpt>
      <trkpt lat="38.655535988509655" lon="0.025305049493908882">
        <ele>295.20001220703125</ele>
        <time>2020-03-04T16:06:53.000Z</time>
      </trkpt>
      <trkpt lat="38.65545116364956" lon="0.02530488185584545">
        <ele>295.20001220703125</ele>
        <time>2020-03-04T16:06:56.000Z</time>
      </trkpt>
      <trkpt lat="38.6553971003741" lon="0.025301948189735413">
        <ele>295.3999938964844</ele>
        <time>2020-03-04T16:06:58.000Z</time>
      </trkpt>
      <trkpt lat="38.65534404292703" lon="0.025300858542323112">
        <ele>295.79998779296875</ele>
        <time>2020-03-04T16:07:00.000Z</time>
      </trkpt>
      <trkpt lat="38.655289728194475" lon="0.025297589600086212">
        <ele>296.3999938964844</ele>
        <time>2020-03-04T16:07:02.000Z</time>
      </trkpt>
      <trkpt lat="38.655240358784795" lon="0.025292392820119858">
        <ele>296.6000061035156</ele>
        <time>2020-03-04T16:07:04.000Z</time>
      </trkpt>
      <trkpt lat="38.65520196966827" lon="0.025294488295912743">
        <ele>297.20001220703125</ele>
        <time>2020-03-04T16:07:06.000Z</time>
      </trkpt>
      <trkpt lat="38.655182691290975" lon="0.025292392820119858">
        <ele>297.3999938964844</ele>
        <time>2020-03-04T16:07:07.000Z</time>
      </trkpt>
      <trkpt lat="38.65512418560684" lon="0.025279149413108826">
        <ele>298.0</ele>
        <time>2020-03-04T16:07:10.000Z</time>
      </trkpt>
      <trkpt lat="38.655105996876955" lon="0.025276634842157364">
        <ele>298.3999938964844</ele>
        <time>2020-03-04T16:07:11.000Z</time>
      </trkpt>
      <trkpt lat="38.65504950284958" lon="0.02526691183447838">
        <ele>299.6000061035156</ele>
        <time>2020-03-04T16:07:14.000Z</time>
      </trkpt>
      <trkpt lat="38.65499225445092" lon="0.02525651827454567">
        <ele>300.6000061035156</ele>
        <time>2020-03-04T16:07:17.000Z</time>
      </trkpt>
      <trkpt lat="38.65497515536845" lon="0.025249477475881577">
        <ele>300.6000061035156</ele>
        <time>2020-03-04T16:07:18.000Z</time>
      </trkpt>
      <trkpt lat="38.65487021394074" lon="0.025214022025465965">
        <ele>301.79998779296875</ele>
        <time>2020-03-04T16:07:24.000Z</time>
      </trkpt>
      <trkpt lat="38.65478706546128" lon="0.025170519948005676">
        <ele>302.79998779296875</ele>
        <time>2020-03-04T16:07:29.000Z</time>
      </trkpt>
      <trkpt lat="38.65476971492171" lon="0.025163646787405014">
        <ele>303.0</ele>
        <time>2020-03-04T16:07:30.000Z</time>
      </trkpt>
      <trkpt lat="38.654654463753104" lon="0.025146882981061935">
        <ele>303.79998779296875</ele>
        <time>2020-03-04T16:07:36.000Z</time>
      </trkpt>
      <trkpt lat="38.6545304954052" lon="0.025116121396422386">
        <ele>304.6000061035156</ele>
        <time>2020-03-04T16:07:43.000Z</time>
      </trkpt>
      <trkpt lat="38.65448581986129" lon="0.02509055659174919">
        <ele>304.79998779296875</ele>
        <time>2020-03-04T16:07:46.000Z</time>
      </trkpt>
      <trkpt lat="38.654435528442264" lon="0.025042612105607986">
        <ele>306.0</ele>
        <time>2020-03-04T16:07:50.000Z</time>
      </trkpt>
      <trkpt lat="38.654385320842266" lon="0.02498653717339039">
        <ele>307.0</ele>
        <time>2020-03-04T16:07:54.000Z</time>
      </trkpt>
      <trkpt lat="38.65431952290237" lon="0.024901963770389557">
        <ele>307.79998779296875</ele>
        <time>2020-03-04T16:07:59.000Z</time>
      </trkpt>
      <trkpt lat="38.654236290603876" lon="0.024786964058876038">
        <ele>308.20001220703125</ele>
        <time>2020-03-04T16:08:05.000Z</time>
      </trkpt>
      <trkpt lat="38.65422137081623" lon="0.02476366236805916">
        <ele>308.3999938964844</ele>
        <time>2020-03-04T16:08:06.000Z</time>
      </trkpt>
      <trkpt lat="38.654138054698706" lon="0.02466299571096897">
        <ele>309.20001220703125</ele>
        <time>2020-03-04T16:08:12.000Z</time>
      </trkpt>
      <trkpt lat="38.65410762839019" lon="0.024639274924993515">
        <ele>309.20001220703125</ele>
        <time>2020-03-04T16:08:14.000Z</time>
      </trkpt>
      <trkpt lat="38.65409119985998" lon="0.024632401764392853">
        <ele>309.6000061035156</ele>
        <time>2020-03-04T16:08:15.000Z</time>
      </trkpt>
      <trkpt lat="38.654038310050964" lon="0.024606334045529366">
        <ele>309.6000061035156</ele>
        <time>2020-03-04T16:08:18.000Z</time>
      </trkpt>
      <trkpt lat="38.65397326648235" lon="0.024581104516983032">
        <ele>310.3999938964844</ele>
        <time>2020-03-04T16:08:22.000Z</time>
      </trkpt>
      <trkpt lat="38.653936637565494" lon="0.024566520005464554">
        <ele>311.0</ele>
        <time>2020-03-04T16:08:24.000Z</time>
      </trkpt>
      <trkpt lat="38.65387829951942" lon="0.02455419860780239">
        <ele>311.6000061035156</ele>
        <time>2020-03-04T16:08:27.000Z</time>
      </trkpt>
      <trkpt lat="38.65380068309605" lon="0.024550342932343483">
        <ele>312.79998779296875</ele>
        <time>2020-03-04T16:08:31.000Z</time>
      </trkpt>
      <trkpt lat="38.65377763286233" lon="0.024558473378419876">
        <ele>313.0</ele>
        <time>2020-03-04T16:08:32.000Z</time>
      </trkpt>
      <trkpt lat="38.65368953906" lon="0.024580853059887886">
        <ele>313.79998779296875</ele>
        <time>2020-03-04T16:08:36.000Z</time>
      </trkpt>
      <trkpt lat="38.65364721044898" lon="0.024593845009803772">
        <ele>314.0</ele>
        <time>2020-03-04T16:08:38.000Z</time>
      </trkpt>
      <trkpt lat="38.65350781939924" lon="0.024656960740685463">
        <ele>314.6000061035156</ele>
        <time>2020-03-04T16:08:44.000Z</time>
      </trkpt>
      <trkpt lat="38.653461299836636" lon="0.024681268259882927">
        <ele>314.79998779296875</ele>
        <time>2020-03-04T16:08:46.000Z</time>
      </trkpt>
      <trkpt lat="38.653381587937474" lon="0.02474689856171608">
        <ele>315.20001220703125</ele>
        <time>2020-03-04T16:08:50.000Z</time>
      </trkpt>
      <trkpt lat="38.653273629024625" lon="0.02484840340912342">
        <ele>315.79998779296875</ele>
        <time>2020-03-04T16:08:56.000Z</time>
      </trkpt>
      <trkpt lat="38.653252171352506" lon="0.024870866909623146">
        <ele>315.79998779296875</ele>
        <time>2020-03-04T16:08:57.000Z</time>
      </trkpt>
      <trkpt lat="38.65311328321695" lon="0.024989135563373566">
        <ele>316.3999938964844</ele>
        <time>2020-03-04T16:09:02.000Z</time>
      </trkpt>
      <trkpt lat="38.652975987643" lon="0.025038840249180794">
        <ele>316.6000061035156</ele>
        <time>2020-03-04T16:09:07.000Z</time>
      </trkpt>
      <trkpt lat="38.6528536118567" lon="0.02496977336704731">
        <ele>316.6000061035156</ele>
        <time>2020-03-04T16:09:11.000Z</time>
      </trkpt>
      <trkpt lat="38.65282972343266" lon="0.024927696213126183">
        <ele>316.6000061035156</ele>
        <time>2020-03-04T16:09:12.000Z</time>
      </trkpt>
      <trkpt lat="38.65278563462198" lon="0.024740025401115417">
        <ele>316.6000061035156</ele>
        <time>2020-03-04T16:09:15.000Z</time>
      </trkpt>
      <trkpt lat="38.65274892188609" lon="0.024479515850543976">
        <ele>316.3999938964844</ele>
        <time>2020-03-04T16:09:18.000Z</time>
      </trkpt>
      <trkpt lat="38.65272620692849" lon="0.024391254410147667">
        <ele>316.3999938964844</ele>
        <time>2020-03-04T16:09:19.000Z</time>
      </trkpt>
      <trkpt lat="38.65266786888242" lon="0.02423962578177452">
        <ele>316.20001220703125</ele>
        <time>2020-03-04T16:09:21.000Z</time>
      </trkpt>
      <trkpt lat="38.65259368903935" lon="0.024124626070261">
        <ele>315.20001220703125</ele>
        <time>2020-03-04T16:09:23.000Z</time>
      </trkpt>
      <trkpt lat="38.652549516409636" lon="0.02408280037343502">
        <ele>314.20001220703125</ele>
        <time>2020-03-04T16:09:24.000Z</time>
      </trkpt>
      <trkpt lat="38.652504002675414" lon="0.024040304124355316">
        <ele>313.79998779296875</ele>
        <time>2020-03-04T16:09:25.000Z</time>
      </trkpt>
      <trkpt lat="38.652373412624" lon="0.02390870824456215">
        <ele>313.20001220703125</ele>
        <time>2020-03-04T16:09:28.000Z</time>
      </trkpt>
      <trkpt lat="38.65233359858394" lon="0.02386864274740219">
        <ele>313.20001220703125</ele>
        <time>2020-03-04T16:09:29.000Z</time>
      </trkpt>
      <trkpt lat="38.65212405100465" lon="0.023713158443570137">
        <ele>313.0</ele>
        <time>2020-03-04T16:09:34.000Z</time>
      </trkpt>
      <trkpt lat="38.65180562250316" lon="0.02355046570301056">
        <ele>314.0</ele>
        <time>2020-03-04T16:09:41.000Z</time>
      </trkpt>
      <trkpt lat="38.65175927057862" lon="0.023529427126049995">
        <ele>314.0</ele>
        <time>2020-03-04T16:09:42.000Z</time>
      </trkpt>
      <trkpt lat="38.651715852320194" lon="0.023503946140408516">
        <ele>314.20001220703125</ele>
        <time>2020-03-04T16:09:43.000Z</time>
      </trkpt>
      <trkpt lat="38.65152130834758" lon="0.023434879258275032">
        <ele>314.20001220703125</ele>
        <time>2020-03-04T16:09:47.000Z</time>
      </trkpt>
      <trkpt lat="38.65130715072155" lon="0.02337126061320305">
        <ele>314.20001220703125</ele>
        <time>2020-03-04T16:09:51.000Z</time>
      </trkpt>
      <trkpt lat="38.65124864503741" lon="0.023337816819548607">
        <ele>314.20001220703125</ele>
        <time>2020-03-04T16:09:52.000Z</time>
      </trkpt>
      <trkpt lat="38.65107455290854" lon="0.023203957825899124">
        <ele>314.0</ele>
        <time>2020-03-04T16:09:55.000Z</time>
      </trkpt>
      <trkpt lat="38.65101596340537" lon="0.02315492369234562">
        <ele>314.0</ele>
        <time>2020-03-04T16:09:56.000Z</time>
      </trkpt>
      <trkpt lat="38.650944381952286" lon="0.02311469055712223">
        <ele>314.0</ele>
        <time>2020-03-04T16:09:57.000Z</time>
      </trkpt>
      <trkpt lat="38.65079551935196" lon="0.023071272298693657">
        <ele>313.20001220703125</ele>
        <time>2020-03-04T16:09:59.000Z</time>
      </trkpt>
      <trkpt lat="38.650716645643115" lon="0.023078732192516327">
        <ele>312.79998779296875</ele>
        <time>2020-03-04T16:10:00.000Z</time>
      </trkpt>
      <trkpt lat="38.65056551992893" lon="0.02312089316546917">
        <ele>311.6000061035156</ele>
        <time>2020-03-04T16:10:02.000Z</time>
      </trkpt>
      <trkpt lat="38.65049410611391" lon="0.02313598059117794">
        <ele>311.20001220703125</ele>
        <time>2020-03-04T16:10:03.000Z</time>
      </trkpt>
      <trkpt lat="38.65042713470757" lon="0.023133130744099617">
        <ele>310.6000061035156</ele>
        <time>2020-03-04T16:10:04.000Z</time>
      </trkpt>
      <trkpt lat="38.65036913193762" lon="0.0231286883354187">
        <ele>309.3999938964844</ele>
        <time>2020-03-04T16:10:05.000Z</time>
      </trkpt>
      <trkpt lat="38.65028833039105" lon="0.02307194285094738">
        <ele>308.0</ele>
        <time>2020-03-04T16:10:07.000Z</time>
      </trkpt>
      <trkpt lat="38.65023024380207" lon="0.02286306582391262">
        <ele>307.6000061035156</ele>
        <time>2020-03-04T16:10:11.000Z</time>
      </trkpt>
      <trkpt lat="38.65015799179673" lon="0.02263549715280533">
        <ele>308.0</ele>
        <time>2020-03-04T16:10:16.000Z</time>
      </trkpt>
      <trkpt lat="38.650138629600406" lon="0.022591659799218178">
        <ele>308.20001220703125</ele>
        <time>2020-03-04T16:10:17.000Z</time>
      </trkpt>
      <trkpt lat="38.650073669850826" lon="0.022441120818257332">
        <ele>308.6000061035156</ele>
        <time>2020-03-04T16:10:21.000Z</time>
      </trkpt>
      <trkpt lat="38.6500300001353" lon="0.022393260151147842">
        <ele>308.79998779296875</ele>
        <time>2020-03-04T16:10:23.000Z</time>
      </trkpt>
      <trkpt lat="38.64998037926853" lon="0.02235202118754387">
        <ele>309.0</ele>
        <time>2020-03-04T16:10:25.000Z</time>
      </trkpt>
      <trkpt lat="38.649901673197746" lon="0.022320421412587166">
        <ele>309.6000061035156</ele>
        <time>2020-03-04T16:10:28.000Z</time>
      </trkpt>
      <trkpt lat="38.649843502789736" lon="0.02234581857919693">
        <ele>310.0</ele>
        <time>2020-03-04T16:10:31.000Z</time>
      </trkpt>
      <trkpt lat="38.64981156773865" lon="0.022404156625270844">
        <ele>310.3999938964844</ele>
        <time>2020-03-04T16:10:33.000Z</time>
      </trkpt>
      <trkpt lat="38.64976454526186" lon="0.022488227114081383">
        <ele>310.6000061035156</ele>
        <time>2020-03-04T16:10:36.000Z</time>
      </trkpt>
      <trkpt lat="38.64973286166787" lon="0.022541368380188942">
        <ele>311.20001220703125</ele>
        <time>2020-03-04T16:10:38.000Z</time>
      </trkpt>
      <trkpt lat="38.649692544713616" lon="0.02260054461658001">
        <ele>312.0</ele>
        <time>2020-03-04T16:10:40.000Z</time>
      </trkpt>
      <trkpt lat="38.64957452751696" lon="0.022783102467656136">
        <ele>312.0</ele>
        <time>2020-03-04T16:10:45.000Z</time>
      </trkpt>
      <trkpt lat="38.649432957172394" lon="0.023027602583169937">
        <ele>312.0</ele>
        <time>2020-03-04T16:10:51.000Z</time>
      </trkpt>
      <trkpt lat="38.64940538071096" lon="0.023070182651281357">
        <ele>312.0</ele>
        <time>2020-03-04T16:10:52.000Z</time>
      </trkpt>
      <trkpt lat="38.64927755668759" lon="0.023255757987499237">
        <ele>311.6000061035156</ele>
        <time>2020-03-04T16:10:56.000Z</time>
      </trkpt>
      <trkpt lat="38.64924076013267" lon="0.023304708302021027">
        <ele>311.6000061035156</ele>
        <time>2020-03-04T16:10:57.000Z</time>
      </trkpt>
      <trkpt lat="38.64919742569327" lon="0.023352401331067085">
        <ele>311.3999938964844</ele>
        <time>2020-03-04T16:10:58.000Z</time>
      </trkpt>
      <trkpt lat="38.64915023557842" lon="0.023395316675305367">
        <ele>311.3999938964844</ele>
        <time>2020-03-04T16:10:59.000Z</time>
      </trkpt>
      <trkpt lat="38.64905392751098" lon="0.02345968969166279">
        <ele>311.20001220703125</ele>
        <time>2020-03-04T16:11:01.000Z</time>
      </trkpt>
      <trkpt lat="38.64900581538677" lon="0.02348584122955799">
        <ele>311.0</ele>
        <time>2020-03-04T16:11:02.000Z</time>
      </trkpt>
      <trkpt lat="38.64891143515706" lon="0.02351299859583378">
        <ele>310.79998779296875</ele>
        <time>2020-03-04T16:11:04.000Z</time>
      </trkpt>
      <trkpt lat="38.64877707324922" lon="0.0235114898532629">
        <ele>310.79998779296875</ele>
        <time>2020-03-04T16:11:07.000Z</time>
      </trkpt>
      <trkpt lat="38.6486039031297" lon="0.023459522053599358">
        <ele>310.79998779296875</ele>
        <time>2020-03-04T16:11:12.000Z</time>
      </trkpt>
      <trkpt lat="38.648542715236545" lon="0.02343001775443554">
        <ele>311.20001220703125</ele>
        <time>2020-03-04T16:11:15.000Z</time>
      </trkpt>
      <trkpt lat="38.64848772995174" lon="0.023422641679644585">
        <ele>312.20001220703125</ele>
        <time>2020-03-04T16:11:18.000Z</time>
      </trkpt>
      <trkpt lat="38.64844908937812" lon="0.02342197112739086">
        <ele>313.20001220703125</ele>
        <time>2020-03-04T16:11:20.000Z</time>
      </trkpt>
      <trkpt lat="38.64839192479849" lon="0.023425575345754623">
        <ele>314.3999938964844</ele>
        <time>2020-03-04T16:11:23.000Z</time>
      </trkpt>
      <trkpt lat="38.64837298169732" lon="0.02341979183256626">
        <ele>314.6000061035156</ele>
        <time>2020-03-04T16:11:24.000Z</time>
      </trkpt>
      <trkpt lat="38.64829947240651" lon="0.023391377180814743">
        <ele>315.6000061035156</ele>
        <time>2020-03-04T16:11:28.000Z</time>
      </trkpt>
      <trkpt lat="38.64822596311569" lon="0.02335977740585804">
        <ele>316.6000061035156</ele>
        <time>2020-03-04T16:11:32.000Z</time>
      </trkpt>
      <trkpt lat="38.64820634946227" lon="0.023351311683654785">
        <ele>316.79998779296875</ele>
        <time>2020-03-04T16:11:33.000Z</time>
      </trkpt>
      <trkpt lat="38.648132337257266" lon="0.02332868054509163">
        <ele>318.0</ele>
        <time>2020-03-04T16:11:37.000Z</time>
      </trkpt>
      <trkpt lat="38.64809872582555" lon="0.02331594005227089">
        <ele>318.3999938964844</ele>
        <time>2020-03-04T16:11:39.000Z</time>
      </trkpt>
      <trkpt lat="38.64806469529867" lon="0.02329976297914982">
        <ele>319.20001220703125</ele>
        <time>2020-03-04T16:11:41.000Z</time>
      </trkpt>
      <trkpt lat="38.64797844551504" lon="0.02321912907063961">
        <ele>320.20001220703125</ele>
        <time>2020-03-04T16:11:47.000Z</time>
      </trkpt>
      <trkpt lat="38.64791155792773" lon="0.0231145229190588">
        <ele>321.20001220703125</ele>
        <time>2020-03-04T16:11:53.000Z</time>
      </trkpt>
      <trkpt lat="38.64790082909167" lon="0.023098429664969444">
        <ele>321.3999938964844</ele>
        <time>2020-03-04T16:11:54.000Z</time>
      </trkpt>
      <trkpt lat="38.647892363369465" lon="0.023060794919729233">
        <ele>321.79998779296875</ele>
        <time>2020-03-04T16:11:56.000Z</time>
      </trkpt>
      <trkpt lat="38.647893788293004" lon="0.023019472137093544">
        <ele>322.20001220703125</ele>
        <time>2020-03-04T16:11:58.000Z</time>
      </trkpt>
      <trkpt lat="38.647900745272636" lon="0.02300061285495758">
        <ele>322.6000061035156</ele>
        <time>2020-03-04T16:11:59.000Z</time>
      </trkpt>
      <trkpt lat="38.64792572334409" lon="0.022951578721404076">
        <ele>323.6000061035156</ele>
        <time>2020-03-04T16:12:02.000Z</time>
      </trkpt>
      <trkpt lat="38.647937290370464" lon="0.02294001169502735">
        <ele>323.79998779296875</ele>
        <time>2020-03-04T16:12:03.000Z</time>
      </trkpt>
      <trkpt lat="38.64798934198916" lon="0.02290765754878521">
        <ele>324.79998779296875</ele>
        <time>2020-03-04T16:12:07.000Z</time>
      </trkpt>
      <trkpt lat="38.648034101352096" lon="0.02289600670337677">
        <ele>325.6000061035156</ele>
        <time>2020-03-04T16:12:10.000Z</time>
      </trkpt>
      <trkpt lat="38.6480475962162" lon="0.022892486304044724">
        <ele>326.0</ele>
        <time>2020-03-04T16:12:11.000Z</time>
      </trkpt>
      <trkpt lat="38.6481065209955" lon="0.022860299795866013">
        <ele>327.20001220703125</ele>
        <time>2020-03-04T16:12:15.000Z</time>
      </trkpt>
      <trkpt lat="38.64811976440251" lon="0.022850241512060165">
        <ele>327.3999938964844</ele>
        <time>2020-03-04T16:12:16.000Z</time>
      </trkpt>
      <trkpt lat="38.64815337583423" lon="0.02280573360621929">
        <ele>328.3999938964844</ele>
        <time>2020-03-04T16:12:20.000Z</time>
      </trkpt>
      <trkpt lat="38.64815203472972" lon="0.022797854617238045">
        <ele>328.79998779296875</ele>
        <time>2020-03-04T16:12:22.000Z</time>
      </trkpt>
      <trkpt lat="38.648150861263275" lon="0.02279341220855713">
        <ele>329.3999938964844</ele>
        <time>2020-03-04T16:12:24.000Z</time>
      </trkpt>
      <trkpt lat="38.648150861263275" lon="0.022791484370827675">
        <ele>330.3999938964844</ele>
        <time>2020-03-04T16:12:30.000Z</time>
      </trkpt>
      <trkpt lat="38.648149939253926" lon="0.022794250398874283">
        <ele>330.6000061035156</ele>
        <time>2020-03-04T16:12:34.000Z</time>
      </trkpt>
      <trkpt lat="38.64815253764391" lon="0.02277664840221405">
        <ele>330.79998779296875</ele>
        <time>2020-03-04T16:12:40.000Z</time>
      </trkpt>
      <trkpt lat="38.6481564771384" lon="0.022732391953468323">
        <ele>330.79998779296875</ele>
        <time>2020-03-04T16:12:48.000Z</time>
      </trkpt>
      <trkpt lat="38.64815589040518" lon="0.02272551879286766">
        <ele>330.79998779296875</ele>
        <time>2020-03-04T16:12:50.000Z</time>
      </trkpt>
      <trkpt lat="38.64815890789032" lon="0.02271898090839386">
        <ele>331.20001220703125</ele>
        <time>2020-03-04T16:12:54.000Z</time>
      </trkpt>
      <trkpt lat="38.64816091954708" lon="0.02271680161356926">
        <ele>331.3999938964844</ele>
        <time>2020-03-04T16:12:56.000Z</time>
      </trkpt>
      <trkpt lat="38.64815052598715" lon="0.022713616490364075">
        <ele>331.6000061035156</ele>
        <time>2020-03-04T16:12:57.000Z</time>
      </trkpt>
      <trkpt lat="38.64813753403723" lon="0.022712694481015205">
        <ele>331.6000061035156</ele>
        <time>2020-03-04T16:12:58.000Z</time>
      </trkpt>
      <trkpt lat="38.64802001975477" lon="0.022666845470666885">
        <ele>331.79998779296875</ele>
        <time>2020-03-04T16:13:05.000Z</time>
      </trkpt>
      <trkpt lat="38.64790443331003" lon="0.022614290937781334">
        <ele>332.6000061035156</ele>
        <time>2020-03-04T16:13:10.000Z</time>
      </trkpt>
      <trkpt lat="38.64784684963524" lon="0.022580260410904884">
        <ele>333.20001220703125</ele>
        <time>2020-03-04T16:13:12.000Z</time>
      </trkpt>
      <trkpt lat="38.64762280136347" lon="0.022425446659326553">
        <ele>333.20001220703125</ele>
        <time>2020-03-04T16:13:18.000Z</time>
      </trkpt>
      <trkpt lat="38.647443847730756" lon="0.02232871949672699">
        <ele>333.20001220703125</ele>
        <time>2020-03-04T16:13:22.000Z</time>
      </trkpt>
      <trkpt lat="38.64738944917917" lon="0.022310279309749603">
        <ele>333.0</ele>
        <time>2020-03-04T16:13:23.000Z</time>
      </trkpt>
      <trkpt lat="38.64707127213478" lon="0.022169044241309166">
        <ele>332.6000061035156</ele>
        <time>2020-03-04T16:13:28.000Z</time>
      </trkpt>
      <trkpt lat="38.64693741314113" lon="0.02209930680692196">
        <ele>332.3999938964844</ele>
        <time>2020-03-04T16:13:30.000Z</time>
      </trkpt>
      <trkpt lat="38.646718645468354" lon="0.0220439862459898">
        <ele>331.0</ele>
        <time>2020-03-04T16:13:33.000Z</time>
      </trkpt>
      <trkpt lat="38.64664765074849" lon="0.022035855799913406">
        <ele>329.3999938964844</ele>
        <time>2020-03-04T16:13:34.000Z</time>
      </trkpt>
      <trkpt lat="38.646529633551836" lon="0.022017499431967735">
        <ele>328.6000061035156</ele>
        <time>2020-03-04T16:13:36.000Z</time>
      </trkpt>
      <trkpt lat="38.64647867158055" lon="0.02200031653046608">
        <ele>328.20001220703125</ele>
        <time>2020-03-04T16:13:37.000Z</time>
      </trkpt>
      <trkpt lat="38.64643097855151" lon="0.02197776921093464">
        <ele>328.0</ele>
        <time>2020-03-04T16:13:38.000Z</time>
      </trkpt>
      <trkpt lat="38.64635235629976" lon="0.021901912987232208">
        <ele>327.3999938964844</ele>
        <time>2020-03-04T16:13:40.000Z</time>
      </trkpt>
      <trkpt lat="38.646309692412615" lon="0.021847765892744064">
        <ele>326.79998779296875</ele>
        <time>2020-03-04T16:13:41.000Z</time>
      </trkpt>
      <trkpt lat="38.646309692412615" lon="0.021847765892744064">
        <ele>326.79998779296875</ele>
        <time>2020-03-04T16:13:41.000Z</time>
      </trkpt>
      <trkpt lat="38.6462671123445" lon="0.02177727408707142">
        <ele>326.3999938964844</ele>
        <time>2020-03-04T16:13:42.000Z</time>
      </trkpt>
      <trkpt lat="38.64620282314718" lon="0.02160552889108658">
        <ele>325.79998779296875</ele>
        <time>2020-03-04T16:13:44.000Z</time>
      </trkpt>
      <trkpt lat="38.64617608487606" lon="0.021518021821975708">
        <ele>325.6000061035156</ele>
        <time>2020-03-04T16:13:45.000Z</time>
      </trkpt>
      <trkpt lat="38.6461085267365" lon="0.021359771490097046">
        <ele>324.3999938964844</ele>
        <time>2020-03-04T16:13:47.000Z</time>
      </trkpt>
      <trkpt lat="38.64603233523667" lon="0.02122490666806698">
        <ele>323.20001220703125</ele>
        <time>2020-03-04T16:13:49.000Z</time>
      </trkpt>
      <trkpt lat="38.645948600023985" lon="0.021091215312480927">
        <ele>321.79998779296875</ele>
        <time>2020-03-04T16:13:51.000Z</time>
      </trkpt>
      <trkpt lat="38.645866038277745" lon="0.020954255014657974">
        <ele>320.3999938964844</ele>
        <time>2020-03-04T16:13:53.000Z</time>
      </trkpt>
      <trkpt lat="38.64579579792917" lon="0.020810170099139214">
        <ele>319.6000061035156</ele>
        <time>2020-03-04T16:13:55.000Z</time>
      </trkpt>
      <trkpt lat="38.64575078710914" lon="0.02066323533654213">
        <ele>319.20001220703125</ele>
        <time>2020-03-04T16:13:57.000Z</time>
      </trkpt>
      <trkpt lat="38.64572656340897" lon="0.02052132971584797">
        <ele>319.20001220703125</ele>
        <time>2020-03-04T16:13:59.000Z</time>
      </trkpt>
      <trkpt lat="38.64571675658226" lon="0.020453939214348793">
        <ele>319.20001220703125</ele>
        <time>2020-03-04T16:14:00.000Z</time>
      </trkpt>
      <trkpt lat="38.64567191340029" lon="0.020206337794661522">
        <ele>319.20001220703125</ele>
        <time>2020-03-04T16:14:04.000Z</time>
      </trkpt>
      <trkpt lat="38.64562740549445" lon="0.020032580941915512">
        <ele>319.6000061035156</ele>
        <time>2020-03-04T16:14:07.000Z</time>
      </trkpt>
      <trkpt lat="38.64557736553252" lon="0.01987106166779995">
        <ele>319.79998779296875</ele>
        <time>2020-03-04T16:14:10.000Z</time>
      </trkpt>
      <trkpt lat="38.64553336054087" lon="0.019724629819393158">
        <ele>320.20001220703125</ele>
        <time>2020-03-04T16:14:13.000Z</time>
      </trkpt>
      <trkpt lat="38.64552036859095" lon="0.01967836171388626">
        <ele>320.3999938964844</ele>
        <time>2020-03-04T16:14:14.000Z</time>
      </trkpt>
      <trkpt lat="38.645480973646045" lon="0.019555147737264633">
        <ele>321.0</ele>
        <time>2020-03-04T16:14:17.000Z</time>
      </trkpt>
      <trkpt lat="38.6454642098397" lon="0.019473424181342125">
        <ele>321.3999938964844</ele>
        <time>2020-03-04T16:14:19.000Z</time>
      </trkpt>
      <trkpt lat="38.64544250071049" lon="0.019283490255475044">
        <ele>322.0</ele>
        <time>2020-03-04T16:14:24.000Z</time>
      </trkpt>
      <trkpt lat="38.64544149488211" lon="0.01924552023410797">
        <ele>322.20001220703125</ele>
        <time>2020-03-04T16:14:25.000Z</time>
      </trkpt>
      <trkpt lat="38.64543730393052" lon="0.01920713111758232">
        <ele>322.3999938964844</ele>
        <time>2020-03-04T16:14:26.000Z</time>
      </trkpt>
      <trkpt lat="38.645414505153894" lon="0.019046785309910774">
        <ele>323.79998779296875</ele>
        <time>2020-03-04T16:14:30.000Z</time>
      </trkpt>
      <trkpt lat="38.645394472405314" lon="0.018960200250148773">
        <ele>324.0</ele>
        <time>2020-03-04T16:14:32.000Z</time>
      </trkpt>
      <trkpt lat="38.645325070247054" lon="0.018719220533967018">
        <ele>324.20001220703125</ele>
        <time>2020-03-04T16:14:38.000Z</time>
      </trkpt>
      <trkpt lat="38.64529229700565" lon="0.018580667674541473">
        <ele>324.3999938964844</ele>
        <time>2020-03-04T16:14:42.000Z</time>
      </trkpt>
      <trkpt lat="38.645256254822016" lon="0.01847958192229271">
        <ele>324.3999938964844</ele>
        <time>2020-03-04T16:14:45.000Z</time>
      </trkpt>
      <trkpt lat="38.645204370841384" lon="0.018256455659866333">
        <ele>324.79998779296875</ele>
        <time>2020-03-04T16:14:52.000Z</time>
      </trkpt>
      <trkpt lat="38.64519456401467" lon="0.018197614699602127">
        <ele>325.0</ele>
        <time>2020-03-04T16:14:54.000Z</time>
      </trkpt>
      <trkpt lat="38.64518450573087" lon="0.018075238913297653">
        <ele>325.6000061035156</ele>
        <time>2020-03-04T16:14:58.000Z</time>
      </trkpt>
      <trkpt lat="38.645176542922854" lon="0.01801304519176483">
        <ele>326.0</ele>
        <time>2020-03-04T16:15:00.000Z</time>
      </trkpt>
      <trkpt lat="38.645164389163256" lon="0.017859572544693947">
        <ele>327.0</ele>
        <time>2020-03-04T16:15:05.000Z</time>
      </trkpt>
      <trkpt lat="38.6452052090317" lon="0.01773199997842312">
        <ele>328.20001220703125</ele>
        <time>2020-03-04T16:15:09.000Z</time>
      </trkpt>
      <trkpt lat="38.64523890428245" lon="0.017673326656222343">
        <ele>328.3999938964844</ele>
        <time>2020-03-04T16:15:11.000Z</time>
      </trkpt>
      <trkpt lat="38.64535960368812" lon="0.017521865665912628">
        <ele>329.3999938964844</ele>
        <time>2020-03-04T16:15:17.000Z</time>
      </trkpt>
      <trkpt lat="38.6454211268574" lon="0.017336206510663033">
        <ele>330.20001220703125</ele>
        <time>2020-03-04T16:15:23.000Z</time>
      </trkpt>
      <trkpt lat="38.64544392563403" lon="0.01716303639113903">
        <ele>330.3999938964844</ele>
        <time>2020-03-04T16:15:28.000Z</time>
      </trkpt>
      <trkpt lat="38.64553210325539" lon="0.016993051394820213">
        <ele>330.79998779296875</ele>
        <time>2020-03-04T16:15:34.000Z</time>
      </trkpt>
      <trkpt lat="38.64569999277592" lon="0.01689925789833069">
        <ele>331.6000061035156</ele>
        <time>2020-03-04T16:15:41.000Z</time>
      </trkpt>
      <trkpt lat="38.645880622789264" lon="0.016852067783474922">
        <ele>332.6000061035156</ele>
        <time>2020-03-04T16:15:48.000Z</time>
      </trkpt>
      <trkpt lat="38.645976427942514" lon="0.01677880994975567">
        <ele>333.3999938964844</ele>
        <time>2020-03-04T16:15:53.000Z</time>
      </trkpt>
      <trkpt lat="38.64600450731814" lon="0.016738660633563995">
        <ele>333.79998779296875</ele>
        <time>2020-03-04T16:15:55.000Z</time>
      </trkpt>
      <trkpt lat="38.64603543654084" lon="0.016662385314702988">
        <ele>335.0</ele>
        <time>2020-03-04T16:15:58.000Z</time>
      </trkpt>
      <trkpt lat="38.64605982787907" lon="0.016614273190498352">
        <ele>335.79998779296875</ele>
        <time>2020-03-04T16:16:00.000Z</time>
      </trkpt>
      <trkpt lat="38.64609008654952" lon="0.016571776941418648">
        <ele>336.20001220703125</ele>
        <time>2020-03-04T16:16:02.000Z</time>
      </trkpt>
      <trkpt lat="38.64612772129476" lon="0.01647002063691616">
        <ele>336.79998779296875</ele>
        <time>2020-03-04T16:16:06.000Z</time>
      </trkpt>
      <trkpt lat="38.64615454338491" lon="0.016296766698360443">
        <ele>337.3999938964844</ele>
        <time>2020-03-04T16:16:12.000Z</time>
      </trkpt>
      <trkpt lat="38.6461637634784" lon="0.01621512696146965">
        <ele>337.6000061035156</ele>
        <time>2020-03-04T16:16:15.000Z</time>
      </trkpt>
      <trkpt lat="38.64618379622698" lon="0.016010189428925514">
        <ele>338.3999938964844</ele>
        <time>2020-03-04T16:16:21.000Z</time>
      </trkpt>
      <trkpt lat="38.64614222198725" lon="0.01582796685397625">
        <ele>339.3999938964844</ele>
        <time>2020-03-04T16:16:27.000Z</time>
      </trkpt>
      <trkpt lat="38.64611456170678" lon="0.01563400961458683">
        <ele>340.3999938964844</ele>
        <time>2020-03-04T16:16:34.000Z</time>
      </trkpt>
      <trkpt lat="38.64611003547907" lon="0.015606768429279327">
        <ele>340.6000061035156</ele>
        <time>2020-03-04T16:16:35.000Z</time>
      </trkpt>
      <trkpt lat="38.646109784021974" lon="0.015470730140805244">
        <ele>341.6000061035156</ele>
        <time>2020-03-04T16:16:40.000Z</time>
      </trkpt>
      <trkpt lat="38.646104335784912109375" lon="0.0155366957187652587890625">
        <ele>345.20001220703125</ele>
        <time>2020-03-04T16:22:33.000Z</time>
      </trkpt>
      <trkpt lat="38.6461045034229755401611328125" lon="0.01553694717586040496826171875">
        <ele>345.20001220703125</ele>
        <time>2020-03-04T16:22:34.000Z</time>
      </trkpt>
      <trkpt lat="38.64610810764133930206298828125" lon="0.01552739180624485015869140625">
        <ele>345.20001220703125</ele>
        <time>2020-03-04T16:22:35.000Z</time>
      </trkpt>
      <trkpt lat="38.6461165733635425567626953125" lon="0.015511214733123779296875">
        <ele>345.20001220703125</ele>
        <time>2020-03-04T16:22:36.000Z</time>
      </trkpt>
      <trkpt lat="38.646150939166545867919921875" lon="0.01547433435916900634765625">
        <ele>345.20001220703125</ele>
        <time>2020-03-04T16:22:38.000Z</time>
      </trkpt>
      <trkpt lat="38.646232746541500091552734375" lon="0.01540669240057468414306640625">
        <ele>345.20001220703125</ele>
        <time>2020-03-04T16:22:41.000Z</time>
      </trkpt>
      <trkpt lat="38.64631212316453456878662109375" lon="0.0153189338743686676025390625">
        <ele>345</ele>
        <time>2020-03-04T16:22:44.000Z</time>
      </trkpt>
      <trkpt lat="38.646423183381557464599609375" lon="0.01517132855951786041259765625">
        <ele>345.20001220703125</ele>
        <time>2020-03-04T16:22:48.000Z</time>
      </trkpt>
      <trkpt lat="38.64645746536552906036376953125" lon="0.015132687985897064208984375">
        <ele>345</ele>
        <time>2020-03-04T16:22:49.000Z</time>
      </trkpt>
      <trkpt lat="38.64649585448205471038818359375" lon="0.01509589143097400665283203125">
        <ele>345</ele>
        <time>2020-03-04T16:22:50.000Z</time>
      </trkpt>
      <trkpt lat="38.6467064917087554931640625" lon="0.0147969089448451995849609375">
        <ele>344.600006103515625</ele>
        <time>2020-03-04T16:22:56.000Z</time>
      </trkpt>
      <trkpt lat="38.64673423580825328826904296875" lon="0.0147375650703907012939453125">
        <ele>344.399993896484375</ele>
        <time>2020-03-04T16:22:57.000Z</time>
      </trkpt>
      <trkpt lat="38.64675544202327728271484375" lon="0.01467243768274784088134765625">
        <ele>344.20001220703125</ele>
        <time>2020-03-04T16:22:58.000Z</time>
      </trkpt>
      <trkpt lat="38.6467613093554973602294921875" lon="0.01453396864235401153564453125">
        <ele>343.600006103515625</ele>
        <time>2020-03-04T16:23:00.000Z</time>
      </trkpt>
      <trkpt lat="38.64675368182361125946044921875" lon="0.01446221955120563507080078125">
        <ele>343.20001220703125</ele>
        <time>2020-03-04T16:23:01.000Z</time>
      </trkpt>
      <trkpt lat="38.64673356525599956512451171875" lon="0.0142685137689113616943359375">
        <ele>341.20001220703125</ele>
        <time>2020-03-04T16:23:04.000Z</time>
      </trkpt>
      <trkpt lat="38.646734654903411865234375" lon="0.01421637833118438720703125">
        <ele>340.399993896484375</ele>
        <time>2020-03-04T16:23:05.000Z</time>
      </trkpt>
      <trkpt lat="38.64674060605466365814208984375" lon="0.01417203806340694427490234375">
        <ele>339.79998779296875</ele>
        <time>2020-03-04T16:23:06.000Z</time>
      </trkpt>
      <trkpt lat="38.646761141717433929443359375" lon="0.01409240998327732086181640625">
        <ele>338</ele>
        <time>2020-03-04T16:23:08.000Z</time>
      </trkpt>
      <trkpt lat="38.64677765406668186187744140625" lon="0.01404815353453159332275390625">
        <ele>337</ele>
        <time>2020-03-04T16:23:09.000Z</time>
      </trkpt>
      <trkpt lat="38.646801374852657318115234375" lon="0.01399467699229717254638671875">
        <ele>336.20001220703125</ele>
        <time>2020-03-04T16:23:10.000Z</time>
      </trkpt>
      <trkpt lat="38.6468303762376308441162109375" lon="0.01393365673720836639404296875">
        <ele>335.20001220703125</ele>
        <time>2020-03-04T16:23:11.000Z</time>
      </trkpt>
      <trkpt lat="38.646864406764507293701171875" lon="0.01387632451951503753662109375">
        <ele>334.600006103515625</ele>
        <time>2020-03-04T16:23:12.000Z</time>
      </trkpt>
      <trkpt lat="38.64690355025231838226318359375" lon="0.01382603310048580169677734375">
        <ele>334</ele>
        <time>2020-03-04T16:23:13.000Z</time>
      </trkpt>
      <trkpt lat="38.646949231624603271484375" lon="0.01378848217427730560302734375">
        <ele>333.20001220703125</ele>
        <time>2020-03-04T16:23:14.000Z</time>
      </trkpt>
      <trkpt lat="38.6470010317862033843994140625" lon="0.01376015134155750274658203125">
        <ele>332.399993896484375</ele>
        <time>2020-03-04T16:23:15.000Z</time>
      </trkpt>
      <trkpt lat="38.64712131209671497344970703125" lon="0.013739950954914093017578125">
        <ele>331.399993896484375</ele>
        <time>2020-03-04T16:23:17.000Z</time>
      </trkpt>
      <trkpt lat="38.64718870259821414947509765625" lon="0.01374171115458011627197265625">
        <ele>330.79998779296875</ele>
        <time>2020-03-04T16:23:18.000Z</time>
      </trkpt>
      <trkpt lat="38.647257350385189056396484375" lon="0.0137501768767833709716796875">
        <ele>330</ele>
        <time>2020-03-04T16:23:19.000Z</time>
      </trkpt>
      <trkpt lat="38.64732943475246429443359375" lon="0.01376551575958728790283203125">
        <ele>329</ele>
        <time>2020-03-04T16:23:20.000Z</time>
      </trkpt>
      <trkpt lat="38.64739556796848773956298828125" lon="0.0137878954410552978515625">
        <ele>327.79998779296875</ele>
        <time>2020-03-04T16:23:21.000Z</time>
      </trkpt>
      <trkpt lat="38.64750243723392486572265625" lon="0.01383458264172077178955078125">
        <ele>326.20001220703125</ele>
        <time>2020-03-04T16:23:23.000Z</time>
      </trkpt>
      <trkpt lat="38.6475931294262409210205078125" lon="0.0138844549655914306640625">
        <ele>323.399993896484375</ele>
        <time>2020-03-04T16:23:25.000Z</time>
      </trkpt>
      <trkpt lat="38.64767451770603656768798828125" lon="0.013933740556240081787109375">
        <ele>321.600006103515625</ele>
        <time>2020-03-04T16:23:27.000Z</time>
      </trkpt>
      <trkpt lat="38.647709302604198455810546875" lon="0.013961903750896453857421875">
        <ele>321.20001220703125</ele>
        <time>2020-03-04T16:23:28.000Z</time>
      </trkpt>
      <trkpt lat="38.6477678082883358001708984375" lon="0.014031641185283660888671875">
        <ele>321</ele>
        <time>2020-03-04T16:23:30.000Z</time>
      </trkpt>
      <trkpt lat="38.64779748022556304931640625" lon="0.01407279632985591888427734375">
        <ele>320.79998779296875</ele>
        <time>2020-03-04T16:23:31.000Z</time>
      </trkpt>
      <trkpt lat="38.64783461205661296844482421875" lon="0.0141072459518909454345703125">
        <ele>320.79998779296875</ele>
        <time>2020-03-04T16:23:32.000Z</time>
      </trkpt>
      <trkpt lat="38.64792128093540668487548828125" lon="0.0141266919672489166259765625">
        <ele>320.79998779296875</ele>
        <time>2020-03-04T16:23:34.000Z</time>
      </trkpt>
      <trkpt lat="38.648026473820209503173828125" lon="0.014120824635028839111328125">
        <ele>321</ele>
        <time>2020-03-04T16:23:37.000Z</time>
      </trkpt>
      <trkpt lat="38.64805019460618495941162109375" lon="0.01412174664437770843505859375">
        <ele>321.20001220703125</ele>
        <time>2020-03-04T16:23:38.000Z</time>
      </trkpt>
      <trkpt lat="38.6481164954602718353271484375" lon="0.01410414464771747589111328125">
        <ele>321.399993896484375</ele>
        <time>2020-03-04T16:23:41.000Z</time>
      </trkpt>
      <trkpt lat="38.6481701396405696868896484375" lon="0.01407899893820285797119140625">
        <ele>321.79998779296875</ele>
        <time>2020-03-04T16:23:44.000Z</time>
      </trkpt>
      <trkpt lat="38.64820894785225391387939453125" lon="0.01405804418027400970458984375">
        <ele>322.600006103515625</ele>
        <time>2020-03-04T16:23:46.000Z</time>
      </trkpt>
      <trkpt lat="38.64826158620417118072509765625" lon="0.01402183435857295989990234375">
        <ele>323.79998779296875</ele>
        <time>2020-03-04T16:23:49.000Z</time>
      </trkpt>
      <trkpt lat="38.648281954228878021240234375" lon="0.0140132009983062744140625">
        <ele>324</ele>
        <time>2020-03-04T16:23:50.000Z</time>
      </trkpt>
      <trkpt lat="38.6483213491737842559814453125" lon="0.0139944255352020263671875">
        <ele>325.399993896484375</ele>
        <time>2020-03-04T16:23:52.000Z</time>
      </trkpt>
      <trkpt lat="38.64839485846459865570068359375" lon="0.013964585959911346435546875">
        <ele>326.600006103515625</ele>
        <time>2020-03-04T16:23:56.000Z</time>
      </trkpt>
      <trkpt lat="38.64841329865157604217529296875" lon="0.01396131701767444610595703125">
        <ele>326.79998779296875</ele>
        <time>2020-03-04T16:23:57.000Z</time>
      </trkpt>
      <trkpt lat="38.64846778102219104766845703125" lon="0.01394589431583881378173828125">
        <ele>328</ele>
        <time>2020-03-04T16:24:00.000Z</time>
      </trkpt>
      <trkpt lat="38.64852704107761383056640625" lon="0.01390733756124973297119140625">
        <ele>329</ele>
        <time>2020-03-04T16:24:03.000Z</time>
      </trkpt>
      <trkpt lat="38.64865972660481929779052734375" lon="0.01379418186843395233154296875">
        <ele>329.399993896484375</ele>
        <time>2020-03-04T16:24:08.000Z</time>
      </trkpt>
      <trkpt lat="38.64875997416675090789794921875" lon="0.0137096084654331207275390625">
        <ele>329.399993896484375</ele>
        <time>2020-03-04T16:24:11.000Z</time>
      </trkpt>
      <trkpt lat="38.64883088506758213043212890625" lon="0.0136717222630977630615234375">
        <ele>329.399993896484375</ele>
        <time>2020-03-04T16:24:13.000Z</time>
      </trkpt>
      <trkpt lat="38.649061135947704315185546875" lon="0.01349997706711292266845703125">
        <ele>329</ele>
        <time>2020-03-04T16:24:19.000Z</time>
      </trkpt>
      <trkpt lat="38.6491018719971179962158203125" lon="0.01347013749182224273681640625">
        <ele>328.79998779296875</ele>
        <time>2020-03-04T16:24:20.000Z</time>
      </trkpt>
      <trkpt lat="38.649279065430164337158203125" lon="0.01342244446277618408203125">
        <ele>328</ele>
        <time>2020-03-04T16:24:24.000Z</time>
      </trkpt>
      <trkpt lat="38.6493238247931003570556640625" lon="0.01342604868113994598388671875">
        <ele>328</ele>
        <time>2020-03-04T16:24:25.000Z</time>
      </trkpt>
      <trkpt lat="38.64942315034568309783935546875" lon="0.01342940144240856170654296875">
        <ele>327.79998779296875</ele>
        <time>2020-03-04T16:24:27.000Z</time>
      </trkpt>
      <trkpt lat="38.6494743637740612030029296875" lon="0.013424791395664215087890625">
        <ele>327.79998779296875</ele>
        <time>2020-03-04T16:24:28.000Z</time>
      </trkpt>
      <trkpt lat="38.64952750504016876220703125" lon="0.0134152360260486602783203125">
        <ele>327.600006103515625</ele>
        <time>2020-03-04T16:24:29.000Z</time>
      </trkpt>
      <trkpt lat="38.64964795298874378204345703125" lon="0.013389922678470611572265625">
        <ele>327.600006103515625</ele>
        <time>2020-03-04T16:24:31.000Z</time>
      </trkpt>
      <trkpt lat="38.64977384917438030242919921875" lon="0.01336519606411457061767578125">
        <ele>327.399993896484375</ele>
        <time>2020-03-04T16:24:33.000Z</time>
      </trkpt>
      <trkpt lat="38.649824559688568115234375" lon="0.01335161738097667694091796875">
        <ele>326.79998779296875</ele>
        <time>2020-03-04T16:24:34.000Z</time>
      </trkpt>
      <trkpt lat="38.64989270456135272979736328125" lon="0.01328573562204837799072265625">
        <ele>325</ele>
        <time>2020-03-04T16:24:36.000Z</time>
      </trkpt>
      <trkpt lat="38.6499001644551753997802734375" lon="0.0132273137569427490234375">
        <ele>323.600006103515625</ele>
        <time>2020-03-04T16:24:37.000Z</time>
      </trkpt>
      <trkpt lat="38.64990829490125179290771484375" lon="0.01316989772021770477294921875">
        <ele>322.399993896484375</ele>
        <time>2020-03-04T16:24:38.000Z</time>
      </trkpt>
      <trkpt lat="38.64994098432362079620361328125" lon="0.0130548141896724700927734375">
        <ele>320.399993896484375</ele>
        <time>2020-03-04T16:24:40.000Z</time>
      </trkpt>
      <trkpt lat="38.649969398975372314453125" lon="0.01302472315728664398193359375">
        <ele>320</ele>
        <time>2020-03-04T16:24:41.000Z</time>
      </trkpt>
      <trkpt lat="38.650044836103916168212890625" lon="0.012989602982997894287109375">
        <ele>319</ele>
        <time>2020-03-04T16:24:43.000Z</time>
      </trkpt>
      <trkpt lat="38.65008766762912273406982421875" lon="0.0129706598818302154541015625">
        <ele>318.600006103515625</ele>
        <time>2020-03-04T16:24:44.000Z</time>
      </trkpt>
      <trkpt lat="38.6501385457813739776611328125" lon="0.01295330934226512908935546875">
        <ele>318.399993896484375</ele>
        <time>2020-03-04T16:24:45.000Z</time>
      </trkpt>
      <trkpt lat="38.650262765586376190185546875" lon="0.01283730380237102508544921875">
        <ele>318</ele>
        <time>2020-03-04T16:24:48.000Z</time>
      </trkpt>
      <trkpt lat="38.65028078667819499969482421875" lon="0.01278650946915149688720703125">
        <ele>318</ele>
        <time>2020-03-04T16:24:49.000Z</time>
      </trkpt>
      <trkpt lat="38.6503638513386249542236328125" lon="0.01264384947717189788818359375">
        <ele>317.600006103515625</ele>
        <time>2020-03-04T16:24:53.000Z</time>
      </trkpt>
      <trkpt lat="38.6503873206675052642822265625" lon="0.012613423168659210205078125">
        <ele>317.600006103515625</ele>
        <time>2020-03-04T16:24:54.000Z</time>
      </trkpt>
      <trkpt lat="38.65055001340806484222412109375" lon="0.01244771294295787811279296875">
        <ele>317.399993896484375</ele>
        <time>2020-03-04T16:25:00.000Z</time>
      </trkpt>
      <trkpt lat="38.65076576359570026397705078125" lon="0.0122193060815334320068359375">
        <ele>317.600006103515625</ele>
        <time>2020-03-04T16:25:06.000Z</time>
      </trkpt>
      <trkpt lat="38.6508778296411037445068359375" lon="0.01208980567753314971923828125">
        <ele>317.600006103515625</ele>
        <time>2020-03-04T16:25:09.000Z</time>
      </trkpt>
      <trkpt lat="38.6509140394628047943115234375" lon="0.01196977682411670684814453125">
        <ele>317.399993896484375</ele>
        <time>2020-03-04T16:25:11.000Z</time>
      </trkpt>
      <trkpt lat="38.65089853294193744659423828125" lon="0.01182192005217075347900390625">
        <ele>317.20001220703125</ele>
        <time>2020-03-04T16:25:13.000Z</time>
      </trkpt>
      <trkpt lat="38.65087875165045261383056640625" lon="0.01175117678940296173095703125">
        <ele>317.20001220703125</ele>
        <time>2020-03-04T16:25:14.000Z</time>
      </trkpt>
      <trkpt lat="38.65085394121706485748291015625" lon="0.01168479211628437042236328125">
        <ele>317</ele>
        <time>2020-03-04T16:25:15.000Z</time>
      </trkpt>
      <trkpt lat="38.6508295498788356781005859375" lon="0.01162477768957614898681640625">
        <ele>317</ele>
        <time>2020-03-04T16:25:16.000Z</time>
      </trkpt>
      <trkpt lat="38.65081890486180782318115234375" lon="0.0115681998431682586669921875">
        <ele>316.79998779296875</ele>
        <time>2020-03-04T16:25:17.000Z</time>
      </trkpt>
      <trkpt lat="38.65082477219402790069580078125" lon="0.01150667667388916015625">
        <ele>316.79998779296875</ele>
        <time>2020-03-04T16:25:18.000Z</time>
      </trkpt>
      <trkpt lat="38.65088336169719696044921875" lon="0.01131716184318065643310546875">
        <ele>315.79998779296875</ele>
        <time>2020-03-04T16:25:21.000Z</time>
      </trkpt>
      <trkpt lat="38.65090205334126949310302734375" lon="0.011251866817474365234375">
        <ele>315.600006103515625</ele>
        <time>2020-03-04T16:25:22.000Z</time>
      </trkpt>
      <trkpt lat="38.65092225372791290283203125" lon="0.01110769808292388916015625">
        <ele>315.399993896484375</ele>
        <time>2020-03-04T16:25:24.000Z</time>
      </trkpt>
      <trkpt lat="38.65090272389352321624755859375" lon="0.01096327789127826690673828125">
        <ele>315.20001220703125</ele>
        <time>2020-03-04T16:25:26.000Z</time>
      </trkpt>
      <trkpt lat="38.65088495425879955291748046875" lon="0.01089756377041339874267578125">
        <ele>315.20001220703125</ele>
        <time>2020-03-04T16:25:27.000Z</time>
      </trkpt>
      <trkpt lat="38.6508546955883502960205078125" lon="0.0107709132134914398193359375">
        <ele>315.20001220703125</ele>
        <time>2020-03-04T16:25:29.000Z</time>
      </trkpt>
      <trkpt lat="38.6508466489613056182861328125" lon="0.01064929179847240447998046875">
        <ele>315</ele>
        <time>2020-03-04T16:25:31.000Z</time>
      </trkpt>
      <trkpt lat="38.65089819766581058502197265625" lon="0.0104963220655918121337890625">
        <ele>315</ele>
        <time>2020-03-04T16:25:34.000Z</time>
      </trkpt>
      <trkpt lat="38.6509294621646404266357421875" lon="0.0104490481317043304443359375">
        <ele>315</ele>
        <time>2020-03-04T16:25:35.000Z</time>
      </trkpt>
      <trkpt lat="38.65105845965445041656494140625" lon="0.010372102260589599609375">
        <ele>314.79998779296875</ele>
        <time>2020-03-04T16:25:38.000Z</time>
      </trkpt>
      <trkpt lat="38.651192821562290191650390625" lon="0.01036430709064006805419921875">
        <ele>313.79998779296875</ele>
        <time>2020-03-04T16:25:41.000Z</time>
      </trkpt>
      <trkpt lat="38.65125308744609355926513671875" lon="0.01035860739648342132568359375">
        <ele>312.600006103515625</ele>
        <time>2020-03-04T16:25:43.000Z</time>
      </trkpt>
      <trkpt lat="38.65124638192355632781982421875" lon="0.01031510531902313232421875">
        <ele>311.399993896484375</ele>
        <time>2020-03-04T16:25:46.000Z</time>
      </trkpt>
      <trkpt lat="38.65120497532188892364501953125" lon="0.01029909588396549224853515625">
        <ele>310.79998779296875</ele>
        <time>2020-03-04T16:25:48.000Z</time>
      </trkpt>
      <trkpt lat="38.65117496810853481292724609375" lon="0.01028920523822307586669921875">
        <ele>310</ele>
        <time>2020-03-04T16:25:49.000Z</time>
      </trkpt>
      <trkpt lat="38.6511410214006900787353515625" lon="0.010275542736053466796875">
        <ele>309</ele>
        <time>2020-03-04T16:25:50.000Z</time>
      </trkpt>
      <trkpt lat="38.651058375835418701171875" lon="0.010243691504001617431640625">
        <ele>308</ele>
        <time>2020-03-04T16:25:52.000Z</time>
      </trkpt>
      <trkpt lat="38.65092149935662746429443359375" lon="0.01019398681819438934326171875">
        <ele>307.399993896484375</ele>
        <time>2020-03-04T16:25:55.000Z</time>
      </trkpt>
      <trkpt lat="38.6508808471262454986572265625" lon="0.010178647935390472412109375">
        <ele>307.399993896484375</ele>
        <time>2020-03-04T16:25:56.000Z</time>
      </trkpt>
      <trkpt lat="38.65073206834495067596435546875" lon="0.01005518250167369842529296875">
        <ele>306.79998779296875</ele>
        <time>2020-03-04T16:26:00.000Z</time>
      </trkpt>
      <trkpt lat="38.65059594623744487762451171875" lon="0.0098780728876590728759765625">
        <ele>305.79998779296875</ele>
        <time>2020-03-04T16:26:05.000Z</time>
      </trkpt>
      <trkpt lat="38.6505160667002201080322265625" lon="0.00975594855844974517822265625">
        <ele>304.600006103515625</ele>
        <time>2020-03-04T16:26:08.000Z</time>
      </trkpt>
      <trkpt lat="38.65045420825481414794921875" lon="0.0096698664128780364990234375">
        <ele>303</ele>
        <time>2020-03-04T16:26:10.000Z</time>
      </trkpt>
      <trkpt lat="38.650417327880859375" lon="0.009628124535083770751953125">
        <ele>301.79998779296875</ele>
        <time>2020-03-04T16:26:11.000Z</time>
      </trkpt>
      <trkpt lat="38.6503816209733486175537109375" lon="0.00959216617047786712646484375">
        <ele>300.20001220703125</ele>
        <time>2020-03-04T16:26:12.000Z</time>
      </trkpt>
      <trkpt lat="38.6503460817039012908935546875" lon="0.00955578871071338653564453125">
        <ele>299</ele>
        <time>2020-03-04T16:26:13.000Z</time>
      </trkpt>
      <trkpt lat="38.65031381137669086456298828125" lon="0.00951304100453853607177734375">
        <ele>298</ele>
        <time>2020-03-04T16:26:14.000Z</time>
      </trkpt>
      <trkpt lat="38.65025748498737812042236328125" lon="0.009410195052623748779296875">
        <ele>296.600006103515625</ele>
        <time>2020-03-04T16:26:16.000Z</time>
      </trkpt>
      <trkpt lat="38.6502320878207683563232421875" lon="0.0093637593090534210205078125">
        <ele>295.20001220703125</ele>
        <time>2020-03-04T16:26:17.000Z</time>
      </trkpt>
      <trkpt lat="38.65018456242978572845458984375" lon="0.00929452478885650634765625">
        <ele>293.79998779296875</ele>
        <time>2020-03-04T16:26:19.000Z</time>
      </trkpt>
      <trkpt lat="38.6501650325953960418701171875" lon="0.00927013345062732696533203125">
        <ele>293.399993896484375</ele>
        <time>2020-03-04T16:26:20.000Z</time>
      </trkpt>
      <trkpt lat="38.65014684386551380157470703125" lon="0.0092450715601444244384765625">
        <ele>292.79998779296875</ele>
        <time>2020-03-04T16:26:21.000Z</time>
      </trkpt>
      <trkpt lat="38.6501087062060832977294921875" lon="0.00921347178518772125244140625">
        <ele>291.399993896484375</ele>
        <time>2020-03-04T16:26:23.000Z</time>
      </trkpt>
      <trkpt lat="38.65006528794765472412109375" lon="0.00920458696782588958740234375">
        <ele>289.79998779296875</ele>
        <time>2020-03-04T16:26:25.000Z</time>
      </trkpt>
      <trkpt lat="38.6499886773526668548583984375" lon="0.0091584026813507080078125">
        <ele>288.79998779296875</ele>
        <time>2020-03-04T16:26:28.000Z</time>
      </trkpt>
      <trkpt lat="38.649964369833469390869140625" lon="0.00913091003894805908203125">
        <ele>288.600006103515625</ele>
        <time>2020-03-04T16:26:29.000Z</time>
      </trkpt>
      <trkpt lat="38.6499159224331378936767578125" lon="0.00910031609237194061279296875">
        <ele>288</ele>
        <time>2020-03-04T16:26:31.000Z</time>
      </trkpt>
      <trkpt lat="38.64988801069557666778564453125" lon="0.00910014845430850982666015625">
        <ele>287.600006103515625</ele>
        <time>2020-03-04T16:26:32.000Z</time>
      </trkpt>
      <trkpt lat="38.6498582549393177032470703125" lon="0.0091012381017208099365234375">
        <ele>287.20001220703125</ele>
        <time>2020-03-04T16:26:33.000Z</time>
      </trkpt>
      <trkpt lat="38.6497566662728786468505859375" lon="0.00910836271941661834716796875">
        <ele>286.399993896484375</ele>
        <time>2020-03-04T16:26:36.000Z</time>
      </trkpt>
      <trkpt lat="38.64970327354967594146728515625" lon="0.00909897498786449432373046875">
        <ele>285</ele>
        <time>2020-03-04T16:26:38.000Z</time>
      </trkpt>
      <trkpt lat="38.6496891081333160400390625" lon="0.00908874906599521636962890625">
        <ele>284.20001220703125</ele>
        <time>2020-03-04T16:26:39.000Z</time>
      </trkpt>
      <trkpt lat="38.64968215115368366241455078125" lon="0.00908087007701396942138671875">
        <ele>283.79998779296875</ele>
        <time>2020-03-04T16:26:40.000Z</time>
      </trkpt>
      <trkpt lat="38.649678044021129608154296875" lon="0.00907332636415958404541015625">
        <ele>282.79998779296875</ele>
        <time>2020-03-04T16:26:42.000Z</time>
      </trkpt>
      <trkpt lat="38.64967846311628818511962890625" lon="0.00906963832676410675048828125">
        <ele>282.20001220703125</ele>
        <time>2020-03-04T16:26:43.000Z</time>
      </trkpt>
      <trkpt lat="38.64967812784016132354736328125" lon="0.00906846486032009124755859375">
        <ele>281.20001220703125</ele>
        <time>2020-03-04T16:26:45.000Z</time>
      </trkpt>
      <trkpt lat="38.6496783792972564697265625" lon="0.009064860641956329345703125">
        <ele>279.600006103515625</ele>
        <time>2020-03-04T16:26:47.000Z</time>
      </trkpt>
      <trkpt lat="38.6496772058308124542236328125" lon="0.00906259752810001373291015625">
        <ele>279</ele>
        <time>2020-03-04T16:26:49.000Z</time>
      </trkpt>
      <trkpt lat="38.6496758647263050079345703125" lon="0.00905941240489482879638671875">
        <ele>279</ele>
        <time>2020-03-04T16:26:50.000Z</time>
      </trkpt>
      <trkpt lat="38.64967158995568752288818359375" lon="0.00902772881090641021728515625">
        <ele>278.79998779296875</ele>
        <time>2020-03-04T16:26:53.000Z</time>
      </trkpt>
      <trkpt lat="38.6496420018374919891357421875" lon="0.00895564444363117218017578125">
        <ele>278.79998779296875</ele>
        <time>2020-03-04T16:26:56.000Z</time>
      </trkpt>
      <trkpt lat="38.64959062077105045318603515625" lon="0.0088527984917163848876953125">
        <ele>278.79998779296875</ele>
        <time>2020-03-04T16:27:00.000Z</time>
      </trkpt>
      <trkpt lat="38.649584837257862091064453125" lon="0.00882111489772796630859375">
        <ele>278.600006103515625</ele>
        <time>2020-03-04T16:27:01.000Z</time>
      </trkpt>
      <trkpt lat="38.6495551653206348419189453125" lon="0.0086942128837108612060546875">
        <ele>277.600006103515625</ele>
        <time>2020-03-04T16:27:05.000Z</time>
      </trkpt>
      <trkpt lat="38.6495223082602024078369140625" lon="0.00863947905600070953369140625">
        <ele>276.79998779296875</ele>
        <time>2020-03-04T16:27:07.000Z</time>
      </trkpt>
      <trkpt lat="38.6495025269687175750732421875" lon="0.00861953012645244598388671875">
        <ele>276.399993896484375</ele>
        <time>2020-03-04T16:27:08.000Z</time>
      </trkpt>
      <trkpt lat="38.64943228662014007568359375" lon="0.00857703387737274169921875">
        <ele>275.399993896484375</ele>
        <time>2020-03-04T16:27:11.000Z</time>
      </trkpt>
      <trkpt lat="38.6494099907577037811279296875" lon="0.0085611082613468170166015625">
        <ele>275.399993896484375</ele>
        <time>2020-03-04T16:27:12.000Z</time>
      </trkpt>
      <trkpt lat="38.6493942327797412872314453125" lon="0.00854216516017913818359375">
        <ele>275</ele>
        <time>2020-03-04T16:27:13.000Z</time>
      </trkpt>
      <trkpt lat="38.6493860185146331787109375" lon="0.00851710326969623565673828125">
        <ele>274.20001220703125</ele>
        <time>2020-03-04T16:27:14.000Z</time>
      </trkpt>
      <trkpt lat="38.6493908800184726715087890625" lon="0.00846396200358867645263671875">
        <ele>273.20001220703125</ele>
        <time>2020-03-04T16:27:16.000Z</time>
      </trkpt>
      <trkpt lat="38.6493975855410099029541015625" lon="0.00843781046569347381591796875">
        <ele>272.399993896484375</ele>
        <time>2020-03-04T16:27:17.000Z</time>
      </trkpt>
      <trkpt lat="38.64943119697272777557373046875" lon="0.00837025232613086700439453125">
        <ele>271.20001220703125</ele>
        <time>2020-03-04T16:27:20.000Z</time>
      </trkpt>
      <trkpt lat="38.6494307778775691986083984375" lon="0.00834041275084018707275390625">
        <ele>270.79998779296875</ele>
        <time>2020-03-04T16:27:21.000Z</time>
      </trkpt>
      <trkpt lat="38.64940839819610118865966796875" lon="0.008293725550174713134765625">
        <ele>269.79998779296875</ele>
        <time>2020-03-04T16:27:24.000Z</time>
      </trkpt>
      <trkpt lat="38.6493995971977710723876953125" lon="0.00829112716019153594970703125">
        <ele>269.600006103515625</ele>
        <time>2020-03-04T16:27:25.000Z</time>
      </trkpt>
      <trkpt lat="38.6493895389139652252197265625" lon="0.00828727148473262786865234375">
        <ele>269.20001220703125</ele>
        <time>2020-03-04T16:27:26.000Z</time>
      </trkpt>
      <trkpt lat="38.64937453530728816986083984375" lon="0.00828274525701999664306640625">
        <ele>268.79998779296875</ele>
        <time>2020-03-04T16:27:27.000Z</time>
      </trkpt>
      <trkpt lat="38.64935508929193019866943359375" lon="0.00827771611511707305908203125">
        <ele>268.399993896484375</ele>
        <time>2020-03-04T16:27:28.000Z</time>
      </trkpt>
      <trkpt lat="38.64930798299610614776611328125" lon="0.00827101059257984161376953125">
        <ele>267.600006103515625</ele>
        <time>2020-03-04T16:27:30.000Z</time>
      </trkpt>
      <trkpt lat="38.64921712316572666168212890625" lon="0.0082613714039325714111328125">
        <ele>266.399993896484375</ele>
        <time>2020-03-04T16:27:33.000Z</time>
      </trkpt>
      <trkpt lat="38.649153001606464385986328125" lon="0.00825961120426654815673828125">
        <ele>265.600006103515625</ele>
        <time>2020-03-04T16:27:35.000Z</time>
      </trkpt>
      <trkpt lat="38.64912115037441253662109375" lon="0.00825977884232997894287109375">
        <ele>265.20001220703125</ele>
        <time>2020-03-04T16:27:36.000Z</time>
      </trkpt>
      <trkpt lat="38.6490354873239994049072265625" lon="0.00826229341328144073486328125">
        <ele>264</ele>
        <time>2020-03-04T16:27:39.000Z</time>
      </trkpt>
      <trkpt lat="38.6490140296518802642822265625" lon="0.008254833519458770751953125">
        <ele>263.79998779296875</ele>
        <time>2020-03-04T16:27:40.000Z</time>
      </trkpt>
      <trkpt lat="38.64899910986423492431640625" lon="0.00823698006570339202880859375">
        <ele>263.20001220703125</ele>
        <time>2020-03-04T16:27:41.000Z</time>
      </trkpt>
      <trkpt lat="38.64899416454136371612548828125" lon="0.00821166671812534332275390625">
        <ele>262.600006103515625</ele>
        <time>2020-03-04T16:27:42.000Z</time>
      </trkpt>
      <trkpt lat="38.6490348167717456817626953125" lon="0.00813371501863002777099609375">
        <ele>261.20001220703125</ele>
        <time>2020-03-04T16:27:44.000Z</time>
      </trkpt>
      <trkpt lat="38.6491082422435283660888671875" lon="0.00805391930043697357177734375">
        <ele>260</ele>
        <time>2020-03-04T16:27:46.000Z</time>
      </trkpt>
      <trkpt lat="38.64920002408325672149658203125" lon="0.00799206085503101348876953125">
        <ele>259.20001220703125</ele>
        <time>2020-03-04T16:27:48.000Z</time>
      </trkpt>
      <trkpt lat="38.64930379204452037811279296875" lon="0.00793992541730403900146484375">
        <ele>258.600006103515625</ele>
        <time>2020-03-04T16:27:50.000Z</time>
      </trkpt>
      <trkpt lat="38.64936950616538524627685546875" lon="0.00792148523032665252685546875">
        <ele>257.79998779296875</ele>
        <time>2020-03-04T16:27:52.000Z</time>
      </trkpt>
      <trkpt lat="38.6493979208171367645263671875" lon="0.00791762955486774444580078125">
        <ele>257.600006103515625</ele>
        <time>2020-03-04T16:27:53.000Z</time>
      </trkpt>
      <trkpt lat="38.64949909038841724395751953125" lon="0.00785074196755886077880859375">
        <ele>256.79998779296875</ele>
        <time>2020-03-04T16:27:57.000Z</time>
      </trkpt>
      <trkpt lat="38.64962565712630748748779296875" lon="0.00765837728977203369140625">
        <ele>257</ele>
        <time>2020-03-04T16:28:04.000Z</time>
      </trkpt>
      <trkpt lat="38.6497137509286403656005859375" lon="0.0074892304837703704833984375">
        <ele>257.79998779296875</ele>
        <time>2020-03-04T16:28:10.000Z</time>
      </trkpt>
      <trkpt lat="38.64980251528322696685791015625" lon="0.007414631545543670654296875">
        <ele>258.399993896484375</ele>
        <time>2020-03-04T16:28:15.000Z</time>
      </trkpt>
      <trkpt lat="38.64984073676168918609619140625" lon="0.007389485836029052734375">
        <ele>258.79998779296875</ele>
        <time>2020-03-04T16:28:17.000Z</time>
      </trkpt>
      <trkpt lat="38.64991952665150165557861328125" lon="0.00737012363970279693603515625">
        <ele>260</ele>
        <time>2020-03-04T16:28:21.000Z</time>
      </trkpt>
      <trkpt lat="38.65001424215734004974365234375" lon="0.00737448222935199737548828125">
        <ele>261.20001220703125</ele>
        <time>2020-03-04T16:28:26.000Z</time>
      </trkpt>
      <trkpt lat="38.65009370259940624237060546875" lon="0.00738571397960186004638671875">
        <ele>262</ele>
        <time>2020-03-04T16:28:30.000Z</time>
      </trkpt>
      <trkpt lat="38.6501174233853816986083984375" lon="0.00738940201699733734130859375">
        <ele>262.600006103515625</ele>
        <time>2020-03-04T16:28:31.000Z</time>
      </trkpt>
      <trkpt lat="38.6502657830715179443359375" lon="0.00744539313018321990966796875">
        <ele>263.79998779296875</ele>
        <time>2020-03-04T16:28:38.000Z</time>
      </trkpt>
      <trkpt lat="38.65027626045048236846923828125" lon="0.00744891352951526641845703125">
        <ele>263.79998779296875</ele>
        <time>2020-03-04T16:28:39.000Z</time>
      </trkpt>
      <trkpt lat="38.6502760089933872222900390625" lon="0.0074530206620693206787109375">
        <ele>263.79998779296875</ele>
        <time>2020-03-04T16:28:42.000Z</time>
      </trkpt>
      <trkpt lat="38.65026972256600856781005859375" lon="0.0074634142220020294189453125">
        <ele>264</ele>
        <time>2020-03-04T16:29:37.000Z</time>
      </trkpt>
      <trkpt lat="38.6502693034708499908447265625" lon="0.00746366567909717559814453125">
        <ele>264</ele>
        <time>2020-03-04T16:29:38.000Z</time>
      </trkpt>
      <trkpt lat="38.65030945278704166412353515625" lon="0.00749367289245128631591796875">
        <ele>264</ele>
        <time>2020-03-04T16:29:41.000Z</time>
      </trkpt>
      <trkpt lat="38.65035220049321651458740234375" lon="0.00753474421799182891845703125">
        <ele>264</ele>
        <time>2020-03-04T16:29:43.000Z</time>
      </trkpt>
      <trkpt lat="38.65042160265147686004638671875" lon="0.0076062418520450592041015625">
        <ele>264</ele>
        <time>2020-03-04T16:29:46.000Z</time>
      </trkpt>
      <trkpt lat="38.65054364316165447235107421875" lon="0.0077517516911029815673828125">
        <ele>264</ele>
        <time>2020-03-04T16:29:52.000Z</time>
      </trkpt>
      <trkpt lat="38.65058136172592639923095703125" lon="0.00778972171247005462646484375">
        <ele>264.20001220703125</ele>
        <time>2020-03-04T16:29:54.000Z</time>
      </trkpt>
      <trkpt lat="38.65067339502274990081787109375" lon="0.0078717805445194244384765625">
        <ele>264.79998779296875</ele>
        <time>2020-03-04T16:29:58.000Z</time>
      </trkpt>
      <trkpt lat="38.65069602616131305694580078125" lon="0.0078932382166385650634765625">
        <ele>265</ele>
        <time>2020-03-04T16:29:59.000Z</time>
      </trkpt>
      <trkpt lat="38.6508097685873508453369140625" lon="0.00802407972514629364013671875">
        <ele>265.399993896484375</ele>
        <time>2020-03-04T16:30:04.000Z</time>
      </trkpt>
      <trkpt lat="38.65085947327315807342529296875" lon="0.00812550075352191925048828125">
        <ele>265.600006103515625</ele>
        <time>2020-03-04T16:30:07.000Z</time>
      </trkpt>
      <trkpt lat="38.65093910135328769683837890625" lon="0.00832683406770229339599609375">
        <ele>266</ele>
        <time>2020-03-04T16:30:13.000Z</time>
      </trkpt>
      <trkpt lat="38.65094228647649288177490234375" lon="0.00837008468806743621826171875">
        <ele>266</ele>
        <time>2020-03-04T16:30:14.000Z</time>
      </trkpt>
      <trkpt lat="38.6509685218334197998046875" lon="0.00861701555550098419189453125">
        <ele>266.399993896484375</ele>
        <time>2020-03-04T16:30:19.000Z</time>
      </trkpt>
      <trkpt lat="38.6510105989873409271240234375" lon="0.0089626014232635498046875">
        <ele>267</ele>
        <time>2020-03-04T16:30:26.000Z</time>
      </trkpt>
      <trkpt lat="38.65103247575461864471435546875" lon="0.0090162456035614013671875">
        <ele>267</ele>
        <time>2020-03-04T16:30:27.000Z</time>
      </trkpt>
      <trkpt lat="38.6511175520718097686767578125" lon="0.0091498531401157379150390625">
        <ele>267</ele>
        <time>2020-03-04T16:30:30.000Z</time>
      </trkpt>
      <trkpt lat="38.651271946728229522705078125" lon="0.0092068500816822052001953125">
        <ele>267</ele>
        <time>2020-03-04T16:30:34.000Z</time>
      </trkpt>
      <trkpt lat="38.651430197060108184814453125" lon="0.009139291942119598388671875">
        <ele>266.79998779296875</ele>
        <time>2020-03-04T16:30:38.000Z</time>
      </trkpt>
      <trkpt lat="38.65146833471953868865966796875" lon="0.00911339186131954193115234375">
        <ele>266.79998779296875</ele>
        <time>2020-03-04T16:30:39.000Z</time>
      </trkpt>
      <trkpt lat="38.65165181457996368408203125" lon="0.00906880013644695281982421875">
        <ele>266.79998779296875</ele>
        <time>2020-03-04T16:30:44.000Z</time>
      </trkpt>
      <trkpt lat="38.6518323607742786407470703125" lon="0.0091501884162425994873046875">
        <ele>266.79998779296875</ele>
        <time>2020-03-04T16:30:48.000Z</time>
      </trkpt>
      <trkpt lat="38.6519389785826206207275390625" lon="0.00919528305530548095703125">
        <ele>266.79998779296875</ele>
        <time>2020-03-04T16:30:50.000Z</time>
      </trkpt>
      <trkpt lat="38.65205992944538593292236328125" lon="0.00921514816582202911376953125">
        <ele>266.79998779296875</ele>
        <time>2020-03-04T16:30:52.000Z</time>
      </trkpt>
      <trkpt lat="38.65219068713486194610595703125" lon="0.0091290660202503204345703125">
        <ele>266.79998779296875</ele>
        <time>2020-03-04T16:30:55.000Z</time>
      </trkpt>
      <trkpt lat="38.6522276513278484344482421875" lon="0.009023286402225494384765625">
        <ele>266.79998779296875</ele>
        <time>2020-03-04T16:30:57.000Z</time>
      </trkpt>
      <trkpt lat="38.65226268768310546875" lon="0.0089336000382900238037109375">
        <ele>266.600006103515625</ele>
        <time>2020-03-04T16:30:59.000Z</time>
      </trkpt>
      <trkpt lat="38.65235329605638980865478515625" lon="0.0088045187294483184814453125">
        <ele>266.600006103515625</ele>
        <time>2020-03-04T16:31:04.000Z</time>
      </trkpt>
      <trkpt lat="38.65238062106072902679443359375" lon="0.00872832722961902618408203125">
        <ele>266.79998779296875</ele>
        <time>2020-03-04T16:31:07.000Z</time>
      </trkpt>
      <trkpt lat="38.6524053476750850677490234375" lon="0.00867887400090694427490234375">
        <ele>267.399993896484375</ele>
        <time>2020-03-04T16:31:09.000Z</time>
      </trkpt>
      <trkpt lat="38.6524190939962863922119140625" lon="0.0086568295955657958984375">
        <ele>267.79998779296875</ele>
        <time>2020-03-04T16:31:10.000Z</time>
      </trkpt>
      <trkpt lat="38.6524633504450321197509765625" lon="0.00855850987136363983154296875">
        <ele>269</ele>
        <time>2020-03-04T16:31:14.000Z</time>
      </trkpt>
      <trkpt lat="38.65248371846973896026611328125" lon="0.008510313928127288818359375">
        <ele>269</ele>
        <time>2020-03-04T16:31:16.000Z</time>
      </trkpt>
      <trkpt lat="38.65254926495254039764404296875" lon="0.0084259919822216033935546875">
        <ele>270.20001220703125</ele>
        <time>2020-03-04T16:31:21.000Z</time>
      </trkpt>
      <trkpt lat="38.65258564241230487823486328125" lon="0.0084047019481658935546875">
        <ele>270.399993896484375</ele>
        <time>2020-03-04T16:31:23.000Z</time>
      </trkpt>
      <trkpt lat="38.65261984057724475860595703125" lon="0.00838383100926876068115234375">
        <ele>271</ele>
        <time>2020-03-04T16:31:25.000Z</time>
      </trkpt>
      <trkpt lat="38.65267247892916202545166015625" lon="0.00834745354950428009033203125">
        <ele>271.600006103515625</ele>
        <time>2020-03-04T16:31:28.000Z</time>
      </trkpt>
      <trkpt lat="38.65270818583667278289794921875" lon="0.0083374790847301483154296875">
        <ele>272</ele>
        <time>2020-03-04T16:31:30.000Z</time>
      </trkpt>
      <trkpt lat="38.6527248658239841461181640625" lon="0.00833169557154178619384765625">
        <ele>272.20001220703125</ele>
        <time>2020-03-04T16:31:31.000Z</time>
      </trkpt>
      <trkpt lat="38.65279736928641796112060546875" lon="0.00830939970910549163818359375">
        <ele>273</ele>
        <time>2020-03-04T16:31:35.000Z</time>
      </trkpt>
      <trkpt lat="38.65284883417189121246337890625" lon="0.0083049573004245758056640625">
        <ele>273.399993896484375</ele>
        <time>2020-03-04T16:31:38.000Z</time>
      </trkpt>
      <trkpt lat="38.65286425687372684478759765625" lon="0.00830923207104206085205078125">
        <ele>273.399993896484375</ele>
        <time>2020-03-04T16:31:39.000Z</time>
      </trkpt>
      <trkpt lat="38.652919493615627288818359375" lon="0.00836086459457874298095703125">
        <ele>274.600006103515625</ele>
        <time>2020-03-04T16:31:44.000Z</time>
      </trkpt>
      <trkpt lat="38.6529243551194667816162109375" lon="0.0083780474960803985595703125">
        <ele>274.79998779296875</ele>
        <time>2020-03-04T16:31:45.000Z</time>
      </trkpt>
      <trkpt lat="38.65293516777455806732177734375" lon="0.0084343738853931427001953125">
        <ele>275.600006103515625</ele>
        <time>2020-03-04T16:31:48.000Z</time>
      </trkpt>
      <trkpt lat="38.652927540242671966552734375" lon="0.00849296338856220245361328125">
        <ele>276.79998779296875</ele>
        <time>2020-03-04T16:31:51.000Z</time>
      </trkpt>
      <trkpt lat="38.65291940979659557342529296875" lon="0.00856655649840831756591796875">
        <ele>277.79998779296875</ele>
        <time>2020-03-04T16:31:55.000Z</time>
      </trkpt>
      <trkpt lat="38.6529159732162952423095703125" lon="0.00863260589540004730224609375">
        <ele>279</ele>
        <time>2020-03-04T16:31:58.000Z</time>
      </trkpt>
      <trkpt lat="38.65291287191212177276611328125" lon="0.00871022231876850128173828125">
        <ele>280.20001220703125</ele>
        <time>2020-03-04T16:32:02.000Z</time>
      </trkpt>
      <trkpt lat="38.65291605703532695770263671875" lon="0.00872748903930187225341796875">
        <ele>280.79998779296875</ele>
        <time>2020-03-04T16:32:04.000Z</time>
      </trkpt>
      <trkpt lat="38.6529156379401683807373046875" lon="0.00873033888638019561767578125">
        <ele>281.20001220703125</ele>
        <time>2020-03-04T16:32:05.000Z</time>
      </trkpt>
      <trkpt lat="38.65291505120694637298583984375" lon="0.00873788259923458099365234375">
        <ele>282.399993896484375</ele>
        <time>2020-03-04T16:32:09.000Z</time>
      </trkpt>
      <trkpt lat="38.65290951915085315704345703125" lon="0.008763112127780914306640625">
        <ele>283.399993896484375</ele>
        <time>2020-03-04T16:32:14.000Z</time>
      </trkpt>
      <trkpt lat="38.65291035734117031097412109375" lon="0.00877342186868190765380859375">
        <ele>283.399993896484375</ele>
        <time>2020-03-04T16:32:15.000Z</time>
      </trkpt>
      <trkpt lat="38.65290583111345767974853515625" lon="0.0088521279394626617431640625">
        <ele>283.79998779296875</ele>
        <time>2020-03-04T16:32:22.000Z</time>
      </trkpt>
      <trkpt lat="38.652908764779567718505859375" lon="0.00888674519956111907958984375">
        <ele>284.600006103515625</ele>
        <time>2020-03-04T16:32:26.000Z</time>
      </trkpt>
      <trkpt lat="38.65291421301662921905517578125" lon="0.0089386291801929473876953125">
        <ele>285.600006103515625</ele>
        <time>2020-03-04T16:32:31.000Z</time>
      </trkpt>
      <trkpt lat="38.65291186608374118804931640625" lon="0.0089813768863677978515625">
        <ele>286.79998779296875</ele>
        <time>2020-03-04T16:32:36.000Z</time>
      </trkpt>
      <trkpt lat="38.652928210794925689697265625" lon="0.00902035273611545562744140625">
        <ele>287.79998779296875</ele>
        <time>2020-03-04T16:32:46.000Z</time>
      </trkpt>
      <trkpt lat="38.6529426276683807373046875" lon="0.0091324187815189361572265625">
        <ele>288</ele>
        <time>2020-03-04T16:32:51.000Z</time>
      </trkpt>
      <trkpt lat="38.65294824354350566864013671875" lon="0.0091565586626529693603515625">
        <ele>288</ele>
        <time>2020-03-04T16:32:52.000Z</time>
      </trkpt>
      <trkpt lat="38.65296081639826297760009765625" lon="0.00918027944862842559814453125">
        <ele>288</ele>
        <time>2020-03-04T16:32:53.000Z</time>
      </trkpt>
      <trkpt lat="38.65301278419792652130126953125" lon="0.0092346780002117156982421875">
        <ele>288</ele>
        <time>2020-03-04T16:32:56.000Z</time>
      </trkpt>
      <trkpt lat="38.6530775763094425201416015625" lon="0.00924197025597095489501953125">
        <ele>288.399993896484375</ele>
        <time>2020-03-04T16:32:59.000Z</time>
      </trkpt>
      <trkpt lat="38.6530970223248004913330078125" lon="0.009229481220245361328125">
        <ele>288.399993896484375</ele>
        <time>2020-03-04T16:33:00.000Z</time>
      </trkpt>
      <trkpt lat="38.65314689464867115020751953125" lon="0.00920324586331844329833984375">
        <ele>288.399993896484375</ele>
        <time>2020-03-04T16:33:02.000Z</time>
      </trkpt>
      <trkpt lat="38.6532136984169483184814453125" lon="0.00916670076549053192138671875">
        <ele>288.399993896484375</ele>
        <time>2020-03-04T16:33:05.000Z</time>
      </trkpt>
      <trkpt lat="38.65335979498922824859619140625" lon="0.00901557505130767822265625">
        <ele>288.79998779296875</ele>
        <time>2020-03-04T16:33:12.000Z</time>
      </trkpt>
      <trkpt lat="38.6534111760556697845458984375" lon="0.0089651159942150115966796875">
        <ele>288.79998779296875</ele>
        <time>2020-03-04T16:33:14.000Z</time>
      </trkpt>
      <trkpt lat="38.6534869484603404998779296875" lon="0.00892379321157932281494140625">
        <ele>289</ele>
        <time>2020-03-04T16:33:17.000Z</time>
      </trkpt>
      <trkpt lat="38.65357805974781513214111328125" lon="0.0088863261044025421142578125">
        <ele>289.20001220703125</ele>
        <time>2020-03-04T16:33:21.000Z</time>
      </trkpt>
      <trkpt lat="38.65363321267068386077880859375" lon="0.00887341797351837158203125">
        <ele>290</ele>
        <time>2020-03-04T16:33:24.000Z</time>
      </trkpt>
      <trkpt lat="38.6536358110606670379638671875" lon="0.008864365518093109130859375">
        <ele>291</ele>
        <time>2020-03-04T16:33:26.000Z</time>
      </trkpt>
      <trkpt lat="38.65363799035549163818359375" lon="0.00886327587068080902099609375">
        <ele>291.600006103515625</ele>
        <time>2020-03-04T16:33:27.000Z</time>
      </trkpt>
      <trkpt lat="38.65364947356283664703369140625" lon="0.00886260531842708587646484375">
        <ele>292.20001220703125</ele>
        <time>2020-03-04T16:33:29.000Z</time>
      </trkpt>
      <trkpt lat="38.6536552570760250091552734375" lon="0.00886159949004650115966796875">
        <ele>292.600006103515625</ele>
        <time>2020-03-04T16:33:30.000Z</time>
      </trkpt>
      <trkpt lat="38.65367612801492214202880859375" lon="0.00886042602360248565673828125">
        <ele>293.79998779296875</ele>
        <time>2020-03-04T16:33:32.000Z</time>
      </trkpt>
      <trkpt lat="38.65372717380523681640625" lon="0.00885874964296817779541015625">
        <ele>294.79998779296875</ele>
        <time>2020-03-04T16:33:37.000Z</time>
      </trkpt>
      <trkpt lat="38.65373681299388408660888671875" lon="0.0088568218052387237548828125">
        <ele>295</ele>
        <time>2020-03-04T16:33:38.000Z</time>
      </trkpt>
      <trkpt lat="38.653786182403564453125" lon="0.00885372050106525421142578125">
        <ele>295.79998779296875</ele>
        <time>2020-03-04T16:33:43.000Z</time>
      </trkpt>
      <trkpt lat="38.6537928879261016845703125" lon="0.008853971958160400390625">
        <ele>296</ele>
        <time>2020-03-04T16:33:44.000Z</time>
      </trkpt>
      <trkpt lat="38.653793223202228546142578125" lon="0.0088526308536529541015625">
        <ele>296.600006103515625</ele>
        <time>2020-03-04T16:33:46.000Z</time>
      </trkpt>
      <trkpt lat="38.6538228951394557952880859375" lon="0.0088512897491455078125">
        <ele>296.79998779296875</ele>
        <time>2020-03-04T16:33:52.000Z</time>
      </trkpt>
      <trkpt lat="38.65384561009705066680908203125" lon="0.00884852372109889984130859375">
        <ele>296.79998779296875</ele>
        <time>2020-03-04T16:33:53.000Z</time>
      </trkpt>
      <trkpt lat="38.65401643328368663787841796875" lon="0.00883963890373706817626953125">
        <ele>296.79998779296875</ele>
        <time>2020-03-04T16:33:58.000Z</time>
      </trkpt>
      <trkpt lat="38.6541802994906902313232421875" lon="0.00887618400156497955322265625">
        <ele>296.600006103515625</ele>
        <time>2020-03-04T16:34:02.000Z</time>
      </trkpt>
      <trkpt lat="38.6542475223541259765625" lon="0.00893167220056056976318359375">
        <ele>296.20001220703125</ele>
        <time>2020-03-04T16:34:04.000Z</time>
      </trkpt>
      <trkpt lat="38.654313571751117706298828125" lon="0.00906511209905147552490234375">
        <ele>296.20001220703125</ele>
        <time>2020-03-04T16:34:08.000Z</time>
      </trkpt>
      <trkpt lat="38.65429823286831378936767578125" lon="0.009209699928760528564453125">
        <ele>296</ele>
        <time>2020-03-04T16:34:13.000Z</time>
      </trkpt>
      <trkpt lat="38.65428800694644451141357421875" lon="0.0092594884335994720458984375">
        <ele>296.600006103515625</ele>
        <time>2020-03-04T16:34:15.000Z</time>
      </trkpt>
      <trkpt lat="38.6542738415300846099853515625" lon="0.009296201169490814208984375">
        <ele>297.399993896484375</ele>
        <time>2020-03-04T16:34:17.000Z</time>
      </trkpt>
      <trkpt lat="38.65425632335245609283447265625" lon="0.00933500938117504119873046875">
        <ele>298.20001220703125</ele>
        <time>2020-03-04T16:34:19.000Z</time>
      </trkpt>
      <trkpt lat="38.6542530544102191925048828125" lon="0.00935931690037250518798828125">
        <ele>298.600006103515625</ele>
        <time>2020-03-04T16:34:20.000Z</time>
      </trkpt>
      <trkpt lat="38.6542649567127227783203125" lon="0.00943525694310665130615234375">
        <ele>299.600006103515625</ele>
        <time>2020-03-04T16:34:23.000Z</time>
      </trkpt>
      <trkpt lat="38.65427141077816486358642578125" lon="0.0094536133110523223876953125">
        <ele>300</ele>
        <time>2020-03-04T16:34:24.000Z</time>
      </trkpt>
      <trkpt lat="38.6542993225157260894775390625" lon="0.00951203517615795135498046875">
        <ele>300.79998779296875</ele>
        <time>2020-03-04T16:34:27.000Z</time>
      </trkpt>
      <trkpt lat="38.65435522980988025665283203125" lon="0.00955930911004543304443359375">
        <ele>301.399993896484375</ele>
        <time>2020-03-04T16:34:30.000Z</time>
      </trkpt>
      <trkpt lat="38.654402755200862884521484375" lon="0.009582526981830596923828125">
        <ele>301.79998779296875</ele>
        <time>2020-03-04T16:34:32.000Z</time>
      </trkpt>
      <trkpt lat="38.65449034608900547027587890625" lon="0.009642206132411956787109375">
        <ele>302.399993896484375</ele>
        <time>2020-03-04T16:34:36.000Z</time>
      </trkpt>
      <trkpt lat="38.6545734107494354248046875" lon="0.00983037985861301422119140625">
        <ele>302.79998779296875</ele>
        <time>2020-03-04T16:34:42.000Z</time>
      </trkpt>
      <trkpt lat="38.65458573214709758758544921875" lon="0.00986189581453800201416015625">
        <ele>302.79998779296875</ele>
        <time>2020-03-04T16:34:43.000Z</time>
      </trkpt>
      <trkpt lat="38.654685728251934051513671875" lon="0.00997538678348064422607421875">
        <ele>303</ele>
        <time>2020-03-04T16:34:48.000Z</time>
      </trkpt>
      <trkpt lat="38.65482025779783725738525390625" lon="0.0099850259721279144287109375">
        <ele>303.399993896484375</ele>
        <time>2020-03-04T16:34:53.000Z</time>
      </trkpt>
      <trkpt lat="38.6549852974712848663330078125" lon="0.01002810895442962646484375">
        <ele>303.399993896484375</ele>
        <time>2020-03-04T16:34:58.000Z</time>
      </trkpt>
      <trkpt lat="38.65509937517344951629638671875" lon="0.0101181305944919586181640625">
        <ele>303.399993896484375</ele>
        <time>2020-03-04T16:35:01.000Z</time>
      </trkpt>
      <trkpt lat="38.6551318131387233734130859375" lon="0.01013212837278842926025390625">
        <ele>303.399993896484375</ele>
        <time>2020-03-04T16:35:02.000Z</time>
      </trkpt>
      <trkpt lat="38.6551854573190212249755859375" lon="0.01015123911201953887939453125">
        <ele>303.600006103515625</ele>
        <time>2020-03-04T16:35:04.000Z</time>
      </trkpt>
      <trkpt lat="38.6552131175994873046875" lon="0.0101583637297153472900390625">
        <ele>303.600006103515625</ele>
        <time>2020-03-04T16:35:05.000Z</time>
      </trkpt>
      <trkpt lat="38.65532132796943187713623046875" lon="0.01015744172036647796630859375">
        <ele>304</ele>
        <time>2020-03-04T16:35:09.000Z</time>
      </trkpt>
      <trkpt lat="38.6555143631994724273681640625" lon="0.010095499455928802490234375">
        <ele>304.20001220703125</ele>
        <time>2020-03-04T16:35:15.000Z</time>
      </trkpt>
      <trkpt lat="38.655717037618160247802734375" lon="0.0100135244429111480712890625">
        <ele>304.600006103515625</ele>
        <time>2020-03-04T16:35:22.000Z</time>
      </trkpt>
      <trkpt lat="38.65574075840413570404052734375" lon="0.009993575513362884521484375">
        <ele>304.399993896484375</ele>
        <time>2020-03-04T16:35:23.000Z</time>
      </trkpt>
      <trkpt lat="38.65588660351932048797607421875" lon="0.0099129416048526763916015625">
        <ele>305.20001220703125</ele>
        <time>2020-03-04T16:35:28.000Z</time>
      </trkpt>
      <trkpt lat="38.65595810115337371826171875" lon="0.00990179367363452911376953125">
        <ele>305.600006103515625</ele>
        <time>2020-03-04T16:35:30.000Z</time>
      </trkpt>
      <trkpt lat="38.6560994200408458709716796875" lon="0.0098933279514312744140625">
        <ele>305.600006103515625</ele>
        <time>2020-03-04T16:35:34.000Z</time>
      </trkpt>
      <trkpt lat="38.6562499590218067169189453125" lon="0.00987513922154903411865234375">
        <ele>305.600006103515625</ele>
        <time>2020-03-04T16:35:39.000Z</time>
      </trkpt>
      <trkpt lat="38.65643695928156375885009765625" lon="0.00985200516879558563232421875">
        <ele>305.79998779296875</ele>
        <time>2020-03-04T16:35:44.000Z</time>
      </trkpt>
      <trkpt lat="38.65660778246819972991943359375" lon="0.0097798369824886322021484375">
        <ele>306.600006103515625</ele>
        <time>2020-03-04T16:35:49.000Z</time>
      </trkpt>
      <trkpt lat="38.65676678717136383056640625" lon="0.00965804792940616607666015625">
        <ele>307.20001220703125</ele>
        <time>2020-03-04T16:35:55.000Z</time>
      </trkpt>
      <trkpt lat="38.6568004824221134185791015625" lon="0.00958914868533611297607421875">
        <ele>307.600006103515625</ele>
        <time>2020-03-04T16:35:57.000Z</time>
      </trkpt>
      <trkpt lat="38.65682889707386493682861328125" lon="0.00942972488701343536376953125">
        <ele>308.79998779296875</ele>
        <time>2020-03-04T16:36:01.000Z</time>
      </trkpt>
      <trkpt lat="38.65679838694632053375244140625" lon="0.0091946125030517578125">
        <ele>309.399993896484375</ele>
        <time>2020-03-04T16:36:07.000Z</time>
      </trkpt>
      <trkpt lat="38.65675530396401882171630859375" lon="0.009047426283359527587890625">
        <ele>309.79998779296875</ele>
        <time>2020-03-04T16:36:11.000Z</time>
      </trkpt>
      <trkpt lat="38.65676988847553730010986328125" lon="0.008975006639957427978515625">
        <ele>310.20001220703125</ele>
        <time>2020-03-04T16:36:13.000Z</time>
      </trkpt>
      <trkpt lat="38.65690835751593112945556640625" lon="0.00882606022059917449951171875">
        <ele>310.79998779296875</ele>
        <time>2020-03-04T16:36:18.000Z</time>
      </trkpt>
      <trkpt lat="38.65694121457636356353759765625" lon="0.00879772938787937164306640625">
        <ele>310.79998779296875</ele>
        <time>2020-03-04T16:36:19.000Z</time>
      </trkpt>
      <trkpt lat="38.65700709633529186248779296875" lon="0.0087233819067478179931640625">
        <ele>310.79998779296875</ele>
        <time>2020-03-04T16:36:21.000Z</time>
      </trkpt>
      <trkpt lat="38.65704162977635860443115234375" lon="0.008681975305080413818359375">
        <ele>310.79998779296875</ele>
        <time>2020-03-04T16:36:22.000Z</time>
      </trkpt>
      <trkpt lat="38.657199628651142120361328125" lon="0.0085704959928989410400390625">
        <ele>310.79998779296875</ele>
        <time>2020-03-04T16:36:26.000Z</time>
      </trkpt>
      <trkpt lat="38.6573882214725017547607421875" lon="0.0084481202065944671630859375">
        <ele>310.600006103515625</ele>
        <time>2020-03-04T16:36:31.000Z</time>
      </trkpt>
      <trkpt lat="38.6574187316000461578369140625" lon="0.00841836445033550262451171875">
        <ele>310.600006103515625</ele>
        <time>2020-03-04T16:36:32.000Z</time>
      </trkpt>
      <trkpt lat="38.65755527280271053314208984375" lon="0.00834963284432888031005859375">
        <ele>310.600006103515625</ele>
        <time>2020-03-04T16:36:37.000Z</time>
      </trkpt>
      <trkpt lat="38.65773749537765979766845703125" lon="0.00838366337120532989501953125">
        <ele>311.399993896484375</ele>
        <time>2020-03-04T16:36:43.000Z</time>
      </trkpt>
      <trkpt lat="38.65783841349184513092041015625" lon="0.00841610133647918701171875">
        <ele>311.600006103515625</ele>
        <time>2020-03-04T16:36:45.000Z</time>
      </trkpt>
      <trkpt lat="38.6579424329102039337158203125" lon="0.008427836000919342041015625">
        <ele>311.600006103515625</ele>
        <time>2020-03-04T16:36:47.000Z</time>
      </trkpt>
      <trkpt lat="38.65803237073123455047607421875" lon="0.00837360508739948272705078125">
        <ele>311.600006103515625</ele>
        <time>2020-03-04T16:36:49.000Z</time>
      </trkpt>
      <trkpt lat="38.658083416521549224853515625" lon="0.008329935371875762939453125">
        <ele>311.600006103515625</ele>
        <time>2020-03-04T16:36:50.000Z</time>
      </trkpt>
      <trkpt lat="38.65825801156461238861083984375" lon="0.00820294953882694244384765625">
        <ele>310.79998779296875</ele>
        <time>2020-03-04T16:36:53.000Z</time>
      </trkpt>
      <trkpt lat="38.6583888530731201171875" lon="0.00812751241028308868408203125">
        <ele>310</ele>
        <time>2020-03-04T16:36:55.000Z</time>
      </trkpt>
      <trkpt lat="38.658454231917858123779296875" lon="0.00809230841696262359619140625">
        <ele>309.79998779296875</ele>
        <time>2020-03-04T16:36:56.000Z</time>
      </trkpt>
      <trkpt lat="38.65859094075858592987060546875" lon="0.00803665257990360260009765625">
        <ele>309.20001220703125</ele>
        <time>2020-03-04T16:36:58.000Z</time>
      </trkpt>
      <trkpt lat="38.65874131210148334503173828125" lon="0.0080075673758983612060546875">
        <ele>308</ele>
        <time>2020-03-04T16:37:00.000Z</time>
      </trkpt>
      <trkpt lat="38.658890761435031890869140625" lon="0.00799767673015594482421875">
        <ele>307</ele>
        <time>2020-03-04T16:37:02.000Z</time>
      </trkpt>
      <trkpt lat="38.65896753966808319091796875" lon="0.00799440778791904449462890625">
        <ele>306.79998779296875</ele>
        <time>2020-03-04T16:37:03.000Z</time>
      </trkpt>
      <trkpt lat="38.65911112166941165924072265625" lon="0.0079757161438465118408203125">
        <ele>306.399993896484375</ele>
        <time>2020-03-04T16:37:05.000Z</time>
      </trkpt>
      <trkpt lat="38.65924925543367862701416015625" lon="0.00795878469944000244140625">
        <ele>305.600006103515625</ele>
        <time>2020-03-04T16:37:07.000Z</time>
      </trkpt>
      <trkpt lat="38.65938906557857990264892578125" lon="0.0080011971294879913330078125">
        <ele>304.600006103515625</ele>
        <time>2020-03-04T16:37:09.000Z</time>
      </trkpt>
      <trkpt lat="38.65945042110979557037353515625" lon="0.0080394186079502105712890625">
        <ele>304.399993896484375</ele>
        <time>2020-03-04T16:37:10.000Z</time>
      </trkpt>
      <trkpt lat="38.65951160900294780731201171875" lon="0.008068419992923736572265625">
        <ele>304.20001220703125</ele>
        <time>2020-03-04T16:37:11.000Z</time>
      </trkpt>
      <trkpt lat="38.65964907221496105194091796875" lon="0.008069761097431182861328125">
        <ele>303.79998779296875</ele>
        <time>2020-03-04T16:37:13.000Z</time>
      </trkpt>
      <trkpt lat="38.6597093380987644195556640625" lon="0.00803816132247447967529296875">
        <ele>303.20001220703125</ele>
        <time>2020-03-04T16:37:14.000Z</time>
      </trkpt>
      <trkpt lat="38.65980681963264942169189453125" lon="0.0079468823969364166259765625">
        <ele>301.600006103515625</ele>
        <time>2020-03-04T16:37:16.000Z</time>
      </trkpt>
      <trkpt lat="38.6598479747772216796875" lon="0.00789818353950977325439453125">
        <ele>301.20001220703125</ele>
        <time>2020-03-04T16:37:17.000Z</time>
      </trkpt>
      <trkpt lat="38.659888543188571929931640625" lon="0.00785258598625659942626953125">
        <ele>300.600006103515625</ele>
        <time>2020-03-04T16:37:18.000Z</time>
      </trkpt>
      <trkpt lat="38.659937493503093719482421875" lon="0.00781201757490634918212890625">
        <ele>300.20001220703125</ele>
        <time>2020-03-04T16:37:19.000Z</time>
      </trkpt>
      <trkpt lat="38.6600489728152751922607421875" lon="0.0077497400343418121337890625">
        <ele>299.399993896484375</ele>
        <time>2020-03-04T16:37:21.000Z</time>
      </trkpt>
      <trkpt lat="38.66030151955783367156982421875" lon="0.0076380930840969085693359375">
        <ele>298.79998779296875</ele>
        <time>2020-03-04T16:37:25.000Z</time>
      </trkpt>
      <trkpt lat="38.66049765609204769134521484375" lon="0.007643289864063262939453125">
        <ele>298.399993896484375</ele>
        <time>2020-03-04T16:37:28.000Z</time>
      </trkpt>
      <trkpt lat="38.66056202910840511322021484375" lon="0.00766801647841930389404296875">
        <ele>298.20001220703125</ele>
        <time>2020-03-04T16:37:29.000Z</time>
      </trkpt>
      <trkpt lat="38.66062455810606479644775390625" lon="0.00769324600696563720703125">
        <ele>298</ele>
        <time>2020-03-04T16:37:30.000Z</time>
      </trkpt>
      <trkpt lat="38.66073335520923137664794921875" lon="0.00775468535721302032470703125">
        <ele>296.399993896484375</ele>
        <time>2020-03-04T16:37:32.000Z</time>
      </trkpt>
      <trkpt lat="38.66078146733343601226806640625" lon="0.00778553076088428497314453125">
        <ele>295.79998779296875</ele>
        <time>2020-03-04T16:37:33.000Z</time>
      </trkpt>
      <trkpt lat="38.6608606763184070587158203125" lon="0.00783816911280155181884765625">
        <ele>295.399993896484375</ele>
        <time>2020-03-04T16:37:35.000Z</time>
      </trkpt>
      <trkpt lat="38.66089261136949062347412109375" lon="0.007861219346523284912109375">
        <ele>295.20001220703125</ele>
        <time>2020-03-04T16:37:36.000Z</time>
      </trkpt>
      <trkpt lat="38.6609273962676525115966796875" lon="0.007880665361881256103515625">
        <ele>295.20001220703125</ele>
        <time>2020-03-04T16:37:37.000Z</time>
      </trkpt>
      <trkpt lat="38.66104616783559322357177734375" lon="0.0079378299415111541748046875">
        <ele>295.20001220703125</ele>
        <time>2020-03-04T16:37:40.000Z</time>
      </trkpt>
      <trkpt lat="38.6611349321901798248291015625" lon="0.007972531020641326904296875">
        <ele>295</ele>
        <time>2020-03-04T16:37:42.000Z</time>
      </trkpt>
      <trkpt lat="38.66128471679985523223876953125" lon="0.007934980094432830810546875">
        <ele>294.600006103515625</ele>
        <time>2020-03-04T16:37:45.000Z</time>
      </trkpt>
      <trkpt lat="38.66134665906429290771484375" lon="0.00780723989009857177734375">
        <ele>294.600006103515625</ele>
        <time>2020-03-04T16:37:47.000Z</time>
      </trkpt>
      <trkpt lat="38.6613666079938411712646484375" lon="0.00773356296122074127197265625">
        <ele>294.600006103515625</ele>
        <time>2020-03-04T16:37:48.000Z</time>
      </trkpt>
      <trkpt lat="38.66138177923858165740966796875" lon="0.0076536834239959716796875">
        <ele>294.600006103515625</ele>
        <time>2020-03-04T16:37:49.000Z</time>
      </trkpt>
      <trkpt lat="38.6614184081554412841796875" lon="0.00749954022467136383056640625">
        <ele>294.600006103515625</ele>
        <time>2020-03-04T16:37:51.000Z</time>
      </trkpt>
      <trkpt lat="38.66144682280719280242919921875" lon="0.00732637010514736175537109375">
        <ele>294</ele>
        <time>2020-03-04T16:37:53.000Z</time>
      </trkpt>
      <trkpt lat="38.6614876426756381988525390625" lon="0.00699587166309356689453125">
        <ele>293</ele>
        <time>2020-03-04T16:37:57.000Z</time>
      </trkpt>
      <trkpt lat="38.66149443201720714569091796875" lon="0.00693074427545070648193359375">
        <ele>292.600006103515625</ele>
        <time>2020-03-04T16:37:58.000Z</time>
      </trkpt>
      <trkpt lat="38.661492168903350830078125" lon="0.0068706460297107696533203125">
        <ele>292.20001220703125</ele>
        <time>2020-03-04T16:37:59.000Z</time>
      </trkpt>
      <trkpt lat="38.66147565655410289764404296875" lon="0.006811134517192840576171875">
        <ele>290.399993896484375</ele>
        <time>2020-03-04T16:38:00.000Z</time>
      </trkpt>
      <trkpt lat="38.66145721636712551116943359375" lon="0.0067459233105182647705078125">
        <ele>289.399993896484375</ele>
        <time>2020-03-04T16:38:01.000Z</time>
      </trkpt>
      <trkpt lat="38.66142922081053256988525390625" lon="0.00666998326778411865234375">
        <ele>288.20001220703125</ele>
        <time>2020-03-04T16:38:02.000Z</time>
      </trkpt>
      <trkpt lat="38.6613974533975124359130859375" lon="0.00659882090985774993896484375">
        <ele>287</ele>
        <time>2020-03-04T16:38:03.000Z</time>
      </trkpt>
      <trkpt lat="38.66135881282389163970947265625" lon="0.00653679482638835906982421875">
        <ele>285.600006103515625</ele>
        <time>2020-03-04T16:38:04.000Z</time>
      </trkpt>
      <trkpt lat="38.66132059134542942047119140625" lon="0.00647954642772674560546875">
        <ele>284.600006103515625</ele>
        <time>2020-03-04T16:38:05.000Z</time>
      </trkpt>
      <trkpt lat="38.66127583198249340057373046875" lon="0.00642992556095123291015625">
        <ele>283.79998779296875</ele>
        <time>2020-03-04T16:38:06.000Z</time>
      </trkpt>
      <trkpt lat="38.66119285114109516143798828125" lon="0.0063662230968475341796875">
        <ele>282.600006103515625</ele>
        <time>2020-03-04T16:38:08.000Z</time>
      </trkpt>
      <trkpt lat="38.661155886948108673095703125" lon="0.00635172240436077117919921875">
        <ele>281.79998779296875</ele>
        <time>2020-03-04T16:38:09.000Z</time>
      </trkpt>
      <trkpt lat="38.66111841984093189239501953125" lon="0.00634543597698211669921875">
        <ele>281</ele>
        <time>2020-03-04T16:38:10.000Z</time>
      </trkpt>
      <trkpt lat="38.661082796752452850341796875" lon="0.00634250231087207794189453125">
        <ele>280</ele>
        <time>2020-03-04T16:38:11.000Z</time>
      </trkpt>
      <trkpt lat="38.6610241234302520751953125" lon="0.00634518451988697052001953125">
        <ele>278.20001220703125</ele>
        <time>2020-03-04T16:38:13.000Z</time>
      </trkpt>
      <trkpt lat="38.6609978042542934417724609375" lon="0.0063456036150455474853515625">
        <ele>277.20001220703125</ele>
        <time>2020-03-04T16:38:14.000Z</time>
      </trkpt>
      <trkpt lat="38.66097676567733287811279296875" lon="0.00633177347481250762939453125">
        <ele>276.600006103515625</ele>
        <time>2020-03-04T16:38:15.000Z</time>
      </trkpt>
      <trkpt lat="38.6609639413654804229736328125" lon="0.00630226917564868927001953125">
        <ele>275.79998779296875</ele>
        <time>2020-03-04T16:38:16.000Z</time>
      </trkpt>
      <trkpt lat="38.66096335463225841522216796875" lon="0.00626790337264537811279296875">
        <ele>275</ele>
        <time>2020-03-04T16:38:17.000Z</time>
      </trkpt>
      <trkpt lat="38.660976178944110870361328125" lon="0.0062336213886737823486328125">
        <ele>274.20001220703125</ele>
        <time>2020-03-04T16:38:18.000Z</time>
      </trkpt>
      <trkpt lat="38.6610340140759944915771484375" lon="0.00616966746747493743896484375">
        <ele>273</ele>
        <time>2020-03-04T16:38:20.000Z</time>
      </trkpt>
      <trkpt lat="38.66107617504894733428955078125" lon="0.0061377324163913726806640625">
        <ele>272.399993896484375</ele>
        <time>2020-03-04T16:38:21.000Z</time>
      </trkpt>
      <trkpt lat="38.66112529300153255462646484375" lon="0.00609842129051685333251953125">
        <ele>271.79998779296875</ele>
        <time>2020-03-04T16:38:22.000Z</time>
      </trkpt>
      <trkpt lat="38.6612331680953502655029296875" lon="0.006014518439769744873046875">
        <ele>270.79998779296875</ele>
        <time>2020-03-04T16:38:24.000Z</time>
      </trkpt>
      <trkpt lat="38.66128924302756786346435546875" lon="0.00598979182541370391845703125">
        <ele>270.20001220703125</ele>
        <time>2020-03-04T16:38:25.000Z</time>
      </trkpt>
      <trkpt lat="38.66140373982489109039306640625" lon="0.005986690521240234375">
        <ele>268.79998779296875</ele>
        <time>2020-03-04T16:38:27.000Z</time>
      </trkpt>
      <trkpt lat="38.66157556883990764617919921875" lon="0.00612080097198486328125">
        <ele>267.600006103515625</ele>
        <time>2020-03-04T16:38:30.000Z</time>
      </trkpt>
      <trkpt lat="38.6616790853440761566162109375" lon="0.0062644667923450469970703125">
        <ele>266.20001220703125</ele>
        <time>2020-03-04T16:38:32.000Z</time>
      </trkpt>
      <trkpt lat="38.6617295444011688232421875" lon="0.00634233467280864715576171875">
        <ele>265.399993896484375</ele>
        <time>2020-03-04T16:38:33.000Z</time>
      </trkpt>
      <trkpt lat="38.66178109310567378997802734375" lon="0.00641777180135250091552734375">
        <ele>264.79998779296875</ele>
        <time>2020-03-04T16:38:34.000Z</time>
      </trkpt>
      <trkpt lat="38.66183507256209850311279296875" lon="0.00648365356028079986572265625">
        <ele>264.20001220703125</ele>
        <time>2020-03-04T16:38:35.000Z</time>
      </trkpt>
      <trkpt lat="38.661894500255584716796875" lon="0.0065360404551029205322265625">
        <ele>263.600006103515625</ele>
        <time>2020-03-04T16:38:36.000Z</time>
      </trkpt>
      <trkpt lat="38.66195141337811946868896484375" lon="0.00654668547213077545166015625">
        <ele>263.20001220703125</ele>
        <time>2020-03-04T16:38:37.000Z</time>
      </trkpt>
      <trkpt lat="38.66205384023487567901611328125" lon="0.00651081092655658721923828125">
        <ele>262.600006103515625</ele>
        <time>2020-03-04T16:38:39.000Z</time>
      </trkpt>
      <trkpt lat="38.662101365625858306884765625" lon="0.00647594220936298370361328125">
        <ele>261.79998779296875</ele>
        <time>2020-03-04T16:38:40.000Z</time>
      </trkpt>
      <trkpt lat="38.66214470006525516510009765625" lon="0.0064391456544399261474609375">
        <ele>260.79998779296875</ele>
        <time>2020-03-04T16:38:41.000Z</time>
      </trkpt>
      <trkpt lat="38.66218619048595428466796875" lon="0.0063935481011867523193359375">
        <ele>260.399993896484375</ele>
        <time>2020-03-04T16:38:42.000Z</time>
      </trkpt>
      <trkpt lat="38.66225953213870525360107421875" lon="0.00630394555628299713134765625">
        <ele>260</ele>
        <time>2020-03-04T16:38:44.000Z</time>
      </trkpt>
      <trkpt lat="38.66228987462818622589111328125" lon="0.0062624551355838775634765625">
        <ele>259.79998779296875</ele>
        <time>2020-03-04T16:38:45.000Z</time>
      </trkpt>
      <trkpt lat="38.66231334395706653594970703125" lon="0.00622498802840709686279296875">
        <ele>259.79998779296875</ele>
        <time>2020-03-04T16:38:46.000Z</time>
      </trkpt>
      <trkpt lat="38.6623375676572322845458984375" lon="0.00619431026279926300048828125">
        <ele>259.79998779296875</ele>
        <time>2020-03-04T16:38:47.000Z</time>
      </trkpt>
      <trkpt lat="38.66238743998110294342041015625" lon="0.00613647513091564178466796875">
        <ele>259.79998779296875</ele>
        <time>2020-03-04T16:38:49.000Z</time>
      </trkpt>
      <trkpt lat="38.66244326345622539520263671875" lon="0.006079562008380889892578125">
        <ele>260</ele>
        <time>2020-03-04T16:38:51.000Z</time>
      </trkpt>
      <trkpt lat="38.66247092373669147491455078125" lon="0.0060565955936908721923828125">
        <ele>260</ele>
        <time>2020-03-04T16:38:52.000Z</time>
      </trkpt>
      <trkpt lat="38.66255910135805606842041015625" lon="0.00599406659603118896484375">
        <ele>261</ele>
        <time>2020-03-04T16:38:55.000Z</time>
      </trkpt>
      <trkpt lat="38.662655241787433624267578125" lon="0.00594486482441425323486328125">
        <ele>261.600006103515625</ele>
        <time>2020-03-04T16:38:58.000Z</time>
      </trkpt>
      <trkpt lat="38.6626852490007877349853515625" lon="0.0059271790087223052978515625">
        <ele>261.79998779296875</ele>
        <time>2020-03-04T16:38:59.000Z</time>
      </trkpt>
      <trkpt lat="38.66271483711898326873779296875" lon="0.0059127621352672576904296875">
        <ele>262</ele>
        <time>2020-03-04T16:39:00.000Z</time>
      </trkpt>
      <trkpt lat="38.66281525231897830963134765625" lon="0.0058765523135662078857421875">
        <ele>262.399993896484375</ele>
        <time>2020-03-04T16:39:03.000Z</time>
      </trkpt>
      <trkpt lat="38.66287878714501857757568359375" lon="0.0058534182608127593994140625">
        <ele>263</ele>
        <time>2020-03-04T16:39:05.000Z</time>
      </trkpt>
      <trkpt lat="38.66290745325386524200439453125" lon="0.00584520399570465087890625">
        <ele>263.20001220703125</ele>
        <time>2020-03-04T16:39:06.000Z</time>
      </trkpt>
      <trkpt lat="38.6629863269627094268798828125" lon="0.00581838190555572509765625">
        <ele>263.600006103515625</ele>
        <time>2020-03-04T16:39:09.000Z</time>
      </trkpt>
      <trkpt lat="38.663036786019802093505859375" lon="0.00580941326916217803955078125">
        <ele>263.79998779296875</ele>
        <time>2020-03-04T16:39:11.000Z</time>
      </trkpt>
      <trkpt lat="38.66311649791896343231201171875" lon="0.00580220483243465423583984375">
        <ele>264.399993896484375</ele>
        <time>2020-03-04T16:39:14.000Z</time>
      </trkpt>
      <trkpt lat="38.66319025866687297821044921875" lon="0.0057786516845226287841796875">
        <ele>265</ele>
        <time>2020-03-04T16:39:17.000Z</time>
      </trkpt>
      <trkpt lat="38.6632652767002582550048828125" lon="0.005725510418415069580078125">
        <ele>265.399993896484375</ele>
        <time>2020-03-04T16:39:20.000Z</time>
      </trkpt>
      <trkpt lat="38.66331397555768489837646484375" lon="0.00567999668419361114501953125">
        <ele>265.600006103515625</ele>
        <time>2020-03-04T16:39:22.000Z</time>
      </trkpt>
      <trkpt lat="38.66335772909224033355712890625" lon="0.0056110136210918426513671875">
        <ele>265.79998779296875</ele>
        <time>2020-03-04T16:39:24.000Z</time>
      </trkpt>
      <trkpt lat="38.66338388063013553619384765625" lon="0.005523674190044403076171875">
        <ele>265.79998779296875</ele>
        <time>2020-03-04T16:39:26.000Z</time>
      </trkpt>
      <trkpt lat="38.6634557135403156280517578125" lon="0.00534555874764919281005859375">
        <ele>265.79998779296875</ele>
        <time>2020-03-04T16:39:30.000Z</time>
      </trkpt>
      <trkpt lat="38.66346049122512340545654296875" lon="0.0052941776812076568603515625">
        <ele>265.600006103515625</ele>
        <time>2020-03-04T16:39:31.000Z</time>
      </trkpt>
      <trkpt lat="38.6634758301079273223876953125" lon="0.0051654316484928131103515625">
        <ele>263.600006103515625</ele>
        <time>2020-03-04T16:39:34.000Z</time>
      </trkpt>
      <trkpt lat="38.66349468939006328582763671875" lon="0.00507599674165248870849609375">
        <ele>262.79998779296875</ele>
        <time>2020-03-04T16:39:36.000Z</time>
      </trkpt>
      <trkpt lat="38.66350273601710796356201171875" lon="0.00503811053931713104248046875">
        <ele>262</ele>
        <time>2020-03-04T16:39:37.000Z</time>
      </trkpt>
      <trkpt lat="38.66352369077503681182861328125" lon="0.00497105531394481658935546875">
        <ele>260.399993896484375</ele>
        <time>2020-03-04T16:39:39.000Z</time>
      </trkpt>
      <trkpt lat="38.663559146225452423095703125" lon="0.0049136392772197723388671875">
        <ele>259.20001220703125</ele>
        <time>2020-03-04T16:39:41.000Z</time>
      </trkpt>
      <trkpt lat="38.66360382176935672760009765625" lon="0.00484817661345005035400390625">
        <ele>258</ele>
        <time>2020-03-04T16:39:43.000Z</time>
      </trkpt>
      <trkpt lat="38.6636461503803730010986328125" lon="0.004779361188411712646484375">
        <ele>256.399993896484375</ele>
        <time>2020-03-04T16:39:45.000Z</time>
      </trkpt>
      <trkpt lat="38.66370088420808315277099609375" lon="0.00471976585686206817626953125">
        <ele>255</ele>
        <time>2020-03-04T16:39:47.000Z</time>
      </trkpt>
      <trkpt lat="38.6637680232524871826171875" lon="0.00467517413198947906494140625">
        <ele>253.8000030517578125</ele>
        <time>2020-03-04T16:39:49.000Z</time>
      </trkpt>
      <trkpt lat="38.66379392333328723907470703125" lon="0.00464432872831821441650390625">
        <ele>253.1999969482421875</ele>
        <time>2020-03-04T16:39:50.000Z</time>
      </trkpt>
      <trkpt lat="38.66380683146417140960693359375" lon="0.004600994288921356201171875">
        <ele>252.8000030517578125</ele>
        <time>2020-03-04T16:39:51.000Z</time>
      </trkpt>
      <trkpt lat="38.663804233074188232421875" lon="0.00456168316304683685302734375">
        <ele>252.1999969482421875</ele>
        <time>2020-03-04T16:39:52.000Z</time>
      </trkpt>
      <trkpt lat="38.6637564562261104583740234375" lon="0.0045103020966053009033203125">
        <ele>251.1999969482421875</ele>
        <time>2020-03-04T16:39:54.000Z</time>
      </trkpt>
      <trkpt lat="38.6636568792164325714111328125" lon="0.00454927794635295867919921875">
        <ele>249.8000030517578125</ele>
        <time>2020-03-04T16:39:57.000Z</time>
      </trkpt>
      <trkpt lat="38.66361823864281177520751953125" lon="0.004576183855533599853515625">
        <ele>249.399993896484375</ele>
        <time>2020-03-04T16:39:58.000Z</time>
      </trkpt>
      <trkpt lat="38.663575910031795501708984375" lon="0.00460040755569934844970703125">
        <ele>248.8000030517578125</ele>
        <time>2020-03-04T16:39:59.000Z</time>
      </trkpt>
      <trkpt lat="38.66345462389290332794189453125" lon="0.00468238256871700286865234375">
        <ele>247.1999969482421875</ele>
        <time>2020-03-04T16:40:02.000Z</time>
      </trkpt>
      <trkpt lat="38.66342537105083465576171875" lon="0.0047158263623714447021484375">
        <ele>246.600006103515625</ele>
        <time>2020-03-04T16:40:03.000Z</time>
      </trkpt>
      <trkpt lat="38.66340148262679576873779296875" lon="0.00475128181278705596923828125">
        <ele>246</ele>
        <time>2020-03-04T16:40:04.000Z</time>
      </trkpt>
      <trkpt lat="38.66333509795367717742919921875" lon="0.0048009864985942840576171875">
        <ele>245</ele>
        <time>2020-03-04T16:40:07.000Z</time>
      </trkpt>
      <trkpt lat="38.66332537494599819183349609375" lon="0.004792772233486175537109375">
        <ele>244.600006103515625</ele>
        <time>2020-03-04T16:40:08.000Z</time>
      </trkpt>
      <trkpt lat="38.66332638077437877655029296875" lon="0.00476754270493984222412109375">
        <ele>243.8000030517578125</ele>
        <time>2020-03-04T16:40:10.000Z</time>
      </trkpt>
      <trkpt lat="38.66335286758840084075927734375" lon="0.00467048026621341705322265625">
        <ele>242.8000030517578125</ele>
        <time>2020-03-04T16:40:14.000Z</time>
      </trkpt>
      <trkpt lat="38.6634094454348087310791015625" lon="0.00455145724117755889892578125">
        <ele>241.600006103515625</ele>
        <time>2020-03-04T16:40:17.000Z</time>
      </trkpt>
      <trkpt lat="38.663431070744991302490234375" lon="0.00450837425887584686279296875">
        <ele>241.1999969482421875</ele>
        <time>2020-03-04T16:40:18.000Z</time>
      </trkpt>
      <trkpt lat="38.663476668298244476318359375" lon="0.004418604075908660888671875">
        <ele>240.399993896484375</ele>
        <time>2020-03-04T16:40:20.000Z</time>
      </trkpt>
      <trkpt lat="38.6635301448404788970947265625" lon="0.0043128244578838348388671875">
        <ele>239</ele>
        <time>2020-03-04T16:40:23.000Z</time>
      </trkpt>
      <trkpt lat="38.6635469086468219757080078125" lon="0.00428684055805206298828125">
        <ele>238.600006103515625</ele>
        <time>2020-03-04T16:40:24.000Z</time>
      </trkpt>
      <trkpt lat="38.66356677375733852386474609375" lon="0.00426362268626689910888671875">
        <ele>237.8000030517578125</ele>
        <time>2020-03-04T16:40:25.000Z</time>
      </trkpt>
      <trkpt lat="38.66360113956034183502197265625" lon="0.00420226715505123138427734375">
        <ele>236</ele>
        <time>2020-03-04T16:40:27.000Z</time>
      </trkpt>
      <trkpt lat="38.66364891640841960906982421875" lon="0.0041324459016323089599609375">
        <ele>234.1999969482421875</ele>
        <time>2020-03-04T16:40:29.000Z</time>
      </trkpt>
      <trkpt lat="38.6636902391910552978515625" lon="0.00405139289796352386474609375">
        <ele>232.8000030517578125</ele>
        <time>2020-03-04T16:40:31.000Z</time>
      </trkpt>
      <trkpt lat="38.6637333221733570098876953125" lon="0.00397302210330963134765625">
        <ele>231.600006103515625</ele>
        <time>2020-03-04T16:40:33.000Z</time>
      </trkpt>
      <trkpt lat="38.66376399993896484375" lon="0.00394284725189208984375">
        <ele>230.8000030517578125</ele>
        <time>2020-03-04T16:40:34.000Z</time>
      </trkpt>
      <trkpt lat="38.6637960188090801239013671875" lon="0.00391761772334575653076171875">
        <ele>230</ele>
        <time>2020-03-04T16:40:35.000Z</time>
      </trkpt>
      <trkpt lat="38.66386600770056247711181640625" lon="0.00387487001717090606689453125">
        <ele>229</ele>
        <time>2020-03-04T16:40:37.000Z</time>
      </trkpt>
      <trkpt lat="38.66389685310423374176025390625" lon="0.0038384087383747100830078125">
        <ele>228.399993896484375</ele>
        <time>2020-03-04T16:40:38.000Z</time>
      </trkpt>
      <trkpt lat="38.66394798271358013153076171875" lon="0.0037411786615848541259765625">
        <ele>227.600006103515625</ele>
        <time>2020-03-04T16:40:40.000Z</time>
      </trkpt>
      <trkpt lat="38.66400028578937053680419921875" lon="0.003634057939052581787109375">
        <ele>226.399993896484375</ele>
        <time>2020-03-04T16:40:42.000Z</time>
      </trkpt>
      <trkpt lat="38.66402375511825084686279296875" lon="0.0035795755684375762939453125">
        <ele>225.600006103515625</ele>
        <time>2020-03-04T16:40:43.000Z</time>
      </trkpt>
      <trkpt lat="38.66404001601040363311767578125" lon="0.00351704657077789306640625">
        <ele>224.8000030517578125</ele>
        <time>2020-03-04T16:40:44.000Z</time>
      </trkpt>
      <trkpt lat="38.66410396993160247802734375" lon="0.0033230893313884735107421875">
        <ele>223.1999969482421875</ele>
        <time>2020-03-04T16:40:47.000Z</time>
      </trkpt>
      <trkpt lat="38.6641785688698291778564453125" lon="0.0032231770455837249755859375">
        <ele>221.399993896484375</ele>
        <time>2020-03-04T16:40:49.000Z</time>
      </trkpt>
      <trkpt lat="38.66422089748084545135498046875" lon="0.0031879730522632598876953125">
        <ele>220.8000030517578125</ele>
        <time>2020-03-04T16:40:50.000Z</time>
      </trkpt>
      <trkpt lat="38.664263896644115447998046875" lon="0.0031588040292263031005859375">
        <ele>220.399993896484375</ele>
        <time>2020-03-04T16:40:51.000Z</time>
      </trkpt>
      <trkpt lat="38.664351738989353179931640625" lon="0.0030966103076934814453125">
        <ele>219.1999969482421875</ele>
        <time>2020-03-04T16:40:53.000Z</time>
      </trkpt>
      <trkpt lat="38.66440328769385814666748046875" lon="0.00307071022689342498779296875">
        <ele>218.8000030517578125</ele>
        <time>2020-03-04T16:40:54.000Z</time>
      </trkpt>
      <trkpt lat="38.6644568480551242828369140625" lon="0.00304807908833026885986328125">
        <ele>218.399993896484375</ele>
        <time>2020-03-04T16:40:55.000Z</time>
      </trkpt>
      <trkpt lat="38.664509989321231842041015625" lon="0.0030213408172130584716796875">
        <ele>218.1999969482421875</ele>
        <time>2020-03-04T16:40:56.000Z</time>
      </trkpt>
      <trkpt lat="38.66461568512022495269775390625" lon="0.0029516033828258514404296875">
        <ele>218</ele>
        <time>2020-03-04T16:40:58.000Z</time>
      </trkpt>
      <trkpt lat="38.6646674014627933502197265625" lon="0.0029070116579532623291015625">
        <ele>217.8000030517578125</ele>
        <time>2020-03-04T16:40:59.000Z</time>
      </trkpt>
      <trkpt lat="38.66474795155227184295654296875" lon="0.002822019159793853759765625">
        <ele>217.600006103515625</ele>
        <time>2020-03-04T16:41:01.000Z</time>
      </trkpt>
      <trkpt lat="38.66476672701537609100341796875" lon="0.00277315266430377960205078125">
        <ele>217.600006103515625</ele>
        <time>2020-03-04T16:41:02.000Z</time>
      </trkpt>
      <trkpt lat="38.66473437286913394927978515625" lon="0.0026226975023746490478515625">
        <ele>217</ele>
        <time>2020-03-04T16:41:05.000Z</time>
      </trkpt>
      <trkpt lat="38.6646791361272335052490234375" lon="0.00254147686064243316650390625">
        <ele>216.399993896484375</ele>
        <time>2020-03-04T16:41:07.000Z</time>
      </trkpt>
      <trkpt lat="38.6646184511482715606689453125" lon="0.0024890899658203125">
        <ele>216.1999969482421875</ele>
        <time>2020-03-04T16:41:09.000Z</time>
      </trkpt>
      <trkpt lat="38.664560280740261077880859375" lon="0.00245849601924419403076171875">
        <ele>216</ele>
        <time>2020-03-04T16:41:11.000Z</time>
      </trkpt>
      <trkpt lat="38.66452650167047977447509765625" lon="0.002445839345455169677734375">
        <ele>216</ele>
        <time>2020-03-04T16:41:12.000Z</time>
      </trkpt>
      <trkpt lat="38.6644591949880123138427734375" lon="0.00244877301156520843505859375">
        <ele>215.600006103515625</ele>
        <time>2020-03-04T16:41:14.000Z</time>
      </trkpt>
      <trkpt lat="38.66442826576530933380126953125" lon="0.0024657882750034332275390625">
        <ele>215.399993896484375</ele>
        <time>2020-03-04T16:41:15.000Z</time>
      </trkpt>
      <trkpt lat="38.66440236568450927734375" lon="0.00248163007199764251708984375">
        <ele>214.8000030517578125</ele>
        <time>2020-03-04T16:41:16.000Z</time>
      </trkpt>
      <trkpt lat="38.66438300348818302154541015625" lon="0.00248699449002742767333984375">
        <ele>213.399993896484375</ele>
        <time>2020-03-04T16:41:17.000Z</time>
      </trkpt>
      <trkpt lat="38.6643730290234088897705078125" lon="0.00247559510171413421630859375">
        <ele>212.8000030517578125</ele>
        <time>2020-03-04T16:41:18.000Z</time>
      </trkpt>
      <trkpt lat="38.66439021192491054534912109375" lon="0.00242982991039752960205078125">
        <ele>212.1999969482421875</ele>
        <time>2020-03-04T16:41:20.000Z</time>
      </trkpt>
      <trkpt lat="38.66441183723509311676025390625" lon="0.00240200199186801910400390625">
        <ele>211.600006103515625</ele>
        <time>2020-03-04T16:41:21.000Z</time>
      </trkpt>
      <trkpt lat="38.66443916223943233489990234375" lon="0.0023695640265941619873046875">
        <ele>210.8000030517578125</ele>
        <time>2020-03-04T16:41:22.000Z</time>
      </trkpt>
      <trkpt lat="38.66447084583342075347900390625" lon="0.00233679078519344329833984375">
        <ele>210</ele>
        <time>2020-03-04T16:41:23.000Z</time>
      </trkpt>
      <trkpt lat="38.66450940258800983428955078125" lon="0.00230929814279079437255859375">
        <ele>209.399993896484375</ele>
        <time>2020-03-04T16:41:24.000Z</time>
      </trkpt>
      <trkpt lat="38.6645539104938507080078125" lon="0.0022934563457965850830078125">
        <ele>208.8000030517578125</ele>
        <time>2020-03-04T16:41:25.000Z</time>
      </trkpt>
      <trkpt lat="38.664651811122894287109375" lon="0.00228515826165676116943359375">
        <ele>208.1999969482421875</ele>
        <time>2020-03-04T16:41:27.000Z</time>
      </trkpt>
      <trkpt lat="38.66474241949617862701416015625" lon="0.00228700228035449981689453125">
        <ele>208</ele>
        <time>2020-03-04T16:41:29.000Z</time>
      </trkpt>
      <trkpt lat="38.66478793323040008544921875" lon="0.00229756347835063934326171875">
        <ele>208</ele>
        <time>2020-03-04T16:41:30.000Z</time>
      </trkpt>
      <trkpt lat="38.664925731718540191650390625" lon="0.0023531354963779449462890625">
        <ele>208</ele>
        <time>2020-03-04T16:41:33.000Z</time>
      </trkpt>
      <trkpt lat="38.66509663872420787811279296875" lon="0.0024644471704959869384765625">
        <ele>208.399993896484375</ele>
        <time>2020-03-04T16:41:37.000Z</time>
      </trkpt>
      <trkpt lat="38.66540811024606227874755859375" lon="0.0026947818696498870849609375">
        <ele>209.399993896484375</ele>
        <time>2020-03-04T16:41:45.000Z</time>
      </trkpt>
      <trkpt lat="38.66566375829279422760009765625" lon="0.00291313044726848602294921875">
        <ele>210</ele>
        <time>2020-03-04T16:41:51.000Z</time>
      </trkpt>
      <trkpt lat="38.66570265032351016998291015625" lon="0.00296677462756633758544921875">
        <ele>210</ele>
        <time>2020-03-04T16:41:52.000Z</time>
      </trkpt>
      <trkpt lat="38.6657850444316864013671875" lon="0.0031678564846515655517578125">
        <ele>210</ele>
        <time>2020-03-04T16:41:55.000Z</time>
      </trkpt>
      <trkpt lat="38.6657999642193317413330078125" lon="0.0034022144973278045654296875">
        <ele>210</ele>
        <time>2020-03-04T16:41:58.000Z</time>
      </trkpt>
      <trkpt lat="38.6657982878386974334716796875" lon="0.0034692697227001190185546875">
        <ele>210</ele>
        <time>2020-03-04T16:41:59.000Z</time>
      </trkpt>
      <trkpt lat="38.6657349206507205963134765625" lon="0.003745369613170623779296875">
        <ele>209</ele>
        <time>2020-03-04T16:42:03.000Z</time>
      </trkpt>
      <trkpt lat="38.66570633836090564727783203125" lon="0.00389213673770427703857421875">
        <ele>208.8000030517578125</ele>
        <time>2020-03-04T16:42:05.000Z</time>
      </trkpt>
      <trkpt lat="38.6657121218740940093994140625" lon="0.0040090642869472503662109375">
        <ele>208.600006103515625</ele>
        <time>2020-03-04T16:42:07.000Z</time>
      </trkpt>
      <trkpt lat="38.66580088622868061065673828125" lon="0.0041579268872737884521484375">
        <ele>208.600006103515625</ele>
        <time>2020-03-04T16:42:11.000Z</time>
      </trkpt>
      <trkpt lat="38.6658686958253383636474609375" lon="0.00419572927057743072509765625">
        <ele>208.600006103515625</ele>
        <time>2020-03-04T16:42:13.000Z</time>
      </trkpt>
      <trkpt lat="38.66598847322165966033935546875" lon="0.004222802817821502685546875">
        <ele>209.399993896484375</ele>
        <time>2020-03-04T16:42:16.000Z</time>
      </trkpt>
      <trkpt lat="38.6660665087401866912841796875" lon="0.00422741286456584930419921875">
        <ele>209.8000030517578125</ele>
        <time>2020-03-04T16:42:18.000Z</time>
      </trkpt>
      <trkpt lat="38.66618896834552288055419921875" lon="0.004186592996120452880859375">
        <ele>209.8000030517578125</ele>
        <time>2020-03-04T16:42:21.000Z</time>
      </trkpt>
      <trkpt lat="38.66637102328240871429443359375" lon="0.00401048921048641204833984375">
        <ele>210</ele>
        <time>2020-03-04T16:42:26.000Z</time>
      </trkpt>
      <trkpt lat="38.66648401133716106414794921875" lon="0.00384905375540256500244140625">
        <ele>210</ele>
        <time>2020-03-04T16:42:29.000Z</time>
      </trkpt>
      <trkpt lat="38.66658543236553668975830078125" lon="0.00377965159714221954345703125">
        <ele>210</ele>
        <time>2020-03-04T16:42:31.000Z</time>
      </trkpt>
      <trkpt lat="38.6667340435087680816650390625" lon="0.0037016160786151885986328125">
        <ele>209.8000030517578125</ele>
        <time>2020-03-04T16:42:34.000Z</time>
      </trkpt>
      <trkpt lat="38.66683202795684337615966796875" lon="0.00368736684322357177734375">
        <ele>209.600006103515625</ele>
        <time>2020-03-04T16:42:36.000Z</time>
      </trkpt>
      <trkpt lat="38.6669184453785419464111328125" lon="0.00370614230632781982421875">
        <ele>209.600006103515625</ele>
        <time>2020-03-04T16:42:38.000Z</time>
      </trkpt>
      <trkpt lat="38.66704392246901988983154296875" lon="0.00373522751033306121826171875">
        <ele>209.600006103515625</ele>
        <time>2020-03-04T16:42:41.000Z</time>
      </trkpt>
      <trkpt lat="38.66711718030273914337158203125" lon="0.00376188196241855621337890625">
        <ele>209.600006103515625</ele>
        <time>2020-03-04T16:42:43.000Z</time>
      </trkpt>
      <trkpt lat="38.667217679321765899658203125" lon="0.00380362384021282196044921875">
        <ele>210.600006103515625</ele>
        <time>2020-03-04T16:42:46.000Z</time>
      </trkpt>
      <trkpt lat="38.6672845669090747833251953125" lon="0.003829188644886016845703125">
        <ele>211.399993896484375</ele>
        <time>2020-03-04T16:42:48.000Z</time>
      </trkpt>
      <trkpt lat="38.6673177592456340789794921875" lon="0.00384285114705562591552734375">
        <ele>212</ele>
        <time>2020-03-04T16:42:49.000Z</time>
      </trkpt>
      <trkpt lat="38.66741909645497798919677734375" lon="0.00388274900615215301513671875">
        <ele>213.1999969482421875</ele>
        <time>2020-03-04T16:42:52.000Z</time>
      </trkpt>
      <trkpt lat="38.66749428212642669677734375" lon="0.0039061345160007476806640625">
        <ele>214.1999969482421875</ele>
        <time>2020-03-04T16:42:54.000Z</time>
      </trkpt>
      <trkpt lat="38.667756132781505584716796875" lon="0.00395826995372772216796875">
        <ele>215</ele>
        <time>2020-03-04T16:42:59.000Z</time>
      </trkpt>
      <trkpt lat="38.6680560372769832611083984375" lon="0.0040348805487155914306640625">
        <ele>215</ele>
        <time>2020-03-04T16:43:04.000Z</time>
      </trkpt>
      <trkpt lat="38.66811730898916721343994140625" lon="0.00405759550631046295166015625">
        <ele>215</ele>
        <time>2020-03-04T16:43:05.000Z</time>
      </trkpt>
      <trkpt lat="38.66818034090101718902587890625" lon="0.00408793799579143524169921875">
        <ele>215</ele>
        <time>2020-03-04T16:43:06.000Z</time>
      </trkpt>
      <trkpt lat="38.66837681271135807037353515625" lon="0.00424182973802089691162109375">
        <ele>212.600006103515625</ele>
        <time>2020-03-04T16:43:09.000Z</time>
      </trkpt>
      <trkpt lat="38.66844939999282360076904296875" lon="0.0043134950101375579833984375">
        <ele>211.600006103515625</ele>
        <time>2020-03-04T16:43:10.000Z</time>
      </trkpt>
      <trkpt lat="38.66857864893972873687744140625" lon="0.0044885091483592987060546875">
        <ele>209.1999969482421875</ele>
        <time>2020-03-04T16:43:12.000Z</time>
      </trkpt>
      <trkpt lat="38.66863715462386608123779296875" lon="0.004582889378070831298828125">
        <ele>207.8000030517578125</ele>
        <time>2020-03-04T16:43:13.000Z</time>
      </trkpt>
      <trkpt lat="38.668692223727703094482421875" lon="0.0046752579510211944580078125">
        <ele>206.8000030517578125</ele>
        <time>2020-03-04T16:43:14.000Z</time>
      </trkpt>
      <trkpt lat="38.66874553263187408447265625" lon="0.00477391295135021209716796875">
        <ele>205.1999969482421875</ele>
        <time>2020-03-04T16:43:15.000Z</time>
      </trkpt>
      <trkpt lat="38.66879188455641269683837890625" lon="0.0048784352838993072509765625">
        <ele>203.8000030517578125</ele>
        <time>2020-03-04T16:43:16.000Z</time>
      </trkpt>
      <trkpt lat="38.668831028044223785400390625" lon="0.00499284826219081878662109375">
        <ele>202.600006103515625</ele>
        <time>2020-03-04T16:43:17.000Z</time>
      </trkpt>
      <trkpt lat="38.6688650585711002349853515625" lon="0.00511229038238525390625">
        <ele>201.399993896484375</ele>
        <time>2020-03-04T16:43:18.000Z</time>
      </trkpt>
      <trkpt lat="38.6688982509076595306396484375" lon="0.00524145551025867462158203125">
        <ele>200</ele>
        <time>2020-03-04T16:43:19.000Z</time>
      </trkpt>
      <trkpt lat="38.66892532445490360260009765625" lon="0.00537154264748096466064453125">
        <ele>198.600006103515625</ele>
        <time>2020-03-04T16:43:20.000Z</time>
      </trkpt>
      <trkpt lat="38.6689693294465541839599609375" lon="0.0055851973593235015869140625">
        <ele>196.8000030517578125</ele>
        <time>2020-03-04T16:43:22.000Z</time>
      </trkpt>
      <trkpt lat="38.66902087815105915069580078125" lon="0.00573280267417430877685546875">
        <ele>194.8000030517578125</ele>
        <time>2020-03-04T16:43:24.000Z</time>
      </trkpt>
      <trkpt lat="38.6690627038478851318359375" lon="0.00577404163777828216552734375">
        <ele>193.8000030517578125</ele>
        <time>2020-03-04T16:43:25.000Z</time>
      </trkpt>
      <trkpt lat="38.6691538989543914794921875" lon="0.00578192062675952911376953125">
        <ele>191.600006103515625</ele>
        <time>2020-03-04T16:43:27.000Z</time>
      </trkpt>
      <trkpt lat="38.66920997388660907745361328125" lon="0.0057773105800151824951171875">
        <ele>189.600006103515625</ele>
        <time>2020-03-04T16:43:28.000Z</time>
      </trkpt>
      <trkpt lat="38.6692690663039684295654296875" lon="0.0057618878781795501708984375">
        <ele>188.399993896484375</ele>
        <time>2020-03-04T16:43:29.000Z</time>
      </trkpt>
      <trkpt lat="38.6693243868649005889892578125" lon="0.00574805773794651031494140625">
        <ele>187.399993896484375</ele>
        <time>2020-03-04T16:43:30.000Z</time>
      </trkpt>
      <trkpt lat="38.66938213817775249481201171875" lon="0.0057494826614856719970703125">
        <ele>186.8000030517578125</ele>
        <time>2020-03-04T16:43:31.000Z</time>
      </trkpt>
      <trkpt lat="38.66943997330963611602783203125" lon="0.00575409270823001861572265625">
        <ele>186.399993896484375</ele>
        <time>2020-03-04T16:43:32.000Z</time>
      </trkpt>
      <trkpt lat="38.6694970540702342987060546875" lon="0.00576666556298732757568359375">
        <ele>186</ele>
        <time>2020-03-04T16:43:33.000Z</time>
      </trkpt>
      <trkpt lat="38.66964281536638736724853515625" lon="0.0058326311409473419189453125">
        <ele>185.8000030517578125</ele>
        <time>2020-03-04T16:43:36.000Z</time>
      </trkpt>
      <trkpt lat="38.66968371905386447906494140625" lon="0.0058592855930328369140625">
        <ele>185.8000030517578125</ele>
        <time>2020-03-04T16:43:37.000Z</time>
      </trkpt>
      <trkpt lat="38.66980425082147121429443359375" lon="0.0059597007930278778076171875">
        <ele>185.8000030517578125</ele>
        <time>2020-03-04T16:43:40.000Z</time>
      </trkpt>
      <trkpt lat="38.6699017323553562164306640625" lon="0.00605014152824878692626953125">
        <ele>185.8000030517578125</ele>
        <time>2020-03-04T16:43:42.000Z</time>
      </trkpt>
      <trkpt lat="38.67015729658305644989013671875" lon="0.00623278319835662841796875">
        <ele>185.8000030517578125</ele>
        <time>2020-03-04T16:43:46.000Z</time>
      </trkpt>
      <trkpt lat="38.67022133432328701019287109375" lon="0.00627578236162662506103515625">
        <ele>185.8000030517578125</ele>
        <time>2020-03-04T16:43:47.000Z</time>
      </trkpt>
      <trkpt lat="38.6702708713710308074951171875" lon="0.00634032301604747772216796875">
        <ele>185.8000030517578125</ele>
        <time>2020-03-04T16:43:48.000Z</time>
      </trkpt>
      <trkpt lat="38.67029626853764057159423828125" lon="0.006429590284824371337890625">
        <ele>185.8000030517578125</ele>
        <time>2020-03-04T16:43:49.000Z</time>
      </trkpt>
      <trkpt lat="38.6703313887119293212890625" lon="0.00680702738463878631591796875">
        <ele>184.8000030517578125</ele>
        <time>2020-03-04T16:43:53.000Z</time>
      </trkpt>
      <trkpt lat="38.67034739814698696136474609375" lon="0.00689386390149593353271484375">
        <ele>184</ele>
        <time>2020-03-04T16:43:54.000Z</time>
      </trkpt>
      <trkpt lat="38.670375980436801910400390625" lon="0.00697701238095760345458984375">
        <ele>183.1999969482421875</ele>
        <time>2020-03-04T16:43:55.000Z</time>
      </trkpt>
      <trkpt lat="38.67041696794331073760986328125" lon="0.00705395825207233428955078125">
        <ele>182.399993896484375</ele>
        <time>2020-03-04T16:43:56.000Z</time>
      </trkpt>
      <trkpt lat="38.67047195322811603546142578125" lon="0.0071194209158420562744140625">
        <ele>181.600006103515625</ele>
        <time>2020-03-04T16:43:57.000Z</time>
      </trkpt>
      <trkpt lat="38.67053800262510776519775390625" lon="0.00716661103069782257080078125">
        <ele>181.1999969482421875</ele>
        <time>2020-03-04T16:43:58.000Z</time>
      </trkpt>
      <trkpt lat="38.67061025463044643402099609375" lon="0.00718806870281696319580078125">
        <ele>180.8000030517578125</ele>
        <time>2020-03-04T16:43:59.000Z</time>
      </trkpt>
      <trkpt lat="38.67068736813962459564208984375" lon="0.0071941874921321868896484375">
        <ele>180.600006103515625</ele>
        <time>2020-03-04T16:44:00.000Z</time>
      </trkpt>
      <trkpt lat="38.67084612138569355010986328125" lon="0.0072173215448856353759765625">
        <ele>180.399993896484375</ele>
        <time>2020-03-04T16:44:02.000Z</time>
      </trkpt>
      <trkpt lat="38.670921809971332550048828125" lon="0.0072397850453853607177734375">
        <ele>180.1999969482421875</ele>
        <time>2020-03-04T16:44:03.000Z</time>
      </trkpt>
      <trkpt lat="38.67113311775028705596923828125" lon="0.00734548084437847137451171875">
        <ele>179.600006103515625</ele>
        <time>2020-03-04T16:44:06.000Z</time>
      </trkpt>
      <trkpt lat="38.67119866423308849334716796875" lon="0.00738881528377532958984375">
        <ele>179</ele>
        <time>2020-03-04T16:44:07.000Z</time>
      </trkpt>
      <trkpt lat="38.671261779963970184326171875" lon="0.00743600539863109588623046875">
        <ele>178.600006103515625</ele>
        <time>2020-03-04T16:44:08.000Z</time>
      </trkpt>
      <trkpt lat="38.671451546251773834228515625" lon="0.0075784139335155487060546875">
        <ele>178</ele>
        <time>2020-03-04T16:44:11.000Z</time>
      </trkpt>
      <trkpt lat="38.67163888178765773773193359375" lon="0.0076867081224918365478515625">
        <ele>177.8000030517578125</ele>
        <time>2020-03-04T16:44:14.000Z</time>
      </trkpt>
      <trkpt lat="38.6717450805008411407470703125" lon="0.00773725099861621856689453125">
        <ele>177.600006103515625</ele>
        <time>2020-03-04T16:44:16.000Z</time>
      </trkpt>
      <trkpt lat="38.67180467583239078521728515625" lon="0.00778335146605968475341796875">
        <ele>177.600006103515625</ele>
        <time>2020-03-04T16:44:18.000Z</time>
      </trkpt>
      <trkpt lat="38.6717735789716243743896484375" lon="0.00785375945270061492919921875">
        <ele>177.600006103515625</ele>
        <time>2020-03-04T16:44:21.000Z</time>
      </trkpt>
      <trkpt lat="38.6717534624040126800537109375" lon="0.00786817632615566253662109375">
        <ele>177.600006103515625</ele>
        <time>2020-03-04T16:44:22.000Z</time>
      </trkpt>
      <trkpt lat="38.6717309989035129547119140625" lon="0.00788359902799129486083984375">
        <ele>177.600006103515625</ele>
        <time>2020-03-04T16:44:23.000Z</time>
      </trkpt>
      <trkpt lat="38.6717082001268863677978515625" lon="0.00789935700595378875732421875">
        <ele>177.600006103515625</ele>
        <time>2020-03-04T16:44:24.000Z</time>
      </trkpt>
      <trkpt lat="38.67164592258632183074951171875" lon="0.007949732244014739990234375">
        <ele>177.600006103515625</ele>
        <time>2020-03-04T16:44:27.000Z</time>
      </trkpt>
      <trkpt lat="38.67160703055560588836669921875" lon="0.0079874508082866668701171875">
        <ele>177.8000030517578125</ele>
        <time>2020-03-04T16:44:29.000Z</time>
      </trkpt>
      <trkpt lat="38.67158708162605762481689453125" lon="0.00800530426204204559326171875">
        <ele>178.1999969482421875</ele>
        <time>2020-03-04T16:44:30.000Z</time>
      </trkpt>
      <trkpt lat="38.67153243161737918853759765625" lon="0.00806548632681369781494140625">
        <ele>179.1999969482421875</ele>
        <time>2020-03-04T16:44:33.000Z</time>
      </trkpt>
      <trkpt lat="38.67149789817631244659423828125" lon="0.00811032950878143310546875">
        <ele>180.1999969482421875</ele>
        <time>2020-03-04T16:44:35.000Z</time>
      </trkpt>
      <trkpt lat="38.67146722041070461273193359375" lon="0.00819993205368518829345703125">
        <ele>180.8000030517578125</ele>
        <time>2020-03-04T16:44:38.000Z</time>
      </trkpt>
      <trkpt lat="38.67145883850753307342529296875" lon="0.0082647241652011871337890625">
        <ele>181.1999969482421875</ele>
        <time>2020-03-04T16:44:40.000Z</time>
      </trkpt>
      <trkpt lat="38.67144073359668254852294921875" lon="0.008423812687397003173828125">
        <ele>182.1999969482421875</ele>
        <time>2020-03-04T16:44:45.000Z</time>
      </trkpt>
      <trkpt lat="38.67143444716930389404296875" lon="0.00844895839691162109375">
        <ele>182.399993896484375</ele>
        <time>2020-03-04T16:44:46.000Z</time>
      </trkpt>
      <trkpt lat="38.6714272387325763702392578125" lon="0.0084717571735382080078125">
        <ele>182.8000030517578125</ele>
        <time>2020-03-04T16:44:47.000Z</time>
      </trkpt>
      <trkpt lat="38.6714108102023601531982421875" lon="0.00852297060191631317138671875">
        <ele>183.399993896484375</ele>
        <time>2020-03-04T16:44:49.000Z</time>
      </trkpt>
      <trkpt lat="38.6713823117315769195556640625" lon="0.00864970497786998748779296875">
        <ele>184.600006103515625</ele>
        <time>2020-03-04T16:44:53.000Z</time>
      </trkpt>
      <trkpt lat="38.6713534779846668243408203125" lon="0.00880359672009944915771484375">
        <ele>185.399993896484375</ele>
        <time>2020-03-04T16:44:57.000Z</time>
      </trkpt>
      <trkpt lat="38.67133411578834056854248046875" lon="0.00894055701792240142822265625">
        <ele>185.600006103515625</ele>
        <time>2020-03-04T16:45:00.000Z</time>
      </trkpt>
      <trkpt lat="38.67128147743642330169677734375" lon="0.00927901826798915863037109375">
        <ele>186</ele>
        <time>2020-03-04T16:45:07.000Z</time>
      </trkpt>
      <trkpt lat="38.6712706647813320159912109375" lon="0.009315647184848785400390625">
        <ele>186</ele>
        <time>2020-03-04T16:45:08.000Z</time>
      </trkpt>
      <trkpt lat="38.67122925817966461181640625" lon="0.0095119513571262359619140625">
        <ele>186</ele>
        <time>2020-03-04T16:45:15.000Z</time>
      </trkpt>
      <trkpt lat="38.67121056653559207916259765625" lon="0.0095947645604610443115234375">
        <ele>186.8000030517578125</ele>
        <time>2020-03-04T16:45:18.000Z</time>
      </trkpt>
      <trkpt lat="38.67117620073258876800537109375" lon="0.009687803685665130615234375">
        <ele>187.600006103515625</ele>
        <time>2020-03-04T16:45:21.000Z</time>
      </trkpt>
      <trkpt lat="38.67114535532891750335693359375" lon="0.0097513385117053985595703125">
        <ele>187.8000030517578125</ele>
        <time>2020-03-04T16:45:23.000Z</time>
      </trkpt>
      <trkpt lat="38.671051561832427978515625" lon="0.0099354051053524017333984375">
        <ele>188.399993896484375</ele>
        <time>2020-03-04T16:45:28.000Z</time>
      </trkpt>
      <trkpt lat="38.6709434352815151214599609375" lon="0.01018342562019824981689453125">
        <ele>188.600006103515625</ele>
        <time>2020-03-04T16:45:34.000Z</time>
      </trkpt>
      <trkpt lat="38.6709256656467914581298828125" lon="0.010221898555755615234375">
        <ele>188.600006103515625</ele>
        <time>2020-03-04T16:45:35.000Z</time>
      </trkpt>
      <trkpt lat="38.6709249950945377349853515625" lon="0.01036481000483036041259765625">
        <ele>188.600006103515625</ele>
        <time>2020-03-04T16:45:38.000Z</time>
      </trkpt>
      <trkpt lat="38.6709394119679927825927734375" lon="0.01041543669998645782470703125">
        <ele>188.8000030517578125</ele>
        <time>2020-03-04T16:45:39.000Z</time>
      </trkpt>
      <trkpt lat="38.6710745282471179962158203125" lon="0.0105831585824489593505859375">
        <ele>188.8000030517578125</ele>
        <time>2020-03-04T16:45:43.000Z</time>
      </trkpt>
      <trkpt lat="38.6712123267352581024169921875" lon="0.0106270797550678253173828125">
        <ele>188.8000030517578125</ele>
        <time>2020-03-04T16:45:46.000Z</time>
      </trkpt>
      <trkpt lat="38.67126286961138248443603515625" lon="0.01063554547727108001708984375">
        <ele>188.8000030517578125</ele>
        <time>2020-03-04T16:45:47.000Z</time>
      </trkpt>
      <trkpt lat="38.6715677194297313690185546875" lon="0.0107253156602382659912109375">
        <ele>188.600006103515625</ele>
        <time>2020-03-04T16:45:53.000Z</time>
      </trkpt>
      <trkpt lat="38.671809621155261993408203125" lon="0.01078340224921703338623046875">
        <ele>188.399993896484375</ele>
        <time>2020-03-04T16:45:58.000Z</time>
      </trkpt>
      <trkpt lat="38.6718857288360595703125" lon="0.0108429975807666778564453125">
        <ele>188.399993896484375</ele>
        <time>2020-03-04T16:46:00.000Z</time>
      </trkpt>
      <trkpt lat="38.671979270875453948974609375" lon="0.0109506212174892425537109375">
        <ele>188.399993896484375</ele>
        <time>2020-03-04T16:46:03.000Z</time>
      </trkpt>
      <trkpt lat="38.6719891615211963653564453125" lon="0.01099160872399806976318359375">
        <ele>188.600006103515625</ele>
        <time>2020-03-04T16:46:04.000Z</time>
      </trkpt>
      <trkpt lat="38.67195890285074710845947265625" lon="0.01104743219912052154541015625">
        <ele>188.600006103515625</ele>
        <time>2020-03-04T16:46:06.000Z</time>
      </trkpt>
      <trkpt lat="38.67190249264240264892578125" lon="0.0110703147947788238525390625">
        <ele>188.8000030517578125</ele>
        <time>2020-03-04T16:46:08.000Z</time>
      </trkpt>
      <trkpt lat="38.671837784349918365478515625" lon="0.01108825206756591796875">
        <ele>189</ele>
        <time>2020-03-04T16:46:10.000Z</time>
      </trkpt>
      <trkpt lat="38.67180727422237396240234375" lon="0.01109403558075428009033203125">
        <ele>189</ele>
        <time>2020-03-04T16:46:11.000Z</time>
      </trkpt>
      <trkpt lat="38.6717497743666172027587890625" lon="0.01110794954001903533935546875">
        <ele>189</ele>
        <time>2020-03-04T16:46:13.000Z</time>
      </trkpt>
      <trkpt lat="38.67164072580635547637939453125" lon="0.0111420638859272003173828125">
        <ele>189.1999969482421875</ele>
        <time>2020-03-04T16:46:17.000Z</time>
      </trkpt>
      <trkpt lat="38.67159076966345310211181640625" lon="0.01115354709327220916748046875">
        <ele>189.399993896484375</ele>
        <time>2020-03-04T16:46:19.000Z</time>
      </trkpt>
      <trkpt lat="38.67151449434459209442138671875" lon="0.01115153543651103973388671875">
        <ele>190.1999969482421875</ele>
        <time>2020-03-04T16:46:22.000Z</time>
      </trkpt>
      <trkpt lat="38.67145481519401073455810546875" lon="0.0111558102071285247802734375">
        <ele>190.8000030517578125</ele>
        <time>2020-03-04T16:46:24.000Z</time>
      </trkpt>
      <trkpt lat="38.671395219862461090087890625" lon="0.01117383129894733428955078125">
        <ele>191.399993896484375</ele>
        <time>2020-03-04T16:46:26.000Z</time>
      </trkpt>
      <trkpt lat="38.67131399922072887420654296875" lon="0.01119755208492279052734375">
        <ele>192.1999969482421875</ele>
        <time>2020-03-04T16:46:29.000Z</time>
      </trkpt>
      <trkpt lat="38.671255409717559814453125" lon="0.01120836474001407623291015625">
        <ele>192.8000030517578125</ele>
        <time>2020-03-04T16:46:31.000Z</time>
      </trkpt>
      <trkpt lat="38.6711549945175647735595703125" lon="0.0112081132829189300537109375">
        <ele>193</ele>
        <time>2020-03-04T16:46:35.000Z</time>
      </trkpt>
      <trkpt lat="38.6710550822317600250244140625" lon="0.01118841581046581268310546875">
        <ele>193.8000030517578125</ele>
        <time>2020-03-04T16:46:39.000Z</time>
      </trkpt>
      <trkpt lat="38.6710296012461185455322265625" lon="0.01119042746722698211669921875">
        <ele>193.8000030517578125</ele>
        <time>2020-03-04T16:46:40.000Z</time>
      </trkpt>
      <trkpt lat="38.67096480913460254669189453125" lon="0.01119780354201793670654296875">
        <ele>194.8000030517578125</ele>
        <time>2020-03-04T16:46:44.000Z</time>
      </trkpt>
      <trkpt lat="38.67096598260104656219482421875" lon="0.01119897700846195220947265625">
        <ele>195</ele>
        <time>2020-03-04T16:46:45.000Z</time>
      </trkpt>
      <trkpt lat="38.6709518171846866607666015625" lon="0.011210627853870391845703125">
        <ele>195.600006103515625</ele>
        <time>2020-03-04T16:46:48.000Z</time>
      </trkpt>
      <trkpt lat="38.6709427647292613983154296875" lon="0.01121020875871181488037109375">
        <ele>196</ele>
        <time>2020-03-04T16:46:49.000Z</time>
      </trkpt>
      <trkpt lat="38.6709058843553066253662109375" lon="0.0112097896635532379150390625">
        <ele>196.8000030517578125</ele>
        <time>2020-03-04T16:46:53.000Z</time>
      </trkpt>
      <trkpt lat="38.67088015191256999969482421875" lon="0.01121498644351959228515625">
        <ele>197</ele>
        <time>2020-03-04T16:46:56.000Z</time>
      </trkpt>
      <trkpt lat="38.670854084193706512451171875" lon="0.011230409145355224609375">
        <ele>197.600006103515625</ele>
        <time>2020-03-04T16:47:02.000Z</time>
      </trkpt>
      <trkpt lat="38.6708195507526397705078125" lon="0.01123376190662384033203125">
        <ele>197.8000030517578125</ele>
        <time>2020-03-04T16:47:08.000Z</time>
      </trkpt>
      <trkpt lat="38.67078325711190700531005859375" lon="0.0112473405897617340087890625">
        <ele>197.8000030517578125</ele>
        <time>2020-03-04T16:47:10.000Z</time>
      </trkpt>
      <trkpt lat="38.6707201413810253143310546875" lon="0.01127927564084529876708984375">
        <ele>198.1999969482421875</ele>
        <time>2020-03-04T16:47:15.000Z</time>
      </trkpt>
      <trkpt lat="38.6707013659179210662841796875" lon="0.0112808682024478912353515625">
        <ele>199</ele>
        <time>2020-03-04T16:47:19.000Z</time>
      </trkpt>
      <trkpt lat="38.67068569175899028778076171875" lon="0.01129419542849063873291015625">
        <ele>199.399993896484375</ele>
        <time>2020-03-04T16:47:21.000Z</time>
      </trkpt>
      <trkpt lat="38.67066758684813976287841796875" lon="0.0113095343112945556640625">
        <ele>199.600006103515625</ele>
        <time>2020-03-04T16:47:22.000Z</time>
      </trkpt>
      <trkpt lat="38.6705486476421356201171875" lon="0.0113677047193050384521484375">
        <ele>200.1999969482421875</ele>
        <time>2020-03-04T16:47:26.000Z</time>
      </trkpt>
      <trkpt lat="38.6703332327306270599365234375" lon="0.011444985866546630859375">
        <ele>200.1999969482421875</ele>
        <time>2020-03-04T16:47:32.000Z</time>
      </trkpt>
      <trkpt lat="38.6701221764087677001953125" lon="0.0114905834197998046875">
        <ele>200.1999969482421875</ele>
        <time>2020-03-04T16:47:38.000Z</time>
      </trkpt>
      <trkpt lat="38.66992914117872714996337890625" lon="0.01149284653365612030029296875">
        <ele>200.1999969482421875</ele>
        <time>2020-03-04T16:47:43.000Z</time>
      </trkpt>
      <trkpt lat="38.6697448231279850006103515625" lon="0.01149552874267101287841796875">
        <ele>200.1999969482421875</ele>
        <time>2020-03-04T16:47:48.000Z</time>
      </trkpt>
      <trkpt lat="38.669650442898273468017578125" lon="0.011444650590419769287109375">
        <ele>200.399993896484375</ele>
        <time>2020-03-04T16:47:51.000Z</time>
      </trkpt>
      <trkpt lat="38.66958162747323513031005859375" lon="0.01140986569225788116455078125">
        <ele>200.600006103515625</ele>
        <time>2020-03-04T16:47:53.000Z</time>
      </trkpt>
      <trkpt lat="38.66941231302917003631591796875" lon="0.01137667335569858551025390625">
        <ele>200.8000030517578125</ele>
        <time>2020-03-04T16:47:58.000Z</time>
      </trkpt>
      <trkpt lat="38.669235371053218841552734375" lon="0.01143082045018672943115234375">
        <ele>200.8000030517578125</ele>
        <time>2020-03-04T16:48:03.000Z</time>
      </trkpt>
      <trkpt lat="38.669197820127010345458984375" lon="0.0114270485937595367431640625">
        <ele>200.8000030517578125</ele>
        <time>2020-03-04T16:48:04.000Z</time>
      </trkpt>
      <trkpt lat="38.66906647570431232452392578125" lon="0.0114039145410060882568359375">
        <ele>200.8000030517578125</ele>
        <time>2020-03-04T16:48:07.000Z</time>
      </trkpt>
      <trkpt lat="38.66902221925556659698486328125" lon="0.01139125786721706390380859375">
        <ele>200.8000030517578125</ele>
        <time>2020-03-04T16:48:08.000Z</time>
      </trkpt>
      <trkpt lat="38.66894359700381755828857421875" lon="0.01136250793933868408203125">
        <ele>200.399993896484375</ele>
        <time>2020-03-04T16:48:10.000Z</time>
      </trkpt>
      <trkpt lat="38.66885759867727756500244140625" lon="0.01136560924351215362548828125">
        <ele>200</ele>
        <time>2020-03-04T16:48:12.000Z</time>
      </trkpt>
      <trkpt lat="38.66882306523621082305908203125" lon="0.0113854743540287017822265625">
        <ele>199.8000030517578125</ele>
        <time>2020-03-04T16:48:13.000Z</time>
      </trkpt>
      <trkpt lat="38.66865509189665317535400390625" lon="0.011423528194427490234375">
        <ele>199.600006103515625</ele>
        <time>2020-03-04T16:48:17.000Z</time>
      </trkpt>
      <trkpt lat="38.66858300752937793731689453125" lon="0.01139427535235881805419921875">
        <ele>199.399993896484375</ele>
        <time>2020-03-04T16:48:19.000Z</time>
      </trkpt>
      <trkpt lat="38.6685468815267086029052734375" lon="0.01138740219175815582275390625">
        <ele>199.399993896484375</ele>
        <time>2020-03-04T16:48:20.000Z</time>
      </trkpt>
      <trkpt lat="38.66842056624591350555419921875" lon="0.01140919514000415802001953125">
        <ele>199.399993896484375</ele>
        <time>2020-03-04T16:48:23.000Z</time>
      </trkpt>
      <trkpt lat="38.6683748848736286163330078125" lon="0.011424534022808074951171875">
        <ele>199.1999969482421875</ele>
        <time>2020-03-04T16:48:24.000Z</time>
      </trkpt>
      <trkpt lat="38.6683222465217113494873046875" lon="0.01142512075603008270263671875">
        <ele>199.1999969482421875</ele>
        <time>2020-03-04T16:48:25.000Z</time>
      </trkpt>
      <trkpt lat="38.66821923293173313140869140625" lon="0.01143350265920162200927734375">
        <ele>199.1999969482421875</ele>
        <time>2020-03-04T16:48:27.000Z</time>
      </trkpt>
      <trkpt lat="38.6680352501571178436279296875" lon="0.01144289039075374603271484375">
        <ele>199.1999969482421875</ele>
        <time>2020-03-04T16:48:31.000Z</time>
      </trkpt>
      <trkpt lat="38.66798856295645236968994140625" lon="0.01144305802881717681884765625">
        <ele>199.1999969482421875</ele>
        <time>2020-03-04T16:48:32.000Z</time>
      </trkpt>
      <trkpt lat="38.66784875281155109405517578125" lon="0.011441297829151153564453125">
        <ele>199.600006103515625</ele>
        <time>2020-03-04T16:48:36.000Z</time>
      </trkpt>
      <trkpt lat="38.66781078279018402099609375" lon="0.01143702305853366851806640625">
        <ele>200.1999969482421875</ele>
        <time>2020-03-04T16:48:39.000Z</time>
      </trkpt>
      <trkpt lat="38.66778069175779819488525390625" lon="0.0114216841757297515869140625">
        <ele>200.8000030517578125</ele>
        <time>2020-03-04T16:48:42.000Z</time>
      </trkpt>
      <trkpt lat="38.66777784191071987152099609375" lon="0.01142964698374271392822265625">
        <ele>201.1999969482421875</ele>
        <time>2020-03-04T16:48:44.000Z</time>
      </trkpt>
      <trkpt lat="38.66775252856314182281494140625" lon="0.01145076937973499298095703125">
        <ele>202.399993896484375</ele>
        <time>2020-03-04T16:48:50.000Z</time>
      </trkpt>
      <trkpt lat="38.667715899646282196044921875" lon="0.01146920956671237945556640625">
        <ele>203.399993896484375</ele>
        <time>2020-03-04T16:48:55.000Z</time>
      </trkpt>
      <trkpt lat="38.66771330125629901885986328125" lon="0.011473484337329864501953125">
        <ele>203.8000030517578125</ele>
        <time>2020-03-04T16:48:58.000Z</time>
      </trkpt>
      <trkpt lat="38.6677046678960323333740234375" lon="0.0114803574979305267333984375">
        <ele>204</ele>
        <time>2020-03-04T16:49:01.000Z</time>
      </trkpt>
      <trkpt lat="38.66765655577182769775390625" lon="0.01151547767221927642822265625">
        <ele>204.1999969482421875</ele>
        <time>2020-03-04T16:49:04.000Z</time>
      </trkpt>
      <trkpt lat="38.6675718985497951507568359375" lon="0.011640451848506927490234375">
        <ele>204.1999969482421875</ele>
        <time>2020-03-04T16:49:08.000Z</time>
      </trkpt>
      <trkpt lat="38.6675444059073925018310546875" lon="0.011820159852504730224609375">
        <ele>204.1999969482421875</ele>
        <time>2020-03-04T16:49:12.000Z</time>
      </trkpt>
      <trkpt lat="38.66755505092442035675048828125" lon="0.01191361807286739349365234375">
        <ele>204</ele>
        <time>2020-03-04T16:49:14.000Z</time>
      </trkpt>
      <trkpt lat="38.66760685108602046966552734375" lon="0.01198804937303066253662109375">
        <ele>204</ele>
        <time>2020-03-04T16:49:16.000Z</time>
      </trkpt>
      <trkpt lat="38.6677645146846771240234375" lon="0.01218670047819614410400390625">
        <ele>204</ele>
        <time>2020-03-04T16:49:22.000Z</time>
      </trkpt>
      <trkpt lat="38.6678404547274112701416015625" lon="0.01236833631992340087890625">
        <ele>203.8000030517578125</ele>
        <time>2020-03-04T16:49:26.000Z</time>
      </trkpt>
      <trkpt lat="38.6678552068769931793212890625" lon="0.0124164484441280364990234375">
        <ele>203.8000030517578125</ele>
        <time>2020-03-04T16:49:27.000Z</time>
      </trkpt>
      <trkpt lat="38.6679698713123798370361328125" lon="0.01258048228919506072998046875">
        <ele>203.8000030517578125</ele>
        <time>2020-03-04T16:49:31.000Z</time>
      </trkpt>
      <trkpt lat="38.6681254394352436065673828125" lon="0.0126638822257518768310546875">
        <ele>203.600006103515625</ele>
        <time>2020-03-04T16:49:35.000Z</time>
      </trkpt>
      <trkpt lat="38.6683276109397411346435546875" lon="0.01282355748116970062255859375">
        <ele>203.1999969482421875</ele>
        <time>2020-03-04T16:49:41.000Z</time>
      </trkpt>
      <trkpt lat="38.6683497391641139984130859375" lon="0.01287099905312061309814453125">
        <ele>203.1999969482421875</ele>
        <time>2020-03-04T16:49:42.000Z</time>
      </trkpt>
      <trkpt lat="38.66839424706995487213134765625" lon="0.01304316334426403045654296875">
        <ele>203.1999969482421875</ele>
        <time>2020-03-04T16:49:45.000Z</time>
      </trkpt>
      <trkpt lat="38.66841067560017108917236328125" lon="0.0130963884294033050537109375">
        <ele>203.1999969482421875</ele>
        <time>2020-03-04T16:49:46.000Z</time>
      </trkpt>
      <trkpt lat="38.668438084423542022705078125" lon="0.0131393037736415863037109375">
        <ele>203.1999969482421875</ele>
        <time>2020-03-04T16:49:47.000Z</time>
      </trkpt>
      <trkpt lat="38.6684637330472469329833984375" lon="0.01316771842539310455322265625">
        <ele>203</ele>
        <time>2020-03-04T16:49:48.000Z</time>
      </trkpt>
      <trkpt lat="38.66858568973839282989501953125" lon="0.01320325769484043121337890625">
        <ele>202.8000030517578125</ele>
        <time>2020-03-04T16:49:52.000Z</time>
      </trkpt>
      <trkpt lat="38.668668083846569061279296875" lon="0.01320652663707733154296875">
        <ele>202.8000030517578125</ele>
        <time>2020-03-04T16:49:54.000Z</time>
      </trkpt>
      <trkpt lat="38.66878367029130458831787109375" lon="0.013198815286159515380859375">
        <ele>203</ele>
        <time>2020-03-04T16:49:57.000Z</time>
      </trkpt>
      <trkpt lat="38.668879978358745574951171875" lon="0.01323477365076541900634765625">
        <ele>203</ele>
        <time>2020-03-04T16:50:00.000Z</time>
      </trkpt>
      <trkpt lat="38.66894611157476902008056640625" lon="0.01327785663306713104248046875">
        <ele>203</ele>
        <time>2020-03-04T16:50:02.000Z</time>
      </trkpt>
      <trkpt lat="38.66909514181315898895263671875" lon="0.0133773498237133026123046875">
        <ele>204.1999969482421875</ele>
        <time>2020-03-04T16:50:06.000Z</time>
      </trkpt>
      <trkpt lat="38.66917007602751255035400390625" lon="0.0134430639445781707763671875">
        <ele>204.399993896484375</ele>
        <time>2020-03-04T16:50:08.000Z</time>
      </trkpt>
      <trkpt lat="38.66926009766757488250732421875" lon="0.01355362124741077423095703125">
        <ele>204.399993896484375</ele>
        <time>2020-03-04T16:50:11.000Z</time>
      </trkpt>
      <trkpt lat="38.66937124170362949371337890625" lon="0.01377389766275882720947265625">
        <ele>204.399993896484375</ele>
        <time>2020-03-04T16:50:16.000Z</time>
      </trkpt>
      <trkpt lat="38.66939202882349491119384765625" lon="0.0138038210570812225341796875">
        <ele>204.1999969482421875</ele>
        <time>2020-03-04T16:50:20.000Z</time>
      </trkpt>
      <trkpt lat="38.66939471103250980377197265625" lon="0.013821087777614593505859375">
        <ele>204.399993896484375</ele>
        <time>2020-03-04T16:50:28.000Z</time>
      </trkpt>
      <trkpt lat="38.66938398219645023345947265625" lon="0.01382301561534404754638671875">
        <ele>204.399993896484375</ele>
        <time>2020-03-04T16:50:29.000Z</time>
      </trkpt>
      <trkpt lat="38.66930452175438404083251953125" lon="0.01380155794322490692138671875">
        <ele>205.1999969482421875</ele>
        <time>2020-03-04T16:50:38.000Z</time>
      </trkpt>
      <trkpt lat="38.6692558228969573974609375" lon="0.0137830339372158050537109375">
        <ele>206.600006103515625</ele>
        <time>2020-03-04T16:50:45.000Z</time>
      </trkpt>
      <trkpt lat="38.669216930866241455078125" lon="0.0137642584741115570068359375">
        <ele>207.600006103515625</ele>
        <time>2020-03-04T16:50:50.000Z</time>
      </trkpt>
      <trkpt lat="38.66918482817709445953369140625" lon="0.01374900341033935546875">
        <ele>208.1999969482421875</ele>
        <time>2020-03-04T16:50:54.000Z</time>
      </trkpt>
      <trkpt lat="38.6691565811634063720703125" lon="0.01374707557260990142822265625">
        <ele>208.8000030517578125</ele>
        <time>2020-03-04T16:50:57.000Z</time>
      </trkpt>
      <trkpt lat="38.6691188625991344451904296875" lon="0.0137387774884700775146484375">
        <ele>209.600006103515625</ele>
        <time>2020-03-04T16:51:01.000Z</time>
      </trkpt>
      <trkpt lat="38.66910226643085479736328125" lon="0.01374439336359500885009765625">
        <ele>210</ele>
        <time>2020-03-04T16:51:03.000Z</time>
      </trkpt>
      <trkpt lat="38.66904904134571552276611328125" lon="0.0137448124587535858154296875">
        <ele>211.1999969482421875</ele>
        <time>2020-03-04T16:51:10.000Z</time>
      </trkpt>
      <trkpt lat="38.66900746710598468780517578125" lon="0.01373358070850372314453125">
        <ele>212.1999969482421875</ele>
        <time>2020-03-04T16:51:16.000Z</time>
      </trkpt>
      <trkpt lat="38.6689703352749347686767578125" lon="0.0137208402156829833984375">
        <ele>213.1999969482421875</ele>
        <time>2020-03-04T16:51:22.000Z</time>
      </trkpt>
      <trkpt lat="38.66896321065723896026611328125" lon="0.01372075639665126800537109375">
        <ele>213.399993896484375</ele>
        <time>2020-03-04T16:51:23.000Z</time>
      </trkpt>
      <trkpt lat="38.6689151823520660400390625" lon="0.01371824182569980621337890625">
        <ele>214.399993896484375</ele>
        <time>2020-03-04T16:51:29.000Z</time>
      </trkpt>
      <trkpt lat="38.66887737996876239776611328125" lon="0.01370885409414768218994140625">
        <ele>215.399993896484375</ele>
        <time>2020-03-04T16:51:34.000Z</time>
      </trkpt>
      <trkpt lat="38.66887268610298633575439453125" lon="0.01370809972286224365234375">
        <ele>215.600006103515625</ele>
        <time>2020-03-04T16:51:35.000Z</time>
      </trkpt>
      <trkpt lat="38.66883412934839725494384765625" lon="0.01370214857161045074462890625">
        <ele>216.600006103515625</ele>
        <time>2020-03-04T16:51:41.000Z</time>
      </trkpt>
      <trkpt lat="38.66879087872803211212158203125" lon="0.013711452484130859375">
        <ele>217.600006103515625</ele>
        <time>2020-03-04T16:51:47.000Z</time>
      </trkpt>
      <trkpt lat="38.66878501139581203460693359375" lon="0.01371488906443119049072265625">
        <ele>217.600006103515625</ele>
        <time>2020-03-04T16:51:48.000Z</time>
      </trkpt>
      <trkpt lat="38.66872348822653293609619140625" lon="0.01371338032186031341552734375">
        <ele>218.8000030517578125</ele>
        <time>2020-03-04T16:51:55.000Z</time>
      </trkpt>
      <trkpt lat="38.66867336444556713104248046875" lon="0.01372964121401309967041015625">
        <ele>219.600006103515625</ele>
        <time>2020-03-04T16:52:00.000Z</time>
      </trkpt>
      <trkpt lat="38.66864872165024280548095703125" lon="0.01374187879264354705810546875">
        <ele>220</ele>
        <time>2020-03-04T16:52:03.000Z</time>
      </trkpt>
      <trkpt lat="38.66861854679882526397705078125" lon="0.01373467035591602325439453125">
        <ele>221.1999969482421875</ele>
        <time>2020-03-04T16:52:10.000Z</time>
      </trkpt>
      <trkpt lat="38.6686206422746181488037109375" lon="0.0137327425181865692138671875">
        <ele>221.399993896484375</ele>
        <time>2020-03-04T16:52:11.000Z</time>
      </trkpt>
      <trkpt lat="38.6685638129711151123046875" lon="0.01375369727611541748046875">
        <ele>221.8000030517578125</ele>
        <time>2020-03-04T16:52:19.000Z</time>
      </trkpt>
      <trkpt lat="38.6684623919427394866943359375" lon="0.013822428882122039794921875">
        <ele>221.8000030517578125</ele>
        <time>2020-03-04T16:52:26.000Z</time>
      </trkpt>
      <trkpt lat="38.66842500865459442138671875" lon="0.0138567946851253509521484375">
        <ele>222.399993896484375</ele>
        <time>2020-03-04T16:52:29.000Z</time>
      </trkpt>
      <trkpt lat="38.66836692206561565399169921875" lon="0.01391253434121608734130859375">
        <ele>223.600006103515625</ele>
        <time>2020-03-04T16:52:34.000Z</time>
      </trkpt>
      <trkpt lat="38.668304979801177978515625" lon="0.01399283297359943389892578125">
        <ele>224.8000030517578125</ele>
        <time>2020-03-04T16:52:39.000Z</time>
      </trkpt>
      <trkpt lat="38.668295927345752716064453125" lon="0.01400087960064411163330078125">
        <ele>225</ele>
        <time>2020-03-04T16:52:40.000Z</time>
      </trkpt>
      <trkpt lat="38.6682655848562717437744140625" lon="0.014004148542881011962890625">
        <ele>226</ele>
        <time>2020-03-04T16:52:43.000Z</time>
      </trkpt>
      <trkpt lat="38.66822786629199981689453125" lon="0.013979338109493255615234375">
        <ele>227.1999969482421875</ele>
        <time>2020-03-04T16:52:46.000Z</time>
      </trkpt>
      <trkpt lat="38.66817715577781200408935546875" lon="0.013949163258075714111328125">
        <ele>228.399993896484375</ele>
        <time>2020-03-04T16:52:49.000Z</time>
      </trkpt>
      <trkpt lat="38.66809618659317493438720703125" lon="0.01392133533954620361328125">
        <ele>229</ele>
        <time>2020-03-04T16:52:53.000Z</time>
      </trkpt>
      <trkpt lat="38.667980767786502838134765625" lon="0.0138708762824535369873046875">
        <ele>229.1999969482421875</ele>
        <time>2020-03-04T16:52:59.000Z</time>
      </trkpt>
      <trkpt lat="38.667936511337757110595703125" lon="0.0138450600206851959228515625">
        <ele>229.600006103515625</ele>
        <time>2020-03-04T16:53:01.000Z</time>
      </trkpt>
      <trkpt lat="38.66786845028400421142578125" lon="0.01379233784973621368408203125">
        <ele>230</ele>
        <time>2020-03-04T16:53:04.000Z</time>
      </trkpt>
      <trkpt lat="38.66778622381389141082763671875" lon="0.01370332203805446624755859375">
        <ele>230.600006103515625</ele>
        <time>2020-03-04T16:53:08.000Z</time>
      </trkpt>
      <trkpt lat="38.66771061904728412628173828125" lon="0.01364632509648799896240234375">
        <ele>231.1999969482421875</ele>
        <time>2020-03-04T16:53:12.000Z</time>
      </trkpt>
      <trkpt lat="38.6676503531634807586669921875" lon="0.01363023184239864349365234375">
        <ele>231.8000030517578125</ele>
        <time>2020-03-04T16:53:15.000Z</time>
      </trkpt>
      <trkpt lat="38.667586483061313629150390625" lon="0.0136442296206951141357421875">
        <ele>232.600006103515625</ele>
        <time>2020-03-04T16:53:18.000Z</time>
      </trkpt>
      <trkpt lat="38.667562343180179595947265625" lon="0.0136499293148517608642578125">
        <ele>232.8000030517578125</ele>
        <time>2020-03-04T16:53:19.000Z</time>
      </trkpt>
      <trkpt lat="38.667473159730434417724609375" lon="0.0136801041662693023681640625">
        <ele>234</ele>
        <time>2020-03-04T16:53:23.000Z</time>
      </trkpt>
      <trkpt lat="38.667450360953807830810546875" lon="0.01368421129882335662841796875">
        <ele>234.1999969482421875</ele>
        <time>2020-03-04T16:53:24.000Z</time>
      </trkpt>
      <trkpt lat="38.6673623509705066680908203125" lon="0.0136961974203586578369140625">
        <ele>235.1999969482421875</ele>
        <time>2020-03-04T16:53:28.000Z</time>
      </trkpt>
      <trkpt lat="38.6673268117010593414306640625" lon="0.01369334757328033447265625">
        <ele>235.600006103515625</ele>
        <time>2020-03-04T16:53:30.000Z</time>
      </trkpt>
      <trkpt lat="38.66726269014179706573486328125" lon="0.01366023905575275421142578125">
        <ele>236.399993896484375</ele>
        <time>2020-03-04T16:53:33.000Z</time>
      </trkpt>
      <trkpt lat="38.6672211997210979461669921875" lon="0.01361112110316753387451171875">
        <ele>237</ele>
        <time>2020-03-04T16:53:35.000Z</time>
      </trkpt>
      <trkpt lat="38.66714232601225376129150390625" lon="0.0134553015232086181640625">
        <ele>237.600006103515625</ele>
        <time>2020-03-04T16:53:40.000Z</time>
      </trkpt>
      <trkpt lat="38.66709605790674686431884765625" lon="0.013362430036067962646484375">
        <ele>237.600006103515625</ele>
        <time>2020-03-04T16:53:43.000Z</time>
      </trkpt>
      <trkpt lat="38.6670019291341304779052734375" lon="0.01314810477197170257568359375">
        <ele>238.1999969482421875</ele>
        <time>2020-03-04T16:53:50.000Z</time>
      </trkpt>
      <trkpt lat="38.6670025996863842010498046875" lon="0.013075768947601318359375">
        <ele>238.399993896484375</ele>
        <time>2020-03-04T16:53:52.000Z</time>
      </trkpt>
      <trkpt lat="38.66700922138988971710205078125" lon="0.0129116512835025787353515625">
        <ele>238.600006103515625</ele>
        <time>2020-03-04T16:53:56.000Z</time>
      </trkpt>
      <trkpt lat="38.66695406846702098846435546875" lon="0.01273236237466335296630859375">
        <ele>239</ele>
        <time>2020-03-04T16:54:01.000Z</time>
      </trkpt>
      <trkpt lat="38.66688131354749202728271484375" lon="0.01266614533960819244384765625">
        <ele>239.600006103515625</ele>
        <time>2020-03-04T16:54:04.000Z</time>
      </trkpt>
      <trkpt lat="38.6668031103909015655517578125" lon="0.0126283429563045501708984375">
        <ele>240</ele>
        <time>2020-03-04T16:54:07.000Z</time>
      </trkpt>
      <trkpt lat="38.66672121919691562652587890625" lon="0.01262021251022815704345703125">
        <ele>241</ele>
        <time>2020-03-04T16:54:11.000Z</time>
      </trkpt>
      <trkpt lat="38.66670244373381137847900390625" lon="0.0126259960234165191650390625">
        <ele>241</ele>
        <time>2020-03-04T16:54:12.000Z</time>
      </trkpt>
      <trkpt lat="38.66659666411578655242919921875" lon="0.01267687417566776275634765625">
        <ele>242.1999969482421875</ele>
        <time>2020-03-04T16:54:17.000Z</time>
      </trkpt>
      <trkpt lat="38.66656246595084667205810546875" lon="0.01270721666514873504638671875">
        <ele>242.8000030517578125</ele>
        <time>2020-03-04T16:54:19.000Z</time>
      </trkpt>
      <trkpt lat="38.6665275134146213531494140625" lon="0.0127403251826763153076171875">
        <ele>243.399993896484375</ele>
        <time>2020-03-04T16:54:21.000Z</time>
      </trkpt>
      <trkpt lat="38.6664698459208011627197265625" lon="0.012791119515895843505859375">
        <ele>244.399993896484375</ele>
        <time>2020-03-04T16:54:24.000Z</time>
      </trkpt>
      <trkpt lat="38.66640304215252399444580078125" lon="0.01282758079469203948974609375">
        <ele>245.399993896484375</ele>
        <time>2020-03-04T16:54:27.000Z</time>
      </trkpt>
      <trkpt lat="38.6663786508142948150634765625" lon="0.0128318555653095245361328125">
        <ele>245.8000030517578125</ele>
        <time>2020-03-04T16:54:28.000Z</time>
      </trkpt>
      <trkpt lat="38.66625116206705570220947265625" lon="0.012805201113224029541015625">
        <ele>247.1999969482421875</ele>
        <time>2020-03-04T16:54:33.000Z</time>
      </trkpt>
      <trkpt lat="38.66609810851514339447021484375" lon="0.01271895132958889007568359375">
        <ele>248.1999969482421875</ele>
        <time>2020-03-04T16:54:39.000Z</time>
      </trkpt>
      <trkpt lat="38.66604412905871868133544921875" lon="0.01267989166080951690673828125">
        <ele>248.600006103515625</ele>
        <time>2020-03-04T16:54:41.000Z</time>
      </trkpt>
      <trkpt lat="38.6658408679068088531494140625" lon="0.01252918504178524017333984375">
        <ele>249.1999969482421875</ele>
        <time>2020-03-04T16:54:49.000Z</time>
      </trkpt>
      <trkpt lat="38.66569510661065578460693359375" lon="0.0124905444681644439697265625">
        <ele>249.600006103515625</ele>
        <time>2020-03-04T16:54:54.000Z</time>
      </trkpt>
      <trkpt lat="38.66565688513219356536865234375" lon="0.0124100781977176666259765625">
        <ele>249.8000030517578125</ele>
        <time>2020-03-04T16:54:56.000Z</time>
      </trkpt>
      <trkpt lat="38.66565118543803691864013671875" lon="0.01236221753060817718505859375">
        <ele>249.8000030517578125</ele>
        <time>2020-03-04T16:54:57.000Z</time>
      </trkpt>
      <trkpt lat="38.6656564660370349884033203125" lon="0.0122348964214324951171875">
        <ele>250</ele>
        <time>2020-03-04T16:55:00.000Z</time>
      </trkpt>
      <trkpt lat="38.66566208191215991973876953125" lon="0.01215283758938312530517578125">
        <ele>250.1999969482421875</ele>
        <time>2020-03-04T16:55:02.000Z</time>
      </trkpt>
      <trkpt lat="38.66569963283836841583251953125" lon="0.01200313679873943328857421875">
        <ele>250.399993896484375</ele>
        <time>2020-03-04T16:55:06.000Z</time>
      </trkpt>
      <trkpt lat="38.6657308973371982574462890625" lon="0.011933147907257080078125">
        <ele>250.600006103515625</ele>
        <time>2020-03-04T16:55:08.000Z</time>
      </trkpt>
      <trkpt lat="38.66580373607575893402099609375" lon="0.011865086853504180908203125">
        <ele>251.1999969482421875</ele>
        <time>2020-03-04T16:55:11.000Z</time>
      </trkpt>
      <trkpt lat="38.66591471247375011444091796875" lon="0.0117723830044269561767578125">
        <ele>251.600006103515625</ele>
        <time>2020-03-04T16:55:15.000Z</time>
      </trkpt>
      <trkpt lat="38.66599920205771923065185546875" lon="0.01164690591394901275634765625">
        <ele>251.8000030517578125</ele>
        <time>2020-03-04T16:55:19.000Z</time>
      </trkpt>
      <trkpt lat="38.66601780988276004791259765625" lon="0.011576078832149505615234375">
        <ele>251.8000030517578125</ele>
        <time>2020-03-04T16:55:21.000Z</time>
      </trkpt>
      <trkpt lat="38.6660142056643962860107421875" lon="0.0114716403186321258544921875">
        <ele>252.1999969482421875</ele>
        <time>2020-03-04T16:55:24.000Z</time>
      </trkpt>
      <trkpt lat="38.66599216125905513763427734375" lon="0.01141003333032131195068359375">
        <ele>252.399993896484375</ele>
        <time>2020-03-04T16:55:26.000Z</time>
      </trkpt>
      <trkpt lat="38.66592812351882457733154296875" lon="0.01129922457039356231689453125">
        <ele>253.600006103515625</ele>
        <time>2020-03-04T16:55:30.000Z</time>
      </trkpt>
      <trkpt lat="38.66585989482700824737548828125" lon="0.0111762620508670806884765625">
        <ele>254.1999969482421875</ele>
        <time>2020-03-04T16:55:34.000Z</time>
      </trkpt>
      <trkpt lat="38.66583759896457195281982421875" lon="0.0110626034438610076904296875">
        <ele>254.399993896484375</ele>
        <time>2020-03-04T16:55:37.000Z</time>
      </trkpt>
      <trkpt lat="38.665838353335857391357421875" lon="0.01097970642149448394775390625">
        <ele>254.600006103515625</ele>
        <time>2020-03-04T16:55:39.000Z</time>
      </trkpt>
      <trkpt lat="38.66590649820864200592041015625" lon="0.0107306800782680511474609375">
        <ele>255.1999969482421875</ele>
        <time>2020-03-04T16:55:45.000Z</time>
      </trkpt>
      <trkpt lat="38.665930889546871185302734375" lon="0.01069019548594951629638671875">
        <ele>255.399993896484375</ele>
        <time>2020-03-04T16:55:46.000Z</time>
      </trkpt>
      <trkpt lat="38.66595695726573467254638671875" lon="0.0106498785316944122314453125">
        <ele>255.399993896484375</ele>
        <time>2020-03-04T16:55:47.000Z</time>
      </trkpt>
      <trkpt lat="38.6660188995301723480224609375" lon="0.01058341003954410552978515625">
        <ele>255.8000030517578125</ele>
        <time>2020-03-04T16:55:49.000Z</time>
      </trkpt>
      <trkpt lat="38.66605552844703197479248046875" lon="0.01055709086358547210693359375">
        <ele>255.8000030517578125</ele>
        <time>2020-03-04T16:55:50.000Z</time>
      </trkpt>
      <trkpt lat="38.6660940013825893402099609375" lon="0.01053395681083202362060546875">
        <ele>255.8000030517578125</ele>
        <time>2020-03-04T16:55:51.000Z</time>
      </trkpt>
      <trkpt lat="38.66627999581396579742431640625" lon="0.0104745291173458099365234375">
        <ele>256</ele>
        <time>2020-03-04T16:55:56.000Z</time>
      </trkpt>
      <trkpt lat="38.66636012680828571319580078125" lon="0.0104731880128383636474609375">
        <ele>256.20001220703125</ele>
        <time>2020-03-04T16:55:58.000Z</time>
      </trkpt>
      <trkpt lat="38.66649381816387176513671875" lon="0.010472349822521209716796875">
        <ele>256.20001220703125</ele>
        <time>2020-03-04T16:56:01.000Z</time>
      </trkpt>
      <trkpt lat="38.66675558499991893768310546875" lon="0.0104705058038234710693359375">
        <ele>256.20001220703125</ele>
        <time>2020-03-04T16:56:07.000Z</time>
      </trkpt>
      <trkpt lat="38.66687829606235027313232421875" lon="0.0104503892362117767333984375">
        <ele>256.20001220703125</ele>
        <time>2020-03-04T16:56:10.000Z</time>
      </trkpt>
      <trkpt lat="38.66704643703997135162353515625" lon="0.010378472506999969482421875">
        <ele>256.20001220703125</ele>
        <time>2020-03-04T16:56:14.000Z</time>
      </trkpt>
      <trkpt lat="38.6672309227287769317626953125" lon="0.01019935123622417449951171875">
        <ele>256.399993896484375</ele>
        <time>2020-03-04T16:56:20.000Z</time>
      </trkpt>
      <trkpt lat="38.66724022664129734039306640625" lon="0.010157525539398193359375">
        <ele>256.399993896484375</ele>
        <time>2020-03-04T16:56:21.000Z</time>
      </trkpt>
      <trkpt lat="38.66722899489104747772216796875" lon="0.01007094047963619232177734375">
        <ele>256.399993896484375</ele>
        <time>2020-03-04T16:56:23.000Z</time>
      </trkpt>
      <trkpt lat="38.66721399128437042236328125" lon="0.01003389246761798858642578125">
        <ele>256.600006103515625</ele>
        <time>2020-03-04T16:56:24.000Z</time>
      </trkpt>
      <trkpt lat="38.66714249365031719207763671875" lon="0.009941272437572479248046875">
        <ele>256.79998779296875</ele>
        <time>2020-03-04T16:56:27.000Z</time>
      </trkpt>
      <trkpt lat="38.6671102233231067657470703125" lon="0.0099219940602779388427734375">
        <ele>257</ele>
        <time>2020-03-04T16:56:28.000Z</time>
      </trkpt>
      <trkpt lat="38.6670720018446445465087890625" lon="0.0099028833210468292236328125">
        <ele>257.20001220703125</ele>
        <time>2020-03-04T16:56:29.000Z</time>
      </trkpt>
      <trkpt lat="38.6669838242232799530029296875" lon="0.0098670087754726409912109375">
        <ele>257.399993896484375</ele>
        <time>2020-03-04T16:56:31.000Z</time>
      </trkpt>
      <trkpt lat="38.66688181646168231964111328125" lon="0.00983633100986480712890625">
        <ele>257.600006103515625</ele>
        <time>2020-03-04T16:56:33.000Z</time>
      </trkpt>
      <trkpt lat="38.666833452880382537841796875" lon="0.00981755554676055908203125">
        <ele>257.600006103515625</ele>
        <time>2020-03-04T16:56:34.000Z</time>
      </trkpt>
      <trkpt lat="38.6666393280029296875" lon="0.0097184814512729644775390625">
        <ele>257.600006103515625</ele>
        <time>2020-03-04T16:56:38.000Z</time>
      </trkpt>
      <trkpt lat="38.6666016094386577606201171875" lon="0.00968746840953826904296875">
        <ele>257.600006103515625</ele>
        <time>2020-03-04T16:56:39.000Z</time>
      </trkpt>
      <trkpt lat="38.66649474017322063446044921875" lon="0.00957825221121311187744140625">
        <ele>257.600006103515625</ele>
        <time>2020-03-04T16:56:42.000Z</time>
      </trkpt>
      <trkpt lat="38.666466660797595977783203125" lon="0.00953416340053081512451171875">
        <ele>257.20001220703125</ele>
        <time>2020-03-04T16:56:43.000Z</time>
      </trkpt>
      <trkpt lat="38.666407652199268341064453125" lon="0.00946006737649440765380859375">
        <ele>256.79998779296875</ele>
        <time>2020-03-04T16:56:45.000Z</time>
      </trkpt>
      <trkpt lat="38.6663722805678844451904296875" lon="0.00942989252507686614990234375">
        <ele>256.20001220703125</ele>
        <time>2020-03-04T16:56:46.000Z</time>
      </trkpt>
      <trkpt lat="38.66633288562297821044921875" lon="0.00940541736781597137451171875">
        <ele>255.600006103515625</ele>
        <time>2020-03-04T16:56:47.000Z</time>
      </trkpt>
      <trkpt lat="38.666292317211627960205078125" lon="0.00938027165830135345458984375">
        <ele>254.8000030517578125</ele>
        <time>2020-03-04T16:56:48.000Z</time>
      </trkpt>
      <trkpt lat="38.66625501774251461029052734375" lon="0.009355880320072174072265625">
        <ele>254.399993896484375</ele>
        <time>2020-03-04T16:56:49.000Z</time>
      </trkpt>
      <trkpt lat="38.66622065193951129913330078125" lon="0.0093412958085536956787109375">
        <ele>253.600006103515625</ele>
        <time>2020-03-04T16:56:50.000Z</time>
      </trkpt>
      <trkpt lat="38.66616281680762767791748046875" lon="0.0093151442706584930419921875">
        <ele>252.600006103515625</ele>
        <time>2020-03-04T16:56:52.000Z</time>
      </trkpt>
      <trkpt lat="38.66615477018058300018310546875" lon="0.0092923454940319061279296875">
        <ele>251.600006103515625</ele>
        <time>2020-03-04T16:56:53.000Z</time>
      </trkpt>
      <trkpt lat="38.6661607213318347930908203125" lon="0.009272396564483642578125">
        <ele>250</ele>
        <time>2020-03-04T16:56:54.000Z</time>
      </trkpt>
      <trkpt lat="38.66617471911013126373291015625" lon="0.0092598237097263336181640625">
        <ele>249.399993896484375</ele>
        <time>2020-03-04T16:56:55.000Z</time>
      </trkpt>
      <trkpt lat="38.6661945842206478118896484375" lon="0.00925831496715545654296875">
        <ele>248.8000030517578125</ele>
        <time>2020-03-04T16:56:56.000Z</time>
      </trkpt>
      <trkpt lat="38.6662458814680576324462890625" lon="0.009266026318073272705078125">
        <ele>247.600006103515625</ele>
        <time>2020-03-04T16:56:58.000Z</time>
      </trkpt>
      <trkpt lat="38.6662810854613780975341796875" lon="0.0092762522399425506591796875">
        <ele>247</ele>
        <time>2020-03-04T16:56:59.000Z</time>
      </trkpt>
      <trkpt lat="38.6663156189024448394775390625" lon="0.00927331857383251190185546875">
        <ele>246.600006103515625</ele>
        <time>2020-03-04T16:57:00.000Z</time>
      </trkpt>
      <trkpt lat="38.6664260923862457275390625" lon="0.00922939740121364593505859375">
        <ele>245.600006103515625</ele>
        <time>2020-03-04T16:57:03.000Z</time>
      </trkpt>
      <trkpt lat="38.66646473295986652374267578125" lon="0.00921783037483692169189453125">
        <ele>245.1999969482421875</ele>
        <time>2020-03-04T16:57:04.000Z</time>
      </trkpt>
      <trkpt lat="38.66651468910276889801025390625" lon="0.00918111763894557952880859375">
        <ele>244.399993896484375</ele>
        <time>2020-03-04T16:57:06.000Z</time>
      </trkpt>
      <trkpt lat="38.66651929914951324462890625" lon="0.009152702987194061279296875">
        <ele>243.8000030517578125</ele>
        <time>2020-03-04T16:57:07.000Z</time>
      </trkpt>
      <trkpt lat="38.66648183204233646392822265625" lon="0.00910718925297260284423828125">
        <ele>242.399993896484375</ele>
        <time>2020-03-04T16:57:10.000Z</time>
      </trkpt>
      <trkpt lat="38.6664470471441745758056640625" lon="0.00909126363694667816162109375">
        <ele>241</ele>
        <time>2020-03-04T16:57:12.000Z</time>
      </trkpt>
      <trkpt lat="38.66643154062330722808837890625" lon="0.00906008295714855194091796875">
        <ele>240</ele>
        <time>2020-03-04T16:57:14.000Z</time>
      </trkpt>
      <trkpt lat="38.66644059307873249053955078125" lon="0.00903929583728313446044921875">
        <ele>239.399993896484375</ele>
        <time>2020-03-04T16:57:15.000Z</time>
      </trkpt>
      <trkpt lat="38.66645500995218753814697265625" lon="0.0090211071074008941650390625">
        <ele>239</ele>
        <time>2020-03-04T16:57:16.000Z</time>
      </trkpt>
      <trkpt lat="38.66647361777722835540771484375" lon="0.00901062972843647003173828125">
        <ele>238.8000030517578125</ele>
        <time>2020-03-04T16:57:17.000Z</time>
      </trkpt>
      <trkpt lat="38.66651368327438831329345703125" lon="0.00896637327969074249267578125">
        <ele>237.8000030517578125</ele>
        <time>2020-03-04T16:57:19.000Z</time>
      </trkpt>
      <trkpt lat="38.66653765551745891571044921875" lon="0.0089436583220958709716796875">
        <ele>237.1999969482421875</ele>
        <time>2020-03-04T16:57:20.000Z</time>
      </trkpt>
      <trkpt lat="38.66658995859324932098388671875" lon="0.00889261253178119659423828125">
        <ele>235.8000030517578125</ele>
        <time>2020-03-04T16:57:22.000Z</time>
      </trkpt>
      <trkpt lat="38.66661611013114452362060546875" lon="0.008885823190212249755859375">
        <ele>235</ele>
        <time>2020-03-04T16:57:23.000Z</time>
      </trkpt>
      <trkpt lat="38.6666428484022617340087890625" lon="0.0088802911341190338134765625">
        <ele>234.399993896484375</ele>
        <time>2020-03-04T16:57:24.000Z</time>
      </trkpt>
      <trkpt lat="38.6666750349104404449462890625" lon="0.0088792853057384490966796875">
        <ele>234</ele>
        <time>2020-03-04T16:57:25.000Z</time>
      </trkpt>
      <trkpt lat="38.66674066521227359771728515625" lon="0.008859336376190185546875">
        <ele>233</ele>
        <time>2020-03-04T16:57:27.000Z</time>
      </trkpt>
      <trkpt lat="38.66677151061594486236572265625" lon="0.0088403932750225067138671875">
        <ele>232.600006103515625</ele>
        <time>2020-03-04T16:57:28.000Z</time>
      </trkpt>
      <trkpt lat="38.66683839820325374603271484375" lon="0.00879186205565929412841796875">
        <ele>231.600006103515625</ele>
        <time>2020-03-04T16:57:30.000Z</time>
      </trkpt>
      <trkpt lat="38.666874356567859649658203125" lon="0.00878029502928256988525390625">
        <ele>231</ele>
        <time>2020-03-04T16:57:31.000Z</time>
      </trkpt>
      <trkpt lat="38.66695113480091094970703125" lon="0.0087736733257770538330078125">
        <ele>230.1999969482421875</ele>
        <time>2020-03-04T16:57:33.000Z</time>
      </trkpt>
      <trkpt lat="38.66706001572310924530029296875" lon="0.00873796641826629638671875">
        <ele>229.1999969482421875</ele>
        <time>2020-03-04T16:57:36.000Z</time>
      </trkpt>
      <trkpt lat="38.667113743722438812255859375" lon="0.008690357208251953125">
        <ele>228</ele>
        <time>2020-03-04T16:57:38.000Z</time>
      </trkpt>
      <trkpt lat="38.667178787291049957275390625" lon="0.00859958119690418243408203125">
        <ele>226.600006103515625</ele>
        <time>2020-03-04T16:57:41.000Z</time>
      </trkpt>
      <trkpt lat="38.66722145117819309234619140625" lon="0.00853235833346843719482421875">
        <ele>225.399993896484375</ele>
        <time>2020-03-04T16:57:43.000Z</time>
      </trkpt>
      <trkpt lat="38.66727895103394985198974609375" lon="0.0084353797137737274169921875">
        <ele>224</ele>
        <time>2020-03-04T16:57:46.000Z</time>
      </trkpt>
      <trkpt lat="38.66732396185398101806640625" lon="0.0083746947348117828369140625">
        <ele>222.600006103515625</ele>
        <time>2020-03-04T16:57:48.000Z</time>
      </trkpt>
      <trkpt lat="38.66737819276750087738037109375" lon="0.00832222402095794677734375">
        <ele>221.1999969482421875</ele>
        <time>2020-03-04T16:57:50.000Z</time>
      </trkpt>
      <trkpt lat="38.667414151132106781005859375" lon="0.008304454386234283447265625">
        <ele>219.8000030517578125</ele>
        <time>2020-03-04T16:57:51.000Z</time>
      </trkpt>
      <trkpt lat="38.6674770154058933258056640625" lon="0.00827570445835590362548828125">
        <ele>218.600006103515625</ele>
        <time>2020-03-04T16:57:53.000Z</time>
      </trkpt>
      <trkpt lat="38.66752873174846172332763671875" lon="0.008209235966205596923828125">
        <ele>217</ele>
        <time>2020-03-04T16:57:55.000Z</time>
      </trkpt>
      <trkpt lat="38.66754884831607341766357421875" lon="0.00816640444099903106689453125">
        <ele>216.1999969482421875</ele>
        <time>2020-03-04T16:57:56.000Z</time>
      </trkpt>
      <trkpt lat="38.66756946779787540435791015625" lon="0.00812114216387271881103515625">
        <ele>215.399993896484375</ele>
        <time>2020-03-04T16:57:57.000Z</time>
      </trkpt>
      <trkpt lat="38.6676168255507946014404296875" lon="0.0080358982086181640625">
        <ele>214</ele>
        <time>2020-03-04T16:57:59.000Z</time>
      </trkpt>
      <trkpt lat="38.66767407394945621490478515625" lon="0.00794713385403156280517578125">
        <ele>212.399993896484375</ele>
        <time>2020-03-04T16:58:01.000Z</time>
      </trkpt>
      <trkpt lat="38.66770927794277667999267578125" lon="0.0079140253365039825439453125">
        <ele>211.8000030517578125</ele>
        <time>2020-03-04T16:58:02.000Z</time>
      </trkpt>
      <trkpt lat="38.6677633412182331085205078125" lon="0.007851161062717437744140625">
        <ele>211</ele>
        <time>2020-03-04T16:58:04.000Z</time>
      </trkpt>
      <trkpt lat="38.66780650801956653594970703125" lon="0.007774047553539276123046875">
        <ele>210.1999969482421875</ele>
        <time>2020-03-04T16:58:06.000Z</time>
      </trkpt>
      <trkpt lat="38.6678397841751575469970703125" lon="0.00774160958826541900634765625">
        <ele>209.399993896484375</ele>
        <time>2020-03-04T16:58:07.000Z</time>
      </trkpt>
      <trkpt lat="38.66791815496981143951416015625" lon="0.007703304290771484375">
        <ele>208.1999969482421875</ele>
        <time>2020-03-04T16:58:09.000Z</time>
      </trkpt>
      <trkpt lat="38.66802871227264404296875" lon="0.007613115012645721435546875">
        <ele>206.8000030517578125</ele>
        <time>2020-03-04T16:58:12.000Z</time>
      </trkpt>
      <trkpt lat="38.6680660955607891082763671875" lon="0.00756810419261455535888671875">
        <ele>206.600006103515625</ele>
        <time>2020-03-04T16:58:13.000Z</time>
      </trkpt>
      <trkpt lat="38.6681388504803180694580078125" lon="0.00744757242500782012939453125">
        <ele>205.600006103515625</ele>
        <time>2020-03-04T16:58:15.000Z</time>
      </trkpt>
      <trkpt lat="38.66818226873874664306640625" lon="0.00738990493118762969970703125">
        <ele>205</ele>
        <time>2020-03-04T16:58:16.000Z</time>
      </trkpt>
      <trkpt lat="38.6682340689003467559814453125" lon="0.00733248889446258544921875">
        <ele>204.399993896484375</ele>
        <time>2020-03-04T16:58:17.000Z</time>
      </trkpt>
      <trkpt lat="38.66828578524291515350341796875" lon="0.0072692893445491790771484375">
        <ele>203.600006103515625</ele>
        <time>2020-03-04T16:58:18.000Z</time>
      </trkpt>
      <trkpt lat="38.668340183794498443603515625" lon="0.00720432959496974945068359375">
        <ele>202.600006103515625</ele>
        <time>2020-03-04T16:58:19.000Z</time>
      </trkpt>
      <trkpt lat="38.66844856180250644683837890625" lon="0.0071157328784465789794921875">
        <ele>201.600006103515625</ele>
        <time>2020-03-04T16:58:21.000Z</time>
      </trkpt>
      <trkpt lat="38.6685314588248729705810546875" lon="0.0070225261151790618896484375">
        <ele>200.600006103515625</ele>
        <time>2020-03-04T16:58:23.000Z</time>
      </trkpt>
      <trkpt lat="38.66855786181986331939697265625" lon="0.0069645233452320098876953125">
        <ele>199.8000030517578125</ele>
        <time>2020-03-04T16:58:24.000Z</time>
      </trkpt>
      <trkpt lat="38.66860069334506988525390625" lon="0.006850026547908782958984375">
        <ele>198.600006103515625</ele>
        <time>2020-03-04T16:58:26.000Z</time>
      </trkpt>
      <trkpt lat="38.66863933391869068145751953125" lon="0.00672790221869945526123046875">
        <ele>197.600006103515625</ele>
        <time>2020-03-04T16:58:28.000Z</time>
      </trkpt>
      <trkpt lat="38.668662048876285552978515625" lon="0.0066587515175342559814453125">
        <ele>197.1999969482421875</ele>
        <time>2020-03-04T16:58:29.000Z</time>
      </trkpt>
      <trkpt lat="38.668755926191806793212890625" lon="0.00647979788482189178466796875">
        <ele>196</ele>
        <time>2020-03-04T16:58:32.000Z</time>
      </trkpt>
      <trkpt lat="38.66878149099647998809814453125" lon="0.00643394887447357177734375">
        <ele>195.600006103515625</ele>
        <time>2020-03-04T16:58:33.000Z</time>
      </trkpt>
      <trkpt lat="38.668813593685626983642578125" lon="0.00633780844509601593017578125">
        <ele>194.399993896484375</ele>
        <time>2020-03-04T16:58:35.000Z</time>
      </trkpt>
      <trkpt lat="38.6688375659286975860595703125" lon="0.0062886066734790802001953125">
        <ele>193.8000030517578125</ele>
        <time>2020-03-04T16:58:36.000Z</time>
      </trkpt>
      <trkpt lat="38.6688749492168426513671875" lon="0.00623806379735469818115234375">
        <ele>193</ele>
        <time>2020-03-04T16:58:37.000Z</time>
      </trkpt>
      <trkpt lat="38.66891224868595600128173828125" lon="0.0061829946935176849365234375">
        <ele>192.600006103515625</ele>
        <time>2020-03-04T16:58:38.000Z</time>
      </trkpt>
      <trkpt lat="38.66894896142184734344482421875" lon="0.00612256117165088653564453125">
        <ele>192</ele>
        <time>2020-03-04T16:58:39.000Z</time>
      </trkpt>
      <trkpt lat="38.6689810641109943389892578125" lon="0.0060586072504520416259765625">
        <ele>191.600006103515625</ele>
        <time>2020-03-04T16:58:40.000Z</time>
      </trkpt>
      <trkpt lat="38.66904032416641712188720703125" lon="0.00593882985413074493408203125">
        <ele>190.8000030517578125</ele>
        <time>2020-03-04T16:58:42.000Z</time>
      </trkpt>
      <trkpt lat="38.66910838522017002105712890625" lon="0.00581972301006317138671875">
        <ele>189.600006103515625</ele>
        <time>2020-03-04T16:58:44.000Z</time>
      </trkpt>
      <trkpt lat="38.669148199260234832763671875" lon="0.005769431591033935546875">
        <ele>189.1999969482421875</ele>
        <time>2020-03-04T16:58:45.000Z</time>
      </trkpt>
      <trkpt lat="38.669245429337024688720703125" lon="0.0057042203843593597412109375">
        <ele>188.1999969482421875</ele>
        <time>2020-03-04T16:58:47.000Z</time>
      </trkpt>
      <trkpt lat="38.66937945596873760223388671875" lon="0.00570246018469333648681640625">
        <ele>186.8000030517578125</ele>
        <time>2020-03-04T16:58:49.000Z</time>
      </trkpt>
      <trkpt lat="38.6694494448602199554443359375" lon="0.00571100972592830657958984375">
        <ele>186.399993896484375</ele>
        <time>2020-03-04T16:58:50.000Z</time>
      </trkpt>
      <trkpt lat="38.669512309134006500244140625" lon="0.0057263486087322235107421875">
        <ele>186.1999969482421875</ele>
        <time>2020-03-04T16:58:51.000Z</time>
      </trkpt>
      <trkpt lat="38.6695714853703975677490234375" lon="0.0057508237659931182861328125">
        <ele>186</ele>
        <time>2020-03-04T16:58:52.000Z</time>
      </trkpt>
      <trkpt lat="38.669667206704616546630859375" lon="0.0058141909539699554443359375">
        <ele>185.8000030517578125</ele>
        <time>2020-03-04T16:58:54.000Z</time>
      </trkpt>
      <trkpt lat="38.66984582506120204925537109375" lon="0.005976296961307525634765625">
        <ele>185.600006103515625</ele>
        <time>2020-03-04T16:58:58.000Z</time>
      </trkpt>
      <trkpt lat="38.669952861964702606201171875" lon="0.0060750357806682586669921875">
        <ele>185.399993896484375</ele>
        <time>2020-03-04T16:59:00.000Z</time>
      </trkpt>
      <trkpt lat="38.67014757357537746429443359375" lon="0.0062346272170543670654296875">
        <ele>185</ele>
        <time>2020-03-04T16:59:03.000Z</time>
      </trkpt>
      <trkpt lat="38.67020876146852970123291015625" lon="0.00628533773124217987060546875">
        <ele>185</ele>
        <time>2020-03-04T16:59:04.000Z</time>
      </trkpt>
      <trkpt lat="38.67025201208889484405517578125" lon="0.00635490752756595611572265625">
        <ele>184.8000030517578125</ele>
        <time>2020-03-04T16:59:05.000Z</time>
      </trkpt>
      <trkpt lat="38.67027665488421916961669921875" lon="0.0064394809305667877197265625">
        <ele>184.8000030517578125</ele>
        <time>2020-03-04T16:59:06.000Z</time>
      </trkpt>
      <trkpt lat="38.67030113004148006439208984375" lon="0.00661608763039112091064453125">
        <ele>184.8000030517578125</ele>
        <time>2020-03-04T16:59:08.000Z</time>
      </trkpt>
      <trkpt lat="38.6703268624842166900634765625" lon="0.00679068267345428466796875">
        <ele>184.1999969482421875</ele>
        <time>2020-03-04T16:59:10.000Z</time>
      </trkpt>
      <trkpt lat="38.67034505121409893035888671875" lon="0.006874836981296539306640625">
        <ele>183.600006103515625</ele>
        <time>2020-03-04T16:59:11.000Z</time>
      </trkpt>
      <trkpt lat="38.67037254385650157928466796875" lon="0.00695505179464817047119140625">
        <ele>182.600006103515625</ele>
        <time>2020-03-04T16:59:12.000Z</time>
      </trkpt>
      <trkpt lat="38.67045787163078784942626953125" lon="0.007100142538547515869140625">
        <ele>181</ele>
        <time>2020-03-04T16:59:14.000Z</time>
      </trkpt>
      <trkpt lat="38.67051822133362293243408203125" lon="0.00714967958629131317138671875">
        <ele>180.399993896484375</ele>
        <time>2020-03-04T16:59:15.000Z</time>
      </trkpt>
      <trkpt lat="38.67058527655899524688720703125" lon="0.00717583112418651580810546875">
        <ele>179.8000030517578125</ele>
        <time>2020-03-04T16:59:16.000Z</time>
      </trkpt>
      <trkpt lat="38.67072978056967258453369140625" lon="0.007194019854068756103515625">
        <ele>179.399993896484375</ele>
        <time>2020-03-04T16:59:18.000Z</time>
      </trkpt>
      <trkpt lat="38.670877553522586822509765625" lon="0.00721606425940990447998046875">
        <ele>179</ele>
        <time>2020-03-04T16:59:20.000Z</time>
      </trkpt>
      <trkpt lat="38.67102214135229587554931640625" lon="0.00726803205907344818115234375">
        <ele>178.600006103515625</ele>
        <time>2020-03-04T16:59:22.000Z</time>
      </trkpt>
      <trkpt lat="38.6710926331579685211181640625" lon="0.0073024816811084747314453125">
        <ele>178.399993896484375</ele>
        <time>2020-03-04T16:59:23.000Z</time>
      </trkpt>
      <trkpt lat="38.671357668936252593994140625" lon="0.0074878893792629241943359375">
        <ele>177.399993896484375</ele>
        <time>2020-03-04T16:59:27.000Z</time>
      </trkpt>
      <trkpt lat="38.67148867808282375335693359375" lon="0.0075810961425304412841796875">
        <ele>177.1999969482421875</ele>
        <time>2020-03-04T16:59:29.000Z</time>
      </trkpt>
      <trkpt lat="38.671813309192657470703125" lon="0.00774010084569454193115234375">
        <ele>177</ele>
        <time>2020-03-04T16:59:34.000Z</time>
      </trkpt>
      <trkpt lat="38.672013469040393829345703125" lon="0.00777312554419040679931640625">
        <ele>176.8000030517578125</ele>
        <time>2020-03-04T16:59:37.000Z</time>
      </trkpt>
      <trkpt lat="38.6720880679786205291748046875" lon="0.00776725821197032928466796875">
        <ele>176.600006103515625</ele>
        <time>2020-03-04T16:59:38.000Z</time>
      </trkpt>
      <trkpt lat="38.6722491681575775146484375" lon="0.00775619409978389739990234375">
        <ele>176.600006103515625</ele>
        <time>2020-03-04T16:59:40.000Z</time>
      </trkpt>
      <trkpt lat="38.672411777079105377197265625" lon="0.00777237117290496826171875">
        <ele>176.399993896484375</ele>
        <time>2020-03-04T16:59:42.000Z</time>
      </trkpt>
      <trkpt lat="38.6726271919906139373779296875" lon="0.00791880302131175994873046875">
        <ele>176</ele>
        <time>2020-03-04T16:59:45.000Z</time>
      </trkpt>
      <trkpt lat="38.672683350741863250732421875" lon="0.0080104172229766845703125">
        <ele>175.399993896484375</ele>
        <time>2020-03-04T16:59:46.000Z</time>
      </trkpt>
      <trkpt lat="38.67272383533418178558349609375" lon="0.00812164507806301116943359375">
        <ele>174.8000030517578125</ele>
        <time>2020-03-04T16:59:47.000Z</time>
      </trkpt>
      <trkpt lat="38.6727509088814258575439453125" lon="0.00824050046503543853759765625">
        <ele>174</ele>
        <time>2020-03-04T16:59:48.000Z</time>
      </trkpt>
      <trkpt lat="38.6727649904787540435791015625" lon="0.0083619542419910430908203125">
        <ele>173.399993896484375</ele>
        <time>2020-03-04T16:59:49.000Z</time>
      </trkpt>
      <trkpt lat="38.67276155389845371246337890625" lon="0.0084876827895641326904296875">
        <ele>173</ele>
        <time>2020-03-04T16:59:50.000Z</time>
      </trkpt>
      <trkpt lat="38.672739006578922271728515625" lon="0.00862003304064273834228515625">
        <ele>172.600006103515625</ele>
        <time>2020-03-04T16:59:51.000Z</time>
      </trkpt>
      <trkpt lat="38.67269776761531829833984375" lon="0.008746683597564697265625">
        <ele>172</ele>
        <time>2020-03-04T16:59:52.000Z</time>
      </trkpt>
      <trkpt lat="38.6726412735879421234130859375" lon="0.0088621862232685089111328125">
        <ele>171</ele>
        <time>2020-03-04T16:59:53.000Z</time>
      </trkpt>
      <trkpt lat="38.67258067242801189422607421875" lon="0.008968971669673919677734375">
        <ele>169.8000030517578125</ele>
        <time>2020-03-04T16:59:54.000Z</time>
      </trkpt>
      <trkpt lat="38.67253683507442474365234375" lon="0.00906913541257381439208984375">
        <ele>169</ele>
        <time>2020-03-04T16:59:55.000Z</time>
      </trkpt>
      <trkpt lat="38.6725356616079807281494140625" lon="0.009159743785858154296875">
        <ele>168.1999969482421875</ele>
        <time>2020-03-04T16:59:56.000Z</time>
      </trkpt>
      <trkpt lat="38.67259676568210124969482421875" lon="0.0093379430472850799560546875">
        <ele>166.8000030517578125</ele>
        <time>2020-03-04T16:59:58.000Z</time>
      </trkpt>
      <trkpt lat="38.67263666354119777679443359375" lon="0.00942192971706390380859375">
        <ele>165.600006103515625</ele>
        <time>2020-03-04T16:59:59.000Z</time>
      </trkpt>
      <trkpt lat="38.67268846370279788970947265625" lon="0.0094961933791637420654296875">
        <ele>164.1999969482421875</ele>
        <time>2020-03-04T17:00:00.000Z</time>
      </trkpt>
      <trkpt lat="38.672753758728504180908203125" lon="0.00954807735979557037353515625">
        <ele>162.600006103515625</ele>
        <time>2020-03-04T17:00:01.000Z</time>
      </trkpt>
      <trkpt lat="38.6728303693234920501708984375" lon="0.0095766596496105194091796875">
        <ele>161.399993896484375</ele>
        <time>2020-03-04T17:00:02.000Z</time>
      </trkpt>
      <trkpt lat="38.672985769808292388916015625" lon="0.00958562828600406646728515625">
        <ele>160</ele>
        <time>2020-03-04T17:00:04.000Z</time>
      </trkpt>
      <trkpt lat="38.67306313477456569671630859375" lon="0.0095753185451030731201171875">
        <ele>159.8000030517578125</ele>
        <time>2020-03-04T17:00:05.000Z</time>
      </trkpt>
      <trkpt lat="38.67321685887873172760009765625" lon="0.00953726470470428466796875">
        <ele>159.399993896484375</ele>
        <time>2020-03-04T17:00:07.000Z</time>
      </trkpt>
      <trkpt lat="38.67336706258356571197509765625" lon="0.00949393026530742645263671875">
        <ele>159</ele>
        <time>2020-03-04T17:00:09.000Z</time>
      </trkpt>
      <trkpt lat="38.673526905477046966552734375" lon="0.009448416531085968017578125">
        <ele>158</ele>
        <time>2020-03-04T17:00:11.000Z</time>
      </trkpt>
      <trkpt lat="38.67361147888004779815673828125" lon="0.00942754559218883514404296875">
        <ele>157.8000030517578125</ele>
        <time>2020-03-04T17:00:12.000Z</time>
      </trkpt>
      <trkpt lat="38.67387517355382442474365234375" lon="0.0093288905918598175048828125">
        <ele>157.600006103515625</ele>
        <time>2020-03-04T17:00:15.000Z</time>
      </trkpt>
      <trkpt lat="38.6741428077220916748046875" lon="0.00917776487767696380615234375">
        <ele>157</ele>
        <time>2020-03-04T17:00:18.000Z</time>
      </trkpt>
      <trkpt lat="38.674232326447963714599609375" lon="0.00912965275347232818603515625">
        <ele>156.600006103515625</ele>
        <time>2020-03-04T17:00:19.000Z</time>
      </trkpt>
      <trkpt lat="38.67432092316448688507080078125" lon="0.00909042544662952423095703125">
        <ele>155.8000030517578125</ele>
        <time>2020-03-04T17:00:20.000Z</time>
      </trkpt>
      <trkpt lat="38.6744091846048831939697265625" lon="0.0090680457651615142822265625">
        <ele>155</ele>
        <time>2020-03-04T17:00:21.000Z</time>
      </trkpt>
      <trkpt lat="38.67457665503025054931640625" lon="0.0090817920863628387451171875">
        <ele>153.399993896484375</ele>
        <time>2020-03-04T17:00:23.000Z</time>
      </trkpt>
      <trkpt lat="38.67471302859485149383544921875" lon="0.00916519202291965484619140625">
        <ele>151.399993896484375</ele>
        <time>2020-03-04T17:00:25.000Z</time>
      </trkpt>
      <trkpt lat="38.67476298473775386810302734375" lon="0.00923710875213146209716796875">
        <ele>150.600006103515625</ele>
        <time>2020-03-04T17:00:26.000Z</time>
      </trkpt>
      <trkpt lat="38.67479265667498111724853515625" lon="0.009333752095699310302734375">
        <ele>149.8000030517578125</ele>
        <time>2020-03-04T17:00:27.000Z</time>
      </trkpt>
      <trkpt lat="38.67479600943624973297119140625" lon="0.00955847091972827911376953125">
        <ele>148.399993896484375</ele>
        <time>2020-03-04T17:00:29.000Z</time>
      </trkpt>
      <trkpt lat="38.67477706633508205413818359375" lon="0.0096809305250644683837890625">
        <ele>147.600006103515625</ele>
        <time>2020-03-04T17:00:30.000Z</time>
      </trkpt>
      <trkpt lat="38.674761392176151275634765625" lon="0.00981177203357219696044921875">
        <ele>147</ele>
        <time>2020-03-04T17:00:31.000Z</time>
      </trkpt>
      <trkpt lat="38.67475426755845546722412109375" lon="0.01008569262921810150146484375">
        <ele>145.1999969482421875</ele>
        <time>2020-03-04T17:00:33.000Z</time>
      </trkpt>
      <trkpt lat="38.67482006549835205078125" lon="0.01033849082887172698974609375">
        <ele>143.600006103515625</ele>
        <time>2020-03-04T17:00:35.000Z</time>
      </trkpt>
      <trkpt lat="38.67488418705761432647705078125" lon="0.0104363076388835906982421875">
        <ele>142.8000030517578125</ele>
        <time>2020-03-04T17:00:36.000Z</time>
      </trkpt>
      <trkpt lat="38.674962557852268218994140625" lon="0.01050629653036594390869140625">
        <ele>142</ele>
        <time>2020-03-04T17:00:37.000Z</time>
      </trkpt>
      <trkpt lat="38.675045035779476165771484375" lon="0.01055692322552204132080078125">
        <ele>141</ele>
        <time>2020-03-04T17:00:38.000Z</time>
      </trkpt>
      <trkpt lat="38.67512843571603298187255859375" lon="0.01059539616107940673828125">
        <ele>139.600006103515625</ele>
        <time>2020-03-04T17:00:39.000Z</time>
      </trkpt>
      <trkpt lat="38.67521275766193866729736328125" lon="0.01062833704054355621337890625">
        <ele>136.8000030517578125</ele>
        <time>2020-03-04T17:00:40.000Z</time>
      </trkpt>
      <trkpt lat="38.675391711294651031494140625" lon="0.010706372559070587158203125">
        <ele>135</ele>
        <time>2020-03-04T17:00:42.000Z</time>
      </trkpt>
      <trkpt lat="38.67547611705958843231201171875" lon="0.01077066175639629364013671875">
        <ele>134.1999969482421875</ele>
        <time>2020-03-04T17:00:43.000Z</time>
      </trkpt>
      <trkpt lat="38.67555775679647922515869140625" lon="0.0108486972749233245849609375">
        <ele>133.399993896484375</ele>
        <time>2020-03-04T17:00:44.000Z</time>
      </trkpt>
      <trkpt lat="38.6756877601146697998046875" lon="0.01103821210563182830810546875">
        <ele>132.8000030517578125</ele>
        <time>2020-03-04T17:00:46.000Z</time>
      </trkpt>
      <trkpt lat="38.675781302154064178466796875" lon="0.01125748269259929656982421875">
        <ele>132.1999969482421875</ele>
        <time>2020-03-04T17:00:48.000Z</time>
      </trkpt>
      <trkpt lat="38.67586134932935237884521484375" lon="0.011480860412120819091796875">
        <ele>131.1999969482421875</ele>
        <time>2020-03-04T17:00:50.000Z</time>
      </trkpt>
      <trkpt lat="38.67592471651732921600341796875" lon="0.011706165969371795654296875">
        <ele>129.399993896484375</ele>
        <time>2020-03-04T17:00:52.000Z</time>
      </trkpt>
      <trkpt lat="38.675982467830181121826171875" lon="0.011928789317607879638671875">
        <ele>128</ele>
        <time>2020-03-04T17:00:54.000Z</time>
      </trkpt>
      <trkpt lat="38.6760423146188259124755859375" lon="0.0121435336768627166748046875">
        <ele>127.40000152587890625</ele>
        <time>2020-03-04T17:00:56.000Z</time>
      </trkpt>
      <trkpt lat="38.6760969646275043487548828125" lon="0.01235132105648517608642578125">
        <ele>127</ele>
        <time>2020-03-04T17:00:58.000Z</time>
      </trkpt>
      <trkpt lat="38.67611825466156005859375" lon="0.012455172836780548095703125">
        <ele>126.8000030517578125</ele>
        <time>2020-03-04T17:00:59.000Z</time>
      </trkpt>
      <trkpt lat="38.6761442385613918304443359375" lon="0.0126625411212444305419921875">
        <ele>126.8000030517578125</ele>
        <time>2020-03-04T17:01:01.000Z</time>
      </trkpt>
      <trkpt lat="38.676166869699954986572265625" lon="0.01283043064177036285400390625">
        <ele>126.59999847412109375</ele>
        <time>2020-03-04T17:01:03.000Z</time>
      </trkpt>
      <trkpt lat="38.67619897238910198211669921875" lon="0.01290335319936275482177734375">
        <ele>126.59999847412109375</ele>
        <time>2020-03-04T17:01:04.000Z</time>
      </trkpt>
      <trkpt lat="38.676368035376071929931640625" lon="0.013057328760623931884765625">
        <ele>126.40000152587890625</ele>
        <time>2020-03-04T17:01:07.000Z</time>
      </trkpt>
      <trkpt lat="38.67663349024951457977294921875" lon="0.013064704835414886474609375">
        <ele>126</ele>
        <time>2020-03-04T17:01:10.000Z</time>
      </trkpt>
      <trkpt lat="38.67673139087855815887451171875" lon="0.013060010969638824462890625">
        <ele>125.59999847412109375</ele>
        <time>2020-03-04T17:01:11.000Z</time>
      </trkpt>
      <trkpt lat="38.67689332924783229827880859375" lon="0.0130878388881683349609375">
        <ele>123.8000030517578125</ele>
        <time>2020-03-04T17:01:13.000Z</time>
      </trkpt>
      <trkpt lat="38.67695770226418972015380859375" lon="0.01312664709985256195068359375">
        <ele>122.8000030517578125</ele>
        <time>2020-03-04T17:01:14.000Z</time>
      </trkpt>
      <trkpt lat="38.67707781493663787841796875" lon="0.01324600540101528167724609375">
        <ele>121</ele>
        <time>2020-03-04T17:01:16.000Z</time>
      </trkpt>
      <trkpt lat="38.67713707499206066131591796875" lon="0.01331356354057788848876953125">
        <ele>119.59999847412109375</ele>
        <time>2020-03-04T17:01:17.000Z</time>
      </trkpt>
      <trkpt lat="38.6772005259990692138671875" lon="0.01337542198598384857177734375">
        <ele>118.1999969482421875</ele>
        <time>2020-03-04T17:01:18.000Z</time>
      </trkpt>
      <trkpt lat="38.67725743912160396575927734375" lon="0.013429485261440277099609375">
        <ele>116.59999847412109375</ele>
        <time>2020-03-04T17:01:19.000Z</time>
      </trkpt>
      <trkpt lat="38.677314184606075286865234375" lon="0.0134883262217044830322265625">
        <ele>115.40000152587890625</ele>
        <time>2020-03-04T17:01:20.000Z</time>
      </trkpt>
      <trkpt lat="38.67739389650523662567138671875" lon="0.01361749134957790374755859375">
        <ele>114</ele>
        <time>2020-03-04T17:01:22.000Z</time>
      </trkpt>
      <trkpt lat="38.67744117043912410736083984375" lon="0.01374120824038982391357421875">
        <ele>112.59999847412109375</ele>
        <time>2020-03-04T17:01:24.000Z</time>
      </trkpt>
      <trkpt lat="38.6774565093219280242919921875" lon="0.01379703171551227569580078125">
        <ele>112</ele>
        <time>2020-03-04T17:01:25.000Z</time>
      </trkpt>
      <trkpt lat="38.67746195755898952484130859375" lon="0.0138524360954761505126953125">
        <ele>111.8000030517578125</ele>
        <time>2020-03-04T17:01:26.000Z</time>
      </trkpt>
      <trkpt lat="38.6774608679115772247314453125" lon="0.0139101035892963409423828125">
        <ele>111.59999847412109375</ele>
        <time>2020-03-04T17:01:27.000Z</time>
      </trkpt>
      <trkpt lat="38.67745868861675262451171875" lon="0.013971291482448577880859375">
        <ele>111.59999847412109375</ele>
        <time>2020-03-04T17:01:28.000Z</time>
      </trkpt>
      <trkpt lat="38.67744368501007556915283203125" lon="0.014160387217998504638671875">
        <ele>111.40000152587890625</ele>
        <time>2020-03-04T17:01:31.000Z</time>
      </trkpt>
      <trkpt lat="38.67743723094463348388671875" lon="0.01422576606273651123046875">
        <ele>111.40000152587890625</ele>
        <time>2020-03-04T17:01:32.000Z</time>
      </trkpt>
      <trkpt lat="38.67741979658603668212890625" lon="0.01434654928743839263916015625">
        <ele>111.40000152587890625</ele>
        <time>2020-03-04T17:01:34.000Z</time>
      </trkpt>
      <trkpt lat="38.67736087180674076080322265625" lon="0.01457537524402141571044921875">
        <ele>111.8000030517578125</ele>
        <time>2020-03-04T17:01:38.000Z</time>
      </trkpt>
      <trkpt lat="38.6773394979536533355712890625" lon="0.0146220624446868896484375">
        <ele>111.8000030517578125</ele>
        <time>2020-03-04T17:01:39.000Z</time>
      </trkpt>
      <trkpt lat="38.67728744633495807647705078125" lon="0.01468601636588573455810546875">
        <ele>112</ele>
        <time>2020-03-04T17:01:41.000Z</time>
      </trkpt>
      <trkpt lat="38.677260875701904296875" lon="0.0147037021815776824951171875">
        <ele>112</ele>
        <time>2020-03-04T17:01:42.000Z</time>
      </trkpt>
      <trkpt lat="38.677202872931957244873046875" lon="0.014719627797603607177734375">
        <ele>112.1999969482421875</ele>
        <time>2020-03-04T17:01:44.000Z</time>
      </trkpt>
      <trkpt lat="38.6771483905613422393798828125" lon="0.01472004689276218414306640625">
        <ele>112.8000030517578125</ele>
        <time>2020-03-04T17:01:46.000Z</time>
      </trkpt>
      <trkpt lat="38.67712249048054218292236328125" lon="0.01471367664635181427001953125">
        <ele>113.1999969482421875</ele>
        <time>2020-03-04T17:01:47.000Z</time>
      </trkpt>
      <trkpt lat="38.67706918157637119293212890625" lon="0.01469423063099384307861328125">
        <ele>113.8000030517578125</ele>
        <time>2020-03-04T17:01:49.000Z</time>
      </trkpt>
      <trkpt lat="38.67698770947754383087158203125" lon="0.01469473354518413543701171875">
        <ele>115.1999969482421875</ele>
        <time>2020-03-04T17:01:52.000Z</time>
      </trkpt>
      <trkpt lat="38.67689366452395915985107421875" lon="0.01474083401262760162353515625">
        <ele>116.40000152587890625</ele>
        <time>2020-03-04T17:01:56.000Z</time>
      </trkpt>
      <trkpt lat="38.67685074917972087860107421875" lon="0.01477687619626522064208984375">
        <ele>117</ele>
        <time>2020-03-04T17:01:58.000Z</time>
      </trkpt>
      <trkpt lat="38.67682979442179203033447265625" lon="0.0147950649261474609375">
        <ele>117.40000152587890625</ele>
        <time>2020-03-04T17:01:59.000Z</time>
      </trkpt>
      <trkpt lat="38.67673776112496852874755859375" lon="0.014921128749847412109375">
        <ele>118.59999847412109375</ele>
        <time>2020-03-04T17:02:04.000Z</time>
      </trkpt>
      <trkpt lat="38.67671747691929340362548828125" lon="0.014953315258026123046875">
        <ele>118.8000030517578125</ele>
        <time>2020-03-04T17:02:05.000Z</time>
      </trkpt>
      <trkpt lat="38.67663918994367122650146484375" lon="0.0151580013334751129150390625">
        <ele>119</ele>
        <time>2020-03-04T17:02:10.000Z</time>
      </trkpt>
      <trkpt lat="38.67663349024951457977294921875" lon="0.0152173452079296112060546875">
        <ele>119</ele>
        <time>2020-03-04T17:02:11.000Z</time>
      </trkpt>
      <trkpt lat="38.67659660987555980682373046875" lon="0.015425719320774078369140625">
        <ele>119</ele>
        <time>2020-03-04T17:02:14.000Z</time>
      </trkpt>
      <trkpt lat="38.67657221853733062744140625" lon="0.01549889333546161651611328125">
        <ele>119</ele>
        <time>2020-03-04T17:02:15.000Z</time>
      </trkpt>
      <trkpt lat="38.6764416284859180450439453125" lon="0.01569754444062709808349609375">
        <ele>118.8000030517578125</ele>
        <time>2020-03-04T17:02:18.000Z</time>
      </trkpt>
      <trkpt lat="38.6763517744839191436767578125" lon="0.0158278830349445343017578125">
        <ele>118.40000152587890625</ele>
        <time>2020-03-04T17:02:20.000Z</time>
      </trkpt>
      <trkpt lat="38.676270805299282073974609375" lon="0.0159542821347713470458984375">
        <ele>117.40000152587890625</ele>
        <time>2020-03-04T17:02:22.000Z</time>
      </trkpt>
      <trkpt lat="38.6761596612632274627685546875" lon="0.0161621533334255218505859375">
        <ele>116</ele>
        <time>2020-03-04T17:02:25.000Z</time>
      </trkpt>
      <trkpt lat="38.676071651279926300048828125" lon="0.01637748442590236663818359375">
        <ele>115.40000152587890625</ele>
        <time>2020-03-04T17:02:28.000Z</time>
      </trkpt>
      <trkpt lat="38.6760315857827663421630859375" lon="0.016529448330402374267578125">
        <ele>115.1999969482421875</ele>
        <time>2020-03-04T17:02:30.000Z</time>
      </trkpt>
      <trkpt lat="38.67596595548093318939208984375" lon="0.016754083335399627685546875">
        <ele>115.1999969482421875</ele>
        <time>2020-03-04T17:02:33.000Z</time>
      </trkpt>
      <trkpt lat="38.6759372055530548095703125" lon="0.01682373695075511932373046875">
        <ele>115</ele>
        <time>2020-03-04T17:02:34.000Z</time>
      </trkpt>
      <trkpt lat="38.675873838365077972412109375" lon="0.01695625483989715576171875">
        <ele>115</ele>
        <time>2020-03-04T17:02:36.000Z</time>
      </trkpt>
      <trkpt lat="38.6756889335811138153076171875" lon="0.0173983164131641387939453125">
        <ele>114.8000030517578125</ele>
        <time>2020-03-04T17:02:42.000Z</time>
      </trkpt>
      <trkpt lat="38.67548936046659946441650390625" lon="0.0178298167884349822998046875">
        <ele>114.40000152587890625</ele>
        <time>2020-03-04T17:02:48.000Z</time>
      </trkpt>
      <trkpt lat="38.6753617040812969207763671875" lon="0.01817263662815093994140625">
        <ele>114</ele>
        <time>2020-03-04T17:02:53.000Z</time>
      </trkpt>
      <trkpt lat="38.6753422580659389495849609375" lon="0.01824815757572650909423828125">
        <ele>114</ele>
        <time>2020-03-04T17:02:54.000Z</time>
      </trkpt>
      <trkpt lat="38.6753305234014987945556640625" lon="0.01832426525652408599853515625">
        <ele>113.8000030517578125</ele>
        <time>2020-03-04T17:02:55.000Z</time>
      </trkpt>
      <trkpt lat="38.67530110292136669158935546875" lon="0.01858527772128582000732421875">
        <ele>113.8000030517578125</ele>
        <time>2020-03-04T17:02:58.000Z</time>
      </trkpt>
      <trkpt lat="38.6752825789153575897216796875" lon="0.0186767242848873138427734375">
        <ele>113.8000030517578125</ele>
        <time>2020-03-04T17:02:59.000Z</time>
      </trkpt>
      <trkpt lat="38.67521342821419239044189453125" lon="0.0189308635890483856201171875">
        <ele>113.40000152587890625</ele>
        <time>2020-03-04T17:03:02.000Z</time>
      </trkpt>
      <trkpt lat="38.67512290365993976593017578125" lon="0.019162707030773162841796875">
        <ele>112.59999847412109375</ele>
        <time>2020-03-04T17:03:05.000Z</time>
      </trkpt>
      <trkpt lat="38.67496079765260219573974609375" lon="0.019477196037769317626953125">
        <ele>112</ele>
        <time>2020-03-04T17:03:10.000Z</time>
      </trkpt>
      <trkpt lat="38.67477941326797008514404296875" lon="0.01983602531254291534423828125">
        <ele>112</ele>
        <time>2020-03-04T17:03:17.000Z</time>
      </trkpt>
      <trkpt lat="38.67453650571405887603759765625" lon="0.02039493061602115631103515625">
        <ele>112.40000152587890625</ele>
        <time>2020-03-04T17:03:25.000Z</time>
      </trkpt>
      <trkpt lat="38.67451739497482776641845703125" lon="0.02048847265541553497314453125">
        <ele>112.40000152587890625</ele>
        <time>2020-03-04T17:03:26.000Z</time>
      </trkpt>
      <trkpt lat="38.67450063116848468780517578125" lon="0.02058788202702999114990234375">
        <ele>112.40000152587890625</ele>
        <time>2020-03-04T17:03:27.000Z</time>
      </trkpt>
      <trkpt lat="38.67448437027633190155029296875" lon="0.020699612796306610107421875">
        <ele>112.40000152587890625</ele>
        <time>2020-03-04T17:03:28.000Z</time>
      </trkpt>
      <trkpt lat="38.67446601390838623046875" lon="0.02082131803035736083984375">
        <ele>112.1999969482421875</ele>
        <time>2020-03-04T17:03:29.000Z</time>
      </trkpt>
      <trkpt lat="38.67444011382758617401123046875" lon="0.0209448672831058502197265625">
        <ele>111.8000030517578125</ele>
        <time>2020-03-04T17:03:30.000Z</time>
      </trkpt>
      <trkpt lat="38.6743625812232494354248046875" lon="0.0212001800537109375">
        <ele>111.1999969482421875</ele>
        <time>2020-03-04T17:03:32.000Z</time>
      </trkpt>
      <trkpt lat="38.67431103251874446868896484375" lon="0.0213324464857578277587890625">
        <ele>110.8000030517578125</ele>
        <time>2020-03-04T17:03:33.000Z</time>
      </trkpt>
      <trkpt lat="38.6741932667791843414306640625" lon="0.021603517234325408935546875">
        <ele>109.8000030517578125</ele>
        <time>2020-03-04T17:03:35.000Z</time>
      </trkpt>
      <trkpt lat="38.67412495426833629608154296875" lon="0.021730251610279083251953125">
        <ele>109.1999969482421875</ele>
        <time>2020-03-04T17:03:36.000Z</time>
      </trkpt>
      <trkpt lat="38.67406368255615234375" lon="0.02186025492846965789794921875">
        <ele>108</ele>
        <time>2020-03-04T17:03:37.000Z</time>
      </trkpt>
      <trkpt lat="38.67400676943361759185791015625" lon="0.021988414227962493896484375">
        <ele>106.8000030517578125</ele>
        <time>2020-03-04T17:03:38.000Z</time>
      </trkpt>
      <trkpt lat="38.673959076404571533203125" lon="0.02212076447904109954833984375">
        <ele>105.40000152587890625</ele>
        <time>2020-03-04T17:03:39.000Z</time>
      </trkpt>
      <trkpt lat="38.67392144165933132171630859375" lon="0.02225755713880062103271484375">
        <ele>103.8000030517578125</ele>
        <time>2020-03-04T17:03:40.000Z</time>
      </trkpt>
      <trkpt lat="38.67389378137886524200439453125" lon="0.02239602617919445037841796875">
        <ele>102</ele>
        <time>2020-03-04T17:03:41.000Z</time>
      </trkpt>
      <trkpt lat="38.6738772690296173095703125" lon="0.022539608180522918701171875">
        <ele>100.40000152587890625</ele>
        <time>2020-03-04T17:03:42.000Z</time>
      </trkpt>
      <trkpt lat="38.67387148551642894744873046875" lon="0.02267095260322093963623046875">
        <ele>99.1999969482421875</ele>
        <time>2020-03-04T17:03:43.000Z</time>
      </trkpt>
      <trkpt lat="38.67386125959455966949462890625" lon="0.0227935798466205596923828125">
        <ele>98.1999969482421875</ele>
        <time>2020-03-04T17:03:44.000Z</time>
      </trkpt>
      <trkpt lat="38.67383711971342563629150390625" lon="0.0229105912148952484130859375">
        <ele>97.59999847412109375</ele>
        <time>2020-03-04T17:03:45.000Z</time>
      </trkpt>
      <trkpt lat="38.67374114692211151123046875" lon="0.02314117737114429473876953125">
        <ele>96.40000152587890625</ele>
        <time>2020-03-04T17:03:47.000Z</time>
      </trkpt>
      <trkpt lat="38.67360862903296947479248046875" lon="0.0233548320829868316650390625">
        <ele>95.40000152587890625</ele>
        <time>2020-03-04T17:03:49.000Z</time>
      </trkpt>
      <trkpt lat="38.67347217164933681488037109375" lon="0.02354837022721767425537109375">
        <ele>94</ele>
        <time>2020-03-04T17:03:51.000Z</time>
      </trkpt>
      <trkpt lat="38.6733399890363216400146484375" lon="0.023716427385807037353515625">
        <ele>92.8000030517578125</ele>
        <time>2020-03-04T17:03:53.000Z</time>
      </trkpt>
      <trkpt lat="38.67326916195452213287353515625" lon="0.02378541044890880584716796875">
        <ele>92.40000152587890625</ele>
        <time>2020-03-04T17:03:54.000Z</time>
      </trkpt>
      <trkpt lat="38.6731964908540248870849609375" lon="0.0238446705043315887451171875">
        <ele>91.8000030517578125</ele>
        <time>2020-03-04T17:03:55.000Z</time>
      </trkpt>
      <trkpt lat="38.67311619222164154052734375" lon="0.0238882564008235931396484375">
        <ele>90.8000030517578125</ele>
        <time>2020-03-04T17:03:56.000Z</time>
      </trkpt>
      <trkpt lat="38.6730332113802433013916015625" lon="0.02392329275608062744140625">
        <ele>90</ele>
        <time>2020-03-04T17:03:57.000Z</time>
      </trkpt>
      <trkpt lat="38.67295014671981334686279296875" lon="0.02394349314272403717041015625">
        <ele>89.1999969482421875</ele>
        <time>2020-03-04T17:03:58.000Z</time>
      </trkpt>
      <trkpt lat="38.67277848534286022186279296875" lon="0.023947767913341522216796875">
        <ele>88.8000030517578125</ele>
        <time>2020-03-04T17:04:00.000Z</time>
      </trkpt>
      <trkpt lat="38.67268343456089496612548828125" lon="0.02394164912402629852294921875">
        <ele>88.59999847412109375</ele>
        <time>2020-03-04T17:04:01.000Z</time>
      </trkpt>
      <trkpt lat="38.67238705046474933624267578125" lon="0.02403485588729381561279296875">
        <ele>88.1999969482421875</ele>
        <time>2020-03-04T17:04:04.000Z</time>
      </trkpt>
      <trkpt lat="38.67229518480598926544189453125" lon="0.024092607200145721435546875">
        <ele>88</ele>
        <time>2020-03-04T17:04:05.000Z</time>
      </trkpt>
      <trkpt lat="38.67210323922336101531982421875" lon="0.02422361634671688079833984375">
        <ele>87.8000030517578125</ele>
        <time>2020-03-04T17:04:07.000Z</time>
      </trkpt>
      <trkpt lat="38.67191699333488941192626953125" lon="0.02436074428260326385498046875">
        <ele>86.8000030517578125</ele>
        <time>2020-03-04T17:04:09.000Z</time>
      </trkpt>
      <trkpt lat="38.6717383749783039093017578125" lon="0.02451597712934017181396484375">
        <ele>85.1999969482421875</ele>
        <time>2020-03-04T17:04:11.000Z</time>
      </trkpt>
      <trkpt lat="38.6715586669743061065673828125" lon="0.02466232515871524810791015625">
        <ele>83.59999847412109375</ele>
        <time>2020-03-04T17:04:13.000Z</time>
      </trkpt>
      <trkpt lat="38.671367056667804718017578125" lon="0.0247753970324993133544921875">
        <ele>81.8000030517578125</ele>
        <time>2020-03-04T17:04:15.000Z</time>
      </trkpt>
      <trkpt lat="38.6711647175252437591552734375" lon="0.02486449666321277618408203125">
        <ele>80.1999969482421875</ele>
        <time>2020-03-04T17:04:17.000Z</time>
      </trkpt>
      <trkpt lat="38.67096514441072940826416015625" lon="0.02494655549526214599609375">
        <ele>79.1999969482421875</ele>
        <time>2020-03-04T17:04:19.000Z</time>
      </trkpt>
      <trkpt lat="38.67078526876866817474365234375" lon="0.0250345654785633087158203125">
        <ele>78</ele>
        <time>2020-03-04T17:04:21.000Z</time>
      </trkpt>
      <trkpt lat="38.6707055568695068359375" lon="0.0250878743827342987060546875">
        <ele>77.1999969482421875</ele>
        <time>2020-03-04T17:04:22.000Z</time>
      </trkpt>
      <trkpt lat="38.67063875310122966766357421875" lon="0.025154091417789459228515625">
        <ele>76.59999847412109375</ele>
        <time>2020-03-04T17:04:23.000Z</time>
      </trkpt>
      <trkpt lat="38.6705853603780269622802734375" lon="0.0252313725650310516357421875">
        <ele>76</ele>
        <time>2020-03-04T17:04:24.000Z</time>
      </trkpt>
      <trkpt lat="38.67055593989789485931396484375" lon="0.02532080747187137603759765625">
        <ele>75.59999847412109375</ele>
        <time>2020-03-04T17:04:25.000Z</time>
      </trkpt>
      <trkpt lat="38.67054923437535762786865234375" lon="0.02541434951126575469970703125">
        <ele>75.40000152587890625</ele>
        <time>2020-03-04T17:04:26.000Z</time>
      </trkpt>
      <trkpt lat="38.6705571971833705902099609375" lon="0.02551509998738765716552734375">
        <ele>75.40000152587890625</ele>
        <time>2020-03-04T17:04:27.000Z</time>
      </trkpt>
      <trkpt lat="38.6705763079226016998291015625" lon="0.02561618573963642120361328125">
        <ele>75.1999969482421875</ele>
        <time>2020-03-04T17:04:28.000Z</time>
      </trkpt>
      <trkpt lat="38.6705996096134185791015625" lon="0.025714002549648284912109375">
        <ele>75.1999969482421875</ele>
        <time>2020-03-04T17:04:29.000Z</time>
      </trkpt>
      <trkpt lat="38.6706371605396270751953125" lon="0.0259089656174182891845703125">
        <ele>74.8000030517578125</ele>
        <time>2020-03-04T17:04:31.000Z</time>
      </trkpt>
      <trkpt lat="38.67064445279538631439208984375" lon="0.02601231448352336883544921875">
        <ele>74.59999847412109375</ele>
        <time>2020-03-04T17:04:32.000Z</time>
      </trkpt>
      <trkpt lat="38.670635484158992767333984375" lon="0.026118345558643341064453125">
        <ele>74.59999847412109375</ele>
        <time>2020-03-04T17:04:33.000Z</time>
      </trkpt>
      <trkpt lat="38.67060539312660694122314453125" lon="0.0262177549302577972412109375">
        <ele>74.40000152587890625</ele>
        <time>2020-03-04T17:04:34.000Z</time>
      </trkpt>
      <trkpt lat="38.67050916887819766998291015625" lon="0.0263877399265766143798828125">
        <ele>74.1999969482421875</ele>
        <time>2020-03-04T17:04:36.000Z</time>
      </trkpt>
      <trkpt lat="38.67025553248822689056396484375" lon="0.02663928084075450897216796875">
        <ele>74.1999969482421875</ele>
        <time>2020-03-04T17:04:40.000Z</time>
      </trkpt>
      <trkpt lat="38.67006249725818634033203125" lon="0.0268645025789737701416015625">
        <ele>73.8000030517578125</ele>
        <time>2020-03-04T17:04:43.000Z</time>
      </trkpt>
      <trkpt lat="38.6700103618204593658447265625" lon="0.02696231938898563385009765625">
        <ele>73.40000152587890625</ele>
        <time>2020-03-04T17:04:44.000Z</time>
      </trkpt>
      <trkpt lat="38.66996250115334987640380859375" lon="0.0270663388073444366455078125">
        <ele>73.1999969482421875</ele>
        <time>2020-03-04T17:04:45.000Z</time>
      </trkpt>
      <trkpt lat="38.669922687113285064697265625" lon="0.02718326635658740997314453125">
        <ele>73.1999969482421875</ele>
        <time>2020-03-04T17:04:46.000Z</time>
      </trkpt>
      <trkpt lat="38.66988220252096652984619140625" lon="0.0273090787231922149658203125">
        <ele>73</ele>
        <time>2020-03-04T17:04:47.000Z</time>
      </trkpt>
      <trkpt lat="38.66983811371028423309326171875" lon="0.02743287943303585052490234375">
        <ele>72.8000030517578125</ele>
        <time>2020-03-04T17:04:48.000Z</time>
      </trkpt>
      <trkpt lat="38.66973451338708400726318359375" lon="0.02766606397926807403564453125">
        <ele>72.1999969482421875</ele>
        <time>2020-03-04T17:04:50.000Z</time>
      </trkpt>
      <trkpt lat="38.66966955363750457763671875" lon="0.02775541506707668304443359375">
        <ele>71.59999847412109375</ele>
        <time>2020-03-04T17:04:51.000Z</time>
      </trkpt>
      <trkpt lat="38.66960945539176464080810546875" lon="0.0278428383171558380126953125">
        <ele>71.1999969482421875</ele>
        <time>2020-03-04T17:04:52.000Z</time>
      </trkpt>
      <trkpt lat="38.66953468881547451019287109375" lon="0.0280460156500339508056640625">
        <ele>69.8000030517578125</ele>
        <time>2020-03-04T17:04:54.000Z</time>
      </trkpt>
      <trkpt lat="38.66951691918075084686279296875" lon="0.0281610153615474700927734375">
        <ele>67.8000030517578125</ele>
        <time>2020-03-04T17:04:55.000Z</time>
      </trkpt>
      <trkpt lat="38.6694997362792491912841796875" lon="0.028394870460033416748046875">
        <ele>66.59999847412109375</ele>
        <time>2020-03-04T17:04:57.000Z</time>
      </trkpt>
      <trkpt lat="38.66950250230729579925537109375" lon="0.028632245957851409912109375">
        <ele>66.1999969482421875</ele>
        <time>2020-03-04T17:04:59.000Z</time>
      </trkpt>
      <trkpt lat="38.6694953776895999908447265625" lon="0.0288701243698596954345703125">
        <ele>65.8000030517578125</ele>
        <time>2020-03-04T17:05:01.000Z</time>
      </trkpt>
      <trkpt lat="38.66947568021714687347412109375" lon="0.028986297547817230224609375">
        <ele>65.8000030517578125</ele>
        <time>2020-03-04T17:05:02.000Z</time>
      </trkpt>
      <trkpt lat="38.66941935382783412933349609375" lon="0.02923197112977504730224609375">
        <ele>65.59999847412109375</ele>
        <time>2020-03-04T17:05:04.000Z</time>
      </trkpt>
      <trkpt lat="38.66939839906990528106689453125" lon="0.0293592922389507293701171875">
        <ele>65.40000152587890625</ele>
        <time>2020-03-04T17:05:05.000Z</time>
      </trkpt>
      <trkpt lat="38.66938884370028972625732421875" lon="0.02947487868368625640869140625">
        <ele>65.40000152587890625</ele>
        <time>2020-03-04T17:05:06.000Z</time>
      </trkpt>
      <trkpt lat="38.66937543265521526336669921875" lon="0.02958141267299652099609375">
        <ele>65.1999969482421875</ele>
        <time>2020-03-04T17:05:07.000Z</time>
      </trkpt>
      <trkpt lat="38.6693572439253330230712890625" lon="0.029676966369152069091796875">
        <ele>65.1999969482421875</ele>
        <time>2020-03-04T17:05:08.000Z</time>
      </trkpt>
      <trkpt lat="38.669310472905635833740234375" lon="0.02985256724059581756591796875">
        <ele>65.1999969482421875</ele>
        <time>2020-03-04T17:05:10.000Z</time>
      </trkpt>
      <trkpt lat="38.66927904076874256134033203125" lon="0.0299292616546154022216796875">
        <ele>65.1999969482421875</ele>
        <time>2020-03-04T17:05:11.000Z</time>
      </trkpt>
      <trkpt lat="38.66921835578978061676025390625" lon="0.03006429411470890045166015625">
        <ele>65.1999969482421875</ele>
        <time>2020-03-04T17:05:13.000Z</time>
      </trkpt>
      <trkpt lat="38.66915599443018436431884765625" lon="0.03019069321453571319580078125">
        <ele>65.1999969482421875</ele>
        <time>2020-03-04T17:05:15.000Z</time>
      </trkpt>
      <trkpt lat="38.66905272938311100006103515625" lon="0.0303765200078487396240234375">
        <ele>65.59999847412109375</ele>
        <time>2020-03-04T17:05:18.000Z</time>
      </trkpt>
      <trkpt lat="38.66901484318077564239501953125" lon="0.03043276257812976837158203125">
        <ele>66</ele>
        <time>2020-03-04T17:05:19.000Z</time>
      </trkpt>
      <trkpt lat="38.6689297668635845184326171875" lon="0.030530579388141632080078125">
        <ele>66.40000152587890625</ele>
        <time>2020-03-04T17:05:21.000Z</time>
      </trkpt>
      <trkpt lat="38.668829016387462615966796875" lon="0.0305904261767864227294921875">
        <ele>66.59999847412109375</ele>
        <time>2020-03-04T17:05:23.000Z</time>
      </trkpt>
      <trkpt lat="38.66865609772503376007080078125" lon="0.030598975718021392822265625">
        <ele>66.8000030517578125</ele>
        <time>2020-03-04T17:05:26.000Z</time>
      </trkpt>
      <trkpt lat="38.66859734058380126953125" lon="0.03059931099414825439453125">
        <ele>66.8000030517578125</ele>
        <time>2020-03-04T17:05:27.000Z</time>
      </trkpt>
      <trkpt lat="38.668467588722705841064453125" lon="0.03062085248529911041259765625">
        <ele>66.8000030517578125</ele>
        <time>2020-03-04T17:05:29.000Z</time>
      </trkpt>
      <trkpt lat="38.668339513242244720458984375" lon="0.03065689466893672943115234375">
        <ele>66.8000030517578125</ele>
        <time>2020-03-04T17:05:31.000Z</time>
      </trkpt>
      <trkpt lat="38.6680218391120433807373046875" lon="0.03080072812736034393310546875">
        <ele>66.40000152587890625</ele>
        <time>2020-03-04T17:05:36.000Z</time>
      </trkpt>
      <trkpt lat="38.66777130402624607086181640625" lon="0.0309461541473865509033203125">
        <ele>65.40000152587890625</ele>
        <time>2020-03-04T17:05:40.000Z</time>
      </trkpt>
      <trkpt lat="38.66770709864795207977294921875" lon="0.03098823130130767822265625">
        <ele>65.1999969482421875</ele>
        <time>2020-03-04T17:05:41.000Z</time>
      </trkpt>
      <trkpt lat="38.66745002567768096923828125" lon="0.03116316162049770355224609375">
        <ele>64.59999847412109375</ele>
        <time>2020-03-04T17:05:45.000Z</time>
      </trkpt>
      <trkpt lat="38.6673139035701751708984375" lon="0.0312287919223308563232421875">
        <ele>64.40000152587890625</ele>
        <time>2020-03-04T17:05:47.000Z</time>
      </trkpt>
      <trkpt lat="38.66694367490708827972412109375" lon="0.0313858687877655029296875">
        <ele>63.40000152587890625</ele>
        <time>2020-03-04T17:05:52.000Z</time>
      </trkpt>
      <trkpt lat="38.66686941124498844146728515625" lon="0.03142811357975006103515625">
        <ele>63.40000152587890625</ele>
        <time>2020-03-04T17:05:53.000Z</time>
      </trkpt>
      <trkpt lat="38.66650320589542388916015625" lon="0.031665153801441192626953125">
        <ele>62.40000152587890625</ele>
        <time>2020-03-04T17:05:58.000Z</time>
      </trkpt>
      <trkpt lat="38.66642944514751434326171875" lon="0.0317142717540264129638671875">
        <ele>62</ele>
        <time>2020-03-04T17:05:59.000Z</time>
      </trkpt>
      <trkpt lat="38.66614789701998233795166015625" lon="0.03192390315234661102294921875">
        <ele>61</ele>
        <time>2020-03-04T17:06:03.000Z</time>
      </trkpt>
      <trkpt lat="38.6660282872617244720458984375" lon="0.0320629589259624481201171875">
        <ele>60.59999847412109375</ele>
        <time>2020-03-04T17:06:05.000Z</time>
      </trkpt>
      <trkpt lat="38.66591555066406726837158203125" lon="0.0323402322828769683837890625">
        <ele>60</ele>
        <time>2020-03-04T17:06:08.000Z</time>
      </trkpt>
      <trkpt lat="38.66587447933852672576904296875" lon="0.03243017010390758514404296875">
        <ele>59.799999237060546875</ele>
        <time>2020-03-04T17:06:09.000Z</time>
      </trkpt>
      <trkpt lat="38.6657674424350261688232421875" lon="0.032556988298892974853515625">
        <ele>59.59999847412109375</ele>
        <time>2020-03-04T17:06:11.000Z</time>
      </trkpt>
      <trkpt lat="38.6656428873538970947265625" lon="0.032652877271175384521484375">
        <ele>59.40000152587890625</ele>
        <time>2020-03-04T17:06:13.000Z</time>
      </trkpt>
      <trkpt lat="38.6654398776590824127197265625" lon="0.0327945314347743988037109375">
        <ele>58.799999237060546875</ele>
        <time>2020-03-04T17:06:16.000Z</time>
      </trkpt>
      <trkpt lat="38.6652271449565887451171875" lon="0.03293040208518505096435546875">
        <ele>57.799999237060546875</ele>
        <time>2020-03-04T17:06:19.000Z</time>
      </trkpt>
      <trkpt lat="38.66515497677028179168701171875" lon="0.0329844653606414794921875">
        <ele>57.40000152587890625</ele>
        <time>2020-03-04T17:06:20.000Z</time>
      </trkpt>
      <trkpt lat="38.66508741863071918487548828125" lon="0.0330516882240772247314453125">
        <ele>57.200000762939453125</ele>
        <time>2020-03-04T17:06:21.000Z</time>
      </trkpt>
      <trkpt lat="38.6650274880230426788330078125" lon="0.03313156776130199432373046875">
        <ele>57</ele>
        <time>2020-03-04T17:06:22.000Z</time>
      </trkpt>
      <trkpt lat="38.6649765260517597198486328125" lon="0.0332246907055377960205078125">
        <ele>56.799999237060546875</ele>
        <time>2020-03-04T17:06:23.000Z</time>
      </trkpt>
      <trkpt lat="38.6649131588637828826904296875" lon="0.033310018479824066162109375">
        <ele>56.40000152587890625</ele>
        <time>2020-03-04T17:06:24.000Z</time>
      </trkpt>
      <trkpt lat="38.66483646444976329803466796875" lon="0.03337514586746692657470703125">
        <ele>56</ele>
        <time>2020-03-04T17:06:25.000Z</time>
      </trkpt>
      <trkpt lat="38.6647523939609527587890625" lon="0.033415965735912322998046875">
        <ele>55.799999237060546875</ele>
        <time>2020-03-04T17:06:26.000Z</time>
      </trkpt>
      <trkpt lat="38.66466765291988849639892578125" lon="0.0334409438073635101318359375">
        <ele>55.200000762939453125</ele>
        <time>2020-03-04T17:06:27.000Z</time>
      </trkpt>
      <trkpt lat="38.66458668373525142669677734375" lon="0.03345443867146968841552734375">
        <ele>54.799999237060546875</ele>
        <time>2020-03-04T17:06:28.000Z</time>
      </trkpt>
      <trkpt lat="38.66450554691255092620849609375" lon="0.03345712088048458099365234375">
        <ele>54.40000152587890625</ele>
        <time>2020-03-04T17:06:29.000Z</time>
      </trkpt>
      <trkpt lat="38.66442843340337276458740234375" lon="0.03344739787280559539794921875">
        <ele>54</ele>
        <time>2020-03-04T17:06:30.000Z</time>
      </trkpt>
      <trkpt lat="38.66435769014060497283935546875" lon="0.03341336734592914581298828125">
        <ele>53.59999847412109375</ele>
        <time>2020-03-04T17:06:31.000Z</time>
      </trkpt>
      <trkpt lat="38.6642878688871860504150390625" lon="0.03336743451654911041259765625">
        <ele>53.200000762939453125</ele>
        <time>2020-03-04T17:06:32.000Z</time>
      </trkpt>
      <trkpt lat="38.6641366593539714813232421875" lon="0.0332857109606266021728515625">
        <ele>52.40000152587890625</ele>
        <time>2020-03-04T17:06:34.000Z</time>
      </trkpt>
      <trkpt lat="38.66405258886516094207763671875" lon="0.0332666002213954925537109375">
        <ele>52.200000762939453125</ele>
        <time>2020-03-04T17:06:35.000Z</time>
      </trkpt>
      <trkpt lat="38.6639710329473018646240234375" lon="0.033272467553615570068359375">
        <ele>52</ele>
        <time>2020-03-04T17:06:36.000Z</time>
      </trkpt>
      <trkpt lat="38.66376710124313831329345703125" lon="0.03333424217998981475830078125">
        <ele>51.59999847412109375</ele>
        <time>2020-03-04T17:06:39.000Z</time>
      </trkpt>
      <trkpt lat="38.66371077485382556915283203125" lon="0.03334698267281055450439453125">
        <ele>51.59999847412109375</ele>
        <time>2020-03-04T17:06:40.000Z</time>
      </trkpt>
      <trkpt lat="38.66360834799706935882568359375" lon="0.03336223773658275604248046875">
        <ele>51.59999847412109375</ele>
        <time>2020-03-04T17:06:42.000Z</time>
      </trkpt>
      <trkpt lat="38.66356040351092815399169921875" lon="0.03336592577397823333740234375">
        <ele>51.59999847412109375</ele>
        <time>2020-03-04T17:06:43.000Z</time>
      </trkpt>
      <trkpt lat="38.6632448248565196990966796875" lon="0.0333948433399200439453125">
        <ele>52.799999237060546875</ele>
        <time>2020-03-04T17:06:49.000Z</time>
      </trkpt>
      <trkpt lat="38.6629162542521953582763671875" lon="0.03349634818732738494873046875">
        <ele>52.799999237060546875</ele>
        <time>2020-03-04T17:06:54.000Z</time>
      </trkpt>
      <trkpt lat="38.66277267225086688995361328125" lon="0.0335599668323993682861328125">
        <ele>52.799999237060546875</ele>
        <time>2020-03-04T17:06:56.000Z</time>
      </trkpt>
      <trkpt lat="38.662558011710643768310546875" lon="0.03369248472154140472412109375">
        <ele>52.799999237060546875</ele>
        <time>2020-03-04T17:06:59.000Z</time>
      </trkpt>
      <trkpt lat="38.6624371446669101715087890625" lon="0.03379122354090213775634765625">
        <ele>52.200000762939453125</ele>
        <time>2020-03-04T17:07:01.000Z</time>
      </trkpt>
      <trkpt lat="38.6623228155076503753662109375" lon="0.0338856875896453857421875">
        <ele>51.59999847412109375</ele>
        <time>2020-03-04T17:07:03.000Z</time>
      </trkpt>
      <trkpt lat="38.66220739670097827911376953125" lon="0.03397193737328052520751953125">
        <ele>50.799999237060546875</ele>
        <time>2020-03-04T17:07:05.000Z</time>
      </trkpt>
      <trkpt lat="38.6620348133146762847900390625" lon="0.03412700258195400238037109375">
        <ele>50.200000762939453125</ele>
        <time>2020-03-04T17:07:08.000Z</time>
      </trkpt>
      <trkpt lat="38.6617622338235378265380859375" lon="0.03440913744270801544189453125">
        <ele>49.799999237060546875</ele>
        <time>2020-03-04T17:07:13.000Z</time>
      </trkpt>
      <trkpt lat="38.66163709200918674468994140625" lon="0.03452916629612445831298828125">
        <ele>49.59999847412109375</ele>
        <time>2020-03-04T17:07:15.000Z</time>
      </trkpt>
      <trkpt lat="38.66150633431971073150634765625" lon="0.0346321798861026763916015625">
        <ele>49.59999847412109375</ele>
        <time>2020-03-04T17:07:17.000Z</time>
      </trkpt>
      <trkpt lat="38.66137909702956676483154296875" lon="0.0347186811268329620361328125">
        <ele>49.40000152587890625</ele>
        <time>2020-03-04T17:07:19.000Z</time>
      </trkpt>
      <trkpt lat="38.661190085113048553466796875" lon="0.03479939885437488555908203125">
        <ele>49.40000152587890625</ele>
        <time>2020-03-04T17:07:22.000Z</time>
      </trkpt>
      <trkpt lat="38.6610651947557926177978515625" lon="0.03481565974652767181396484375">
        <ele>49.200000762939453125</ele>
        <time>2020-03-04T17:07:24.000Z</time>
      </trkpt>
      <trkpt lat="38.66090032272040843963623046875" lon="0.03475547768175601959228515625">
        <ele>49.200000762939453125</ele>
        <time>2020-03-04T17:07:27.000Z</time>
      </trkpt>
      <trkpt lat="38.6606873385608196258544921875" lon="0.03463813103735446929931640625">
        <ele>49.40000152587890625</ele>
        <time>2020-03-04T17:07:32.000Z</time>
      </trkpt>
      <trkpt lat="38.66060159169137477874755859375" lon="0.03462731838226318359375">
        <ele>49.799999237060546875</ele>
        <time>2020-03-04T17:07:34.000Z</time>
      </trkpt>
      <trkpt lat="38.6605582572519779205322265625" lon="0.03462639637291431427001953125">
        <ele>50</ele>
        <time>2020-03-04T17:07:35.000Z</time>
      </trkpt>
      <trkpt lat="38.6604769527912139892578125" lon="0.034651122987270355224609375">
        <ele>51</ele>
        <time>2020-03-04T17:07:37.000Z</time>
      </trkpt>
      <trkpt lat="38.66035834886133670806884765625" lon="0.03473536111414432525634765625">
        <ele>52</ele>
        <time>2020-03-04T17:07:40.000Z</time>
      </trkpt>
      <trkpt lat="38.66029322147369384765625" lon="0.03482035361230373382568359375">
        <ele>52.40000152587890625</ele>
        <time>2020-03-04T17:07:42.000Z</time>
      </trkpt>
      <trkpt lat="38.6600987613201141357421875" lon="0.035151354968547821044921875">
        <ele>52.40000152587890625</ele>
        <time>2020-03-04T17:07:48.000Z</time>
      </trkpt>
      <trkpt lat="38.6599148623645305633544921875" lon="0.03529543988406658172607421875">
        <ele>52.40000152587890625</ele>
        <time>2020-03-04T17:07:51.000Z</time>
      </trkpt>
      <trkpt lat="38.65983313880860805511474609375" lon="0.035329721868038177490234375">
        <ele>52.40000152587890625</ele>
        <time>2020-03-04T17:07:52.000Z</time>
      </trkpt>
      <trkpt lat="38.6596721224486827850341796875" lon="0.03539434634149074554443359375">
        <ele>52.200000762939453125</ele>
        <time>2020-03-04T17:07:54.000Z</time>
      </trkpt>
      <trkpt lat="38.6595252715051174163818359375" lon="0.0354660116136074066162109375">
        <ele>51.40000152587890625</ele>
        <time>2020-03-04T17:07:56.000Z</time>
      </trkpt>
      <trkpt lat="38.65945897065103054046630859375" lon="0.03551454283297061920166015625">
        <ele>50.799999237060546875</ele>
        <time>2020-03-04T17:07:57.000Z</time>
      </trkpt>
      <trkpt lat="38.6593998782336711883544921875" lon="0.03555335104465484619140625">
        <ele>50.200000762939453125</ele>
        <time>2020-03-04T17:07:58.000Z</time>
      </trkpt>
      <trkpt lat="38.65935377776622772216796875" lon="0.035581178963184356689453125">
        <ele>49.200000762939453125</ele>
        <time>2020-03-04T17:07:59.000Z</time>
      </trkpt>
      <trkpt lat="38.65932268090546131134033203125" lon="0.03560473211109638214111328125">
        <ele>48.40000152587890625</ele>
        <time>2020-03-04T17:08:00.000Z</time>
      </trkpt>
      <trkpt lat="38.6593048274517059326171875" lon="0.03562903963029384613037109375">
        <ele>47.799999237060546875</ele>
        <time>2020-03-04T17:08:01.000Z</time>
      </trkpt>
      <trkpt lat="38.659290410578250885009765625" lon="0.0356916524469852447509765625">
        <ele>47.200000762939453125</ele>
        <time>2020-03-04T17:08:04.000Z</time>
      </trkpt>
      <trkpt lat="38.65926987491548061370849609375" lon="0.03575024195015430450439453125">
        <ele>46.799999237060546875</ele>
        <time>2020-03-04T17:08:07.000Z</time>
      </trkpt>
      <trkpt lat="38.65932066924870014190673828125" lon="0.03592089749872684478759765625">
        <ele>46.40000152587890625</ele>
        <time>2020-03-04T17:08:11.000Z</time>
      </trkpt>
      <trkpt lat="38.65938730537891387939453125" lon="0.03598510287702083587646484375">
        <ele>46.40000152587890625</ele>
        <time>2020-03-04T17:08:12.000Z</time>
      </trkpt>
      <trkpt lat="38.6594572104513645172119140625" lon="0.03617252223193645477294921875">
        <ele>46.200000762939453125</ele>
        <time>2020-03-04T17:08:15.000Z</time>
      </trkpt>
      <trkpt lat="38.6594806797802448272705078125" lon="0.036238320171833038330078125">
        <ele>46.200000762939453125</ele>
        <time>2020-03-04T17:08:16.000Z</time>
      </trkpt>
      <trkpt lat="38.65949383936822414398193359375" lon="0.03629473038017749786376953125">
        <ele>46.200000762939453125</ele>
        <time>2020-03-04T17:08:17.000Z</time>
      </trkpt>
      <trkpt lat="38.65946785546839237213134765625" lon="0.03639212809503078460693359375">
        <ele>46.200000762939453125</ele>
        <time>2020-03-04T17:08:19.000Z</time>
      </trkpt>
      <trkpt lat="38.65943424403667449951171875" lon="0.03641945309937000274658203125">
        <ele>45.799999237060546875</ele>
        <time>2020-03-04T17:08:20.000Z</time>
      </trkpt>
      <trkpt lat="38.6593197472393512725830078125" lon="0.03647871315479278564453125">
        <ele>45.200000762939453125</ele>
        <time>2020-03-04T17:08:22.000Z</time>
      </trkpt>
      <trkpt lat="38.6591977067291736602783203125" lon="0.0365536473691463470458984375">
        <ele>44.40000152587890625</ele>
        <time>2020-03-04T17:08:24.000Z</time>
      </trkpt>
      <trkpt lat="38.65907273255288600921630859375" lon="0.036639310419559478759765625">
        <ele>43.799999237060546875</ele>
        <time>2020-03-04T17:08:26.000Z</time>
      </trkpt>
      <trkpt lat="38.65894868038594722747802734375" lon="0.03673327155411243438720703125">
        <ele>43.40000152587890625</ele>
        <time>2020-03-04T17:08:28.000Z</time>
      </trkpt>
      <trkpt lat="38.6588228680193424224853515625" lon="0.03682916052639484405517578125">
        <ele>42.59999847412109375</ele>
        <time>2020-03-04T17:08:30.000Z</time>
      </trkpt>
      <trkpt lat="38.658760674297809600830078125" lon="0.036877356469631195068359375">
        <ele>42.200000762939453125</ele>
        <time>2020-03-04T17:08:31.000Z</time>
      </trkpt>
      <trkpt lat="38.6586337722837924957275390625" lon="0.0369648635387420654296875">
        <ele>41.799999237060546875</ele>
        <time>2020-03-04T17:08:33.000Z</time>
      </trkpt>
      <trkpt lat="38.65843378007411956787109375" lon="0.03706016577780246734619140625">
        <ele>41.40000152587890625</ele>
        <time>2020-03-04T17:08:36.000Z</time>
      </trkpt>
      <trkpt lat="38.65836731158196926116943359375" lon="0.0370860658586025238037109375">
        <ele>41.200000762939453125</ele>
        <time>2020-03-04T17:08:37.000Z</time>
      </trkpt>
      <trkpt lat="38.6582401581108570098876953125" lon="0.03714834339916706085205078125">
        <ele>41</ele>
        <time>2020-03-04T17:08:39.000Z</time>
      </trkpt>
      <trkpt lat="38.65808936767280101776123046875" lon="0.03727172501385211944580078125">
        <ele>40.799999237060546875</ele>
        <time>2020-03-04T17:08:42.000Z</time>
      </trkpt>
      <trkpt lat="38.65805667825043201446533203125" lon="0.03730860538780689239501953125">
        <ele>40.799999237060546875</ele>
        <time>2020-03-04T17:08:43.000Z</time>
      </trkpt>
      <trkpt lat="38.6580254137516021728515625" lon="0.03733961842954158782958984375">
        <ele>40.799999237060546875</ele>
        <time>2020-03-04T17:08:44.000Z</time>
      </trkpt>
      <trkpt lat="38.6579940654337406158447265625" lon="0.03736250102519989013671875">
        <ele>40.799999237060546875</ele>
        <time>2020-03-04T17:08:45.000Z</time>
      </trkpt>
      <trkpt lat="38.6579591967165470123291015625" lon="0.03738395869731903076171875">
        <ele>40.59999847412109375</ele>
        <time>2020-03-04T17:08:46.000Z</time>
      </trkpt>
      <trkpt lat="38.657935224473476409912109375" lon="0.03743626177310943603515625">
        <ele>40.59999847412109375</ele>
        <time>2020-03-04T17:08:48.000Z</time>
      </trkpt>
      <trkpt lat="38.65793891251087188720703125" lon="0.0374716334044933319091796875">
        <ele>40.59999847412109375</ele>
        <time>2020-03-04T17:08:49.000Z</time>
      </trkpt>
      <trkpt lat="38.65793296135962009429931640625" lon="0.03750088624656200408935546875">
        <ele>40.59999847412109375</ele>
        <time>2020-03-04T17:08:50.000Z</time>
      </trkpt>
      <trkpt lat="38.65791183896362781524658203125" lon="0.037511028349399566650390625">
        <ele>40.40000152587890625</ele>
        <time>2020-03-04T17:08:51.000Z</time>
      </trkpt>
      <trkpt lat="38.65784646011888980865478515625" lon="0.037500970065593719482421875">
        <ele>40.200000762939453125</ele>
        <time>2020-03-04T17:08:54.000Z</time>
      </trkpt>
      <trkpt lat="38.6578274331986904144287109375" lon="0.0375158898532390594482421875">
        <ele>40.200000762939453125</ele>
        <time>2020-03-04T17:08:55.000Z</time>
      </trkpt>
      <trkpt lat="38.65781226195394992828369140625" lon="0.037543214857578277587890625">
        <ele>40.200000762939453125</ele>
        <time>2020-03-04T17:08:56.000Z</time>
      </trkpt>
      <trkpt lat="38.657797090709209442138671875" lon="0.037576071918010711669921875">
        <ele>40</ele>
        <time>2020-03-04T17:08:57.000Z</time>
      </trkpt>
      <trkpt lat="38.6577519960701465606689453125" lon="0.03764539025723934173583984375">
        <ele>40</ele>
        <time>2020-03-04T17:08:59.000Z</time>
      </trkpt>
      <trkpt lat="38.657635152339935302734375" lon="0.0377998687326908111572265625">
        <ele>40.200000762939453125</ele>
        <time>2020-03-04T17:09:03.000Z</time>
      </trkpt>
      <trkpt lat="38.65758209489285945892333984375" lon="0.03788553178310394287109375">
        <ele>40.40000152587890625</ele>
        <time>2020-03-04T17:09:05.000Z</time>
      </trkpt>
      <trkpt lat="38.65756700746715068817138671875" lon="0.03793456591665744781494140625">
        <ele>40.59999847412109375</ele>
        <time>2020-03-04T17:09:06.000Z</time>
      </trkpt>
      <trkpt lat="38.6575310491025447845458984375" lon="0.03801469691097736358642578125">
        <ele>40.59999847412109375</ele>
        <time>2020-03-04T17:09:08.000Z</time>
      </trkpt>
      <trkpt lat="38.6574701964855194091796875" lon="0.03801017068326473236083984375">
        <ele>40.59999847412109375</ele>
        <time>2020-03-04T17:09:10.000Z</time>
      </trkpt>
      <trkpt lat="38.657426945865154266357421875" lon="0.037891231477260589599609375">
        <ele>41</ele>
        <time>2020-03-04T17:09:13.000Z</time>
      </trkpt>
      <trkpt lat="38.6574110202491283416748046875" lon="0.03786382265388965606689453125">
        <ele>41.200000762939453125</ele>
        <time>2020-03-04T17:09:14.000Z</time>
      </trkpt>
      <trkpt lat="38.65736768580973148345947265625" lon="0.03788813017308712005615234375">
        <ele>41.200000762939453125</ele>
        <time>2020-03-04T17:09:16.000Z</time>
      </trkpt>
      <trkpt lat="38.65734036080539226531982421875" lon="0.03791864030063152313232421875">
        <ele>41.200000762939453125</ele>
        <time>2020-03-04T17:09:17.000Z</time>
      </trkpt>
      <trkpt lat="38.65727431140840053558349609375" lon="0.0379894673824310302734375">
        <ele>41.200000762939453125</ele>
        <time>2020-03-04T17:09:19.000Z</time>
      </trkpt>
      <trkpt lat="38.65723860450088977813720703125" lon="0.03802106715738773345947265625">
        <ele>41.200000762939453125</ele>
        <time>2020-03-04T17:09:20.000Z</time>
      </trkpt>
      <trkpt lat="38.6571491695940494537353515625" lon="0.03814059309661388397216796875">
        <ele>41.200000762939453125</ele>
        <time>2020-03-04T17:09:24.000Z</time>
      </trkpt>
      <trkpt lat="38.657194264233112335205078125" lon="0.0382477976381778717041015625">
        <ele>41.200000762939453125</ele>
        <time>2020-03-04T17:09:27.000Z</time>
      </trkpt>
      <trkpt lat="38.65730213932693004608154296875" lon="0.03841032274067401885986328125">
        <ele>41.200000762939453125</ele>
        <time>2020-03-04T17:09:31.000Z</time>
      </trkpt>
      <trkpt lat="38.65733901970088481903076171875" lon="0.03845575265586376190185546875">
        <ele>41.200000762939453125</ele>
        <time>2020-03-04T17:09:32.000Z</time>
      </trkpt>
      <trkpt lat="38.6574244312942028045654296875" lon="0.03855398856103420257568359375">
        <ele>40.59999847412109375</ele>
        <time>2020-03-04T17:09:34.000Z</time>
      </trkpt>
      <trkpt lat="38.6575276963412761688232421875" lon="0.03864233382046222686767578125">
        <ele>40</ele>
        <time>2020-03-04T17:09:36.000Z</time>
      </trkpt>
      <trkpt lat="38.65762375295162200927734375" lon="0.03874274902045726776123046875">
        <ele>39.40000152587890625</ele>
        <time>2020-03-04T17:09:38.000Z</time>
      </trkpt>
      <trkpt lat="38.65766708739101886749267578125" lon="0.0388744287192821502685546875">
        <ele>38.799999237060546875</ele>
        <time>2020-03-04T17:09:40.000Z</time>
      </trkpt>
      <trkpt lat="38.65770413540303707122802734375" lon="0.03908523358404636383056640625">
        <ele>37.799999237060546875</ele>
        <time>2020-03-04T17:09:43.000Z</time>
      </trkpt>
      <trkpt lat="38.65771419368684291839599609375" lon="0.03921465016901493072509765625">
        <ele>37.40000152587890625</ele>
        <time>2020-03-04T17:09:45.000Z</time>
      </trkpt>
      <trkpt lat="38.657710254192352294921875" lon="0.03927885554730892181396484375">
        <ele>37.40000152587890625</ele>
        <time>2020-03-04T17:09:46.000Z</time>
      </trkpt>
      <trkpt lat="38.6576728709042072296142578125" lon="0.03946225158870220184326171875">
        <ele>37.40000152587890625</ele>
        <time>2020-03-04T17:09:49.000Z</time>
      </trkpt>
      <trkpt lat="38.6576418578624725341796875" lon="0.03958311863243579864501953125">
        <ele>37.40000152587890625</ele>
        <time>2020-03-04T17:09:51.000Z</time>
      </trkpt>
      <trkpt lat="38.65761998109519481658935546875" lon="0.039642043411731719970703125">
        <ele>37.40000152587890625</ele>
        <time>2020-03-04T17:09:52.000Z</time>
      </trkpt>
      <trkpt lat="38.657511435449123382568359375" lon="0.03988302312791347503662109375">
        <ele>38.40000152587890625</ele>
        <time>2020-03-04T17:09:56.000Z</time>
      </trkpt>
      <trkpt lat="38.65746013820171356201171875" lon="0.040009506046772003173828125">
        <ele>38.799999237060546875</ele>
        <time>2020-03-04T17:09:58.000Z</time>
      </trkpt>
      <trkpt lat="38.65729928947985172271728515625" lon="0.0403576903045177459716796875">
        <ele>39</ele>
        <time>2020-03-04T17:10:03.000Z</time>
      </trkpt>
      <trkpt lat="38.6570016480982303619384765625" lon="0.040877200663089752197265625">
        <ele>38.40000152587890625</ele>
        <time>2020-03-04T17:10:10.000Z</time>
      </trkpt>
      <trkpt lat="38.656837530434131622314453125" lon="0.0410869158804416656494140625">
        <ele>37.799999237060546875</ele>
        <time>2020-03-04T17:10:13.000Z</time>
      </trkpt>
      <trkpt lat="38.65655011497437953948974609375" lon="0.04144289530813694000244140625">
        <ele>36.799999237060546875</ele>
        <time>2020-03-04T17:10:18.000Z</time>
      </trkpt>
      <trkpt lat="38.65649227984249591827392578125" lon="0.04151665605604648590087890625">
        <ele>36.59999847412109375</ele>
        <time>2020-03-04T17:10:19.000Z</time>
      </trkpt>
      <trkpt lat="38.656136132776737213134765625" lon="0.04195486195385456085205078125">
        <ele>35.59999847412109375</ele>
        <time>2020-03-04T17:10:25.000Z</time>
      </trkpt>
      <trkpt lat="38.6560727655887603759765625" lon="0.0420236773788928985595703125">
        <ele>35.40000152587890625</ele>
        <time>2020-03-04T17:10:26.000Z</time>
      </trkpt>
      <trkpt lat="38.65585676394402980804443359375" lon="0.0421936623752117156982421875">
        <ele>35</ele>
        <time>2020-03-04T17:10:29.000Z</time>
      </trkpt>
      <trkpt lat="38.655775375664234161376953125" lon="0.04223297350108623504638671875">
        <ele>35</ele>
        <time>2020-03-04T17:10:30.000Z</time>
      </trkpt>
      <trkpt lat="38.655618131160736083984375" lon="0.0423043034970760345458984375">
        <ele>34.40000152587890625</ele>
        <time>2020-03-04T17:10:32.000Z</time>
      </trkpt>
      <trkpt lat="38.6554674245417118072509765625" lon="0.04238937981426715850830078125">
        <ele>33.799999237060546875</ele>
        <time>2020-03-04T17:10:34.000Z</time>
      </trkpt>
      <trkpt lat="38.65539617836475372314453125" lon="0.04243883304297924041748046875">
        <ele>33.40000152587890625</ele>
        <time>2020-03-04T17:10:35.000Z</time>
      </trkpt>
      <trkpt lat="38.65532375872135162353515625" lon="0.04248778335750102996826171875">
        <ele>33.200000762939453125</ele>
        <time>2020-03-04T17:10:36.000Z</time>
      </trkpt>
      <trkpt lat="38.65524773485958576202392578125" lon="0.042525418102741241455078125">
        <ele>33</ele>
        <time>2020-03-04T17:10:37.000Z</time>
      </trkpt>
      <trkpt lat="38.65511320531368255615234375" lon="0.04256053827702999114990234375">
        <ele>32.799999237060546875</ele>
        <time>2020-03-04T17:10:39.000Z</time>
      </trkpt>
      <trkpt lat="38.654983453452587127685546875" lon="0.04258266650140285491943359375">
        <ele>32.59999847412109375</ele>
        <time>2020-03-04T17:10:42.000Z</time>
      </trkpt>
      <trkpt lat="38.6549467407166957855224609375" lon="0.042587108910083770751953125">
        <ele>32.40000152587890625</ele>
        <time>2020-03-04T17:10:43.000Z</time>
      </trkpt>
      <trkpt lat="38.65490910597145557403564453125" lon="0.0425933115184307098388671875">
        <ele>32</ele>
        <time>2020-03-04T17:10:44.000Z</time>
      </trkpt>
      <trkpt lat="38.65482964552938938140869140625" lon="0.042605884373188018798828125">
        <ele>31.200000762939453125</ele>
        <time>2020-03-04T17:10:46.000Z</time>
      </trkpt>
      <trkpt lat="38.65478907711803913116455078125" lon="0.0426120869815349578857421875">
        <ele>31</ele>
        <time>2020-03-04T17:10:47.000Z</time>
      </trkpt>
      <trkpt lat="38.654748760163784027099609375" lon="0.04261803813278675079345703125">
        <ele>31</ele>
        <time>2020-03-04T17:10:48.000Z</time>
      </trkpt>
      <trkpt lat="38.6547075212001800537109375" lon="0.0426270067691802978515625">
        <ele>30.799999237060546875</ele>
        <time>2020-03-04T17:10:49.000Z</time>
      </trkpt>
      <trkpt lat="38.65453577600419521331787109375" lon="0.042669586837291717529296875">
        <ele>30.799999237060546875</ele>
        <time>2020-03-04T17:10:53.000Z</time>
      </trkpt>
      <trkpt lat="38.6544927768409252166748046875" lon="0.04267327487468719482421875">
        <ele>30.799999237060546875</ele>
        <time>2020-03-04T17:10:54.000Z</time>
      </trkpt>
      <trkpt lat="38.65424743853509426116943359375" lon="0.04269800148904323577880859375">
        <ele>31</ele>
        <time>2020-03-04T17:10:59.000Z</time>
      </trkpt>
      <trkpt lat="38.6541051976382732391357421875" lon="0.0427378155291080474853515625">
        <ele>31.3999996185302734375</ele>
        <time>2020-03-04T17:11:02.000Z</time>
      </trkpt>
      <trkpt lat="38.653964214026927947998046875" lon="0.0427760370075702667236328125">
        <ele>31.6000003814697265625</ele>
        <time>2020-03-04T17:11:05.000Z</time>
      </trkpt>
      <trkpt lat="38.6537035368382930755615234375" lon="0.04287217743694782257080078125">
        <ele>32</ele>
        <time>2020-03-04T17:11:11.000Z</time>
      </trkpt>
      <trkpt lat="38.653665147721767425537109375" lon="0.04288592375814914703369140625">
        <ele>32.200000762939453125</ele>
        <time>2020-03-04T17:11:12.000Z</time>
      </trkpt>
      <trkpt lat="38.65348937921226024627685546875" lon="0.0429547391831874847412109375">
        <ele>33.200000762939453125</ele>
        <time>2020-03-04T17:11:17.000Z</time>
      </trkpt>
      <trkpt lat="38.653453923761844635009765625" lon="0.04296856932342052459716796875">
        <ele>33.40000152587890625</ele>
        <time>2020-03-04T17:11:18.000Z</time>
      </trkpt>
      <trkpt lat="38.6533337272703647613525390625" lon="0.04301433451473712921142578125">
        <ele>34.40000152587890625</ele>
        <time>2020-03-04T17:11:22.000Z</time>
      </trkpt>
      <trkpt lat="38.65326960571110248565673828125" lon="0.0430373847484588623046875">
        <ele>34.799999237060546875</ele>
        <time>2020-03-04T17:11:24.000Z</time>
      </trkpt>
      <trkpt lat="38.6530309729278087615966796875" lon="0.04314257763326168060302734375">
        <ele>35</ele>
        <time>2020-03-04T17:11:30.000Z</time>
      </trkpt>
      <trkpt lat="38.652731068432331085205078125" lon="0.04327652044594287872314453125">
        <ele>35</ele>
        <time>2020-03-04T17:11:37.000Z</time>
      </trkpt>
      <trkpt lat="38.65241230465471744537353515625" lon="0.0434506125748157501220703125">
        <ele>34.59999847412109375</ele>
        <time>2020-03-04T17:11:44.000Z</time>
      </trkpt>
      <trkpt lat="38.65236285142600536346435546875" lon="0.04347232170403003692626953125">
        <ele>34.59999847412109375</ele>
        <time>2020-03-04T17:11:45.000Z</time>
      </trkpt>
      <trkpt lat="38.6523118056356906890869140625" lon="0.04348933696746826171875">
        <ele>34.59999847412109375</ele>
        <time>2020-03-04T17:11:46.000Z</time>
      </trkpt>
      <trkpt lat="38.65225958637893199920654296875" lon="0.04349646158516407012939453125">
        <ele>34.59999847412109375</ele>
        <time>2020-03-04T17:11:47.000Z</time>
      </trkpt>
      <trkpt lat="38.6522139050066471099853515625" lon="0.0434834696352481842041015625">
        <ele>34.59999847412109375</ele>
        <time>2020-03-04T17:11:48.000Z</time>
      </trkpt>
      <trkpt lat="38.652175180613994598388671875" lon="0.04345069639384746551513671875">
        <ele>34.40000152587890625</ele>
        <time>2020-03-04T17:11:49.000Z</time>
      </trkpt>
      <trkpt lat="38.65211709402501583099365234375" lon="0.04335950128734111785888671875">
        <ele>34.200000762939453125</ele>
        <time>2020-03-04T17:11:51.000Z</time>
      </trkpt>
      <trkpt lat="38.65209463052451610565185546875" lon="0.04331172443926334381103515625">
        <ele>34.200000762939453125</ele>
        <time>2020-03-04T17:11:52.000Z</time>
      </trkpt>
      <trkpt lat="38.65207384340465068817138671875" lon="0.0432655401527881622314453125">
        <ele>34.200000762939453125</ele>
        <time>2020-03-04T17:11:53.000Z</time>
      </trkpt>
      <trkpt lat="38.65205473266541957855224609375" lon="0.043218769133090972900390625">
        <ele>34.200000762939453125</ele>
        <time>2020-03-04T17:11:54.000Z</time>
      </trkpt>
      <trkpt lat="38.652034699916839599609375" lon="0.043171159923076629638671875">
        <ele>34.200000762939453125</ele>
        <time>2020-03-04T17:11:55.000Z</time>
      </trkpt>
      <trkpt lat="38.65196588449180126190185546875" lon="0.04302439279854297637939453125">
        <ele>34.200000762939453125</ele>
        <time>2020-03-04T17:11:58.000Z</time>
      </trkpt>
      <trkpt lat="38.6519416607916355133056640625" lon="0.0429745204746723175048828125">
        <ele>34.200000762939453125</ele>
        <time>2020-03-04T17:11:59.000Z</time>
      </trkpt>
      <trkpt lat="38.651860021054744720458984375" lon="0.042782239615917205810546875">
        <ele>34.59999847412109375</ele>
        <time>2020-03-04T17:12:03.000Z</time>
      </trkpt>
      <trkpt lat="38.65181618370115756988525390625" lon="0.04268878139555454254150390625">
        <ele>34.799999237060546875</ele>
        <time>2020-03-04T17:12:05.000Z</time>
      </trkpt>
      <trkpt lat="38.6517736874520778656005859375" lon="0.0425933115184307098388671875">
        <ele>35</ele>
        <time>2020-03-04T17:12:07.000Z</time>
      </trkpt>
      <trkpt lat="38.65173253230750560760498046875" lon="0.04249230958521366119384765625">
        <ele>35.40000152587890625</ele>
        <time>2020-03-04T17:12:09.000Z</time>
      </trkpt>
      <trkpt lat="38.65171861834824085235595703125" lon="0.04244553856551647186279296875">
        <ele>35.59999847412109375</ele>
        <time>2020-03-04T17:12:10.000Z</time>
      </trkpt>
      <trkpt lat="38.65162725560367107391357421875" lon="0.04226650111377239227294921875">
        <ele>36.200000762939453125</ele>
        <time>2020-03-04T17:12:14.000Z</time>
      </trkpt>
      <trkpt lat="38.65156757645308971405029296875" lon="0.042204558849334716796875">
        <ele>36.59999847412109375</ele>
        <time>2020-03-04T17:12:16.000Z</time>
      </trkpt>
      <trkpt lat="38.65149565972387790679931640625" lon="0.04217304289340972900390625">
        <ele>36.799999237060546875</ele>
        <time>2020-03-04T17:12:18.000Z</time>
      </trkpt>
      <trkpt lat="38.65128929726779460906982421875" lon="0.04214144311845302581787109375">
        <ele>37.59999847412109375</ele>
        <time>2020-03-04T17:12:23.000Z</time>
      </trkpt>
      <trkpt lat="38.6512057296931743621826171875" lon="0.04213490523397922515869140625">
        <ele>38.200000762939453125</ele>
        <time>2020-03-04T17:12:25.000Z</time>
      </trkpt>
      <trkpt lat="38.6509194038808345794677734375" lon="0.042104311287403106689453125">
        <ele>38.59999847412109375</ele>
        <time>2020-03-04T17:12:32.000Z</time>
      </trkpt>
      <trkpt lat="38.6508786678314208984375" lon="0.0421001203358173370361328125">
        <ele>38.799999237060546875</ele>
        <time>2020-03-04T17:12:33.000Z</time>
      </trkpt>
      <trkpt lat="38.65063819102942943572998046875" lon="0.04206039011478424072265625">
        <ele>38.799999237060546875</ele>
        <time>2020-03-04T17:12:39.000Z</time>
      </trkpt>
      <trkpt lat="38.65049351938068866729736328125" lon="0.04208528436720371246337890625">
        <ele>39.200000762939453125</ele>
        <time>2020-03-04T17:12:43.000Z</time>
      </trkpt>
      <trkpt lat="38.65040064789354801177978515625" lon="0.04216491244733333587646484375">
        <ele>39.40000152587890625</ele>
        <time>2020-03-04T17:12:46.000Z</time>
      </trkpt>
      <trkpt lat="38.6503638513386249542236328125" lon="0.04217782057821750640869140625">
        <ele>39.40000152587890625</ele>
        <time>2020-03-04T17:12:47.000Z</time>
      </trkpt>
      <trkpt lat="38.65033644251525402069091796875" lon="0.04216558299958705902099609375">
        <ele>39.59999847412109375</ele>
        <time>2020-03-04T17:12:48.000Z</time>
      </trkpt>
      <trkpt lat="38.650328479707241058349609375" lon="0.0421336479485034942626953125">
        <ele>39.59999847412109375</ele>
        <time>2020-03-04T17:12:49.000Z</time>
      </trkpt>
      <trkpt lat="38.65033610723912715911865234375" lon="0.042090900242328643798828125">
        <ele>39.59999847412109375</ele>
        <time>2020-03-04T17:12:50.000Z</time>
      </trkpt>
      <trkpt lat="38.65035270340740680694580078125" lon="0.04204924218356609344482421875">
        <ele>39.799999237060546875</ele>
        <time>2020-03-04T17:12:51.000Z</time>
      </trkpt>
      <trkpt lat="38.650370053946971893310546875" lon="0.0420099310576915740966796875">
        <ele>39.799999237060546875</ele>
        <time>2020-03-04T17:12:52.000Z</time>
      </trkpt>
      <trkpt lat="38.65042244084179401397705078125" lon="0.04188512451946735382080078125">
        <ele>39.799999237060546875</ele>
        <time>2020-03-04T17:12:55.000Z</time>
      </trkpt>
      <trkpt lat="38.65043149329721927642822265625" lon="0.04184338264167308807373046875">
        <ele>40</ele>
        <time>2020-03-04T17:12:56.000Z</time>
      </trkpt>
      <trkpt lat="38.6504133045673370361328125" lon="0.04163634963333606719970703125">
        <ele>40.200000762939453125</ele>
        <time>2020-03-04T17:13:01.000Z</time>
      </trkpt>
      <trkpt lat="38.65034549497067928314208984375" lon="0.04144138656556606292724609375">
        <ele>40.799999237060546875</ele>
        <time>2020-03-04T17:13:06.000Z</time>
      </trkpt>
      <trkpt lat="38.65031682886183261871337890625" lon="0.04126586951315402984619140625">
        <ele>41.799999237060546875</ele>
        <time>2020-03-04T17:13:11.000Z</time>
      </trkpt>
      <trkpt lat="38.65030936896800994873046875" lon="0.04119395278394222259521484375">
        <ele>42.200000762939453125</ele>
        <time>2020-03-04T17:13:13.000Z</time>
      </trkpt>
      <trkpt lat="38.65028028376400470733642578125" lon="0.0411016680300235748291015625">
        <ele>43</ele>
        <time>2020-03-04T17:13:16.000Z</time>
      </trkpt>
      <trkpt lat="38.65024675615131855010986328125" lon="0.04107140935957431793212890625">
        <ele>43.200000762939453125</ele>
        <time>2020-03-04T17:13:18.000Z</time>
      </trkpt>
      <trkpt lat="38.65015690214931964874267578125" lon="0.04105481319129467010498046875">
        <ele>44.200000762939453125</ele>
        <time>2020-03-04T17:13:21.000Z</time>
      </trkpt>
      <trkpt lat="38.650087416172027587890625" lon="0.04104785621166229248046875">
        <ele>44.59999847412109375</ele>
        <time>2020-03-04T17:13:23.000Z</time>
      </trkpt>
      <trkpt lat="38.64982883445918560028076171875" lon="0.04102346487343311309814453125">
        <ele>45.200000762939453125</ele>
        <time>2020-03-04T17:13:30.000Z</time>
      </trkpt>
      <trkpt lat="38.6497898586094379425048828125" lon="0.04101575352251529693603515625">
        <ele>45.200000762939453125</ele>
        <time>2020-03-04T17:13:31.000Z</time>
      </trkpt>
      <trkpt lat="38.64958944730460643768310546875" lon="0.04098759032785892486572265625">
        <ele>45.40000152587890625</ele>
        <time>2020-03-04T17:13:36.000Z</time>
      </trkpt>
      <trkpt lat="38.64921729080379009246826171875" lon="0.0409387238323688507080078125">
        <ele>45.799999237060546875</ele>
        <time>2020-03-04T17:13:45.000Z</time>
      </trkpt>
      <trkpt lat="38.6489499919116497039794921875" lon="0.04081718623638153076171875">
        <ele>46.200000762939453125</ele>
        <time>2020-03-04T17:13:52.000Z</time>
      </trkpt>
      <trkpt lat="38.64891059696674346923828125" lon="0.04080109298229217529296875">
        <ele>46.200000762939453125</ele>
        <time>2020-03-04T17:13:53.000Z</time>
      </trkpt>
      <trkpt lat="38.648689649999141693115234375" lon="0.0407073833048343658447265625">
        <ele>46.40000152587890625</ele>
        <time>2020-03-04T17:13:58.000Z</time>
      </trkpt>
      <trkpt lat="38.64858915098011493682861328125" lon="0.04066857509315013885498046875">
        <ele>46.40000152587890625</ele>
        <time>2020-03-04T17:14:00.000Z</time>
      </trkpt>
      <trkpt lat="38.64854003302752971649169921875" lon="0.0406430102884769439697265625">
        <ele>46.40000152587890625</ele>
        <time>2020-03-04T17:14:01.000Z</time>
      </trkpt>
      <trkpt lat="38.648426793515682220458984375" lon="0.04051099531352519989013671875">
        <ele>46.200000762939453125</ele>
        <time>2020-03-04T17:14:04.000Z</time>
      </trkpt>
      <trkpt lat="38.6482836306095123291015625" lon="0.0403737835586071014404296875">
        <ele>46.200000762939453125</ele>
        <time>2020-03-04T17:14:08.000Z</time>
      </trkpt>
      <trkpt lat="38.6481307446956634521484375" lon="0.04024612717330455780029296875">
        <ele>46.200000762939453125</ele>
        <time>2020-03-04T17:14:13.000Z</time>
      </trkpt>
      <trkpt lat="38.64810216240584850311279296875" lon="0.04021913744509220123291015625">
        <ele>46.200000762939453125</ele>
        <time>2020-03-04T17:14:14.000Z</time>
      </trkpt>
      <trkpt lat="38.6479391343891620635986328125" lon="0.04007756710052490234375">
        <ele>46.799999237060546875</ele>
        <time>2020-03-04T17:14:19.000Z</time>
      </trkpt>
      <trkpt lat="38.647917844355106353759765625" lon="0.04003775306046009063720703125">
        <ele>46.799999237060546875</ele>
        <time>2020-03-04T17:14:20.000Z</time>
      </trkpt>
      <trkpt lat="38.64789345301687717437744140625" lon="0.03988671116530895233154296875">
        <ele>47</ele>
        <time>2020-03-04T17:14:23.000Z</time>
      </trkpt>
      <trkpt lat="38.64789932034909725189208984375" lon="0.0398353300988674163818359375">
        <ele>47</ele>
        <time>2020-03-04T17:14:24.000Z</time>
      </trkpt>
      <trkpt lat="38.64792086184024810791015625" lon="0.039747655391693115234375">
        <ele>46.799999237060546875</ele>
        <time>2020-03-04T17:14:26.000Z</time>
      </trkpt>
      <trkpt lat="38.64793821237981319427490234375" lon="0.0396645069122314453125">
        <ele>47</ele>
        <time>2020-03-04T17:14:28.000Z</time>
      </trkpt>
      <trkpt lat="38.64794592373073101043701171875" lon="0.0396200828254222869873046875">
        <ele>47</ele>
        <time>2020-03-04T17:14:29.000Z</time>
      </trkpt>
      <trkpt lat="38.64796109497547149658203125" lon="0.0394383631646633148193359375">
        <ele>47.200000762939453125</ele>
        <time>2020-03-04T17:14:33.000Z</time>
      </trkpt>
      <trkpt lat="38.6479615978896617889404296875" lon="0.03940307535231113433837890625">
        <ele>47.40000152587890625</ele>
        <time>2020-03-04T17:14:34.000Z</time>
      </trkpt>
      <trkpt lat="38.64796243607997894287109375" lon="0.03936736844480037689208984375">
        <ele>47.40000152587890625</ele>
        <time>2020-03-04T17:14:35.000Z</time>
      </trkpt>
      <trkpt lat="38.647960089147090911865234375" lon="0.0392930209636688232421875">
        <ele>47.799999237060546875</ele>
        <time>2020-03-04T17:14:37.000Z</time>
      </trkpt>
      <trkpt lat="38.64796453155577182769775390625" lon="0.03919017501175403594970703125">
        <ele>47.799999237060546875</ele>
        <time>2020-03-04T17:14:40.000Z</time>
      </trkpt>
      <trkpt lat="38.64796704612672328948974609375" lon="0.03915664739906787872314453125">
        <ele>48.59999847412109375</ele>
        <time>2020-03-04T17:14:41.000Z</time>
      </trkpt>
      <trkpt lat="38.6479724943637847900390625" lon="0.0390936993062496185302734375">
        <ele>49.59999847412109375</ele>
        <time>2020-03-04T17:14:43.000Z</time>
      </trkpt>
      <trkpt lat="38.64796671085059642791748046875" lon="0.0389604270458221435546875">
        <ele>51</ele>
        <time>2020-03-04T17:14:47.000Z</time>
      </trkpt>
      <trkpt lat="38.6479961313307285308837890625" lon="0.03879521973431110382080078125">
        <ele>52.200000762939453125</ele>
        <time>2020-03-04T17:14:52.000Z</time>
      </trkpt>
      <trkpt lat="38.6480541341006755828857421875" lon="0.03861065022647380828857421875">
        <ele>53</ele>
        <time>2020-03-04T17:14:58.000Z</time>
      </trkpt>
      <trkpt lat="38.64807265810668468475341796875" lon="0.03855030052363872528076171875">
        <ele>53.200000762939453125</ele>
        <time>2020-03-04T17:15:00.000Z</time>
      </trkpt>
      <trkpt lat="38.64810836501419544219970703125" lon="0.03839389421045780181884765625">
        <ele>54.200000762939453125</ele>
        <time>2020-03-04T17:15:06.000Z</time>
      </trkpt>
      <trkpt lat="38.64811188541352748870849609375" lon="0.0383676588535308837890625">
        <ele>54.40000152587890625</ele>
        <time>2020-03-04T17:15:07.000Z</time>
      </trkpt>
      <trkpt lat="38.64813384599983692169189453125" lon="0.03826866857707500457763671875">
        <ele>55.40000152587890625</ele>
        <time>2020-03-04T17:15:11.000Z</time>
      </trkpt>
      <trkpt lat="38.64818262867629528045654296875" lon="0.03816640935838222503662109375">
        <ele>56.59999847412109375</ele>
        <time>2020-03-04T17:15:16.000Z</time>
      </trkpt>
      <trkpt lat="38.64825085736811161041259765625" lon="0.03805107437074184417724609375">
        <ele>57.59999847412109375</ele>
        <time>2020-03-04T17:15:22.000Z</time>
      </trkpt>
      <trkpt lat="38.648271225392818450927734375" lon="0.0380094163119792938232421875">
        <ele>57.799999237060546875</ele>
        <time>2020-03-04T17:15:24.000Z</time>
      </trkpt>
      <trkpt lat="38.64833551459014415740966796875" lon="0.03789315931499004364013671875">
        <ele>58.799999237060546875</ele>
        <time>2020-03-04T17:15:30.000Z</time>
      </trkpt>
      <trkpt lat="38.64834004081785678863525390625" lon="0.037872791290283203125">
        <ele>59</ele>
        <time>2020-03-04T17:15:31.000Z</time>
      </trkpt>
      <trkpt lat="38.64834724925458431243896484375" lon="0.03778872080147266387939453125">
        <ele>59.799999237060546875</ele>
        <time>2020-03-04T17:15:35.000Z</time>
      </trkpt>
      <trkpt lat="38.6483582295477390289306640625" lon="0.037719570100307464599609375">
        <ele>60.59999847412109375</ele>
        <time>2020-03-04T17:15:38.000Z</time>
      </trkpt>
      <trkpt lat="38.64836635999381542205810546875" lon="0.0376729667186737060546875">
        <ele>61</ele>
        <time>2020-03-04T17:15:40.000Z</time>
      </trkpt>
      <trkpt lat="38.64837256260216236114501953125" lon="0.03759979270398616790771484375">
        <ele>62</ele>
        <time>2020-03-04T17:15:43.000Z</time>
      </trkpt>
      <trkpt lat="38.64837826229631900787353515625" lon="0.0375480763614177703857421875">
        <ele>62.59999847412109375</ele>
        <time>2020-03-04T17:15:45.000Z</time>
      </trkpt>
      <trkpt lat="38.64839695394039154052734375" lon="0.03747247159481048583984375">
        <ele>63</ele>
        <time>2020-03-04T17:15:48.000Z</time>
      </trkpt>
      <trkpt lat="38.64842536859214305877685546875" lon="0.03737532533705234527587890625">
        <ele>63.799999237060546875</ele>
        <time>2020-03-04T17:15:52.000Z</time>
      </trkpt>
      <trkpt lat="38.6484363488852977752685546875" lon="0.03735604695975780487060546875">
        <ele>64</ele>
        <time>2020-03-04T17:15:53.000Z</time>
      </trkpt>
      <trkpt lat="38.64848873578011989593505859375" lon="0.037263929843902587890625">
        <ele>65.1999969482421875</ele>
        <time>2020-03-04T17:15:58.000Z</time>
      </trkpt>
      <trkpt lat="38.6485412903130054473876953125" lon="0.03719754517078399658203125">
        <ele>66.1999969482421875</ele>
        <time>2020-03-04T17:16:01.000Z</time>
      </trkpt>
      <trkpt lat="38.64860775880515575408935546875" lon="0.03710978664457798004150390625">
        <ele>67.1999969482421875</ele>
        <time>2020-03-04T17:16:04.000Z</time>
      </trkpt>
      <trkpt lat="38.64863106049597263336181640625" lon="0.03708547912538051605224609375">
        <ele>67.40000152587890625</ele>
        <time>2020-03-04T17:16:05.000Z</time>
      </trkpt>
      <trkpt lat="38.64878159947693347930908203125" lon="0.03698942251503467559814453125">
        <ele>67.8000030517578125</ele>
        <time>2020-03-04T17:16:11.000Z</time>
      </trkpt>
      <trkpt lat="38.64892073906958103179931640625" lon="0.03686972893774509429931640625">
        <ele>68.40000152587890625</ele>
        <time>2020-03-04T17:16:17.000Z</time>
      </trkpt>
      <trkpt lat="38.6489426158368587493896484375" lon="0.03684491850435733795166015625">
        <ele>68.59999847412109375</ele>
        <time>2020-03-04T17:16:18.000Z</time>
      </trkpt>
      <trkpt lat="38.64907580427825450897216796875" lon="0.03672136925160884857177734375">
        <ele>69.40000152587890625</ele>
        <time>2020-03-04T17:16:24.000Z</time>
      </trkpt>
      <trkpt lat="38.649099357426166534423828125" lon="0.03672556020319461822509765625">
        <ele>69.8000030517578125</ele>
        <time>2020-03-04T17:16:25.000Z</time>
      </trkpt>
      <trkpt lat="38.64912224002182483673095703125" lon="0.036730505526065826416015625">
        <ele>69.8000030517578125</ele>
        <time>2020-03-04T17:16:26.000Z</time>
      </trkpt>
    </trkseg>
  </trk>
</gpx>
